<?xml version='1.0' encoding='UTF-8'?><gpx version="1.1" creator="JPX - https://github.com/jenetics/jpx" xmlns="http://www.topografix.com/GPX/1/1"><trk><trkseg><trkpt lat="44.755785" lon="12.2319533"><ele>0.9999999999999999</ele><time>2026-04-12T12:25:42.303Z</time></trkpt><trkpt lat="44.7558483" lon="12.231835"><ele>1.0</ele><time>2026-04-12T12:25:44.303Z</time></trkpt><trkpt lat="44.75589" lon="12.231735"><ele>1.0</ele><time>2026-04-12T12:25:46.303Z</time></trkpt><trkpt lat="44.7558917" lon="12.2316383"><ele>1.0</ele><time>2026-04-12T12:25:48.303Z</time></trkpt><trkpt lat="44.7558433" lon="12.2315383"><ele>0.9999999999999999</ele><time>2026-04-12T12:25:51.303Z</time></trkpt><trkpt lat="44.755795" lon="12.231465"><ele>1.0</ele><time>2026-04-12T12:25:55.303Z</time></trkpt><trkpt lat="44.7558217" lon="12.2313333"><ele>1.0</ele><time>2026-04-12T12:25:58.304Z</time></trkpt><trkpt lat="44.7558717" lon="12.2312383"><ele>1.0</ele><time>2026-04-12T12:25:59.303Z</time></trkpt><trkpt lat="44.7559367" lon="12.23113"><ele>1.0</ele><time>2026-04-12T12:26:00.303Z</time></trkpt><trkpt lat="44.75601" lon="12.231035"><ele>1.0</ele><time>2026-04-12T12:26:01.303Z</time></trkpt><trkpt lat="44.7560883" lon="12.2309517"><ele>1.0</ele><time>2026-04-12T12:26:02.304Z</time></trkpt><trkpt lat="44.7561683" lon="12.23087"><ele>0.75</ele><time>2026-04-12T12:26:03.303Z</time></trkpt><trkpt lat="44.756265" lon="12.2307933"><ele>0.5</ele><time>2026-04-12T12:26:04.303Z</time></trkpt><trkpt lat="44.756375" lon="12.2307233"><ele>0.25</ele><time>2026-04-12T12:26:05.303Z</time></trkpt><trkpt lat="44.7564983" lon="12.2306633"><ele>0.0</ele><time>2026-04-12T12:26:06.303Z</time></trkpt><trkpt lat="44.7566283" lon="12.23062"><ele>0.0</ele><time>2026-04-12T12:26:07.303Z</time></trkpt><trkpt lat="44.7567733" lon="12.2305817"><ele>0.0</ele><time>2026-04-12T12:26:08.303Z</time></trkpt><trkpt lat="44.7569167" lon="12.2305517"><ele>0.0</ele><time>2026-04-12T12:26:09.303Z</time></trkpt><trkpt lat="44.75704" lon="12.2305367"><ele>0.0</ele><time>2026-04-12T12:26:10.303Z</time></trkpt><trkpt lat="44.7571617" lon="12.2305483"><ele>0.25</ele><time>2026-04-12T12:26:11.303Z</time></trkpt><trkpt lat="44.7572683" lon="12.2305517"><ele>0.5</ele><time>2026-04-12T12:26:12.304Z</time></trkpt><trkpt lat="44.75738" lon="12.2305783"><ele>0.75</ele><time>2026-04-12T12:26:13.303Z</time></trkpt><trkpt lat="44.7574933" lon="12.2306117"><ele>1.0</ele><time>2026-04-12T12:26:14.303Z</time></trkpt><trkpt lat="44.75761" lon="12.2306367"><ele>0.75</ele><time>2026-04-12T12:26:15.303Z</time></trkpt><trkpt lat="44.7577383" lon="12.2306617"><ele>0.5</ele><time>2026-04-12T12:26:16.304Z</time></trkpt><trkpt lat="44.75786" lon="12.2306767"><ele>0.25</ele><time>2026-04-12T12:26:17.303Z</time></trkpt><trkpt lat="44.7579717" lon="12.2306667"><ele>0.0</ele><time>2026-04-12T12:26:18.304Z</time></trkpt><trkpt lat="44.7580733" lon="12.2306633"><ele>0.0</ele><time>2026-04-12T12:26:19.303Z</time></trkpt><trkpt lat="44.758165" lon="12.2306583"><ele>0.0</ele><time>2026-04-12T12:26:20.304Z</time></trkpt><trkpt lat="44.7582467" lon="12.2306467"><ele>0.0</ele><time>2026-04-12T12:26:21.304Z</time></trkpt><trkpt lat="44.7583183" lon="12.2306283"><ele>0.0</ele><time>2026-04-12T12:26:22.303Z</time></trkpt><trkpt lat="44.75843" lon="12.2305667"><ele>0.0</ele><time>2026-04-12T12:26:24.303Z</time></trkpt><trkpt lat="44.7584933" lon="12.2304833"><ele>0.2</ele><time>2026-04-12T12:26:26.303Z</time></trkpt><trkpt lat="44.75853" lon="12.2303817"><ele>0.4</ele><time>2026-04-12T12:26:29.303Z</time></trkpt><trkpt lat="44.7585467" lon="12.2302817"><ele>0.6000000000000001</ele><time>2026-04-12T12:26:34.303Z</time></trkpt><trkpt lat="44.7586017" lon="12.2301017"><ele>0.8</ele><time>2026-04-12T12:26:36.303Z</time></trkpt><trkpt lat="44.7586417" lon="12.2299717"><ele>1.0</ele><time>2026-04-12T12:26:37.303Z</time></trkpt><trkpt lat="44.7586783" lon="12.229835"><ele>1.25</ele><time>2026-04-12T12:26:38.303Z</time></trkpt><trkpt lat="44.7587233" lon="12.229685"><ele>1.5</ele><time>2026-04-12T12:26:39.304Z</time></trkpt><trkpt lat="44.75877" lon="12.22952"><ele>1.75</ele><time>2026-04-12T12:26:40.303Z</time></trkpt><trkpt lat="44.7588133" lon="12.2293567"><ele>2.0</ele><time>2026-04-12T12:26:41.304Z</time></trkpt><trkpt lat="44.7588617" lon="12.22919"><ele>2.0</ele><time>2026-04-12T12:26:42.304Z</time></trkpt><trkpt lat="44.758915" lon="12.2290283"><ele>2.0</ele><time>2026-04-12T12:26:43.303Z</time></trkpt><trkpt lat="44.758965" lon="12.2288633"><ele>2.0</ele><time>2026-04-12T12:26:44.303Z</time></trkpt><trkpt lat="44.7590233" lon="12.2286967"><ele>2.0</ele><time>2026-04-12T12:26:45.303Z</time></trkpt><trkpt lat="44.7590933" lon="12.2285033"><ele>1.6666666666666665</ele><time>2026-04-12T12:26:46.304Z</time></trkpt><trkpt lat="44.759165" lon="12.2282967"><ele>1.3333333333333333</ele><time>2026-04-12T12:26:47.303Z</time></trkpt><trkpt lat="44.759235" lon="12.2280683"><ele>1.0</ele><time>2026-04-12T12:26:48.303Z</time></trkpt><trkpt lat="44.7593117" lon="12.2278417"><ele>-0.33333333333333337</ele><time>2026-04-12T12:26:49.304Z</time></trkpt><trkpt lat="44.7593867" lon="12.2276033"><ele>-1.6666666666666667</ele><time>2026-04-12T12:26:50.303Z</time></trkpt><trkpt lat="44.759465" lon="12.2273817"><ele>-3.0</ele><time>2026-04-12T12:26:51.303Z</time></trkpt><trkpt lat="44.7595317" lon="12.2271783"><ele>-3.5</ele><time>2026-04-12T12:26:52.303Z</time></trkpt><trkpt lat="44.75959" lon="12.226985"><ele>-4.0</ele><time>2026-04-12T12:26:53.303Z</time></trkpt><trkpt lat="44.7596417" lon="12.226805"><ele>-4.5</ele><time>2026-04-12T12:26:54.303Z</time></trkpt><trkpt lat="44.759695" lon="12.2266283"><ele>-5.0</ele><time>2026-04-12T12:26:55.303Z</time></trkpt><trkpt lat="44.7597533" lon="12.226435"><ele>-5.0</ele><time>2026-04-12T12:26:56.304Z</time></trkpt><trkpt lat="44.7598083" lon="12.22623"><ele>-5.0</ele><time>2026-04-12T12:26:57.303Z</time></trkpt><trkpt lat="44.7598367" lon="12.226015"><ele>-5.0</ele><time>2026-04-12T12:26:58.303Z</time></trkpt><trkpt lat="44.7598467" lon="12.2257917"><ele>-4.0</ele><time>2026-04-12T12:26:59.303Z</time></trkpt><trkpt lat="44.7598617" lon="12.2255783"><ele>-3.0</ele><time>2026-04-12T12:27:00.304Z</time></trkpt><trkpt lat="44.7598767" lon="12.225355"><ele>-2.0</ele><time>2026-04-12T12:27:01.303Z</time></trkpt><trkpt lat="44.7598933" lon="12.2251367"><ele>-2.0</ele><time>2026-04-12T12:27:02.303Z</time></trkpt><trkpt lat="44.7598983" lon="12.2249267"><ele>-2.0</ele><time>2026-04-12T12:27:03.304Z</time></trkpt><trkpt lat="44.759915" lon="12.2247117"><ele>-2.0</ele><time>2026-04-12T12:27:04.303Z</time></trkpt><trkpt lat="44.7599283" lon="12.2244917"><ele>-2.0</ele><time>2026-04-12T12:27:05.304Z</time></trkpt><trkpt lat="44.759945" lon="12.2242583"><ele>-2.0</ele><time>2026-04-12T12:27:06.303Z</time></trkpt><trkpt lat="44.7599633" lon="12.224025"><ele>-2.0</ele><time>2026-04-12T12:27:07.304Z</time></trkpt><trkpt lat="44.75997" lon="12.2237933"><ele>-2.0</ele><time>2026-04-12T12:27:08.303Z</time></trkpt><trkpt lat="44.7599817" lon="12.2235483"><ele>-2.0</ele><time>2026-04-12T12:27:09.303Z</time></trkpt><trkpt lat="44.7599983" lon="12.2233033"><ele>-2.0</ele><time>2026-04-12T12:27:10.303Z</time></trkpt><trkpt lat="44.76002" lon="12.22304"><ele>-2.0</ele><time>2026-04-12T12:27:11.303Z</time></trkpt><trkpt lat="44.7600333" lon="12.222785"><ele>-2.0</ele><time>2026-04-12T12:27:12.304Z</time></trkpt><trkpt lat="44.7600533" lon="12.222515"><ele>-2.0</ele><time>2026-04-12T12:27:13.303Z</time></trkpt><trkpt lat="44.7600717" lon="12.2222283"><ele>-2.0</ele><time>2026-04-12T12:27:14.303Z</time></trkpt><trkpt lat="44.7600883" lon="12.2219183"><ele>-2.0</ele><time>2026-04-12T12:27:15.304Z</time></trkpt><trkpt lat="44.760105" lon="12.2216"><ele>-2.0</ele><time>2026-04-12T12:27:16.304Z</time></trkpt><trkpt lat="44.7601333" lon="12.22126"><ele>-2.0</ele><time>2026-04-12T12:27:17.302Z</time></trkpt><trkpt lat="44.7601533" lon="12.2209183"><ele>-2.0</ele><time>2026-04-12T12:27:18.302Z</time></trkpt><trkpt lat="44.760175" lon="12.2205683"><ele>-2.0</ele><time>2026-04-12T12:27:19.302Z</time></trkpt><trkpt lat="44.760195" lon="12.2202267"><ele>-2.0</ele><time>2026-04-12T12:27:20.303Z</time></trkpt><trkpt lat="44.76021" lon="12.219895"><ele>-2.6666666666666665</ele><time>2026-04-12T12:27:21.302Z</time></trkpt><trkpt lat="44.7602333" lon="12.2195833"><ele>-3.333333333333333</ele><time>2026-04-12T12:27:22.302Z</time></trkpt><trkpt lat="44.760255" lon="12.21928"><ele>-4.0</ele><time>2026-04-12T12:27:23.303Z</time></trkpt><trkpt lat="44.76027" lon="12.2189833"><ele>-4.0</ele><time>2026-04-12T12:27:24.302Z</time></trkpt><trkpt lat="44.760285" lon="12.218685"><ele>-4.0</ele><time>2026-04-12T12:27:25.302Z</time></trkpt><trkpt lat="44.7603017" lon="12.2183867"><ele>-4.0</ele><time>2026-04-12T12:27:26.302Z</time></trkpt><trkpt lat="44.7603233" lon="12.218095"><ele>-4.0</ele><time>2026-04-12T12:27:27.302Z</time></trkpt><trkpt lat="44.7603417" lon="12.217805"><ele>-4.0</ele><time>2026-04-12T12:27:28.302Z</time></trkpt><trkpt lat="44.7603567" lon="12.217515"><ele>-4.0</ele><time>2026-04-12T12:27:29.303Z</time></trkpt><trkpt lat="44.7603767" lon="12.2172233"><ele>-3.6666666666666665</ele><time>2026-04-12T12:27:30.302Z</time></trkpt><trkpt lat="44.7603983" lon="12.2169267"><ele>-3.333333333333333</ele><time>2026-04-12T12:27:31.303Z</time></trkpt><trkpt lat="44.7604183" lon="12.2166367"><ele>-3.0</ele><time>2026-04-12T12:27:32.302Z</time></trkpt><trkpt lat="44.76044" lon="12.216345"><ele>-3.0</ele><time>2026-04-12T12:27:33.302Z</time></trkpt><trkpt lat="44.76046" lon="12.2160383"><ele>-3.0</ele><time>2026-04-12T12:27:34.302Z</time></trkpt><trkpt lat="44.7604767" lon="12.2157267"><ele>-3.0</ele><time>2026-04-12T12:27:35.303Z</time></trkpt><trkpt lat="44.7604917" lon="12.215405"><ele>-3.5</ele><time>2026-04-12T12:27:36.302Z</time></trkpt><trkpt lat="44.7605067" lon="12.2150767"><ele>-4.0</ele><time>2026-04-12T12:27:37.303Z</time></trkpt><trkpt lat="44.7605283" lon="12.21475"><ele>-4.0</ele><time>2026-04-12T12:27:38.302Z</time></trkpt><trkpt lat="44.7605517" lon="12.2144217"><ele>-4.0</ele><time>2026-04-12T12:27:39.302Z</time></trkpt><trkpt lat="44.7605683" lon="12.2141067"><ele>-3.6666666666666665</ele><time>2026-04-12T12:27:40.302Z</time></trkpt><trkpt lat="44.76059" lon="12.2138067"><ele>-3.333333333333333</ele><time>2026-04-12T12:27:41.302Z</time></trkpt><trkpt lat="44.7606067" lon="12.2135117"><ele>-3.0</ele><time>2026-04-12T12:27:42.302Z</time></trkpt><trkpt lat="44.760625" lon="12.2132167"><ele>-2.6666666666666665</ele><time>2026-04-12T12:27:43.302Z</time></trkpt><trkpt lat="44.7606417" lon="12.212925"><ele>-2.333333333333333</ele><time>2026-04-12T12:27:44.302Z</time></trkpt><trkpt lat="44.7606633" lon="12.212625"><ele>-2.0</ele><time>2026-04-12T12:27:45.302Z</time></trkpt><trkpt lat="44.7606867" lon="12.2123183"><ele>-2.0</ele><time>2026-04-12T12:27:46.302Z</time></trkpt><trkpt lat="44.7607083" lon="12.21202"><ele>-2.0</ele><time>2026-04-12T12:27:47.302Z</time></trkpt><trkpt lat="44.7607233" lon="12.2117217"><ele>-2.0</ele><time>2026-04-12T12:27:48.303Z</time></trkpt><trkpt lat="44.7607417" lon="12.21142"><ele>-1.6666666666666665</ele><time>2026-04-12T12:27:49.303Z</time></trkpt><trkpt lat="44.7607583" lon="12.211115"><ele>-1.3333333333333333</ele><time>2026-04-12T12:27:50.302Z</time></trkpt><trkpt lat="44.7607683" lon="12.2108083"><ele>-1.0</ele><time>2026-04-12T12:27:51.302Z</time></trkpt><trkpt lat="44.7607933" lon="12.21049"><ele>-1.0</ele><time>2026-04-12T12:27:52.302Z</time></trkpt><trkpt lat="44.7608133" lon="12.2101767"><ele>-1.0</ele><time>2026-04-12T12:27:53.302Z</time></trkpt><trkpt lat="44.7608333" lon="12.2098633"><ele>-1.0</ele><time>2026-04-12T12:27:54.302Z</time></trkpt><trkpt lat="44.7608517" lon="12.2095517"><ele>-1.3333333333333333</ele><time>2026-04-12T12:27:55.303Z</time></trkpt><trkpt lat="44.7608733" lon="12.2092367"><ele>-1.6666666666666665</ele><time>2026-04-12T12:27:56.302Z</time></trkpt><trkpt lat="44.7608917" lon="12.2089217"><ele>-2.0</ele><time>2026-04-12T12:27:57.303Z</time></trkpt><trkpt lat="44.7609117" lon="12.2086033"><ele>-2.5</ele><time>2026-04-12T12:27:58.302Z</time></trkpt><trkpt lat="44.76093" lon="12.208285"><ele>-3.0</ele><time>2026-04-12T12:27:59.302Z</time></trkpt><trkpt lat="44.7609517" lon="12.2079633"><ele>-3.0</ele><time>2026-04-12T12:28:00.302Z</time></trkpt><trkpt lat="44.7609733" lon="12.20763"><ele>-3.0</ele><time>2026-04-12T12:28:01.302Z</time></trkpt><trkpt lat="44.7609917" lon="12.2072817"><ele>-3.0</ele><time>2026-04-12T12:28:02.303Z</time></trkpt><trkpt lat="44.76101" lon="12.2069333"><ele>-3.0</ele><time>2026-04-12T12:28:03.302Z</time></trkpt><trkpt lat="44.761035" lon="12.2065783"><ele>-3.0</ele><time>2026-04-12T12:28:04.303Z</time></trkpt><trkpt lat="44.7610583" lon="12.206215"><ele>-3.0</ele><time>2026-04-12T12:28:05.302Z</time></trkpt><trkpt lat="44.7610867" lon="12.2058433"><ele>-3.0</ele><time>2026-04-12T12:28:06.302Z</time></trkpt><trkpt lat="44.761115" lon="12.205485"><ele>-3.0</ele><time>2026-04-12T12:28:07.302Z</time></trkpt><trkpt lat="44.7611367" lon="12.2051517"><ele>-3.0</ele><time>2026-04-12T12:28:08.303Z</time></trkpt><trkpt lat="44.76115" lon="12.2048417"><ele>-3.0</ele><time>2026-04-12T12:28:09.303Z</time></trkpt><trkpt lat="44.7611683" lon="12.20454"><ele>-3.0</ele><time>2026-04-12T12:28:10.303Z</time></trkpt><trkpt lat="44.7611833" lon="12.2042367"><ele>-2.6666666666666665</ele><time>2026-04-12T12:28:11.302Z</time></trkpt><trkpt lat="44.761205" lon="12.20393"><ele>-2.333333333333333</ele><time>2026-04-12T12:28:12.302Z</time></trkpt><trkpt lat="44.7612217" lon="12.2036267"><ele>-2.0</ele><time>2026-04-12T12:28:13.302Z</time></trkpt><trkpt lat="44.7612383" lon="12.203325"><ele>-2.333333333333333</ele><time>2026-04-12T12:28:14.302Z</time></trkpt><trkpt lat="44.7612583" lon="12.2030233"><ele>-2.6666666666666665</ele><time>2026-04-12T12:28:15.302Z</time></trkpt><trkpt lat="44.76128" lon="12.202725"><ele>-3.0</ele><time>2026-04-12T12:28:16.302Z</time></trkpt><trkpt lat="44.7613033" lon="12.202425"><ele>-2.6666666666666665</ele><time>2026-04-12T12:28:17.302Z</time></trkpt><trkpt lat="44.7613217" lon="12.2021317"><ele>-2.333333333333333</ele><time>2026-04-12T12:28:18.302Z</time></trkpt><trkpt lat="44.7613367" lon="12.2018317"><ele>-2.0</ele><time>2026-04-12T12:28:19.302Z</time></trkpt><trkpt lat="44.7613583" lon="12.2015267"><ele>-2.5</ele><time>2026-04-12T12:28:20.302Z</time></trkpt><trkpt lat="44.76138" lon="12.2012117"><ele>-3.0</ele><time>2026-04-12T12:28:21.302Z</time></trkpt><trkpt lat="44.7614017" lon="12.2008833"><ele>-2.5</ele><time>2026-04-12T12:28:22.302Z</time></trkpt><trkpt lat="44.7614217" lon="12.2005233"><ele>-2.0</ele><time>2026-04-12T12:28:23.303Z</time></trkpt><trkpt lat="44.76144" lon="12.20014"><ele>-1.5</ele><time>2026-04-12T12:28:24.302Z</time></trkpt><trkpt lat="44.76146" lon="12.1997633"><ele>-1.0</ele><time>2026-04-12T12:28:25.303Z</time></trkpt><trkpt lat="44.7614817" lon="12.1994083"><ele>-1.0</ele><time>2026-04-12T12:28:26.303Z</time></trkpt><trkpt lat="44.7615083" lon="12.199055"><ele>-1.0</ele><time>2026-04-12T12:28:27.302Z</time></trkpt><trkpt lat="44.7615317" lon="12.1987067"><ele>-1.5</ele><time>2026-04-12T12:28:28.302Z</time></trkpt><trkpt lat="44.761555" lon="12.1983567"><ele>-2.0</ele><time>2026-04-12T12:28:29.302Z</time></trkpt><trkpt lat="44.761575" lon="12.1979917"><ele>-2.0</ele><time>2026-04-12T12:28:30.302Z</time></trkpt><trkpt lat="44.7615917" lon="12.1976017"><ele>-2.0</ele><time>2026-04-12T12:28:31.302Z</time></trkpt><trkpt lat="44.76161" lon="12.1971917"><ele>-2.0</ele><time>2026-04-12T12:28:32.302Z</time></trkpt><trkpt lat="44.761635" lon="12.1967967"><ele>-2.0</ele><time>2026-04-12T12:28:33.302Z</time></trkpt><trkpt lat="44.7616583" lon="12.1964217"><ele>-2.0</ele><time>2026-04-12T12:28:34.302Z</time></trkpt><trkpt lat="44.7616833" lon="12.1960733"><ele>-2.0</ele><time>2026-04-12T12:28:35.303Z</time></trkpt><trkpt lat="44.761715" lon="12.195745"><ele>-2.333333333333333</ele><time>2026-04-12T12:28:36.302Z</time></trkpt><trkpt lat="44.7617383" lon="12.19543"><ele>-2.6666666666666665</ele><time>2026-04-12T12:28:37.302Z</time></trkpt><trkpt lat="44.7617667" lon="12.1951283"><ele>-3.0</ele><time>2026-04-12T12:28:38.303Z</time></trkpt><trkpt lat="44.7617883" lon="12.1948433"><ele>-2.6666666666666665</ele><time>2026-04-12T12:28:39.302Z</time></trkpt><trkpt lat="44.7618017" lon="12.19459"><ele>-2.333333333333333</ele><time>2026-04-12T12:28:40.302Z</time></trkpt><trkpt lat="44.7618117" lon="12.19436"><ele>-2.0</ele><time>2026-04-12T12:28:41.302Z</time></trkpt><trkpt lat="44.7618267" lon="12.19415"><ele>-2.0</ele><time>2026-04-12T12:28:42.302Z</time></trkpt><trkpt lat="44.7618433" lon="12.1939517"><ele>-2.0</ele><time>2026-04-12T12:28:43.302Z</time></trkpt><trkpt lat="44.7618533" lon="12.193765"><ele>-2.0</ele><time>2026-04-12T12:28:44.303Z</time></trkpt><trkpt lat="44.7618633" lon="12.1935833"><ele>-2.0</ele><time>2026-04-12T12:28:45.302Z</time></trkpt><trkpt lat="44.761875" lon="12.1934083"><ele>-1.8</ele><time>2026-04-12T12:28:46.302Z</time></trkpt><trkpt lat="44.7618867" lon="12.193245"><ele>-1.6</ele><time>2026-04-12T12:28:47.302Z</time></trkpt><trkpt lat="44.761895" lon="12.1930917"><ele>-1.4000000000000001</ele><time>2026-04-12T12:28:48.302Z</time></trkpt><trkpt lat="44.7618983" lon="12.1929483"><ele>-1.2000000000000002</ele><time>2026-04-12T12:28:49.303Z</time></trkpt><trkpt lat="44.7619083" lon="12.1928067"><ele>-1.0</ele><time>2026-04-12T12:28:50.302Z</time></trkpt><trkpt lat="44.76192" lon="12.1926783"><ele>-1.0</ele><time>2026-04-12T12:28:51.303Z</time></trkpt><trkpt lat="44.7619283" lon="12.1925683"><ele>-1.0</ele><time>2026-04-12T12:28:52.303Z</time></trkpt><trkpt lat="44.7619367" lon="12.1924167"><ele>-1.0</ele><time>2026-04-12T12:28:54.302Z</time></trkpt><trkpt lat="44.7619533" lon="12.1923133"><ele>-1.0</ele><time>2026-04-12T12:28:56.302Z</time></trkpt><trkpt lat="44.7620017" lon="12.192215"><ele>-1.0</ele><time>2026-04-12T12:28:58.302Z</time></trkpt><trkpt lat="44.7621183" lon="12.1921283"><ele>-0.5</ele><time>2026-04-12T12:29:00.303Z</time></trkpt><trkpt lat="44.7622067" lon="12.1920883"><ele>0.0</ele><time>2026-04-12T12:29:01.303Z</time></trkpt><trkpt lat="44.76231" lon="12.19205"><ele>0.5</ele><time>2026-04-12T12:29:02.303Z</time></trkpt><trkpt lat="44.762425" lon="12.191995"><ele>1.0</ele><time>2026-04-12T12:29:03.302Z</time></trkpt><trkpt lat="44.7625517" lon="12.191935"><ele>1.0</ele><time>2026-04-12T12:29:04.302Z</time></trkpt><trkpt lat="44.7626867" lon="12.191865"><ele>1.0</ele><time>2026-04-12T12:29:05.303Z</time></trkpt><trkpt lat="44.7628283" lon="12.1917917"><ele>1.0</ele><time>2026-04-12T12:29:06.302Z</time></trkpt><trkpt lat="44.76297" lon="12.1917217"><ele>1.0</ele><time>2026-04-12T12:29:07.303Z</time></trkpt><trkpt lat="44.7631183" lon="12.191645"><ele>0.3333333333333333</ele><time>2026-04-12T12:29:08.303Z</time></trkpt><trkpt lat="44.7632767" lon="12.191565"><ele>-0.3333333333333333</ele><time>2026-04-12T12:29:09.302Z</time></trkpt><trkpt lat="44.7634417" lon="12.1914867"><ele>-1.0</ele><time>2026-04-12T12:29:10.302Z</time></trkpt><trkpt lat="44.7636117" lon="12.1914067"><ele>-1.0</ele><time>2026-04-12T12:29:11.302Z</time></trkpt><trkpt lat="44.76379" lon="12.1913233"><ele>-1.0</ele><time>2026-04-12T12:29:12.302Z</time></trkpt><trkpt lat="44.7639667" lon="12.1912317"><ele>-1.0</ele><time>2026-04-12T12:29:13.302Z</time></trkpt><trkpt lat="44.7641383" lon="12.1911483"><ele>-1.0</ele><time>2026-04-12T12:29:14.302Z</time></trkpt><trkpt lat="44.7643133" lon="12.1910683"><ele>-1.0</ele><time>2026-04-12T12:29:15.303Z</time></trkpt><trkpt lat="44.7644917" lon="12.1909817"><ele>-1.0</ele><time>2026-04-12T12:29:16.303Z</time></trkpt><trkpt lat="44.7646633" lon="12.1909017"><ele>-1.3333333333333333</ele><time>2026-04-12T12:29:17.302Z</time></trkpt><trkpt lat="44.7648183" lon="12.1908217"><ele>-1.6666666666666665</ele><time>2026-04-12T12:29:18.302Z</time></trkpt><trkpt lat="44.7649717" lon="12.1907483"><ele>-2.0</ele><time>2026-04-12T12:29:19.302Z</time></trkpt><trkpt lat="44.7651217" lon="12.1906817"><ele>-2.0</ele><time>2026-04-12T12:29:20.303Z</time></trkpt><trkpt lat="44.76526" lon="12.190615"><ele>-2.0</ele><time>2026-04-12T12:29:21.303Z</time></trkpt><trkpt lat="44.7654017" lon="12.1905483"><ele>-2.0</ele><time>2026-04-12T12:29:22.302Z</time></trkpt><trkpt lat="44.7655533" lon="12.1904783"><ele>-2.0</ele><time>2026-04-12T12:29:23.302Z</time></trkpt><trkpt lat="44.7657167" lon="12.1904017"><ele>-2.0</ele><time>2026-04-12T12:29:24.303Z</time></trkpt><trkpt lat="44.7658817" lon="12.19032"><ele>-2.0</ele><time>2026-04-12T12:29:25.302Z</time></trkpt><trkpt lat="44.7660567" lon="12.19023"><ele>-1.6666666666666665</ele><time>2026-04-12T12:29:26.302Z</time></trkpt><trkpt lat="44.76624" lon="12.1901367"><ele>-1.3333333333333333</ele><time>2026-04-12T12:29:27.302Z</time></trkpt><trkpt lat="44.76642" lon="12.1900483"><ele>-1.0</ele><time>2026-04-12T12:29:28.302Z</time></trkpt><trkpt lat="44.7665967" lon="12.1899617"><ele>-1.0</ele><time>2026-04-12T12:29:29.302Z</time></trkpt><trkpt lat="44.7667633" lon="12.1898833"><ele>-1.0</ele><time>2026-04-12T12:29:30.302Z</time></trkpt><trkpt lat="44.76692" lon="12.1898133"><ele>-1.0</ele><time>2026-04-12T12:29:31.303Z</time></trkpt><trkpt lat="44.7670667" lon="12.1897367"><ele>-1.0</ele><time>2026-04-12T12:29:32.302Z</time></trkpt><trkpt lat="44.76722" lon="12.189665"><ele>-1.0</ele><time>2026-04-12T12:29:33.302Z</time></trkpt><trkpt lat="44.7673867" lon="12.1895883"><ele>-1.0</ele><time>2026-04-12T12:29:34.302Z</time></trkpt><trkpt lat="44.7675633" lon="12.1895017"><ele>-0.6666666666666666</ele><time>2026-04-12T12:29:35.302Z</time></trkpt><trkpt lat="44.7677417" lon="12.1894083"><ele>-0.3333333333333333</ele><time>2026-04-12T12:29:36.302Z</time></trkpt><trkpt lat="44.76792" lon="12.18932"><ele>0.0</ele><time>2026-04-12T12:29:37.302Z</time></trkpt><trkpt lat="44.7681" lon="12.1892367"><ele>0.0</ele><time>2026-04-12T12:29:38.302Z</time></trkpt><trkpt lat="44.7682667" lon="12.189155"><ele>0.0</ele><time>2026-04-12T12:29:39.302Z</time></trkpt><trkpt lat="44.7684433" lon="12.18907"><ele>0.0</ele><time>2026-04-12T12:29:40.302Z</time></trkpt><trkpt lat="44.76861" lon="12.1889833"><ele>0.6666666666666666</ele><time>2026-04-12T12:29:41.302Z</time></trkpt><trkpt lat="44.7687717" lon="12.1889117"><ele>1.3333333333333333</ele><time>2026-04-12T12:29:42.303Z</time></trkpt><trkpt lat="44.7689283" lon="12.1888333"><ele>2.0</ele><time>2026-04-12T12:29:43.303Z</time></trkpt><trkpt lat="44.76909" lon="12.1887467"><ele>2.0</ele><time>2026-04-12T12:29:44.303Z</time></trkpt><trkpt lat="44.7692567" lon="12.188665"><ele>2.0</ele><time>2026-04-12T12:29:45.302Z</time></trkpt><trkpt lat="44.769415" lon="12.1885883"><ele>2.0</ele><time>2026-04-12T12:29:46.302Z</time></trkpt><trkpt lat="44.7695733" lon="12.1885133"><ele>1.3333333333333333</ele><time>2026-04-12T12:29:47.302Z</time></trkpt><trkpt lat="44.7697417" lon="12.188435"><ele>0.6666666666666666</ele><time>2026-04-12T12:29:48.302Z</time></trkpt><trkpt lat="44.7699167" lon="12.1883533"><ele>0.0</ele><time>2026-04-12T12:29:49.302Z</time></trkpt><trkpt lat="44.7700933" lon="12.188275"><ele>0.0</ele><time>2026-04-12T12:29:50.302Z</time></trkpt><trkpt lat="44.77027" lon="12.1881967"><ele>0.0</ele><time>2026-04-12T12:29:51.302Z</time></trkpt><trkpt lat="44.77044" lon="12.18813"><ele>0.0</ele><time>2026-04-12T12:29:52.303Z</time></trkpt><trkpt lat="44.770595" lon="12.188065"><ele>-0.3333333333333333</ele><time>2026-04-12T12:29:53.302Z</time></trkpt><trkpt lat="44.7707517" lon="12.1879933"><ele>-0.6666666666666666</ele><time>2026-04-12T12:29:54.302Z</time></trkpt><trkpt lat="44.7709167" lon="12.1879267"><ele>-1.0</ele><time>2026-04-12T12:29:55.302Z</time></trkpt><trkpt lat="44.771075" lon="12.187855"><ele>-1.0</ele><time>2026-04-12T12:29:56.303Z</time></trkpt><trkpt lat="44.771225" lon="12.1877883"><ele>-1.0</ele><time>2026-04-12T12:29:57.302Z</time></trkpt><trkpt lat="44.7713767" lon="12.18773"><ele>-1.0</ele><time>2026-04-12T12:29:58.302Z</time></trkpt><trkpt lat="44.7715183" lon="12.1876733"><ele>-1.0</ele><time>2026-04-12T12:29:59.302Z</time></trkpt><trkpt lat="44.7716683" lon="12.187605"><ele>-1.0</ele><time>2026-04-12T12:30:00.302Z</time></trkpt><trkpt lat="44.77183" lon="12.1875283"><ele>-1.0</ele><time>2026-04-12T12:30:01.303Z</time></trkpt><trkpt lat="44.7719967" lon="12.1874517"><ele>-1.3333333333333333</ele><time>2026-04-12T12:30:02.302Z</time></trkpt><trkpt lat="44.77217" lon="12.1873817"><ele>-1.6666666666666665</ele><time>2026-04-12T12:30:03.302Z</time></trkpt><trkpt lat="44.772365" lon="12.18731"><ele>-2.0</ele><time>2026-04-12T12:30:04.302Z</time></trkpt><trkpt lat="44.7725633" lon="12.1872333"><ele>-1.6666666666666665</ele><time>2026-04-12T12:30:05.302Z</time></trkpt><trkpt lat="44.7727683" lon="12.1871567"><ele>-1.3333333333333333</ele><time>2026-04-12T12:30:06.302Z</time></trkpt><trkpt lat="44.7729717" lon="12.1870817"><ele>-1.0</ele><time>2026-04-12T12:30:07.303Z</time></trkpt><trkpt lat="44.77317" lon="12.1870033"><ele>-1.0</ele><time>2026-04-12T12:30:08.302Z</time></trkpt><trkpt lat="44.773365" lon="12.1869283"><ele>-1.0</ele><time>2026-04-12T12:30:09.302Z</time></trkpt><trkpt lat="44.77356" lon="12.1868633"><ele>-1.0</ele><time>2026-04-12T12:30:10.302Z</time></trkpt><trkpt lat="44.773755" lon="12.186795"><ele>-0.3333333333333333</ele><time>2026-04-12T12:30:11.302Z</time></trkpt><trkpt lat="44.7739467" lon="12.186725"><ele>0.3333333333333333</ele><time>2026-04-12T12:30:12.303Z</time></trkpt><trkpt lat="44.77414" lon="12.186655"><ele>1.0</ele><time>2026-04-12T12:30:13.303Z</time></trkpt><trkpt lat="44.7743317" lon="12.18659"><ele>1.0</ele><time>2026-04-12T12:30:14.302Z</time></trkpt><trkpt lat="44.77451" lon="12.1865333"><ele>1.0</ele><time>2026-04-12T12:30:15.303Z</time></trkpt><trkpt lat="44.7746967" lon="12.1864717"><ele>1.0</ele><time>2026-04-12T12:30:16.302Z</time></trkpt><trkpt lat="44.7748833" lon="12.186405"><ele>0.6666666666666666</ele><time>2026-04-12T12:30:17.302Z</time></trkpt><trkpt lat="44.77507" lon="12.1863367"><ele>0.3333333333333333</ele><time>2026-04-12T12:30:18.302Z</time></trkpt><trkpt lat="44.77525" lon="12.186265"><ele>0.0</ele><time>2026-04-12T12:30:19.303Z</time></trkpt><trkpt lat="44.7754283" lon="12.1862033"><ele>0.0</ele><time>2026-04-12T12:30:20.303Z</time></trkpt><trkpt lat="44.775605" lon="12.1861433"><ele>0.0</ele><time>2026-04-12T12:30:21.303Z</time></trkpt><trkpt lat="44.7757833" lon="12.186085"><ele>0.0</ele><time>2026-04-12T12:30:22.303Z</time></trkpt><trkpt lat="44.77597" lon="12.186025"><ele>0.0</ele><time>2026-04-12T12:30:23.303Z</time></trkpt><trkpt lat="44.7761467" lon="12.1859683"><ele>0.0</ele><time>2026-04-12T12:30:24.302Z</time></trkpt><trkpt lat="44.7763233" lon="12.1859083"><ele>0.0</ele><time>2026-04-12T12:30:25.302Z</time></trkpt><trkpt lat="44.7764983" lon="12.1858433"><ele>0.0</ele><time>2026-04-12T12:30:26.303Z</time></trkpt><trkpt lat="44.776675" lon="12.185775"><ele>0.0</ele><time>2026-04-12T12:30:27.302Z</time></trkpt><trkpt lat="44.77685" lon="12.1857083"><ele>0.0</ele><time>2026-04-12T12:30:28.302Z</time></trkpt><trkpt lat="44.77703" lon="12.1856433"><ele>-0.3333333333333333</ele><time>2026-04-12T12:30:29.303Z</time></trkpt><trkpt lat="44.777205" lon="12.1855817"><ele>-0.6666666666666666</ele><time>2026-04-12T12:30:30.303Z</time></trkpt><trkpt lat="44.7773817" lon="12.185525"><ele>-1.0</ele><time>2026-04-12T12:30:31.302Z</time></trkpt><trkpt lat="44.777555" lon="12.1854667"><ele>-0.3333333333333333</ele><time>2026-04-12T12:30:32.303Z</time></trkpt><trkpt lat="44.77773" lon="12.185405"><ele>0.3333333333333333</ele><time>2026-04-12T12:30:33.302Z</time></trkpt><trkpt lat="44.7779067" lon="12.1853417"><ele>1.0</ele><time>2026-04-12T12:30:34.302Z</time></trkpt><trkpt lat="44.77808" lon="12.1852833"><ele>1.0</ele><time>2026-04-12T12:30:35.302Z</time></trkpt><trkpt lat="44.7782567" lon="12.1852183"><ele>1.0</ele><time>2026-04-12T12:30:36.302Z</time></trkpt><trkpt lat="44.7784333" lon="12.1851517"><ele>1.0</ele><time>2026-04-12T12:30:37.302Z</time></trkpt><trkpt lat="44.7786017" lon="12.1850883"><ele>0.3333333333333333</ele><time>2026-04-12T12:30:38.302Z</time></trkpt><trkpt lat="44.778775" lon="12.1850283"><ele>-0.3333333333333333</ele><time>2026-04-12T12:30:39.302Z</time></trkpt><trkpt lat="44.7789483" lon="12.1849667"><ele>-1.0</ele><time>2026-04-12T12:30:40.302Z</time></trkpt><trkpt lat="44.7791217" lon="12.184905"><ele>-1.0</ele><time>2026-04-12T12:30:41.303Z</time></trkpt><trkpt lat="44.7792917" lon="12.1848467"><ele>-1.0</ele><time>2026-04-12T12:30:42.302Z</time></trkpt><trkpt lat="44.7794617" lon="12.1847883"><ele>-1.0</ele><time>2026-04-12T12:30:43.302Z</time></trkpt><trkpt lat="44.77963" lon="12.1847283"><ele>-1.6666666666666665</ele><time>2026-04-12T12:30:44.302Z</time></trkpt><trkpt lat="44.7798017" lon="12.1846633"><ele>-2.3333333333333335</ele><time>2026-04-12T12:30:45.303Z</time></trkpt><trkpt lat="44.77997" lon="12.1846"><ele>-3.0</ele><time>2026-04-12T12:30:46.302Z</time></trkpt><trkpt lat="44.7801383" lon="12.184545"><ele>-2.6666666666666665</ele><time>2026-04-12T12:30:47.303Z</time></trkpt><trkpt lat="44.78031" lon="12.1844883"><ele>-2.333333333333333</ele><time>2026-04-12T12:30:48.302Z</time></trkpt><trkpt lat="44.780485" lon="12.1844267"><ele>-2.0</ele><time>2026-04-12T12:30:49.302Z</time></trkpt><trkpt lat="44.7806617" lon="12.18436"><ele>-2.0</ele><time>2026-04-12T12:30:50.302Z</time></trkpt><trkpt lat="44.7808367" lon="12.1842933"><ele>-2.0</ele><time>2026-04-12T12:30:51.303Z</time></trkpt><trkpt lat="44.781015" lon="12.1842167"><ele>-2.0</ele><time>2026-04-12T12:30:52.302Z</time></trkpt><trkpt lat="44.7811967" lon="12.184145"><ele>-1.6666666666666665</ele><time>2026-04-12T12:30:53.302Z</time></trkpt><trkpt lat="44.7813733" lon="12.184075"><ele>-1.3333333333333333</ele><time>2026-04-12T12:30:54.302Z</time></trkpt><trkpt lat="44.7815467" lon="12.1840083"><ele>-1.0</ele><time>2026-04-12T12:30:55.302Z</time></trkpt><trkpt lat="44.7817233" lon="12.1839267"><ele>-1.0</ele><time>2026-04-12T12:30:56.303Z</time></trkpt><trkpt lat="44.781895" lon="12.18385"><ele>-1.0</ele><time>2026-04-12T12:30:57.302Z</time></trkpt><trkpt lat="44.7820717" lon="12.18377"><ele>-1.0</ele><time>2026-04-12T12:30:58.303Z</time></trkpt><trkpt lat="44.7822467" lon="12.1836833"><ele>-1.0</ele><time>2026-04-12T12:30:59.302Z</time></trkpt><trkpt lat="44.7824283" lon="12.1835867"><ele>-1.0</ele><time>2026-04-12T12:31:00.303Z</time></trkpt><trkpt lat="44.7826083" lon="12.1834917"><ele>-1.0</ele><time>2026-04-12T12:31:01.302Z</time></trkpt><trkpt lat="44.7827867" lon="12.1833967"><ele>-1.3333333333333333</ele><time>2026-04-12T12:31:02.302Z</time></trkpt><trkpt lat="44.782965" lon="12.183305"><ele>-1.6666666666666665</ele><time>2026-04-12T12:31:03.303Z</time></trkpt><trkpt lat="44.78314" lon="12.1832117"><ele>-2.0</ele><time>2026-04-12T12:31:04.303Z</time></trkpt><trkpt lat="44.7833133" lon="12.1831117"><ele>-1.6666666666666665</ele><time>2026-04-12T12:31:05.302Z</time></trkpt><trkpt lat="44.7834933" lon="12.1830133"><ele>-1.3333333333333333</ele><time>2026-04-12T12:31:06.302Z</time></trkpt><trkpt lat="44.7836733" lon="12.1829317"><ele>-1.0</ele><time>2026-04-12T12:31:07.303Z</time></trkpt><trkpt lat="44.783855" lon="12.18285"><ele>-1.0</ele><time>2026-04-12T12:31:08.302Z</time></trkpt><trkpt lat="44.784045" lon="12.18277"><ele>-1.0</ele><time>2026-04-12T12:31:09.302Z</time></trkpt><trkpt lat="44.7842367" lon="12.182695"><ele>-1.0</ele><time>2026-04-12T12:31:10.302Z</time></trkpt><trkpt lat="44.78443" lon="12.18262"><ele>-0.6666666666666666</ele><time>2026-04-12T12:31:11.302Z</time></trkpt><trkpt lat="44.784625" lon="12.1825517"><ele>-0.3333333333333333</ele><time>2026-04-12T12:31:12.303Z</time></trkpt><trkpt lat="44.7848183" lon="12.18249"><ele>0.0</ele><time>2026-04-12T12:31:13.302Z</time></trkpt><trkpt lat="44.7850133" lon="12.182435"><ele>0.0</ele><time>2026-04-12T12:31:14.303Z</time></trkpt><trkpt lat="44.7852033" lon="12.182385"><ele>0.0</ele><time>2026-04-12T12:31:15.302Z</time></trkpt><trkpt lat="44.7853933" lon="12.18233"><ele>0.0</ele><time>2026-04-12T12:31:16.302Z</time></trkpt><trkpt lat="44.785585" lon="12.1822783"><ele>0.3333333333333333</ele><time>2026-04-12T12:31:17.303Z</time></trkpt><trkpt lat="44.785785" lon="12.18223"><ele>0.6666666666666666</ele><time>2026-04-12T12:31:18.303Z</time></trkpt><trkpt lat="44.7859867" lon="12.1821683"><ele>1.0</ele><time>2026-04-12T12:31:19.302Z</time></trkpt><trkpt lat="44.78618" lon="12.182125"><ele>1.0</ele><time>2026-04-12T12:31:20.302Z</time></trkpt><trkpt lat="44.7863683" lon="12.1820767"><ele>1.0</ele><time>2026-04-12T12:31:21.302Z</time></trkpt><trkpt lat="44.78656" lon="12.1820283"><ele>1.0</ele><time>2026-04-12T12:31:22.303Z</time></trkpt><trkpt lat="44.7867517" lon="12.1819783"><ele>1.0</ele><time>2026-04-12T12:31:23.302Z</time></trkpt><trkpt lat="44.78694" lon="12.18192"><ele>1.0</ele><time>2026-04-12T12:31:24.302Z</time></trkpt><trkpt lat="44.7871333" lon="12.1818633"><ele>1.0</ele><time>2026-04-12T12:31:25.303Z</time></trkpt><trkpt lat="44.7873367" lon="12.1818083"><ele>1.0</ele><time>2026-04-12T12:31:26.302Z</time></trkpt><trkpt lat="44.787545" lon="12.1817517"><ele>1.0</ele><time>2026-04-12T12:31:27.302Z</time></trkpt><trkpt lat="44.7877633" lon="12.1817"><ele>1.0</ele><time>2026-04-12T12:31:28.302Z</time></trkpt><trkpt lat="44.7879933" lon="12.1816417"><ele>-0.5</ele><time>2026-04-12T12:31:29.303Z</time></trkpt><trkpt lat="44.7882283" lon="12.1815767"><ele>-2.0</ele><time>2026-04-12T12:31:30.302Z</time></trkpt><trkpt lat="44.78847" lon="12.1815083"><ele>-1.0</ele><time>2026-04-12T12:31:31.303Z</time></trkpt><trkpt lat="44.7887083" lon="12.181435"><ele>0.0</ele><time>2026-04-12T12:31:32.302Z</time></trkpt><trkpt lat="44.7889417" lon="12.1813617"><ele>0.0</ele><time>2026-04-12T12:31:33.302Z</time></trkpt><trkpt lat="44.789185" lon="12.1812783"><ele>0.0</ele><time>2026-04-12T12:31:34.302Z</time></trkpt><trkpt lat="44.7894333" lon="12.18119"><ele>-0.5</ele><time>2026-04-12T12:31:35.303Z</time></trkpt><trkpt lat="44.7896933" lon="12.1810933"><ele>-1.0</ele><time>2026-04-12T12:31:36.303Z</time></trkpt><trkpt lat="44.7899517" lon="12.180995"><ele>-0.5</ele><time>2026-04-12T12:31:37.303Z</time></trkpt><trkpt lat="44.7902" lon="12.180905"><ele>0.0</ele><time>2026-04-12T12:31:38.303Z</time></trkpt><trkpt lat="44.7904367" lon="12.180815"><ele>0.0</ele><time>2026-04-12T12:31:39.302Z</time></trkpt><trkpt lat="44.790655" lon="12.1807317"><ele>0.0</ele><time>2026-04-12T12:31:40.302Z</time></trkpt><trkpt lat="44.7908617" lon="12.1806483"><ele>0.0</ele><time>2026-04-12T12:31:41.302Z</time></trkpt><trkpt lat="44.7910617" lon="12.1805733"><ele>0.0</ele><time>2026-04-12T12:31:42.303Z</time></trkpt><trkpt lat="44.7912633" lon="12.180505"><ele>0.0</ele><time>2026-04-12T12:31:43.302Z</time></trkpt><trkpt lat="44.791455" lon="12.1804433"><ele>0.0</ele><time>2026-04-12T12:31:44.302Z</time></trkpt><trkpt lat="44.791645" lon="12.1803833"><ele>0.0</ele><time>2026-04-12T12:31:45.302Z</time></trkpt><trkpt lat="44.791835" lon="12.1803383"><ele>0.0</ele><time>2026-04-12T12:31:46.302Z</time></trkpt><trkpt lat="44.7920233" lon="12.1802883"><ele>0.0</ele><time>2026-04-12T12:31:47.302Z</time></trkpt><trkpt lat="44.7922083" lon="12.1802417"><ele>0.3333333333333333</ele><time>2026-04-12T12:31:48.303Z</time></trkpt><trkpt lat="44.792415" lon="12.180195"><ele>0.6666666666666666</ele><time>2026-04-12T12:31:49.303Z</time></trkpt><trkpt lat="44.792635" lon="12.180145"><ele>1.0</ele><time>2026-04-12T12:31:50.302Z</time></trkpt><trkpt lat="44.7928583" lon="12.1801033"><ele>0.0</ele><time>2026-04-12T12:31:51.302Z</time></trkpt><trkpt lat="44.7930933" lon="12.1800483"><ele>-1.0</ele><time>2026-04-12T12:31:52.302Z</time></trkpt><trkpt lat="44.79334" lon="12.1800017"><ele>-1.5</ele><time>2026-04-12T12:31:53.302Z</time></trkpt><trkpt lat="44.7935833" lon="12.1799567"><ele>-2.0</ele><time>2026-04-12T12:31:54.302Z</time></trkpt><trkpt lat="44.7938283" lon="12.17991"><ele>-2.0</ele><time>2026-04-12T12:31:55.302Z</time></trkpt><trkpt lat="44.7940783" lon="12.1798617"><ele>-2.0</ele><time>2026-04-12T12:31:56.303Z</time></trkpt><trkpt lat="44.7943317" lon="12.179815"><ele>-2.0</ele><time>2026-04-12T12:31:57.303Z</time></trkpt><trkpt lat="44.79458" lon="12.17977"><ele>-2.0</ele><time>2026-04-12T12:31:58.302Z</time></trkpt><trkpt lat="44.794815" lon="12.179725"><ele>-2.0</ele><time>2026-04-12T12:31:59.302Z</time></trkpt><trkpt lat="44.7950417" lon="12.1796817"><ele>-2.0</ele><time>2026-04-12T12:32:00.302Z</time></trkpt><trkpt lat="44.7952633" lon="12.1796417"><ele>-2.333333333333333</ele><time>2026-04-12T12:32:01.302Z</time></trkpt><trkpt lat="44.7954783" lon="12.1795967"><ele>-2.6666666666666665</ele><time>2026-04-12T12:32:02.303Z</time></trkpt><trkpt lat="44.795695" lon="12.1795567"><ele>-3.0</ele><time>2026-04-12T12:32:03.302Z</time></trkpt><trkpt lat="44.7959067" lon="12.1795117"><ele>-3.0</ele><time>2026-04-12T12:32:04.302Z</time></trkpt><trkpt lat="44.796115" lon="12.1794733"><ele>-3.0</ele><time>2026-04-12T12:32:05.303Z</time></trkpt><trkpt lat="44.79632" lon="12.1794317"><ele>-3.0</ele><time>2026-04-12T12:32:06.302Z</time></trkpt><trkpt lat="44.79653" lon="12.1793917"><ele>-3.0</ele><time>2026-04-12T12:32:07.302Z</time></trkpt><trkpt lat="44.7967367" lon="12.1793467"><ele>-3.0</ele><time>2026-04-12T12:32:08.302Z</time></trkpt><trkpt lat="44.796945" lon="12.1793067"><ele>-3.0</ele><time>2026-04-12T12:32:09.302Z</time></trkpt><trkpt lat="44.7971567" lon="12.1792567"><ele>-2.6666666666666665</ele><time>2026-04-12T12:32:10.303Z</time></trkpt><trkpt lat="44.7973667" lon="12.1792183"><ele>-2.333333333333333</ele><time>2026-04-12T12:32:11.303Z</time></trkpt><trkpt lat="44.797565" lon="12.17918"><ele>-2.0</ele><time>2026-04-12T12:32:12.302Z</time></trkpt><trkpt lat="44.7977633" lon="12.179145"><ele>-1.3333333333333333</ele><time>2026-04-12T12:32:13.303Z</time></trkpt><trkpt lat="44.7979517" lon="12.17911"><ele>-0.6666666666666666</ele><time>2026-04-12T12:32:14.302Z</time></trkpt><trkpt lat="44.798135" lon="12.17907"><ele>0.0</ele><time>2026-04-12T12:32:15.302Z</time></trkpt><trkpt lat="44.7983133" lon="12.1790367"><ele>0.0</ele><time>2026-04-12T12:32:16.302Z</time></trkpt><trkpt lat="44.79849" lon="12.1790117"><ele>0.0</ele><time>2026-04-12T12:32:17.303Z</time></trkpt><trkpt lat="44.7986617" lon="12.1789783"><ele>0.0</ele><time>2026-04-12T12:32:18.302Z</time></trkpt><trkpt lat="44.7988383" lon="12.1789483"><ele>0.0</ele><time>2026-04-12T12:32:19.302Z</time></trkpt><trkpt lat="44.7990067" lon="12.1789183"><ele>0.0</ele><time>2026-04-12T12:32:20.302Z</time></trkpt><trkpt lat="44.799185" lon="12.1789017"><ele>0.0</ele><time>2026-04-12T12:32:21.302Z</time></trkpt><trkpt lat="44.79936" lon="12.17888"><ele>0.0</ele><time>2026-04-12T12:32:22.302Z</time></trkpt><trkpt lat="44.7995433" lon="12.17887"><ele>0.0</ele><time>2026-04-12T12:32:23.302Z</time></trkpt><trkpt lat="44.79973" lon="12.1788533"><ele>0.0</ele><time>2026-04-12T12:32:24.302Z</time></trkpt><trkpt lat="44.7999167" lon="12.1788383"><ele>0.0</ele><time>2026-04-12T12:32:25.302Z</time></trkpt><trkpt lat="44.8001083" lon="12.1788267"><ele>0.0</ele><time>2026-04-12T12:32:26.302Z</time></trkpt><trkpt lat="44.8002983" lon="12.1788217"><ele>0.0</ele><time>2026-04-12T12:32:27.302Z</time></trkpt><trkpt lat="44.8004917" lon="12.1788083"><ele>0.0</ele><time>2026-04-12T12:32:28.302Z</time></trkpt><trkpt lat="44.80069" lon="12.178785"><ele>0.0</ele><time>2026-04-12T12:32:29.302Z</time></trkpt><trkpt lat="44.800885" lon="12.178755"><ele>0.0</ele><time>2026-04-12T12:32:30.302Z</time></trkpt><trkpt lat="44.8010717" lon="12.178725"><ele>-0.3333333333333333</ele><time>2026-04-12T12:32:31.303Z</time></trkpt><trkpt lat="44.8012433" lon="12.17869"><ele>-0.6666666666666666</ele><time>2026-04-12T12:32:32.302Z</time></trkpt><trkpt lat="44.8014067" lon="12.1786517"><ele>-1.0</ele><time>2026-04-12T12:32:33.303Z</time></trkpt><trkpt lat="44.8015617" lon="12.1786183"><ele>-1.0</ele><time>2026-04-12T12:32:34.302Z</time></trkpt><trkpt lat="44.8017117" lon="12.1785883"><ele>-1.0</ele><time>2026-04-12T12:32:35.302Z</time></trkpt><trkpt lat="44.8018717" lon="12.17857"><ele>-1.0</ele><time>2026-04-12T12:32:36.302Z</time></trkpt><trkpt lat="44.802035" lon="12.1785383"><ele>-1.0</ele><time>2026-04-12T12:32:37.303Z</time></trkpt><trkpt lat="44.8021833" lon="12.1785083"><ele>-1.0</ele><time>2026-04-12T12:32:38.302Z</time></trkpt><trkpt lat="44.802325" lon="12.1784917"><ele>-1.0</ele><time>2026-04-12T12:32:39.302Z</time></trkpt><trkpt lat="44.8024517" lon="12.1784633"><ele>-1.0</ele><time>2026-04-12T12:32:40.302Z</time></trkpt><trkpt lat="44.80256" lon="12.178435"><ele>-0.5</ele><time>2026-04-12T12:32:41.302Z</time></trkpt><trkpt lat="44.8026683" lon="12.1784183"><ele>0.0</ele><time>2026-04-12T12:32:42.303Z</time></trkpt><trkpt lat="44.80277" lon="12.1784017"><ele>0.5</ele><time>2026-04-12T12:32:43.302Z</time></trkpt><trkpt lat="44.802885" lon="12.17838"><ele>1.0</ele><time>2026-04-12T12:32:44.302Z</time></trkpt><trkpt lat="44.8030133" lon="12.1783533"><ele>1.0</ele><time>2026-04-12T12:32:45.303Z</time></trkpt><trkpt lat="44.8031567" lon="12.1783333"><ele>1.0</ele><time>2026-04-12T12:32:46.302Z</time></trkpt><trkpt lat="44.803305" lon="12.1783183"><ele>1.0</ele><time>2026-04-12T12:32:47.302Z</time></trkpt><trkpt lat="44.803455" lon="12.178305"><ele>1.0</ele><time>2026-04-12T12:32:48.302Z</time></trkpt><trkpt lat="44.8036083" lon="12.1783"><ele>0.3333333333333333</ele><time>2026-04-12T12:32:49.302Z</time></trkpt><trkpt lat="44.803765" lon="12.1782917"><ele>-0.3333333333333333</ele><time>2026-04-12T12:32:50.303Z</time></trkpt><trkpt lat="44.80393" lon="12.1782867"><ele>-1.0</ele><time>2026-04-12T12:32:51.302Z</time></trkpt><trkpt lat="44.8040917" lon="12.1782767"><ele>-1.0</ele><time>2026-04-12T12:32:52.302Z</time></trkpt><trkpt lat="44.80426" lon="12.1782617"><ele>-1.0</ele><time>2026-04-12T12:32:53.303Z</time></trkpt><trkpt lat="44.8044267" lon="12.1782583"><ele>-1.0</ele><time>2026-04-12T12:32:54.303Z</time></trkpt><trkpt lat="44.8046033" lon="12.1782583"><ele>-0.6666666666666666</ele><time>2026-04-12T12:32:55.303Z</time></trkpt><trkpt lat="44.8047883" lon="12.1782467"><ele>-0.3333333333333333</ele><time>2026-04-12T12:32:56.302Z</time></trkpt><trkpt lat="44.8049717" lon="12.1782383"><ele>0.0</ele><time>2026-04-12T12:32:57.302Z</time></trkpt><trkpt lat="44.8051583" lon="12.1782283"><ele>0.0</ele><time>2026-04-12T12:32:58.303Z</time></trkpt><trkpt lat="44.8053583" lon="12.1782133"><ele>0.0</ele><time>2026-04-12T12:32:59.302Z</time></trkpt><trkpt lat="44.8055667" lon="12.1782"><ele>0.0</ele><time>2026-04-12T12:33:00.303Z</time></trkpt><trkpt lat="44.8057717" lon="12.1781817"><ele>0.0</ele><time>2026-04-12T12:33:01.303Z</time></trkpt><trkpt lat="44.805985" lon="12.1781583"><ele>0.0</ele><time>2026-04-12T12:33:02.302Z</time></trkpt><trkpt lat="44.8061983" lon="12.1781283"><ele>0.0</ele><time>2026-04-12T12:33:03.302Z</time></trkpt><trkpt lat="44.80641" lon="12.1781033"><ele>-0.3333333333333333</ele><time>2026-04-12T12:33:04.303Z</time></trkpt><trkpt lat="44.8066183" lon="12.17807"><ele>-0.6666666666666666</ele><time>2026-04-12T12:33:05.302Z</time></trkpt><trkpt lat="44.80682" lon="12.1780383"><ele>-1.0</ele><time>2026-04-12T12:33:06.302Z</time></trkpt><trkpt lat="44.8070117" lon="12.1780133"><ele>-1.0</ele><time>2026-04-12T12:33:07.302Z</time></trkpt><trkpt lat="44.8072033" lon="12.17799"><ele>-1.0</ele><time>2026-04-12T12:33:08.302Z</time></trkpt><trkpt lat="44.8073883" lon="12.1779817"><ele>-1.0</ele><time>2026-04-12T12:33:09.302Z</time></trkpt><trkpt lat="44.8075717" lon="12.1779583"><ele>-0.6666666666666666</ele><time>2026-04-12T12:33:10.302Z</time></trkpt><trkpt lat="44.8077567" lon="12.1779233"><ele>-0.3333333333333333</ele><time>2026-04-12T12:33:11.302Z</time></trkpt><trkpt lat="44.8079383" lon="12.1778867"><ele>0.0</ele><time>2026-04-12T12:33:12.302Z</time></trkpt><trkpt lat="44.808125" lon="12.1778517"><ele>0.0</ele><time>2026-04-12T12:33:13.303Z</time></trkpt><trkpt lat="44.8083133" lon="12.1778133"><ele>0.0</ele><time>2026-04-12T12:33:14.303Z</time></trkpt><trkpt lat="44.8085117" lon="12.1777733"><ele>0.0</ele><time>2026-04-12T12:33:15.303Z</time></trkpt><trkpt lat="44.8087133" lon="12.1777367"><ele>0.3333333333333333</ele><time>2026-04-12T12:33:16.303Z</time></trkpt><trkpt lat="44.8089117" lon="12.1777117"><ele>0.6666666666666666</ele><time>2026-04-12T12:33:17.302Z</time></trkpt><trkpt lat="44.8091117" lon="12.1776867"><ele>1.0</ele><time>2026-04-12T12:33:18.302Z</time></trkpt><trkpt lat="44.80932" lon="12.1776667"><ele>1.0</ele><time>2026-04-12T12:33:19.303Z</time></trkpt><trkpt lat="44.80953" lon="12.177645"><ele>1.0</ele><time>2026-04-12T12:33:20.303Z</time></trkpt><trkpt lat="44.8097467" lon="12.1776467"><ele>1.0</ele><time>2026-04-12T12:33:21.302Z</time></trkpt><trkpt lat="44.80998" lon="12.1776433"><ele>-0.5</ele><time>2026-04-12T12:33:22.302Z</time></trkpt><trkpt lat="44.81021" lon="12.177645"><ele>-2.0</ele><time>2026-04-12T12:33:23.302Z</time></trkpt><trkpt lat="44.8104433" lon="12.1776333"><ele>-2.0</ele><time>2026-04-12T12:33:24.302Z</time></trkpt><trkpt lat="44.8106817" lon="12.177635"><ele>-2.0</ele><time>2026-04-12T12:33:25.303Z</time></trkpt><trkpt lat="44.8109167" lon="12.1776367"><ele>-2.0</ele><time>2026-04-12T12:33:26.303Z</time></trkpt><trkpt lat="44.81115" lon="12.1776333"><ele>-2.0</ele><time>2026-04-12T12:33:27.302Z</time></trkpt><trkpt lat="44.811385" lon="12.1776267"><ele>-2.0</ele><time>2026-04-12T12:33:28.303Z</time></trkpt><trkpt lat="44.8115783" lon="12.1776383"><ele>-2.0</ele><time>2026-04-12T12:33:29.302Z</time></trkpt><trkpt lat="44.8117433" lon="12.1776483"><ele>-2.0</ele><time>2026-04-12T12:33:30.303Z</time></trkpt><trkpt lat="44.81188" lon="12.17764"><ele>-2.0</ele><time>2026-04-12T12:33:31.303Z</time></trkpt><trkpt lat="44.8120083" lon="12.1776233"><ele>-2.0</ele><time>2026-04-12T12:33:32.302Z</time></trkpt><trkpt lat="44.8121417" lon="12.1776283"><ele>-2.0</ele><time>2026-04-12T12:33:33.302Z</time></trkpt><trkpt lat="44.8122767" lon="12.1776317"><ele>-2.0</ele><time>2026-04-12T12:33:34.302Z</time></trkpt><trkpt lat="44.81242" lon="12.1776283"><ele>-2.0</ele><time>2026-04-12T12:33:35.303Z</time></trkpt><trkpt lat="44.8125817" lon="12.1776317"><ele>-2.0</ele><time>2026-04-12T12:33:36.303Z</time></trkpt><trkpt lat="44.8127367" lon="12.1776383"><ele>-2.0</ele><time>2026-04-12T12:33:37.303Z</time></trkpt><trkpt lat="44.8128783" lon="12.1776417"><ele>-2.25</ele><time>2026-04-12T12:33:38.302Z</time></trkpt><trkpt lat="44.8130217" lon="12.1776383"><ele>-2.5</ele><time>2026-04-12T12:33:39.303Z</time></trkpt><trkpt lat="44.8131583" lon="12.1776367"><ele>-2.75</ele><time>2026-04-12T12:33:40.302Z</time></trkpt><trkpt lat="44.8133117" lon="12.1776333"><ele>-3.0</ele><time>2026-04-12T12:33:41.302Z</time></trkpt><trkpt lat="44.81347" lon="12.177625"><ele>-3.666666666666667</ele><time>2026-04-12T12:33:42.302Z</time></trkpt><trkpt lat="44.813635" lon="12.1776217"><ele>-4.333333333333334</ele><time>2026-04-12T12:33:43.303Z</time></trkpt><trkpt lat="44.8138067" lon="12.17763"><ele>-5.0</ele><time>2026-04-12T12:33:44.303Z</time></trkpt><trkpt lat="44.8139833" lon="12.1776267"><ele>-5.0</ele><time>2026-04-12T12:33:45.303Z</time></trkpt><trkpt lat="44.8141483" lon="12.1776283"><ele>-5.0</ele><time>2026-04-12T12:33:46.303Z</time></trkpt><trkpt lat="44.814315" lon="12.1776217"><ele>-5.0</ele><time>2026-04-12T12:33:47.303Z</time></trkpt><trkpt lat="44.8144933" lon="12.177625"><ele>-4.666666666666667</ele><time>2026-04-12T12:33:48.302Z</time></trkpt><trkpt lat="44.814675" lon="12.1776233"><ele>-4.333333333333333</ele><time>2026-04-12T12:33:49.302Z</time></trkpt><trkpt lat="44.8148467" lon="12.177625"><ele>-4.0</ele><time>2026-04-12T12:33:50.302Z</time></trkpt><trkpt lat="44.815015" lon="12.1776267"><ele>-3.333333333333333</ele><time>2026-04-12T12:33:51.302Z</time></trkpt><trkpt lat="44.8151833" lon="12.1776533"><ele>-2.6666666666666665</ele><time>2026-04-12T12:33:52.302Z</time></trkpt><trkpt lat="44.8153533" lon="12.1776967"><ele>-2.0</ele><time>2026-04-12T12:33:53.302Z</time></trkpt><trkpt lat="44.8155267" lon="12.1777517"><ele>-2.0</ele><time>2026-04-12T12:33:54.302Z</time></trkpt><trkpt lat="44.8157067" lon="12.1778167"><ele>-2.0</ele><time>2026-04-12T12:33:55.302Z</time></trkpt><trkpt lat="44.8158767" lon="12.1779033"><ele>-2.0</ele><time>2026-04-12T12:33:56.302Z</time></trkpt><trkpt lat="44.8160533" lon="12.1780033"><ele>-1.6666666666666665</ele><time>2026-04-12T12:33:57.303Z</time></trkpt><trkpt lat="44.8162367" lon="12.1781017"><ele>-1.3333333333333333</ele><time>2026-04-12T12:33:58.303Z</time></trkpt><trkpt lat="44.8164383" lon="12.1782067"><ele>-1.0</ele><time>2026-04-12T12:33:59.302Z</time></trkpt><trkpt lat="44.81663" lon="12.1783133"><ele>-1.3333333333333333</ele><time>2026-04-12T12:34:00.302Z</time></trkpt><trkpt lat="44.8168333" lon="12.1784283"><ele>-1.6666666666666665</ele><time>2026-04-12T12:34:01.302Z</time></trkpt><trkpt lat="44.8170317" lon="12.1785517"><ele>-2.0</ele><time>2026-04-12T12:34:02.302Z</time></trkpt><trkpt lat="44.8172383" lon="12.1786783"><ele>-2.0</ele><time>2026-04-12T12:34:03.303Z</time></trkpt><trkpt lat="44.8174717" lon="12.1787983"><ele>-2.0</ele><time>2026-04-12T12:34:04.302Z</time></trkpt><trkpt lat="44.8177117" lon="12.17893"><ele>-2.0</ele><time>2026-04-12T12:34:05.303Z</time></trkpt><trkpt lat="44.8179367" lon="12.179065"><ele>-2.0</ele><time>2026-04-12T12:34:06.302Z</time></trkpt><trkpt lat="44.818165" lon="12.1792067"><ele>-2.0</ele><time>2026-04-12T12:34:07.302Z</time></trkpt><trkpt lat="44.818405" lon="12.1793367"><ele>-2.0</ele><time>2026-04-12T12:34:08.302Z</time></trkpt><trkpt lat="44.8186233" lon="12.1794383"><ele>-2.0</ele><time>2026-04-12T12:34:09.302Z</time></trkpt><trkpt lat="44.8188383" lon="12.1795083"><ele>-2.0</ele><time>2026-04-12T12:34:10.303Z</time></trkpt><trkpt lat="44.8190517" lon="12.179535"><ele>-2.0</ele><time>2026-04-12T12:34:11.302Z</time></trkpt><trkpt lat="44.8192633" lon="12.17953"><ele>-1.6666666666666665</ele><time>2026-04-12T12:34:12.302Z</time></trkpt><trkpt lat="44.819475" lon="12.1795017"><ele>-1.3333333333333333</ele><time>2026-04-12T12:34:13.302Z</time></trkpt><trkpt lat="44.8196883" lon="12.1794433"><ele>-1.0</ele><time>2026-04-12T12:34:14.302Z</time></trkpt><trkpt lat="44.8198967" lon="12.1793683"><ele>-1.0</ele><time>2026-04-12T12:34:15.302Z</time></trkpt><trkpt lat="44.820095" lon="12.1792817"><ele>-1.0</ele><time>2026-04-12T12:34:16.302Z</time></trkpt><trkpt lat="44.8203033" lon="12.179185"><ele>-1.0</ele><time>2026-04-12T12:34:17.302Z</time></trkpt><trkpt lat="44.8205083" lon="12.1790867"><ele>-0.6666666666666666</ele><time>2026-04-12T12:34:18.302Z</time></trkpt><trkpt lat="44.8207133" lon="12.1789933"><ele>-0.3333333333333333</ele><time>2026-04-12T12:34:19.302Z</time></trkpt><trkpt lat="44.8209183" lon="12.1788917"><ele>0.0</ele><time>2026-04-12T12:34:20.302Z</time></trkpt><trkpt lat="44.8211267" lon="12.1787933"><ele>-0.6666666666666666</ele><time>2026-04-12T12:34:21.303Z</time></trkpt><trkpt lat="44.821325" lon="12.178715"><ele>-1.3333333333333333</ele><time>2026-04-12T12:34:22.302Z</time></trkpt><trkpt lat="44.8215283" lon="12.1786233"><ele>-2.0</ele><time>2026-04-12T12:34:23.303Z</time></trkpt><trkpt lat="44.8217283" lon="12.17853"><ele>-2.333333333333333</ele><time>2026-04-12T12:34:24.302Z</time></trkpt><trkpt lat="44.8219317" lon="12.1784433"><ele>-2.6666666666666665</ele><time>2026-04-12T12:34:25.302Z</time></trkpt><trkpt lat="44.82213" lon="12.1783517"><ele>-3.0</ele><time>2026-04-12T12:34:26.302Z</time></trkpt><trkpt lat="44.8223333" lon="12.1782583"><ele>-3.0</ele><time>2026-04-12T12:34:27.302Z</time></trkpt><trkpt lat="44.82254" lon="12.1781583"><ele>-3.0</ele><time>2026-04-12T12:34:28.302Z</time></trkpt><trkpt lat="44.8227417" lon="12.1780667"><ele>-3.0</ele><time>2026-04-12T12:34:29.302Z</time></trkpt><trkpt lat="44.822945" lon="12.1779817"><ele>-3.0</ele><time>2026-04-12T12:34:30.302Z</time></trkpt><trkpt lat="44.8231467" lon="12.1778917"><ele>-3.0</ele><time>2026-04-12T12:34:31.302Z</time></trkpt><trkpt lat="44.8233533" lon="12.1778083"><ele>-3.0</ele><time>2026-04-12T12:34:32.302Z</time></trkpt><trkpt lat="44.8235533" lon="12.17772"><ele>-3.0</ele><time>2026-04-12T12:34:33.302Z</time></trkpt><trkpt lat="44.8237433" lon="12.17763"><ele>-3.0</ele><time>2026-04-12T12:34:34.302Z</time></trkpt><trkpt lat="44.8239333" lon="12.1775417"><ele>-3.0</ele><time>2026-04-12T12:34:35.302Z</time></trkpt><trkpt lat="44.8241217" lon="12.1774617"><ele>-3.0</ele><time>2026-04-12T12:34:36.302Z</time></trkpt><trkpt lat="44.8242967" lon="12.1773817"><ele>-3.0</ele><time>2026-04-12T12:34:37.302Z</time></trkpt><trkpt lat="44.8244717" lon="12.1773017"><ele>-3.0</ele><time>2026-04-12T12:34:38.302Z</time></trkpt><trkpt lat="44.8246533" lon="12.17722"><ele>-2.6666666666666665</ele><time>2026-04-12T12:34:39.302Z</time></trkpt><trkpt lat="44.8248333" lon="12.17714"><ele>-2.333333333333333</ele><time>2026-04-12T12:34:40.303Z</time></trkpt><trkpt lat="44.8250167" lon="12.1770583"><ele>-2.0</ele><time>2026-04-12T12:34:41.302Z</time></trkpt><trkpt lat="44.8252" lon="12.1769733"><ele>-2.0</ele><time>2026-04-12T12:34:42.303Z</time></trkpt><trkpt lat="44.825395" lon="12.1768917"><ele>-2.0</ele><time>2026-04-12T12:34:43.303Z</time></trkpt><trkpt lat="44.8255767" lon="12.1768133"><ele>-2.0</ele><time>2026-04-12T12:34:44.302Z</time></trkpt><trkpt lat="44.825745" lon="12.17674"><ele>-2.0</ele><time>2026-04-12T12:34:45.303Z</time></trkpt><trkpt lat="44.8259217" lon="12.1766583"><ele>-2.0</ele><time>2026-04-12T12:34:46.302Z</time></trkpt><trkpt lat="44.8261033" lon="12.176575"><ele>-2.0</ele><time>2026-04-12T12:34:47.302Z</time></trkpt><trkpt lat="44.8262883" lon="12.176485"><ele>-2.333333333333333</ele><time>2026-04-12T12:34:48.302Z</time></trkpt><trkpt lat="44.826485" lon="12.176395"><ele>-2.6666666666666665</ele><time>2026-04-12T12:34:49.303Z</time></trkpt><trkpt lat="44.8266933" lon="12.1763033"><ele>-3.0</ele><time>2026-04-12T12:34:50.302Z</time></trkpt><trkpt lat="44.8269083" lon="12.1762067"><ele>-3.0</ele><time>2026-04-12T12:34:51.302Z</time></trkpt><trkpt lat="44.82712" lon="12.17611"><ele>-3.0</ele><time>2026-04-12T12:34:52.302Z</time></trkpt><trkpt lat="44.8273417" lon="12.1760117"><ele>-3.0</ele><time>2026-04-12T12:34:53.302Z</time></trkpt><trkpt lat="44.82757" lon="12.1759117"><ele>-3.0</ele><time>2026-04-12T12:34:54.302Z</time></trkpt><trkpt lat="44.8277967" lon="12.1758117"><ele>-3.5</ele><time>2026-04-12T12:34:55.302Z</time></trkpt><trkpt lat="44.82803" lon="12.1757017"><ele>-4.0</ele><time>2026-04-12T12:34:56.302Z</time></trkpt><trkpt lat="44.8282667" lon="12.1756"><ele>-2.5</ele><time>2026-04-12T12:34:57.302Z</time></trkpt><trkpt lat="44.8285017" lon="12.1754933"><ele>-1.0</ele><time>2026-04-12T12:34:58.303Z</time></trkpt><trkpt lat="44.8287283" lon="12.17539"><ele>-1.0</ele><time>2026-04-12T12:34:59.302Z</time></trkpt><trkpt lat="44.8289567" lon="12.1752883"><ele>-1.0</ele><time>2026-04-12T12:35:00.302Z</time></trkpt><trkpt lat="44.8291767" lon="12.175185"><ele>-1.0</ele><time>2026-04-12T12:35:01.302Z</time></trkpt><trkpt lat="44.8294017" lon="12.1750833"><ele>-1.0</ele><time>2026-04-12T12:35:02.303Z</time></trkpt><trkpt lat="44.8296267" lon="12.174985"><ele>-1.0</ele><time>2026-04-12T12:35:03.302Z</time></trkpt><trkpt lat="44.8298483" lon="12.174875"><ele>-1.0</ele><time>2026-04-12T12:35:04.302Z</time></trkpt><trkpt lat="44.83008" lon="12.1747717"><ele>-2.5</ele><time>2026-04-12T12:35:05.302Z</time></trkpt><trkpt lat="44.8303033" lon="12.1746617"><ele>-4.0</ele><time>2026-04-12T12:35:06.302Z</time></trkpt><trkpt lat="44.83053" lon="12.1745633"><ele>-4.0</ele><time>2026-04-12T12:35:07.302Z</time></trkpt><trkpt lat="44.830755" lon="12.1744717"><ele>-4.0</ele><time>2026-04-12T12:35:08.302Z</time></trkpt><trkpt lat="44.8309717" lon="12.1743783"><ele>-3.333333333333333</ele><time>2026-04-12T12:35:09.302Z</time></trkpt><trkpt lat="44.8311767" lon="12.1742833"><ele>-2.6666666666666665</ele><time>2026-04-12T12:35:10.302Z</time></trkpt><trkpt lat="44.8313733" lon="12.174195"><ele>-2.0</ele><time>2026-04-12T12:35:11.302Z</time></trkpt><trkpt lat="44.8315517" lon="12.1741067"><ele>-2.0</ele><time>2026-04-12T12:35:12.302Z</time></trkpt><trkpt lat="44.83172" lon="12.1740317"><ele>-2.0</ele><time>2026-04-12T12:35:13.302Z</time></trkpt><trkpt lat="44.83188" lon="12.17397"><ele>-2.0</ele><time>2026-04-12T12:35:14.302Z</time></trkpt><trkpt lat="44.8320467" lon="12.1739033"><ele>-2.333333333333333</ele><time>2026-04-12T12:35:15.302Z</time></trkpt><trkpt lat="44.8322133" lon="12.1738367"><ele>-2.6666666666666665</ele><time>2026-04-12T12:35:16.302Z</time></trkpt><trkpt lat="44.8323767" lon="12.1737783"><ele>-3.0</ele><time>2026-04-12T12:35:17.303Z</time></trkpt><trkpt lat="44.8325533" lon="12.1737417"><ele>-2.6666666666666665</ele><time>2026-04-12T12:35:18.302Z</time></trkpt><trkpt lat="44.8327367" lon="12.173735"><ele>-2.333333333333333</ele><time>2026-04-12T12:35:19.303Z</time></trkpt><trkpt lat="44.8329383" lon="12.1737567"><ele>-2.0</ele><time>2026-04-12T12:35:20.302Z</time></trkpt><trkpt lat="44.8331467" lon="12.1738167"><ele>-2.0</ele><time>2026-04-12T12:35:21.302Z</time></trkpt><trkpt lat="44.8333433" lon="12.1739217"><ele>-2.0</ele><time>2026-04-12T12:35:22.303Z</time></trkpt><trkpt lat="44.8335517" lon="12.174065"><ele>-2.0</ele><time>2026-04-12T12:35:23.303Z</time></trkpt><trkpt lat="44.8337733" lon="12.174215"><ele>-2.0</ele><time>2026-04-12T12:35:24.302Z</time></trkpt><trkpt lat="44.8339967" lon="12.17436"><ele>-2.0</ele><time>2026-04-12T12:35:25.302Z</time></trkpt><trkpt lat="44.834225" lon="12.1745117"><ele>-2.5</ele><time>2026-04-12T12:35:26.302Z</time></trkpt><trkpt lat="44.8344583" lon="12.17466"><ele>-3.0</ele><time>2026-04-12T12:35:27.302Z</time></trkpt><trkpt lat="44.8346883" lon="12.1748017"><ele>-1.5</ele><time>2026-04-12T12:35:28.302Z</time></trkpt><trkpt lat="44.8349133" lon="12.1749167"><ele>0.0</ele><time>2026-04-12T12:35:29.302Z</time></trkpt><trkpt lat="44.835115" lon="12.1750083"><ele>-0.5</ele><time>2026-04-12T12:35:30.303Z</time></trkpt><trkpt lat="44.835275" lon="12.1750633"><ele>-1.0</ele><time>2026-04-12T12:35:31.302Z</time></trkpt><trkpt lat="44.8354167" lon="12.175105"><ele>-1.5</ele><time>2026-04-12T12:35:32.303Z</time></trkpt><trkpt lat="44.83554" lon="12.1751483"><ele>-2.0</ele><time>2026-04-12T12:35:33.302Z</time></trkpt><trkpt lat="44.8356667" lon="12.1751867"><ele>-2.0</ele><time>2026-04-12T12:35:34.302Z</time></trkpt><trkpt lat="44.8357917" lon="12.175215"><ele>-2.0</ele><time>2026-04-12T12:35:35.302Z</time></trkpt><trkpt lat="44.8359183" lon="12.1752333"><ele>-2.0</ele><time>2026-04-12T12:35:36.303Z</time></trkpt><trkpt lat="44.83605" lon="12.175245"><ele>-2.0</ele><time>2026-04-12T12:35:37.302Z</time></trkpt><trkpt lat="44.8361767" lon="12.1752533"><ele>-2.25</ele><time>2026-04-12T12:35:38.303Z</time></trkpt><trkpt lat="44.8362933" lon="12.1752483"><ele>-2.5</ele><time>2026-04-12T12:35:39.302Z</time></trkpt><trkpt lat="44.8364183" lon="12.17524"><ele>-2.75</ele><time>2026-04-12T12:35:40.302Z</time></trkpt><trkpt lat="44.8365517" lon="12.17524"><ele>-3.0</ele><time>2026-04-12T12:35:41.302Z</time></trkpt><trkpt lat="44.8366883" lon="12.1752417"><ele>-3.0</ele><time>2026-04-12T12:35:42.302Z</time></trkpt><trkpt lat="44.8368383" lon="12.175245"><ele>-3.0</ele><time>2026-04-12T12:35:43.302Z</time></trkpt><trkpt lat="44.836995" lon="12.175245"><ele>-3.0</ele><time>2026-04-12T12:35:44.303Z</time></trkpt><trkpt lat="44.8371683" lon="12.175245"><ele>-3.0</ele><time>2026-04-12T12:35:45.303Z</time></trkpt><trkpt lat="44.8373433" lon="12.175245"><ele>-3.0</ele><time>2026-04-12T12:35:46.303Z</time></trkpt><trkpt lat="44.8375133" lon="12.1752517"><ele>-3.0</ele><time>2026-04-12T12:35:47.302Z</time></trkpt><trkpt lat="44.8376733" lon="12.175255"><ele>-3.0</ele><time>2026-04-12T12:35:48.302Z</time></trkpt><trkpt lat="44.8378283" lon="12.1752767"><ele>-3.0</ele><time>2026-04-12T12:35:49.303Z</time></trkpt><trkpt lat="44.8379817" lon="12.175305"><ele>-3.0</ele><time>2026-04-12T12:35:50.303Z</time></trkpt><trkpt lat="44.83814" lon="12.1753467"><ele>-3.0</ele><time>2026-04-12T12:35:51.302Z</time></trkpt><trkpt lat="44.8382967" lon="12.1753917"><ele>-3.0</ele><time>2026-04-12T12:35:52.302Z</time></trkpt><trkpt lat="44.8384683" lon="12.1754283"><ele>-3.0</ele><time>2026-04-12T12:35:53.302Z</time></trkpt><trkpt lat="44.83864" lon="12.1754617"><ele>-2.3333333333333335</ele><time>2026-04-12T12:35:54.303Z</time></trkpt><trkpt lat="44.8388283" lon="12.1754883"><ele>-1.6666666666666665</ele><time>2026-04-12T12:35:55.302Z</time></trkpt><trkpt lat="44.8390283" lon="12.175505"><ele>-1.0</ele><time>2026-04-12T12:35:56.302Z</time></trkpt><trkpt lat="44.8392533" lon="12.175525"><ele>-1.0</ele><time>2026-04-12T12:35:57.303Z</time></trkpt><trkpt lat="44.83949" lon="12.1755267"><ele>-1.0</ele><time>2026-04-12T12:35:58.302Z</time></trkpt><trkpt lat="44.839735" lon="12.175525"><ele>-1.0</ele><time>2026-04-12T12:35:59.302Z</time></trkpt><trkpt lat="44.839975" lon="12.17552"><ele>-1.0</ele><time>2026-04-12T12:36:00.302Z</time></trkpt><trkpt lat="44.840205" lon="12.17551"><ele>-1.3333333333333333</ele><time>2026-04-12T12:36:01.303Z</time></trkpt><trkpt lat="44.8404317" lon="12.175515"><ele>-1.6666666666666665</ele><time>2026-04-12T12:36:02.302Z</time></trkpt><trkpt lat="44.8406467" lon="12.1755317"><ele>-2.0</ele><time>2026-04-12T12:36:03.302Z</time></trkpt><trkpt lat="44.840855" lon="12.1755467"><ele>-2.333333333333333</ele><time>2026-04-12T12:36:04.302Z</time></trkpt><trkpt lat="44.8410733" lon="12.1755517"><ele>-2.6666666666666665</ele><time>2026-04-12T12:36:05.302Z</time></trkpt><trkpt lat="44.841285" lon="12.1755583"><ele>-3.0</ele><time>2026-04-12T12:36:06.302Z</time></trkpt><trkpt lat="44.8414933" lon="12.1755517"><ele>-3.0</ele><time>2026-04-12T12:36:07.302Z</time></trkpt><trkpt lat="44.8417067" lon="12.1755483"><ele>-3.0</ele><time>2026-04-12T12:36:08.302Z</time></trkpt><trkpt lat="44.841915" lon="12.1755533"><ele>-3.0</ele><time>2026-04-12T12:36:09.302Z</time></trkpt><trkpt lat="44.84212" lon="12.17555"><ele>-2.6666666666666665</ele><time>2026-04-12T12:36:10.302Z</time></trkpt><trkpt lat="44.842335" lon="12.1755467"><ele>-2.333333333333333</ele><time>2026-04-12T12:36:11.302Z</time></trkpt><trkpt lat="44.842555" lon="12.175545"><ele>-2.0</ele><time>2026-04-12T12:36:12.302Z</time></trkpt><trkpt lat="44.8427633" lon="12.17554"><ele>-2.0</ele><time>2026-04-12T12:36:13.302Z</time></trkpt><trkpt lat="44.8429783" lon="12.17554"><ele>-2.0</ele><time>2026-04-12T12:36:14.302Z</time></trkpt><trkpt lat="44.8431967" lon="12.1755383"><ele>-2.0</ele><time>2026-04-12T12:36:15.302Z</time></trkpt><trkpt lat="44.8434117" lon="12.1755383"><ele>-1.6666666666666665</ele><time>2026-04-12T12:36:16.302Z</time></trkpt><trkpt lat="44.84363" lon="12.17554"><ele>-1.3333333333333333</ele><time>2026-04-12T12:36:17.303Z</time></trkpt><trkpt lat="44.8438467" lon="12.1755433"><ele>-1.0</ele><time>2026-04-12T12:36:18.302Z</time></trkpt><trkpt lat="44.8440533" lon="12.1755417"><ele>-1.0</ele><time>2026-04-12T12:36:19.302Z</time></trkpt><trkpt lat="44.844265" lon="12.1755417"><ele>-1.0</ele><time>2026-04-12T12:36:20.302Z</time></trkpt><trkpt lat="44.8444717" lon="12.1755367"><ele>-1.0</ele><time>2026-04-12T12:36:21.302Z</time></trkpt><trkpt lat="44.8446683" lon="12.1755417"><ele>-1.0</ele><time>2026-04-12T12:36:22.302Z</time></trkpt><trkpt lat="44.8448717" lon="12.1755433"><ele>-1.0</ele><time>2026-04-12T12:36:23.302Z</time></trkpt><trkpt lat="44.845075" lon="12.1755317"><ele>-1.0</ele><time>2026-04-12T12:36:24.302Z</time></trkpt><trkpt lat="44.8452733" lon="12.1755367"><ele>-1.0</ele><time>2026-04-12T12:36:25.302Z</time></trkpt><trkpt lat="44.8454767" lon="12.1755283"><ele>-1.0</ele><time>2026-04-12T12:36:26.303Z</time></trkpt><trkpt lat="44.8456867" lon="12.1755217"><ele>-1.0</ele><time>2026-04-12T12:36:27.302Z</time></trkpt><trkpt lat="44.845895" lon="12.17552"><ele>0.0</ele><time>2026-04-12T12:36:28.303Z</time></trkpt><trkpt lat="44.8460867" lon="12.17552"><ele>1.0</ele><time>2026-04-12T12:36:29.303Z</time></trkpt><trkpt lat="44.8462817" lon="12.1755217"><ele>2.0</ele><time>2026-04-12T12:36:30.303Z</time></trkpt><trkpt lat="44.8464633" lon="12.175525"><ele>2.0</ele><time>2026-04-12T12:36:31.303Z</time></trkpt><trkpt lat="44.8466517" lon="12.17552"><ele>2.0</ele><time>2026-04-12T12:36:32.303Z</time></trkpt><trkpt lat="44.8468433" lon="12.1755183"><ele>2.0</ele><time>2026-04-12T12:36:33.302Z</time></trkpt><trkpt lat="44.84703" lon="12.1755183"><ele>2.0</ele><time>2026-04-12T12:36:34.302Z</time></trkpt><trkpt lat="44.8472183" lon="12.1755217"><ele>2.0</ele><time>2026-04-12T12:36:35.302Z</time></trkpt><trkpt lat="44.8474133" lon="12.17552"><ele>2.0</ele><time>2026-04-12T12:36:36.302Z</time></trkpt><trkpt lat="44.847605" lon="12.17552"><ele>1.3333333333333333</ele><time>2026-04-12T12:36:37.302Z</time></trkpt><trkpt lat="44.84779" lon="12.1755183"><ele>0.6666666666666666</ele><time>2026-04-12T12:36:38.302Z</time></trkpt><trkpt lat="44.8479533" lon="12.17551"><ele>0.0</ele><time>2026-04-12T12:36:39.302Z</time></trkpt><trkpt lat="44.848105" lon="12.17551"><ele>0.0</ele><time>2026-04-12T12:36:40.303Z</time></trkpt><trkpt lat="44.8482483" lon="12.1755133"><ele>0.0</ele><time>2026-04-12T12:36:41.302Z</time></trkpt><trkpt lat="44.8483883" lon="12.1755167"><ele>0.0</ele><time>2026-04-12T12:36:42.303Z</time></trkpt><trkpt lat="44.84852" lon="12.1755233"><ele>0.0</ele><time>2026-04-12T12:36:43.303Z</time></trkpt><trkpt lat="44.84865" lon="12.175525"><ele>0.0</ele><time>2026-04-12T12:36:44.302Z</time></trkpt><trkpt lat="44.8487717" lon="12.1755367"><ele>0.0</ele><time>2026-04-12T12:36:45.303Z</time></trkpt><trkpt lat="44.8488917" lon="12.1755567"><ele>0.0</ele><time>2026-04-12T12:36:46.302Z</time></trkpt><trkpt lat="44.848995" lon="12.1755883"><ele>0.0</ele><time>2026-04-12T12:36:47.303Z</time></trkpt><trkpt lat="44.8490867" lon="12.175625"><ele>0.0</ele><time>2026-04-12T12:36:48.303Z</time></trkpt><trkpt lat="44.8491683" lon="12.175655"><ele>0.0</ele><time>2026-04-12T12:36:49.302Z</time></trkpt><trkpt lat="44.8492433" lon="12.1756817"><ele>0.0</ele><time>2026-04-12T12:36:50.302Z</time></trkpt><trkpt lat="44.8493083" lon="12.17571"><ele>0.0</ele><time>2026-04-12T12:36:51.302Z</time></trkpt><trkpt lat="44.84942" lon="12.1757667"><ele>0.0</ele><time>2026-04-12T12:36:53.302Z</time></trkpt><trkpt lat="44.8495333" lon="12.1758183"><ele>0.0</ele><time>2026-04-12T12:36:55.302Z</time></trkpt><trkpt lat="44.84964" lon="12.1758867"><ele>-0.2857142857142857</ele><time>2026-04-12T12:36:57.302Z</time></trkpt><trkpt lat="44.849695" lon="12.1759417"><ele>-0.5714285714285714</ele><time>2026-04-12T12:36:58.303Z</time></trkpt><trkpt lat="44.84974" lon="12.176025"><ele>-0.8571428571428571</ele><time>2026-04-12T12:36:59.302Z</time></trkpt><trkpt lat="44.8497833" lon="12.176115"><ele>-1.1428571428571428</ele><time>2026-04-12T12:37:00.302Z</time></trkpt><trkpt lat="44.849825" lon="12.176195"><ele>-1.4285714285714284</ele><time>2026-04-12T12:37:01.303Z</time></trkpt><trkpt lat="44.8498783" lon="12.1762567"><ele>-1.7142857142857142</ele><time>2026-04-12T12:37:02.302Z</time></trkpt><trkpt lat="44.8499467" lon="12.1762983"><ele>-2.0</ele><time>2026-04-12T12:37:03.302Z</time></trkpt><trkpt lat="44.85002" lon="12.176295"><ele>-1.9999999999999998</ele><time>2026-04-12T12:37:04.302Z</time></trkpt><trkpt lat="44.8500983" lon="12.1762817"><ele>-2.0</ele><time>2026-04-12T12:37:05.302Z</time></trkpt><trkpt lat="44.8501833" lon="12.1762683"><ele>-2.0</ele><time>2026-04-12T12:37:06.302Z</time></trkpt><trkpt lat="44.8502683" lon="12.176275"><ele>-2.0</ele><time>2026-04-12T12:37:07.302Z</time></trkpt><trkpt lat="44.8503567" lon="12.1763083"><ele>-1.9999999999999998</ele><time>2026-04-12T12:37:08.302Z</time></trkpt><trkpt lat="44.850455" lon="12.17634"><ele>-2.0</ele><time>2026-04-12T12:37:09.302Z</time></trkpt><trkpt lat="44.8505667" lon="12.176345"><ele>-2.0</ele><time>2026-04-12T12:37:10.302Z</time></trkpt><trkpt lat="44.850685" lon="12.176335"><ele>-2.0</ele><time>2026-04-12T12:37:11.302Z</time></trkpt><trkpt lat="44.8508083" lon="12.17632"><ele>-2.0</ele><time>2026-04-12T12:37:12.302Z</time></trkpt><trkpt lat="44.8509217" lon="12.176315"><ele>-2.0</ele><time>2026-04-12T12:37:13.302Z</time></trkpt><trkpt lat="44.851045" lon="12.1763217"><ele>-2.0</ele><time>2026-04-12T12:37:14.302Z</time></trkpt><trkpt lat="44.851175" lon="12.17635"><ele>-2.0</ele><time>2026-04-12T12:37:15.302Z</time></trkpt><trkpt lat="44.8513017" lon="12.1764"><ele>-2.0</ele><time>2026-04-12T12:37:16.302Z</time></trkpt><trkpt lat="44.851425" lon="12.1764717"><ele>-2.0</ele><time>2026-04-12T12:37:17.302Z</time></trkpt><trkpt lat="44.8515417" lon="12.1765633"><ele>-1.75</ele><time>2026-04-12T12:37:18.302Z</time></trkpt><trkpt lat="44.851655" lon="12.1766767"><ele>-1.5</ele><time>2026-04-12T12:37:19.302Z</time></trkpt><trkpt lat="44.851775" lon="12.1767933"><ele>-1.25</ele><time>2026-04-12T12:37:20.302Z</time></trkpt><trkpt lat="44.8518917" lon="12.1769183"><ele>-1.0</ele><time>2026-04-12T12:37:21.302Z</time></trkpt><trkpt lat="44.85202" lon="12.177055"><ele>-0.3333333333333333</ele><time>2026-04-12T12:37:22.302Z</time></trkpt><trkpt lat="44.8521417" lon="12.1772017"><ele>0.3333333333333333</ele><time>2026-04-12T12:37:23.302Z</time></trkpt><trkpt lat="44.8522667" lon="12.1773517"><ele>1.0</ele><time>2026-04-12T12:37:24.302Z</time></trkpt><trkpt lat="44.852385" lon="12.17749"><ele>1.0</ele><time>2026-04-12T12:37:25.302Z</time></trkpt><trkpt lat="44.8524983" lon="12.1776283"><ele>1.0</ele><time>2026-04-12T12:37:26.302Z</time></trkpt><trkpt lat="44.8526117" lon="12.1777717"><ele>1.0</ele><time>2026-04-12T12:37:27.303Z</time></trkpt><trkpt lat="44.8527283" lon="12.1779017"><ele>0.3333333333333333</ele><time>2026-04-12T12:37:28.302Z</time></trkpt><trkpt lat="44.8528433" lon="12.1780267"><ele>-0.3333333333333333</ele><time>2026-04-12T12:37:29.302Z</time></trkpt><trkpt lat="44.852965" lon="12.17816"><ele>-1.0</ele><time>2026-04-12T12:37:30.303Z</time></trkpt><trkpt lat="44.85309" lon="12.1783033"><ele>-1.0</ele><time>2026-04-12T12:37:31.302Z</time></trkpt><trkpt lat="44.8532083" lon="12.17845"><ele>-1.0</ele><time>2026-04-12T12:37:32.303Z</time></trkpt><trkpt lat="44.8533267" lon="12.1785883"><ele>-1.0</ele><time>2026-04-12T12:37:33.302Z</time></trkpt><trkpt lat="44.8534383" lon="12.1787233"><ele>-1.3333333333333333</ele><time>2026-04-12T12:37:34.302Z</time></trkpt><trkpt lat="44.8535517" lon="12.1788567"><ele>-1.6666666666666665</ele><time>2026-04-12T12:37:35.303Z</time></trkpt><trkpt lat="44.8536683" lon="12.1789983"><ele>-2.0</ele><time>2026-04-12T12:37:36.302Z</time></trkpt><trkpt lat="44.8537867" lon="12.179145"><ele>-1.3333333333333333</ele><time>2026-04-12T12:37:37.302Z</time></trkpt><trkpt lat="44.8539083" lon="12.1792833"><ele>-0.6666666666666666</ele><time>2026-04-12T12:37:38.302Z</time></trkpt><trkpt lat="44.8540233" lon="12.1794217"><ele>0.0</ele><time>2026-04-12T12:37:39.302Z</time></trkpt><trkpt lat="44.8541467" lon="12.17955"><ele>0.0</ele><time>2026-04-12T12:37:40.303Z</time></trkpt><trkpt lat="44.854275" lon="12.17968"><ele>0.0</ele><time>2026-04-12T12:37:41.302Z</time></trkpt><trkpt lat="44.854415" lon="12.179795"><ele>0.0</ele><time>2026-04-12T12:37:42.302Z</time></trkpt><trkpt lat="44.8545567" lon="12.1799033"><ele>-0.6666666666666666</ele><time>2026-04-12T12:37:43.302Z</time></trkpt><trkpt lat="44.8547083" lon="12.1800067"><ele>-1.3333333333333333</ele><time>2026-04-12T12:37:44.303Z</time></trkpt><trkpt lat="44.8548533" lon="12.1800983"><ele>-2.0</ele><time>2026-04-12T12:37:45.302Z</time></trkpt><trkpt lat="44.8550083" lon="12.180195"><ele>-2.0</ele><time>2026-04-12T12:37:46.302Z</time></trkpt><trkpt lat="44.8551717" lon="12.1802817"><ele>-2.0</ele><time>2026-04-12T12:37:47.302Z</time></trkpt><trkpt lat="44.855345" lon="12.1803683"><ele>-2.0</ele><time>2026-04-12T12:37:48.302Z</time></trkpt><trkpt lat="44.85552" lon="12.1804533"><ele>-2.0</ele><time>2026-04-12T12:37:49.303Z</time></trkpt><trkpt lat="44.8557033" lon="12.18053"><ele>-2.0</ele><time>2026-04-12T12:37:50.302Z</time></trkpt><trkpt lat="44.8558883" lon="12.1806033"><ele>-2.0</ele><time>2026-04-12T12:37:51.301Z</time></trkpt><trkpt lat="44.8560717" lon="12.1806867"><ele>-1.6666666666666665</ele><time>2026-04-12T12:37:52.301Z</time></trkpt><trkpt lat="44.8562533" lon="12.18076"><ele>-1.3333333333333333</ele><time>2026-04-12T12:37:53.301Z</time></trkpt><trkpt lat="44.85644" lon="12.1808367"><ele>-1.0</ele><time>2026-04-12T12:37:54.301Z</time></trkpt><trkpt lat="44.8566283" lon="12.1809117"><ele>-1.3333333333333333</ele><time>2026-04-12T12:37:55.301Z</time></trkpt><trkpt lat="44.856815" lon="12.180985"><ele>-1.6666666666666665</ele><time>2026-04-12T12:37:56.301Z</time></trkpt><trkpt lat="44.8569917" lon="12.18106"><ele>-2.0</ele><time>2026-04-12T12:37:57.302Z</time></trkpt><trkpt lat="44.8571667" lon="12.1811333"><ele>-2.0</ele><time>2026-04-12T12:37:58.302Z</time></trkpt><trkpt lat="44.8573367" lon="12.1812"><ele>-2.0</ele><time>2026-04-12T12:37:59.302Z</time></trkpt><trkpt lat="44.8575033" lon="12.1812767"><ele>-2.0</ele><time>2026-04-12T12:38:00.302Z</time></trkpt><trkpt lat="44.857675" lon="12.1813467"><ele>-1.6666666666666665</ele><time>2026-04-12T12:38:01.302Z</time></trkpt><trkpt lat="44.85786" lon="12.1814233"><ele>-1.3333333333333333</ele><time>2026-04-12T12:38:02.301Z</time></trkpt><trkpt lat="44.858055" lon="12.18151"><ele>-1.0</ele><time>2026-04-12T12:38:03.301Z</time></trkpt><trkpt lat="44.8582567" lon="12.1815967"><ele>-1.3333333333333333</ele><time>2026-04-12T12:38:04.302Z</time></trkpt><trkpt lat="44.8584583" lon="12.1816883"><ele>-1.6666666666666665</ele><time>2026-04-12T12:38:05.301Z</time></trkpt><trkpt lat="44.8586767" lon="12.1817817"><ele>-2.0</ele><time>2026-04-12T12:38:06.301Z</time></trkpt><trkpt lat="44.8589" lon="12.1818833"><ele>-2.0</ele><time>2026-04-12T12:38:07.301Z</time></trkpt><trkpt lat="44.859125" lon="12.1819883"><ele>-2.0</ele><time>2026-04-12T12:38:08.302Z</time></trkpt><trkpt lat="44.85935" lon="12.182095"><ele>-1.5</ele><time>2026-04-12T12:38:09.301Z</time></trkpt><trkpt lat="44.8595733" lon="12.182195"><ele>-1.0</ele><time>2026-04-12T12:38:10.301Z</time></trkpt><trkpt lat="44.8597917" lon="12.1822967"><ele>-1.3333333333333333</ele><time>2026-04-12T12:38:11.302Z</time></trkpt><trkpt lat="44.8600083" lon="12.1823883"><ele>-1.6666666666666665</ele><time>2026-04-12T12:38:12.302Z</time></trkpt><trkpt lat="44.8602183" lon="12.182485"><ele>-2.0</ele><time>2026-04-12T12:38:13.301Z</time></trkpt><trkpt lat="44.8604283" lon="12.182585"><ele>-2.0</ele><time>2026-04-12T12:38:14.301Z</time></trkpt><trkpt lat="44.8606383" lon="12.1826883"><ele>-2.0</ele><time>2026-04-12T12:38:15.301Z</time></trkpt><trkpt lat="44.8608483" lon="12.182795"><ele>-2.0</ele><time>2026-04-12T12:38:16.301Z</time></trkpt><trkpt lat="44.8610533" lon="12.18291"><ele>-2.0</ele><time>2026-04-12T12:38:17.301Z</time></trkpt><trkpt lat="44.86126" lon="12.18303"><ele>-2.0</ele><time>2026-04-12T12:38:18.301Z</time></trkpt><trkpt lat="44.8614617" lon="12.1831533"><ele>-2.0</ele><time>2026-04-12T12:38:19.301Z</time></trkpt><trkpt lat="44.8616633" lon="12.1832917"><ele>-2.0</ele><time>2026-04-12T12:38:20.301Z</time></trkpt><trkpt lat="44.86187" lon="12.18343"><ele>-2.0</ele><time>2026-04-12T12:38:21.302Z</time></trkpt><trkpt lat="44.8620833" lon="12.1835817"><ele>-2.0</ele><time>2026-04-12T12:38:22.301Z</time></trkpt><trkpt lat="44.862305" lon="12.1837367"><ele>-2.0</ele><time>2026-04-12T12:38:23.302Z</time></trkpt><trkpt lat="44.862545" lon="12.1839117"><ele>-2.5</ele><time>2026-04-12T12:38:24.301Z</time></trkpt><trkpt lat="44.8627833" lon="12.1840817"><ele>-3.0</ele><time>2026-04-12T12:38:25.301Z</time></trkpt><trkpt lat="44.8630233" lon="12.18426"><ele>-3.0</ele><time>2026-04-12T12:38:26.301Z</time></trkpt><trkpt lat="44.8632617" lon="12.1844433"><ele>-3.0</ele><time>2026-04-12T12:38:27.301Z</time></trkpt><trkpt lat="44.8634967" lon="12.1846183"><ele>-3.0</ele><time>2026-04-12T12:38:28.301Z</time></trkpt><trkpt lat="44.86372" lon="12.184785"><ele>-3.0</ele><time>2026-04-12T12:38:29.301Z</time></trkpt><trkpt lat="44.86394" lon="12.1849417"><ele>-3.0</ele><time>2026-04-12T12:38:30.301Z</time></trkpt><trkpt lat="44.86414" lon="12.1850933"><ele>-3.0</ele><time>2026-04-12T12:38:31.302Z</time></trkpt><trkpt lat="44.8643383" lon="12.18524"><ele>-2.6666666666666665</ele><time>2026-04-12T12:38:32.302Z</time></trkpt><trkpt lat="44.8645367" lon="12.1853817"><ele>-2.333333333333333</ele><time>2026-04-12T12:38:33.302Z</time></trkpt><trkpt lat="44.8647317" lon="12.1855183"><ele>-2.0</ele><time>2026-04-12T12:38:34.301Z</time></trkpt><trkpt lat="44.8649317" lon="12.1856633"><ele>-2.0</ele><time>2026-04-12T12:38:35.302Z</time></trkpt><trkpt lat="44.8651317" lon="12.1858067"><ele>-2.0</ele><time>2026-04-12T12:38:36.301Z</time></trkpt><trkpt lat="44.8653367" lon="12.1859417"><ele>-2.0</ele><time>2026-04-12T12:38:37.301Z</time></trkpt><trkpt lat="44.8655383" lon="12.1860933"><ele>-2.0</ele><time>2026-04-12T12:38:38.301Z</time></trkpt><trkpt lat="44.8657417" lon="12.1862483"><ele>-2.0</ele><time>2026-04-12T12:38:39.301Z</time></trkpt><trkpt lat="44.8659433" lon="12.1864133"><ele>-2.0</ele><time>2026-04-12T12:38:40.301Z</time></trkpt><trkpt lat="44.8661483" lon="12.1865767"><ele>-2.0</ele><time>2026-04-12T12:38:41.301Z</time></trkpt><trkpt lat="44.8663517" lon="12.1867467"><ele>-2.0</ele><time>2026-04-12T12:38:42.302Z</time></trkpt><trkpt lat="44.8665583" lon="12.1869233"><ele>-2.0</ele><time>2026-04-12T12:38:43.301Z</time></trkpt><trkpt lat="44.8667633" lon="12.18711"><ele>-2.0</ele><time>2026-04-12T12:38:44.302Z</time></trkpt><trkpt lat="44.8669733" lon="12.1872983"><ele>-2.5</ele><time>2026-04-12T12:38:45.301Z</time></trkpt><trkpt lat="44.8671833" lon="12.1874767"><ele>-3.0</ele><time>2026-04-12T12:38:46.301Z</time></trkpt><trkpt lat="44.86738" lon="12.1876517"><ele>-3.0</ele><time>2026-04-12T12:38:47.301Z</time></trkpt><trkpt lat="44.8675683" lon="12.1878217"><ele>-3.0</ele><time>2026-04-12T12:38:48.301Z</time></trkpt><trkpt lat="44.867765" lon="12.1879867"><ele>-3.0</ele><time>2026-04-12T12:38:49.301Z</time></trkpt><trkpt lat="44.8679567" lon="12.18816"><ele>-3.0</ele><time>2026-04-12T12:38:50.301Z</time></trkpt><trkpt lat="44.8681417" lon="12.18834"><ele>-3.0</ele><time>2026-04-12T12:38:51.302Z</time></trkpt><trkpt lat="44.8683283" lon="12.1885233"><ele>-3.0</ele><time>2026-04-12T12:38:52.302Z</time></trkpt><trkpt lat="44.8685133" lon="12.1887033"><ele>-2.6666666666666665</ele><time>2026-04-12T12:38:53.301Z</time></trkpt><trkpt lat="44.8686933" lon="12.1888867"><ele>-2.333333333333333</ele><time>2026-04-12T12:38:54.301Z</time></trkpt><trkpt lat="44.8688717" lon="12.1890667"><ele>-2.0</ele><time>2026-04-12T12:38:55.301Z</time></trkpt><trkpt lat="44.8690467" lon="12.18925"><ele>-2.0</ele><time>2026-04-12T12:38:56.301Z</time></trkpt><trkpt lat="44.8692267" lon="12.1894283"><ele>-2.0</ele><time>2026-04-12T12:38:57.302Z</time></trkpt><trkpt lat="44.8694083" lon="12.1896183"><ele>-2.0</ele><time>2026-04-12T12:38:58.301Z</time></trkpt><trkpt lat="44.8695733" lon="12.1897983"><ele>-1.5</ele><time>2026-04-12T12:38:59.301Z</time></trkpt><trkpt lat="44.8697633" lon="12.1899917"><ele>-1.0</ele><time>2026-04-12T12:39:00.301Z</time></trkpt><trkpt lat="44.86995" lon="12.19019"><ele>-1.5</ele><time>2026-04-12T12:39:01.301Z</time></trkpt><trkpt lat="44.87014" lon="12.1903933"><ele>-2.0</ele><time>2026-04-12T12:39:02.301Z</time></trkpt><trkpt lat="44.8703317" lon="12.1905917"><ele>-1.5</ele><time>2026-04-12T12:39:03.301Z</time></trkpt><trkpt lat="44.8705317" lon="12.1907917"><ele>-1.0</ele><time>2026-04-12T12:39:04.302Z</time></trkpt><trkpt lat="44.8707333" lon="12.1910033"><ele>-1.0</ele><time>2026-04-12T12:39:05.302Z</time></trkpt><trkpt lat="44.87093" lon="12.1912017"><ele>-1.0</ele><time>2026-04-12T12:39:06.302Z</time></trkpt><trkpt lat="44.8711333" lon="12.1914067"><ele>-2.0</ele><time>2026-04-12T12:39:07.301Z</time></trkpt><trkpt lat="44.87134" lon="12.1916183"><ele>-3.0</ele><time>2026-04-12T12:39:08.301Z</time></trkpt><trkpt lat="44.87154" lon="12.1918333"><ele>-3.0</ele><time>2026-04-12T12:39:09.301Z</time></trkpt><trkpt lat="44.87174" lon="12.1920483"><ele>-3.0</ele><time>2026-04-12T12:39:10.301Z</time></trkpt><trkpt lat="44.8719433" lon="12.1922567"><ele>-2.5</ele><time>2026-04-12T12:39:11.301Z</time></trkpt><trkpt lat="44.8721483" lon="12.192465"><ele>-2.0</ele><time>2026-04-12T12:39:12.301Z</time></trkpt><trkpt lat="44.8723533" lon="12.192675"><ele>-2.0</ele><time>2026-04-12T12:39:13.301Z</time></trkpt><trkpt lat="44.8725517" lon="12.19288"><ele>-2.0</ele><time>2026-04-12T12:39:14.301Z</time></trkpt><trkpt lat="44.87274" lon="12.1930867"><ele>-1.5</ele><time>2026-04-12T12:39:15.301Z</time></trkpt><trkpt lat="44.8729267" lon="12.19328"><ele>-1.0</ele><time>2026-04-12T12:39:16.301Z</time></trkpt><trkpt lat="44.8731117" lon="12.1934733"><ele>-1.0</ele><time>2026-04-12T12:39:17.301Z</time></trkpt><trkpt lat="44.8732933" lon="12.1936817"><ele>-1.0</ele><time>2026-04-12T12:39:18.302Z</time></trkpt><trkpt lat="44.873475" lon="12.1938917"><ele>-1.5</ele><time>2026-04-12T12:39:19.301Z</time></trkpt><trkpt lat="44.8736583" lon="12.1941083"><ele>-2.0</ele><time>2026-04-12T12:39:20.302Z</time></trkpt><trkpt lat="44.8738433" lon="12.1943283"><ele>-2.0</ele><time>2026-04-12T12:39:21.302Z</time></trkpt><trkpt lat="44.8740317" lon="12.1945567"><ele>-2.0</ele><time>2026-04-12T12:39:22.301Z</time></trkpt><trkpt lat="44.8742267" lon="12.1947867"><ele>-1.5</ele><time>2026-04-12T12:39:23.301Z</time></trkpt><trkpt lat="44.8744167" lon="12.19502"><ele>-1.0</ele><time>2026-04-12T12:39:24.302Z</time></trkpt><trkpt lat="44.8746033" lon="12.19525"><ele>-1.0</ele><time>2026-04-12T12:39:25.301Z</time></trkpt><trkpt lat="44.87479" lon="12.1954783"><ele>-1.0</ele><time>2026-04-12T12:39:26.301Z</time></trkpt><trkpt lat="44.87498" lon="12.1957083"><ele>-0.5</ele><time>2026-04-12T12:39:27.301Z</time></trkpt><trkpt lat="44.87517" lon="12.19593"><ele>0.0</ele><time>2026-04-12T12:39:28.302Z</time></trkpt><trkpt lat="44.8753567" lon="12.1961483"><ele>0.0</ele><time>2026-04-12T12:39:29.302Z</time></trkpt><trkpt lat="44.8755317" lon="12.1963533"><ele>0.0</ele><time>2026-04-12T12:39:30.301Z</time></trkpt><trkpt lat="44.8756967" lon="12.1965517"><ele>0.0</ele><time>2026-04-12T12:39:31.301Z</time></trkpt><trkpt lat="44.8758567" lon="12.196745"><ele>-0.6666666666666666</ele><time>2026-04-12T12:39:32.301Z</time></trkpt><trkpt lat="44.8760267" lon="12.1969383"><ele>-1.3333333333333333</ele><time>2026-04-12T12:39:33.302Z</time></trkpt><trkpt lat="44.8761933" lon="12.1971383"><ele>-2.0</ele><time>2026-04-12T12:39:34.301Z</time></trkpt><trkpt lat="44.876365" lon="12.197345"><ele>-2.333333333333333</ele><time>2026-04-12T12:39:35.301Z</time></trkpt><trkpt lat="44.8765333" lon="12.1975467"><ele>-2.6666666666666665</ele><time>2026-04-12T12:39:36.301Z</time></trkpt><trkpt lat="44.8767067" lon="12.1977517"><ele>-3.0</ele><time>2026-04-12T12:39:37.302Z</time></trkpt><trkpt lat="44.8768817" lon="12.1979617"><ele>-3.0</ele><time>2026-04-12T12:39:38.302Z</time></trkpt><trkpt lat="44.8770533" lon="12.1981667"><ele>-3.0</ele><time>2026-04-12T12:39:39.302Z</time></trkpt><trkpt lat="44.8772267" lon="12.19837"><ele>-2.6666666666666665</ele><time>2026-04-12T12:39:40.301Z</time></trkpt><trkpt lat="44.8774017" lon="12.1985733"><ele>-2.333333333333333</ele><time>2026-04-12T12:39:41.301Z</time></trkpt><trkpt lat="44.87756" lon="12.1987783"><ele>-2.0</ele><time>2026-04-12T12:39:42.301Z</time></trkpt><trkpt lat="44.8777133" lon="12.1989733"><ele>-2.333333333333333</ele><time>2026-04-12T12:39:43.301Z</time></trkpt><trkpt lat="44.8778583" lon="12.1991633"><ele>-2.6666666666666665</ele><time>2026-04-12T12:39:44.301Z</time></trkpt><trkpt lat="44.878" lon="12.199365"><ele>-3.0</ele><time>2026-04-12T12:39:45.301Z</time></trkpt><trkpt lat="44.8781417" lon="12.1995733"><ele>-3.0</ele><time>2026-04-12T12:39:46.301Z</time></trkpt><trkpt lat="44.8782817" lon="12.19979"><ele>-3.0</ele><time>2026-04-12T12:39:47.301Z</time></trkpt><trkpt lat="44.8784267" lon="12.2000067"><ele>-3.0</ele><time>2026-04-12T12:39:48.301Z</time></trkpt><trkpt lat="44.8785667" lon="12.2002333"><ele>-3.333333333333333</ele><time>2026-04-12T12:39:49.302Z</time></trkpt><trkpt lat="44.8787083" lon="12.20046"><ele>-3.6666666666666665</ele><time>2026-04-12T12:39:50.302Z</time></trkpt><trkpt lat="44.87885" lon="12.2006983"><ele>-4.0</ele><time>2026-04-12T12:39:51.302Z</time></trkpt><trkpt lat="44.878995" lon="12.2009417"><ele>-3.0</ele><time>2026-04-12T12:39:52.302Z</time></trkpt><trkpt lat="44.8791417" lon="12.2011783"><ele>-2.0</ele><time>2026-04-12T12:39:53.301Z</time></trkpt><trkpt lat="44.8792917" lon="12.201405"><ele>-1.0</ele><time>2026-04-12T12:39:54.301Z</time></trkpt><trkpt lat="44.8794433" lon="12.2016233"><ele>-0.3333333333333333</ele><time>2026-04-12T12:39:55.301Z</time></trkpt><trkpt lat="44.8795917" lon="12.2018367"><ele>0.3333333333333333</ele><time>2026-04-12T12:39:56.301Z</time></trkpt><trkpt lat="44.87974" lon="12.2020367"><ele>1.0</ele><time>2026-04-12T12:39:57.301Z</time></trkpt><trkpt lat="44.8799" lon="12.2022317"><ele>0.6666666666666666</ele><time>2026-04-12T12:39:58.301Z</time></trkpt><trkpt lat="44.88006" lon="12.20242"><ele>0.3333333333333333</ele><time>2026-04-12T12:39:59.302Z</time></trkpt><trkpt lat="44.8802233" lon="12.2026133"><ele>0.0</ele><time>2026-04-12T12:40:00.301Z</time></trkpt><trkpt lat="44.8803817" lon="12.2028133"><ele>-0.3333333333333333</ele><time>2026-04-12T12:40:01.302Z</time></trkpt><trkpt lat="44.8805467" lon="12.203015"><ele>-0.6666666666666666</ele><time>2026-04-12T12:40:02.302Z</time></trkpt><trkpt lat="44.88071" lon="12.2032167"><ele>-1.0</ele><time>2026-04-12T12:40:03.302Z</time></trkpt><trkpt lat="44.8808783" lon="12.20342"><ele>-1.0</ele><time>2026-04-12T12:40:04.301Z</time></trkpt><trkpt lat="44.8810483" lon="12.20362"><ele>-1.0</ele><time>2026-04-12T12:40:05.301Z</time></trkpt><trkpt lat="44.88122" lon="12.203825"><ele>-1.0</ele><time>2026-04-12T12:40:06.302Z</time></trkpt><trkpt lat="44.8813867" lon="12.204025"><ele>-1.0</ele><time>2026-04-12T12:40:07.301Z</time></trkpt><trkpt lat="44.8815533" lon="12.2042283"><ele>-1.0</ele><time>2026-04-12T12:40:08.301Z</time></trkpt><trkpt lat="44.8817233" lon="12.2044283"><ele>-1.0</ele><time>2026-04-12T12:40:09.301Z</time></trkpt><trkpt lat="44.8818917" lon="12.2046317"><ele>-1.3333333333333333</ele><time>2026-04-12T12:40:10.301Z</time></trkpt><trkpt lat="44.882065" lon="12.2048317"><ele>-1.6666666666666665</ele><time>2026-04-12T12:40:11.302Z</time></trkpt><trkpt lat="44.8822317" lon="12.2050233"><ele>-2.0</ele><time>2026-04-12T12:40:12.302Z</time></trkpt><trkpt lat="44.882405" lon="12.2052283"><ele>-2.0</ele><time>2026-04-12T12:40:13.301Z</time></trkpt><trkpt lat="44.8825783" lon="12.2054217"><ele>-2.0</ele><time>2026-04-12T12:40:14.302Z</time></trkpt><trkpt lat="44.8827433" lon="12.2056267"><ele>-2.0</ele><time>2026-04-12T12:40:15.301Z</time></trkpt><trkpt lat="44.8829083" lon="12.2058283"><ele>-1.6666666666666665</ele><time>2026-04-12T12:40:16.301Z</time></trkpt><trkpt lat="44.8830633" lon="12.2060133"><ele>-1.3333333333333333</ele><time>2026-04-12T12:40:17.301Z</time></trkpt><trkpt lat="44.8832117" lon="12.20619"><ele>-1.0</ele><time>2026-04-12T12:40:18.301Z</time></trkpt><trkpt lat="44.8833583" lon="12.2063683"><ele>-1.3333333333333333</ele><time>2026-04-12T12:40:19.302Z</time></trkpt><trkpt lat="44.8835033" lon="12.2065367"><ele>-1.6666666666666665</ele><time>2026-04-12T12:40:20.301Z</time></trkpt><trkpt lat="44.8836483" lon="12.206715"><ele>-2.0</ele><time>2026-04-12T12:40:21.301Z</time></trkpt><trkpt lat="44.883785" lon="12.20688"><ele>-2.0</ele><time>2026-04-12T12:40:22.301Z</time></trkpt><trkpt lat="44.88393" lon="12.2070533"><ele>-2.0</ele><time>2026-04-12T12:40:23.301Z</time></trkpt><trkpt lat="44.884065" lon="12.2072133"><ele>-2.0</ele><time>2026-04-12T12:40:24.301Z</time></trkpt><trkpt lat="44.884185" lon="12.207355"><ele>-1.25</ele><time>2026-04-12T12:40:25.301Z</time></trkpt><trkpt lat="44.884305" lon="12.2075"><ele>-0.5</ele><time>2026-04-12T12:40:26.301Z</time></trkpt><trkpt lat="44.8844083" lon="12.2076417"><ele>0.25</ele><time>2026-04-12T12:40:27.301Z</time></trkpt><trkpt lat="44.88452" lon="12.207775"><ele>1.0</ele><time>2026-04-12T12:40:28.301Z</time></trkpt><trkpt lat="44.88464" lon="12.2079233"><ele>1.0</ele><time>2026-04-12T12:40:29.301Z</time></trkpt><trkpt lat="44.88476" lon="12.2080733"><ele>1.0</ele><time>2026-04-12T12:40:30.302Z</time></trkpt><trkpt lat="44.884885" lon="12.2082233"><ele>1.0</ele><time>2026-04-12T12:40:31.301Z</time></trkpt><trkpt lat="44.8850083" lon="12.2083683"><ele>0.3333333333333333</ele><time>2026-04-12T12:40:32.301Z</time></trkpt><trkpt lat="44.8851367" lon="12.2085117"><ele>-0.3333333333333333</ele><time>2026-04-12T12:40:33.302Z</time></trkpt><trkpt lat="44.885255" lon="12.2086517"><ele>-1.0</ele><time>2026-04-12T12:40:34.301Z</time></trkpt><trkpt lat="44.88538" lon="12.2087917"><ele>-1.0</ele><time>2026-04-12T12:40:35.301Z</time></trkpt><trkpt lat="44.8854967" lon="12.2089283"><ele>-1.0</ele><time>2026-04-12T12:40:36.302Z</time></trkpt><trkpt lat="44.8856017" lon="12.2090517"><ele>-1.0</ele><time>2026-04-12T12:40:37.301Z</time></trkpt><trkpt lat="44.885705" lon="12.2091767"><ele>-1.0</ele><time>2026-04-12T12:40:38.302Z</time></trkpt><trkpt lat="44.88581" lon="12.2093"><ele>-1.0</ele><time>2026-04-12T12:40:39.302Z</time></trkpt><trkpt lat="44.885915" lon="12.2094267"><ele>-1.0</ele><time>2026-04-12T12:40:40.301Z</time></trkpt><trkpt lat="44.8860267" lon="12.2095467"><ele>-1.0</ele><time>2026-04-12T12:40:41.301Z</time></trkpt><trkpt lat="44.88613" lon="12.2096767"><ele>-1.0</ele><time>2026-04-12T12:40:42.302Z</time></trkpt><trkpt lat="44.8862317" lon="12.209805"><ele>-0.75</ele><time>2026-04-12T12:40:43.301Z</time></trkpt><trkpt lat="44.8863317" lon="12.209915"><ele>-0.5</ele><time>2026-04-12T12:40:44.301Z</time></trkpt><trkpt lat="44.8864167" lon="12.2100283"><ele>-0.25</ele><time>2026-04-12T12:40:45.302Z</time></trkpt><trkpt lat="44.8865017" lon="12.2101267"><ele>0.0</ele><time>2026-04-12T12:40:46.301Z</time></trkpt><trkpt lat="44.88658" lon="12.2102183"><ele>0.0</ele><time>2026-04-12T12:40:47.301Z</time></trkpt><trkpt lat="44.8866483" lon="12.2102983"><ele>0.0</ele><time>2026-04-12T12:40:48.301Z</time></trkpt><trkpt lat="44.88671" lon="12.2103717"><ele>0.0</ele><time>2026-04-12T12:40:49.301Z</time></trkpt><trkpt lat="44.8867667" lon="12.21044"><ele>0.0</ele><time>2026-04-12T12:40:50.301Z</time></trkpt><trkpt lat="44.8868533" lon="12.21055"><ele>0.0</ele><time>2026-04-12T12:40:52.301Z</time></trkpt><trkpt lat="44.8868967" lon="12.2106167"><ele>0.0</ele><time>2026-04-12T12:40:53.302Z</time></trkpt><trkpt lat="44.886925" lon="12.2106967"><ele>-0.16666666666666666</ele><time>2026-04-12T12:40:54.301Z</time></trkpt><trkpt lat="44.8869367" lon="12.210785"><ele>-0.3333333333333333</ele><time>2026-04-12T12:40:55.301Z</time></trkpt><trkpt lat="44.8869333" lon="12.210875"><ele>-0.5</ele><time>2026-04-12T12:40:56.302Z</time></trkpt><trkpt lat="44.8869" lon="12.21096"><ele>-0.6666666666666666</ele><time>2026-04-12T12:40:57.302Z</time></trkpt><trkpt lat="44.8868283" lon="12.2110367"><ele>-0.8333333333333333</ele><time>2026-04-12T12:40:58.301Z</time></trkpt><trkpt lat="44.8867417" lon="12.2111033"><ele>-1.0</ele><time>2026-04-12T12:40:59.301Z</time></trkpt><trkpt lat="44.8866483" lon="12.2111917"><ele>-1.0</ele><time>2026-04-12T12:41:00.301Z</time></trkpt><trkpt lat="44.88657" lon="12.2112983"><ele>-1.0</ele><time>2026-04-12T12:41:01.301Z</time></trkpt><trkpt lat="44.8865067" lon="12.2114083"><ele>-1.0</ele><time>2026-04-12T12:41:02.301Z</time></trkpt><trkpt lat="44.8864517" lon="12.21151"><ele>-1.0</ele><time>2026-04-12T12:41:03.301Z</time></trkpt><trkpt lat="44.8864" lon="12.2116033"><ele>-1.0</ele><time>2026-04-12T12:41:04.301Z</time></trkpt><trkpt lat="44.8863583" lon="12.21168"><ele>-0.8333333333333333</ele><time>2026-04-12T12:41:05.302Z</time></trkpt><trkpt lat="44.88629" lon="12.211795"><ele>-0.6666666666666666</ele><time>2026-04-12T12:41:07.302Z</time></trkpt><trkpt lat="44.88624" lon="12.2118733"><ele>-0.5</ele><time>2026-04-12T12:41:09.301Z</time></trkpt><trkpt lat="44.8861933" lon="12.2119583"><ele>-0.3333333333333333</ele><time>2026-04-12T12:41:11.301Z</time></trkpt><trkpt lat="44.8861383" lon="12.2120617"><ele>-0.16666666666666666</ele><time>2026-04-12T12:41:13.301Z</time></trkpt><trkpt lat="44.8861067" lon="12.212145"><ele>0.0</ele><time>2026-04-12T12:41:15.302Z</time></trkpt><trkpt lat="44.8861783" lon="12.2121367"><ele>0.0</ele><time>2026-04-12T12:41:19.301Z</time></trkpt><trkpt lat="44.8862167" lon="12.2120517"><ele>0.0</ele><time>2026-04-12T12:41:22.301Z</time></trkpt><trkpt lat="44.886145" lon="12.2120833"><ele>0.0</ele><time>2026-04-12T12:41:59.301Z</time></trkpt><trkpt lat="44.886085" lon="12.2121917"><ele>0.0</ele><time>2026-04-12T12:42:00.302Z</time></trkpt><trkpt lat="44.8860117" lon="12.2123367"><ele>0.0</ele><time>2026-04-12T12:42:01.302Z</time></trkpt><trkpt lat="44.8859183" lon="12.2125033"><ele>0.3333333333333333</ele><time>2026-04-12T12:42:02.301Z</time></trkpt><trkpt lat="44.88582" lon="12.2126767"><ele>0.6666666666666666</ele><time>2026-04-12T12:42:03.301Z</time></trkpt><trkpt lat="44.885715" lon="12.212865"><ele>1.0</ele><time>2026-04-12T12:42:04.302Z</time></trkpt><trkpt lat="44.885615" lon="12.2130633"><ele>0.6666666666666666</ele><time>2026-04-12T12:42:05.301Z</time></trkpt><trkpt lat="44.8855083" lon="12.213255"><ele>0.3333333333333333</ele><time>2026-04-12T12:42:06.302Z</time></trkpt><trkpt lat="44.8854067" lon="12.2134567"><ele>0.0</ele><time>2026-04-12T12:42:07.301Z</time></trkpt><trkpt lat="44.8852917" lon="12.2136717"><ele>0.0</ele><time>2026-04-12T12:42:08.301Z</time></trkpt><trkpt lat="44.8851833" lon="12.2138883"><ele>0.0</ele><time>2026-04-12T12:42:09.301Z</time></trkpt><trkpt lat="44.8850683" lon="12.2141017"><ele>0.0</ele><time>2026-04-12T12:42:10.301Z</time></trkpt><trkpt lat="44.8849483" lon="12.2143167"><ele>0.0</ele><time>2026-04-12T12:42:11.301Z</time></trkpt><trkpt lat="44.88483" lon="12.21455"><ele>0.0</ele><time>2026-04-12T12:42:12.301Z</time></trkpt><trkpt lat="44.8847117" lon="12.21478"><ele>0.0</ele><time>2026-04-12T12:42:13.302Z</time></trkpt><trkpt lat="44.8845917" lon="12.2150083"><ele>-0.3333333333333333</ele><time>2026-04-12T12:42:14.301Z</time></trkpt><trkpt lat="44.8844733" lon="12.215235"><ele>-0.6666666666666666</ele><time>2026-04-12T12:42:15.301Z</time></trkpt><trkpt lat="44.884355" lon="12.2154433"><ele>-1.0</ele><time>2026-04-12T12:42:16.302Z</time></trkpt><trkpt lat="44.8842417" lon="12.215655"><ele>-1.3333333333333333</ele><time>2026-04-12T12:42:17.302Z</time></trkpt><trkpt lat="44.8841317" lon="12.2158633"><ele>-1.6666666666666665</ele><time>2026-04-12T12:42:18.301Z</time></trkpt><trkpt lat="44.8840267" lon="12.2160667"><ele>-2.0</ele><time>2026-04-12T12:42:19.301Z</time></trkpt><trkpt lat="44.88392" lon="12.2162717"><ele>-2.0</ele><time>2026-04-12T12:42:20.301Z</time></trkpt><trkpt lat="44.883815" lon="12.216475"><ele>-2.0</ele><time>2026-04-12T12:42:21.301Z</time></trkpt><trkpt lat="44.883705" lon="12.2166733"><ele>-2.0</ele><time>2026-04-12T12:42:22.302Z</time></trkpt><trkpt lat="44.8836017" lon="12.2168633"><ele>-2.0</ele><time>2026-04-12T12:42:23.302Z</time></trkpt><trkpt lat="44.8835" lon="12.21705"><ele>-2.0</ele><time>2026-04-12T12:42:24.302Z</time></trkpt><trkpt lat="44.883395" lon="12.2172433"><ele>-2.0</ele><time>2026-04-12T12:42:25.301Z</time></trkpt><trkpt lat="44.883295" lon="12.2174383"><ele>-2.333333333333333</ele><time>2026-04-12T12:42:26.301Z</time></trkpt><trkpt lat="44.883195" lon="12.2176317"><ele>-2.6666666666666665</ele><time>2026-04-12T12:42:27.301Z</time></trkpt><trkpt lat="44.8831033" lon="12.217815"><ele>-3.0</ele><time>2026-04-12T12:42:28.301Z</time></trkpt><trkpt lat="44.883" lon="12.2180067"><ele>-2.6666666666666665</ele><time>2026-04-12T12:42:29.302Z</time></trkpt><trkpt lat="44.8829117" lon="12.2182117"><ele>-2.333333333333333</ele><time>2026-04-12T12:42:30.301Z</time></trkpt><trkpt lat="44.8828367" lon="12.2184317"><ele>-2.0</ele><time>2026-04-12T12:42:31.301Z</time></trkpt><trkpt lat="44.8827767" lon="12.2186533"><ele>-2.0</ele><time>2026-04-12T12:42:32.301Z</time></trkpt><trkpt lat="44.882725" lon="12.2188683"><ele>-2.0</ele><time>2026-04-12T12:42:33.301Z</time></trkpt><trkpt lat="44.88268" lon="12.2190683"><ele>-2.0</ele><time>2026-04-12T12:42:34.301Z</time></trkpt><trkpt lat="44.8826317" lon="12.2192633"><ele>-2.25</ele><time>2026-04-12T12:42:35.301Z</time></trkpt><trkpt lat="44.8825783" lon="12.2194517"><ele>-2.5</ele><time>2026-04-12T12:42:36.301Z</time></trkpt><trkpt lat="44.8825267" lon="12.2196367"><ele>-2.75</ele><time>2026-04-12T12:42:37.301Z</time></trkpt><trkpt lat="44.8824817" lon="12.2198167"><ele>-3.0</ele><time>2026-04-12T12:42:38.302Z</time></trkpt><trkpt lat="44.8824433" lon="12.22"><ele>-2.5</ele><time>2026-04-12T12:42:39.302Z</time></trkpt><trkpt lat="44.8824117" lon="12.220195"><ele>-2.0</ele><time>2026-04-12T12:42:40.301Z</time></trkpt><trkpt lat="44.882395" lon="12.2204017"><ele>-1.5</ele><time>2026-04-12T12:42:41.301Z</time></trkpt><trkpt lat="44.8823933" lon="12.2206117"><ele>-1.0</ele><time>2026-04-12T12:42:42.301Z</time></trkpt><trkpt lat="44.8823967" lon="12.2208333"><ele>-0.75</ele><time>2026-04-12T12:42:43.301Z</time></trkpt><trkpt lat="44.882405" lon="12.2210533"><ele>-0.5</ele><time>2026-04-12T12:42:44.301Z</time></trkpt><trkpt lat="44.8824083" lon="12.22126"><ele>-0.25</ele><time>2026-04-12T12:42:45.301Z</time></trkpt><trkpt lat="44.8824133" lon="12.2214583"><ele>0.0</ele><time>2026-04-12T12:42:46.301Z</time></trkpt><trkpt lat="44.882415" lon="12.2216467"><ele>0.25</ele><time>2026-04-12T12:42:47.301Z</time></trkpt><trkpt lat="44.8824167" lon="12.2218267"><ele>0.5</ele><time>2026-04-12T12:42:48.301Z</time></trkpt><trkpt lat="44.8824217" lon="12.222005"><ele>0.75</ele><time>2026-04-12T12:42:49.301Z</time></trkpt><trkpt lat="44.8824217" lon="12.22218"><ele>1.0</ele><time>2026-04-12T12:42:50.302Z</time></trkpt><trkpt lat="44.88243" lon="12.2223517"><ele>1.2000000000000002</ele><time>2026-04-12T12:42:51.301Z</time></trkpt><trkpt lat="44.8824317" lon="12.2225117"><ele>1.4000000000000001</ele><time>2026-04-12T12:42:52.301Z</time></trkpt><trkpt lat="44.88243" lon="12.222655"><ele>1.6</ele><time>2026-04-12T12:42:53.301Z</time></trkpt><trkpt lat="44.8824333" lon="12.2227983"><ele>1.8</ele><time>2026-04-12T12:42:54.301Z</time></trkpt><trkpt lat="44.8824433" lon="12.2229317"><ele>2.0</ele><time>2026-04-12T12:42:55.301Z</time></trkpt><trkpt lat="44.8824467" lon="12.2230867"><ele>1.6</ele><time>2026-04-12T12:42:56.301Z</time></trkpt><trkpt lat="44.8824517" lon="12.2232467"><ele>1.2000000000000002</ele><time>2026-04-12T12:42:57.302Z</time></trkpt><trkpt lat="44.882455" lon="12.2234017"><ele>0.8</ele><time>2026-04-12T12:42:58.301Z</time></trkpt><trkpt lat="44.8824567" lon="12.2235583"><ele>0.4</ele><time>2026-04-12T12:42:59.301Z</time></trkpt><trkpt lat="44.8824517" lon="12.2237167"><ele>0.0</ele><time>2026-04-12T12:43:00.301Z</time></trkpt><trkpt lat="44.8824483" lon="12.223885"><ele>0.0</ele><time>2026-04-12T12:43:01.302Z</time></trkpt><trkpt lat="44.8824367" lon="12.22406"><ele>0.0</ele><time>2026-04-12T12:43:02.301Z</time></trkpt><trkpt lat="44.8824217" lon="12.224245"><ele>0.0</ele><time>2026-04-12T12:43:03.301Z</time></trkpt><trkpt lat="44.8823967" lon="12.224425"><ele>0.0</ele><time>2026-04-12T12:43:04.301Z</time></trkpt><trkpt lat="44.8823783" lon="12.2246067"><ele>0.0</ele><time>2026-04-12T12:43:05.302Z</time></trkpt><trkpt lat="44.8823517" lon="12.2247767"><ele>0.0</ele><time>2026-04-12T12:43:06.301Z</time></trkpt><trkpt lat="44.88232" lon="12.22493"><ele>0.0</ele><time>2026-04-12T12:43:07.301Z</time></trkpt><trkpt lat="44.88228" lon="12.225065"><ele>0.0</ele><time>2026-04-12T12:43:08.301Z</time></trkpt><trkpt lat="44.88224" lon="12.2251833"><ele>0.0</ele><time>2026-04-12T12:43:09.301Z</time></trkpt><trkpt lat="44.88221" lon="12.225295"><ele>0.0</ele><time>2026-04-12T12:43:10.301Z</time></trkpt><trkpt lat="44.8821783" lon="12.225405"><ele>0.0</ele><time>2026-04-12T12:43:11.301Z</time></trkpt><trkpt lat="44.8821383" lon="12.2255167"><ele>0.0</ele><time>2026-04-12T12:43:12.302Z</time></trkpt><trkpt lat="44.8820967" lon="12.2256183"><ele>0.0</ele><time>2026-04-12T12:43:13.301Z</time></trkpt><trkpt lat="44.882055" lon="12.2257117"><ele>0.0</ele><time>2026-04-12T12:43:14.301Z</time></trkpt><trkpt lat="44.882015" lon="12.2258067"><ele>0.0</ele><time>2026-04-12T12:43:15.301Z</time></trkpt><trkpt lat="44.8819683" lon="12.2258967"><ele>-0.4</ele><time>2026-04-12T12:43:16.301Z</time></trkpt><trkpt lat="44.88191" lon="12.2259883"><ele>-0.8</ele><time>2026-04-12T12:43:17.301Z</time></trkpt><trkpt lat="44.8818383" lon="12.226085"><ele>-1.2000000000000002</ele><time>2026-04-12T12:43:18.302Z</time></trkpt><trkpt lat="44.8817467" lon="12.2261867"><ele>-1.6</ele><time>2026-04-12T12:43:19.302Z</time></trkpt><trkpt lat="44.881645" lon="12.2262867"><ele>-2.0</ele><time>2026-04-12T12:43:20.301Z</time></trkpt><trkpt lat="44.88154" lon="12.2263883"><ele>-1.75</ele><time>2026-04-12T12:43:21.302Z</time></trkpt><trkpt lat="44.8814467" lon="12.22648"><ele>-1.5</ele><time>2026-04-12T12:43:22.301Z</time></trkpt><trkpt lat="44.8813483" lon="12.2265583"><ele>-1.25</ele><time>2026-04-12T12:43:23.301Z</time></trkpt><trkpt lat="44.88125" lon="12.2266417"><ele>-1.0</ele><time>2026-04-12T12:43:24.302Z</time></trkpt><trkpt lat="44.88115" lon="12.2267283"><ele>-1.0</ele><time>2026-04-12T12:43:25.301Z</time></trkpt><trkpt lat="44.88105" lon="12.226825"><ele>-1.0</ele><time>2026-04-12T12:43:26.301Z</time></trkpt><trkpt lat="44.8809367" lon="12.2269167"><ele>-1.0</ele><time>2026-04-12T12:43:27.301Z</time></trkpt><trkpt lat="44.8808317" lon="12.22701"><ele>-1.0</ele><time>2026-04-12T12:43:28.301Z</time></trkpt><trkpt lat="44.8807283" lon="12.2271017"><ele>-0.75</ele><time>2026-04-12T12:43:29.301Z</time></trkpt><trkpt lat="44.8806233" lon="12.2271883"><ele>-0.5</ele><time>2026-04-12T12:43:30.301Z</time></trkpt><trkpt lat="44.880515" lon="12.2272667"><ele>-0.25</ele><time>2026-04-12T12:43:31.301Z</time></trkpt><trkpt lat="44.880405" lon="12.2273417"><ele>0.0</ele><time>2026-04-12T12:43:32.301Z</time></trkpt><trkpt lat="44.8803033" lon="12.2274083"><ele>0.0</ele><time>2026-04-12T12:43:33.302Z</time></trkpt><trkpt lat="44.8801967" lon="12.22747"><ele>0.0</ele><time>2026-04-12T12:43:34.301Z</time></trkpt><trkpt lat="44.8800967" lon="12.2275367"><ele>0.0</ele><time>2026-04-12T12:43:35.301Z</time></trkpt><trkpt lat="44.8799833" lon="12.22759"><ele>0.0</ele><time>2026-04-12T12:43:36.302Z</time></trkpt><trkpt lat="44.8798717" lon="12.2276467"><ele>0.25</ele><time>2026-04-12T12:43:37.302Z</time></trkpt><trkpt lat="44.8797533" lon="12.2277067"><ele>0.5</ele><time>2026-04-12T12:43:38.301Z</time></trkpt><trkpt lat="44.8796417" lon="12.2277667"><ele>0.75</ele><time>2026-04-12T12:43:39.301Z</time></trkpt><trkpt lat="44.879525" lon="12.2278117"><ele>1.0</ele><time>2026-04-12T12:43:40.301Z</time></trkpt><trkpt lat="44.8794133" lon="12.2278617"><ele>1.0</ele><time>2026-04-12T12:43:41.301Z</time></trkpt><trkpt lat="44.8792983" lon="12.2279017"><ele>1.0</ele><time>2026-04-12T12:43:42.302Z</time></trkpt><trkpt lat="44.8791867" lon="12.2279383"><ele>1.0</ele><time>2026-04-12T12:43:43.301Z</time></trkpt><trkpt lat="44.879085" lon="12.227965"><ele>1.0</ele><time>2026-04-12T12:43:44.302Z</time></trkpt><trkpt lat="44.87899" lon="12.227995"><ele>1.0</ele><time>2026-04-12T12:43:45.301Z</time></trkpt><trkpt lat="44.8789017" lon="12.2280233"><ele>1.0</ele><time>2026-04-12T12:43:46.301Z</time></trkpt><trkpt lat="44.8788133" lon="12.22806"><ele>1.0</ele><time>2026-04-12T12:43:47.301Z</time></trkpt><trkpt lat="44.878725" lon="12.2280933"><ele>1.0</ele><time>2026-04-12T12:43:48.302Z</time></trkpt><trkpt lat="44.87863" lon="12.2281317"><ele>1.0</ele><time>2026-04-12T12:43:49.301Z</time></trkpt><trkpt lat="44.8785333" lon="12.2281667"><ele>1.0</ele><time>2026-04-12T12:43:50.302Z</time></trkpt><trkpt lat="44.8784133" lon="12.2282033"><ele>1.0</ele><time>2026-04-12T12:43:51.301Z</time></trkpt><trkpt lat="44.8782933" lon="12.2282417"><ele>1.0</ele><time>2026-04-12T12:43:52.302Z</time></trkpt><trkpt lat="44.8781783" lon="12.2282783"><ele>1.0</ele><time>2026-04-12T12:43:53.301Z</time></trkpt><trkpt lat="44.8780583" lon="12.22831"><ele>1.0</ele><time>2026-04-12T12:43:54.301Z</time></trkpt><trkpt lat="44.8779283" lon="12.2283383"><ele>1.0</ele><time>2026-04-12T12:43:55.301Z</time></trkpt><trkpt lat="44.87779" lon="12.2283633"><ele>1.0</ele><time>2026-04-12T12:43:56.301Z</time></trkpt><trkpt lat="44.87766" lon="12.228385"><ele>1.0</ele><time>2026-04-12T12:43:57.302Z</time></trkpt><trkpt lat="44.87754" lon="12.22841"><ele>1.0</ele><time>2026-04-12T12:43:58.302Z</time></trkpt><trkpt lat="44.8774283" lon="12.228435"><ele>1.0</ele><time>2026-04-12T12:43:59.301Z</time></trkpt><trkpt lat="44.8773117" lon="12.2284583"><ele>1.0</ele><time>2026-04-12T12:44:00.301Z</time></trkpt><trkpt lat="44.8772017" lon="12.2284867"><ele>1.0</ele><time>2026-04-12T12:44:01.301Z</time></trkpt><trkpt lat="44.8770817" lon="12.228515"><ele>1.0</ele><time>2026-04-12T12:44:02.302Z</time></trkpt><trkpt lat="44.8769683" lon="12.2285433"><ele>1.0</ele><time>2026-04-12T12:44:03.301Z</time></trkpt><trkpt lat="44.8768567" lon="12.22857"><ele>1.0</ele><time>2026-04-12T12:44:04.302Z</time></trkpt><trkpt lat="44.8767483" lon="12.2285967"><ele>1.0</ele><time>2026-04-12T12:44:05.301Z</time></trkpt><trkpt lat="44.876665" lon="12.228625"><ele>1.0</ele><time>2026-04-12T12:44:06.302Z</time></trkpt><trkpt lat="44.8765983" lon="12.2286517"><ele>1.0</ele><time>2026-04-12T12:44:07.301Z</time></trkpt><trkpt lat="44.8765317" lon="12.2287317"><ele>1.0</ele><time>2026-04-12T12:44:09.301Z</time></trkpt><trkpt lat="44.8765217" lon="12.2288667"><ele>1.0</ele><time>2026-04-12T12:44:11.301Z</time></trkpt><trkpt lat="44.876515" lon="12.229065"><ele>1.0</ele><time>2026-04-12T12:44:13.301Z</time></trkpt><trkpt lat="44.87652" lon="12.2291783"><ele>1.0</ele><time>2026-04-12T12:44:14.302Z</time></trkpt><trkpt lat="44.8765117" lon="12.22927"><ele>1.0</ele><time>2026-04-12T12:44:15.301Z</time></trkpt><trkpt lat="44.8765017" lon="12.22937"><ele>1.0</ele><time>2026-04-12T12:44:16.301Z</time></trkpt><trkpt lat="44.8764867" lon="12.22947"><ele>1.0</ele><time>2026-04-12T12:44:17.301Z</time></trkpt><trkpt lat="44.8764733" lon="12.2295933"><ele>1.0</ele><time>2026-04-12T12:44:18.301Z</time></trkpt><trkpt lat="44.876455" lon="12.22972"><ele>1.0</ele><time>2026-04-12T12:44:19.301Z</time></trkpt><trkpt lat="44.8764333" lon="12.229855"><ele>1.0</ele><time>2026-04-12T12:44:20.301Z</time></trkpt><trkpt lat="44.87641" lon="12.2299917"><ele>0.6000000000000001</ele><time>2026-04-12T12:44:21.301Z</time></trkpt><trkpt lat="44.8763817" lon="12.230135"><ele>0.20000000000000007</ele><time>2026-04-12T12:44:22.302Z</time></trkpt><trkpt lat="44.8763517" lon="12.2302783"><ele>-0.20000000000000007</ele><time>2026-04-12T12:44:23.301Z</time></trkpt><trkpt lat="44.8763183" lon="12.2304333"><ele>-0.6000000000000001</ele><time>2026-04-12T12:44:24.302Z</time></trkpt><trkpt lat="44.876285" lon="12.2305833"><ele>-1.0</ele><time>2026-04-12T12:44:25.301Z</time></trkpt><trkpt lat="44.8762517" lon="12.2307433"><ele>-1.5</ele><time>2026-04-12T12:44:26.302Z</time></trkpt><trkpt lat="44.87621" lon="12.2309133"><ele>-2.0</ele><time>2026-04-12T12:44:27.302Z</time></trkpt><trkpt lat="44.87617" lon="12.2310983"><ele>-2.5</ele><time>2026-04-12T12:44:28.301Z</time></trkpt><trkpt lat="44.8761183" lon="12.2313033"><ele>-3.0</ele><time>2026-04-12T12:44:29.301Z</time></trkpt><trkpt lat="44.8760717" lon="12.2315333"><ele>-3.0</ele><time>2026-04-12T12:44:30.301Z</time></trkpt><trkpt lat="44.876025" lon="12.2317733"><ele>-3.0</ele><time>2026-04-12T12:44:31.301Z</time></trkpt><trkpt lat="44.8759817" lon="12.2320217"><ele>-3.0</ele><time>2026-04-12T12:44:32.301Z</time></trkpt><trkpt lat="44.8759267" lon="12.23229"><ele>-2.6666666666666665</ele><time>2026-04-12T12:44:33.302Z</time></trkpt><trkpt lat="44.8758683" lon="12.2325633"><ele>-2.333333333333333</ele><time>2026-04-12T12:44:34.301Z</time></trkpt><trkpt lat="44.8758133" lon="12.2328567"><ele>-2.0</ele><time>2026-04-12T12:44:35.302Z</time></trkpt><trkpt lat="44.87575" lon="12.2331583"><ele>-1.6666666666666665</ele><time>2026-04-12T12:44:36.301Z</time></trkpt><trkpt lat="44.8756883" lon="12.233445"><ele>-1.3333333333333333</ele><time>2026-04-12T12:44:37.301Z</time></trkpt><trkpt lat="44.8756283" lon="12.233715"><ele>-1.0</ele><time>2026-04-12T12:44:38.301Z</time></trkpt><trkpt lat="44.87557" lon="12.23396"><ele>-1.0</ele><time>2026-04-12T12:44:39.301Z</time></trkpt><trkpt lat="44.8755267" lon="12.2341933"><ele>-1.0</ele><time>2026-04-12T12:44:40.301Z</time></trkpt><trkpt lat="44.8754817" lon="12.2344133"><ele>-1.0</ele><time>2026-04-12T12:44:41.301Z</time></trkpt><trkpt lat="44.8754383" lon="12.2346267"><ele>-1.25</ele><time>2026-04-12T12:44:42.301Z</time></trkpt><trkpt lat="44.8754017" lon="12.2348217"><ele>-1.5</ele><time>2026-04-12T12:44:43.301Z</time></trkpt><trkpt lat="44.875365" lon="12.2350167"><ele>-1.75</ele><time>2026-04-12T12:44:44.302Z</time></trkpt><trkpt lat="44.875335" lon="12.2352"><ele>-2.0</ele><time>2026-04-12T12:44:45.301Z</time></trkpt><trkpt lat="44.8752983" lon="12.2353833"><ele>-2.0</ele><time>2026-04-12T12:44:46.301Z</time></trkpt><trkpt lat="44.8752617" lon="12.2355567"><ele>-2.0</ele><time>2026-04-12T12:44:47.302Z</time></trkpt><trkpt lat="44.8752317" lon="12.235705"><ele>-2.0</ele><time>2026-04-12T12:44:48.301Z</time></trkpt><trkpt lat="44.8752017" lon="12.2358433"><ele>-2.0</ele><time>2026-04-12T12:44:49.301Z</time></trkpt><trkpt lat="44.8751717" lon="12.2359717"><ele>-2.0</ele><time>2026-04-12T12:44:50.302Z</time></trkpt><trkpt lat="44.8751483" lon="12.2361033"><ele>-2.2</ele><time>2026-04-12T12:44:51.301Z</time></trkpt><trkpt lat="44.87512" lon="12.23624"><ele>-2.4000000000000004</ele><time>2026-04-12T12:44:52.301Z</time></trkpt><trkpt lat="44.8750883" lon="12.2363783"><ele>-2.5999999999999996</ele><time>2026-04-12T12:44:53.302Z</time></trkpt><trkpt lat="44.87506" lon="12.2365283"><ele>-2.8</ele><time>2026-04-12T12:44:54.302Z</time></trkpt><trkpt lat="44.8750233" lon="12.2367"><ele>-3.0</ele><time>2026-04-12T12:44:55.301Z</time></trkpt><trkpt lat="44.8749833" lon="12.2368867"><ele>-3.0</ele><time>2026-04-12T12:44:56.301Z</time></trkpt><trkpt lat="44.874945" lon="12.23709"><ele>-3.0</ele><time>2026-04-12T12:44:57.301Z</time></trkpt><trkpt lat="44.8749033" lon="12.2373017"><ele>-3.0</ele><time>2026-04-12T12:44:58.302Z</time></trkpt><trkpt lat="44.8748533" lon="12.23752"><ele>-2.6666666666666665</ele><time>2026-04-12T12:44:59.301Z</time></trkpt><trkpt lat="44.8748067" lon="12.2377467"><ele>-2.333333333333333</ele><time>2026-04-12T12:45:00.302Z</time></trkpt><trkpt lat="44.87476" lon="12.2379783"><ele>-2.0</ele><time>2026-04-12T12:45:01.302Z</time></trkpt><trkpt lat="44.87471" lon="12.2382183"><ele>-2.6666666666666665</ele><time>2026-04-12T12:45:02.301Z</time></trkpt><trkpt lat="44.87466" lon="12.2384567"><ele>-3.333333333333333</ele><time>2026-04-12T12:45:03.302Z</time></trkpt><trkpt lat="44.874615" lon="12.2386967"><ele>-4.0</ele><time>2026-04-12T12:45:04.301Z</time></trkpt><trkpt lat="44.8745617" lon="12.2389333"><ele>-4.0</ele><time>2026-04-12T12:45:05.301Z</time></trkpt><trkpt lat="44.8745117" lon="12.239165"><ele>-4.0</ele><time>2026-04-12T12:45:06.301Z</time></trkpt><trkpt lat="44.8744533" lon="12.2393833"><ele>-4.0</ele><time>2026-04-12T12:45:07.301Z</time></trkpt><trkpt lat="44.8744" lon="12.239585"><ele>-4.0</ele><time>2026-04-12T12:45:08.301Z</time></trkpt><trkpt lat="44.8743367" lon="12.23978"><ele>-4.0</ele><time>2026-04-12T12:45:09.301Z</time></trkpt><trkpt lat="44.874265" lon="12.239965"><ele>-4.0</ele><time>2026-04-12T12:45:10.301Z</time></trkpt><trkpt lat="44.8741883" lon="12.2401517"><ele>-3.333333333333333</ele><time>2026-04-12T12:45:11.301Z</time></trkpt><trkpt lat="44.874095" lon="12.240335"><ele>-2.6666666666666665</ele><time>2026-04-12T12:45:12.301Z</time></trkpt><trkpt lat="44.8739983" lon="12.2405067"><ele>-2.0</ele><time>2026-04-12T12:45:13.302Z</time></trkpt><trkpt lat="44.8739033" lon="12.2406833"><ele>-1.6666666666666665</ele><time>2026-04-12T12:45:14.301Z</time></trkpt><trkpt lat="44.8737983" lon="12.240865"><ele>-1.3333333333333333</ele><time>2026-04-12T12:45:15.302Z</time></trkpt><trkpt lat="44.873685" lon="12.241045"><ele>-1.0</ele><time>2026-04-12T12:45:16.302Z</time></trkpt><trkpt lat="44.8735717" lon="12.24123"><ele>-1.0</ele><time>2026-04-12T12:45:17.301Z</time></trkpt><trkpt lat="44.8734617" lon="12.2414167"><ele>-1.0</ele><time>2026-04-12T12:45:18.301Z</time></trkpt><trkpt lat="44.8733467" lon="12.2416083"><ele>-1.0</ele><time>2026-04-12T12:45:19.302Z</time></trkpt><trkpt lat="44.8732283" lon="12.241805"><ele>-1.3333333333333333</ele><time>2026-04-12T12:45:20.301Z</time></trkpt><trkpt lat="44.87311" lon="12.2420017"><ele>-1.6666666666666665</ele><time>2026-04-12T12:45:21.301Z</time></trkpt><trkpt lat="44.8729933" lon="12.2421983"><ele>-2.0</ele><time>2026-04-12T12:45:22.301Z</time></trkpt><trkpt lat="44.872875" lon="12.2424033"><ele>-2.333333333333333</ele><time>2026-04-12T12:45:23.301Z</time></trkpt><trkpt lat="44.8727567" lon="12.2426067"><ele>-2.6666666666666665</ele><time>2026-04-12T12:45:24.301Z</time></trkpt><trkpt lat="44.8726367" lon="12.2428133"><ele>-3.0</ele><time>2026-04-12T12:45:25.301Z</time></trkpt><trkpt lat="44.8725133" lon="12.2430317"><ele>-3.333333333333333</ele><time>2026-04-12T12:45:26.302Z</time></trkpt><trkpt lat="44.8723883" lon="12.2432467"><ele>-3.6666666666666665</ele><time>2026-04-12T12:45:27.302Z</time></trkpt><trkpt lat="44.8722617" lon="12.24347"><ele>-4.0</ele><time>2026-04-12T12:45:28.302Z</time></trkpt><trkpt lat="44.8721217" lon="12.2436933"><ele>-4.0</ele><time>2026-04-12T12:45:29.301Z</time></trkpt><trkpt lat="44.87198" lon="12.2439267"><ele>-4.0</ele><time>2026-04-12T12:45:30.301Z</time></trkpt><trkpt lat="44.871835" lon="12.2441683"><ele>-4.0</ele><time>2026-04-12T12:45:31.302Z</time></trkpt><trkpt lat="44.8716867" lon="12.2444183"><ele>-3.5</ele><time>2026-04-12T12:45:32.301Z</time></trkpt><trkpt lat="44.8715367" lon="12.2446767"><ele>-3.0</ele><time>2026-04-12T12:45:33.301Z</time></trkpt><trkpt lat="44.871385" lon="12.244925"><ele>-3.0</ele><time>2026-04-12T12:45:34.301Z</time></trkpt><trkpt lat="44.8712367" lon="12.2451833"><ele>-3.0</ele><time>2026-04-12T12:45:35.301Z</time></trkpt><trkpt lat="44.87109" lon="12.24544"><ele>-3.0</ele><time>2026-04-12T12:45:36.301Z</time></trkpt><trkpt lat="44.8709433" lon="12.2456917"><ele>-3.0</ele><time>2026-04-12T12:45:37.301Z</time></trkpt><trkpt lat="44.8708" lon="12.2459433"><ele>-3.0</ele><time>2026-04-12T12:45:38.302Z</time></trkpt><trkpt lat="44.87066" lon="12.246175"><ele>-3.0</ele><time>2026-04-12T12:45:39.301Z</time></trkpt><trkpt lat="44.8705283" lon="12.2464017"><ele>-3.0</ele><time>2026-04-12T12:45:40.301Z</time></trkpt><trkpt lat="44.8704017" lon="12.2466117"><ele>-3.0</ele><time>2026-04-12T12:45:41.301Z</time></trkpt><trkpt lat="44.8702783" lon="12.2468117"><ele>-3.0</ele><time>2026-04-12T12:45:42.301Z</time></trkpt><trkpt lat="44.87016" lon="12.24702"><ele>-3.0</ele><time>2026-04-12T12:45:43.302Z</time></trkpt><trkpt lat="44.8700417" lon="12.24722"><ele>-3.0</ele><time>2026-04-12T12:45:44.301Z</time></trkpt><trkpt lat="44.8699217" lon="12.247415"><ele>-3.0</ele><time>2026-04-12T12:45:45.301Z</time></trkpt><trkpt lat="44.869805" lon="12.247615"><ele>-3.0</ele><time>2026-04-12T12:45:46.301Z</time></trkpt><trkpt lat="44.86969" lon="12.2478167"><ele>-3.0</ele><time>2026-04-12T12:45:47.301Z</time></trkpt><trkpt lat="44.8695733" lon="12.2480117"><ele>-3.0</ele><time>2026-04-12T12:45:48.301Z</time></trkpt><trkpt lat="44.86946" lon="12.2482067"><ele>-3.0</ele><time>2026-04-12T12:45:49.301Z</time></trkpt><trkpt lat="44.8693467" lon="12.2484033"><ele>-3.333333333333333</ele><time>2026-04-12T12:45:50.301Z</time></trkpt><trkpt lat="44.86923" lon="12.2486"><ele>-3.6666666666666665</ele><time>2026-04-12T12:45:51.301Z</time></trkpt><trkpt lat="44.86911" lon="12.2488017"><ele>-4.0</ele><time>2026-04-12T12:45:52.302Z</time></trkpt><trkpt lat="44.8689883" lon="12.249005"><ele>-4.333333333333333</ele><time>2026-04-12T12:45:53.301Z</time></trkpt><trkpt lat="44.868865" lon="12.24921"><ele>-4.666666666666667</ele><time>2026-04-12T12:45:54.301Z</time></trkpt><trkpt lat="44.8687417" lon="12.2494217"><ele>-5.0</ele><time>2026-04-12T12:45:55.302Z</time></trkpt><trkpt lat="44.8686183" lon="12.2496383"><ele>-4.666666666666667</ele><time>2026-04-12T12:45:56.301Z</time></trkpt><trkpt lat="44.8684933" lon="12.249855"><ele>-4.333333333333333</ele><time>2026-04-12T12:45:57.301Z</time></trkpt><trkpt lat="44.86837" lon="12.2500767"><ele>-4.0</ele><time>2026-04-12T12:45:58.302Z</time></trkpt><trkpt lat="44.8682417" lon="12.2502933"><ele>-4.0</ele><time>2026-04-12T12:45:59.301Z</time></trkpt><trkpt lat="44.868115" lon="12.25051"><ele>-4.0</ele><time>2026-04-12T12:46:00.301Z</time></trkpt><trkpt lat="44.86798" lon="12.2507267"><ele>-4.0</ele><time>2026-04-12T12:46:01.301Z</time></trkpt><trkpt lat="44.86785" lon="12.2509517"><ele>-3.6666666666666665</ele><time>2026-04-12T12:46:02.301Z</time></trkpt><trkpt lat="44.8677117" lon="12.2511833"><ele>-3.333333333333333</ele><time>2026-04-12T12:46:03.302Z</time></trkpt><trkpt lat="44.8675717" lon="12.2514117"><ele>-3.0</ele><time>2026-04-12T12:46:04.302Z</time></trkpt><trkpt lat="44.86743" lon="12.25165"><ele>-3.0</ele><time>2026-04-12T12:46:05.301Z</time></trkpt><trkpt lat="44.8672917" lon="12.2518867"><ele>-3.0</ele><time>2026-04-12T12:46:06.301Z</time></trkpt><trkpt lat="44.8671517" lon="12.25213"><ele>-3.0</ele><time>2026-04-12T12:46:07.301Z</time></trkpt><trkpt lat="44.8670167" lon="12.2523733"><ele>-1.6666666666666667</ele><time>2026-04-12T12:46:08.302Z</time></trkpt><trkpt lat="44.8668967" lon="12.2526183"><ele>-0.33333333333333337</ele><time>2026-04-12T12:46:09.301Z</time></trkpt><trkpt lat="44.8668" lon="12.2528933"><ele>1.0</ele><time>2026-04-12T12:46:10.301Z</time></trkpt><trkpt lat="44.8667333" lon="12.2531717"><ele>1.6666666666666665</ele><time>2026-04-12T12:46:11.301Z</time></trkpt><trkpt lat="44.8667017" lon="12.2534483"><ele>2.3333333333333335</ele><time>2026-04-12T12:46:12.301Z</time></trkpt><trkpt lat="44.8666883" lon="12.2537533"><ele>3.0</ele><time>2026-04-12T12:46:13.302Z</time></trkpt><trkpt lat="44.8666867" lon="12.2540733"><ele>3.5</ele><time>2026-04-12T12:46:14.301Z</time></trkpt><trkpt lat="44.8667183" lon="12.2544167"><ele>4.0</ele><time>2026-04-12T12:46:15.301Z</time></trkpt><trkpt lat="44.8667717" lon="12.2547667"><ele>5.0</ele><time>2026-04-12T12:46:16.301Z</time></trkpt><trkpt lat="44.8668383" lon="12.2551233"><ele>6.0</ele><time>2026-04-12T12:46:17.302Z</time></trkpt><trkpt lat="44.8669033" lon="12.2554867"><ele>6.0</ele><time>2026-04-12T12:46:18.301Z</time></trkpt><trkpt lat="44.8669667" lon="12.255845"><ele>6.0</ele><time>2026-04-12T12:46:19.301Z</time></trkpt><trkpt lat="44.867025" lon="12.2561933"><ele>6.0</ele><time>2026-04-12T12:46:20.301Z</time></trkpt><trkpt lat="44.8670833" lon="12.25652"><ele>6.0</ele><time>2026-04-12T12:46:21.301Z</time></trkpt><trkpt lat="44.8671417" lon="12.2568433"><ele>6.0</ele><time>2026-04-12T12:46:22.301Z</time></trkpt><trkpt lat="44.8672067" lon="12.2571683"><ele>6.0</ele><time>2026-04-12T12:46:23.301Z</time></trkpt><trkpt lat="44.8672667" lon="12.2574933"><ele>5.5</ele><time>2026-04-12T12:46:24.301Z</time></trkpt><trkpt lat="44.8673233" lon="12.2578217"><ele>5.0</ele><time>2026-04-12T12:46:25.301Z</time></trkpt><trkpt lat="44.8673767" lon="12.2581633"><ele>5.0</ele><time>2026-04-12T12:46:26.301Z</time></trkpt><trkpt lat="44.8674483" lon="12.2585183"><ele>5.0</ele><time>2026-04-12T12:46:27.301Z</time></trkpt><trkpt lat="44.867515" lon="12.2588967"><ele>5.0</ele><time>2026-04-12T12:46:28.301Z</time></trkpt><trkpt lat="44.867585" lon="12.2592867"><ele>5.0</ele><time>2026-04-12T12:46:29.302Z</time></trkpt><trkpt lat="44.8676517" lon="12.259695"><ele>5.0</ele><time>2026-04-12T12:46:30.302Z</time></trkpt><trkpt lat="44.8677317" lon="12.2601233"><ele>5.0</ele><time>2026-04-12T12:46:31.302Z</time></trkpt><trkpt lat="44.86781" lon="12.2605533"><ele>4.0</ele><time>2026-04-12T12:46:32.302Z</time></trkpt><trkpt lat="44.86789" lon="12.2609733"><ele>3.0</ele><time>2026-04-12T12:46:33.302Z</time></trkpt><trkpt lat="44.8679717" lon="12.2613917"><ele>4.5</ele><time>2026-04-12T12:46:34.301Z</time></trkpt><trkpt lat="44.868045" lon="12.2618"><ele>6.0</ele><time>2026-04-12T12:46:35.301Z</time></trkpt><trkpt lat="44.8681133" lon="12.2621917"><ele>6.0</ele><time>2026-04-12T12:46:36.301Z</time></trkpt><trkpt lat="44.8681783" lon="12.2625833"><ele>6.0</ele><time>2026-04-12T12:46:37.301Z</time></trkpt><trkpt lat="44.86825" lon="12.2629583"><ele>6.5</ele><time>2026-04-12T12:46:38.3Z</time></trkpt><trkpt lat="44.8683233" lon="12.2633283"><ele>7.0</ele><time>2026-04-12T12:46:39.301Z</time></trkpt><trkpt lat="44.86839" lon="12.263695"><ele>7.0</ele><time>2026-04-12T12:46:40.3Z</time></trkpt><trkpt lat="44.8684633" lon="12.2640567"><ele>7.0</ele><time>2026-04-12T12:46:41.3Z</time></trkpt><trkpt lat="44.86853" lon="12.2644167"><ele>7.0</ele><time>2026-04-12T12:46:42.3Z</time></trkpt><trkpt lat="44.8686017" lon="12.26477"><ele>7.0</ele><time>2026-04-12T12:46:43.301Z</time></trkpt><trkpt lat="44.8686717" lon="12.2651217"><ele>7.5</ele><time>2026-04-12T12:46:44.3Z</time></trkpt><trkpt lat="44.8687367" lon="12.26547"><ele>8.0</ele><time>2026-04-12T12:46:45.3Z</time></trkpt><trkpt lat="44.868795" lon="12.26582"><ele>7.0</ele><time>2026-04-12T12:46:46.3Z</time></trkpt><trkpt lat="44.8688533" lon="12.26617"><ele>6.0</ele><time>2026-04-12T12:46:47.301Z</time></trkpt><trkpt lat="44.86891" lon="12.2665183"><ele>2.5</ele><time>2026-04-12T12:46:48.3Z</time></trkpt><trkpt lat="44.868975" lon="12.2668733"><ele>-1.0</ele><time>2026-04-12T12:46:49.3Z</time></trkpt><trkpt lat="44.8690383" lon="12.2672217"><ele>-1.5</ele><time>2026-04-12T12:46:50.3Z</time></trkpt><trkpt lat="44.869105" lon="12.26757"><ele>-2.0</ele><time>2026-04-12T12:46:51.3Z</time></trkpt><trkpt lat="44.86917" lon="12.267915"><ele>-2.0</ele><time>2026-04-12T12:46:52.3Z</time></trkpt><trkpt lat="44.869235" lon="12.268265"><ele>-2.0</ele><time>2026-04-12T12:46:53.3Z</time></trkpt><trkpt lat="44.8693033" lon="12.2686117"><ele>-2.5</ele><time>2026-04-12T12:46:54.3Z</time></trkpt><trkpt lat="44.8693633" lon="12.26896"><ele>-3.0</ele><time>2026-04-12T12:46:55.3Z</time></trkpt><trkpt lat="44.8694267" lon="12.2692983"><ele>-3.0</ele><time>2026-04-12T12:46:56.3Z</time></trkpt><trkpt lat="44.8694883" lon="12.2696367"><ele>-3.0</ele><time>2026-04-12T12:46:57.301Z</time></trkpt><trkpt lat="44.8695483" lon="12.2699767"><ele>-3.0</ele><time>2026-04-12T12:46:58.301Z</time></trkpt><trkpt lat="44.8696083" lon="12.2703083"><ele>-3.0</ele><time>2026-04-12T12:46:59.3Z</time></trkpt><trkpt lat="44.8696617" lon="12.2706483"><ele>-3.0</ele><time>2026-04-12T12:47:00.301Z</time></trkpt><trkpt lat="44.86972" lon="12.2709867"><ele>-3.0</ele><time>2026-04-12T12:47:01.301Z</time></trkpt><trkpt lat="44.869775" lon="12.2713217"><ele>-2.5</ele><time>2026-04-12T12:47:02.3Z</time></trkpt><trkpt lat="44.86983" lon="12.2716533"><ele>-2.0</ele><time>2026-04-12T12:47:03.301Z</time></trkpt><trkpt lat="44.86988" lon="12.27198"><ele>-2.5</ele><time>2026-04-12T12:47:04.301Z</time></trkpt><trkpt lat="44.8699333" lon="12.2723067"><ele>-3.0</ele><time>2026-04-12T12:47:05.3Z</time></trkpt><trkpt lat="44.8699883" lon="12.2726317"><ele>-3.0</ele><time>2026-04-12T12:47:06.3Z</time></trkpt><trkpt lat="44.8700467" lon="12.2729667"><ele>-3.0</ele><time>2026-04-12T12:47:07.3Z</time></trkpt><trkpt lat="44.8701083" lon="12.27331"><ele>-4.0</ele><time>2026-04-12T12:47:08.301Z</time></trkpt><trkpt lat="44.8701667" lon="12.2736583"><ele>-5.0</ele><time>2026-04-12T12:47:09.301Z</time></trkpt><trkpt lat="44.870225" lon="12.2740117"><ele>-5.0</ele><time>2026-04-12T12:47:10.301Z</time></trkpt><trkpt lat="44.8702883" lon="12.2743583"><ele>-5.0</ele><time>2026-04-12T12:47:11.3Z</time></trkpt><trkpt lat="44.8703517" lon="12.2747117"><ele>-4.5</ele><time>2026-04-12T12:47:12.3Z</time></trkpt><trkpt lat="44.8704167" lon="12.275065"><ele>-4.0</ele><time>2026-04-12T12:47:13.301Z</time></trkpt><trkpt lat="44.87048" lon="12.2754217"><ele>-3.5</ele><time>2026-04-12T12:47:14.3Z</time></trkpt><trkpt lat="44.870545" lon="12.27578"><ele>-3.0</ele><time>2026-04-12T12:47:15.3Z</time></trkpt><trkpt lat="44.8706167" lon="12.2761183"><ele>-3.5</ele><time>2026-04-12T12:47:16.3Z</time></trkpt><trkpt lat="44.87068" lon="12.276455"><ele>-4.0</ele><time>2026-04-12T12:47:17.3Z</time></trkpt><trkpt lat="44.8707383" lon="12.27679"><ele>-4.0</ele><time>2026-04-12T12:47:18.3Z</time></trkpt><trkpt lat="44.8707967" lon="12.277125"><ele>-4.0</ele><time>2026-04-12T12:47:19.301Z</time></trkpt><trkpt lat="44.870855" lon="12.2774367"><ele>-4.0</ele><time>2026-04-12T12:47:20.301Z</time></trkpt><trkpt lat="44.8709133" lon="12.277745"><ele>-4.0</ele><time>2026-04-12T12:47:21.3Z</time></trkpt><trkpt lat="44.8709717" lon="12.2780433"><ele>-4.0</ele><time>2026-04-12T12:47:22.3Z</time></trkpt><trkpt lat="44.8710233" lon="12.2783267"><ele>-3.6666666666666665</ele><time>2026-04-12T12:47:23.3Z</time></trkpt><trkpt lat="44.87107" lon="12.2785967"><ele>-3.333333333333333</ele><time>2026-04-12T12:47:24.301Z</time></trkpt><trkpt lat="44.8711183" lon="12.2788417"><ele>-3.0</ele><time>2026-04-12T12:47:25.301Z</time></trkpt><trkpt lat="44.87116" lon="12.27906"><ele>-2.8</ele><time>2026-04-12T12:47:26.3Z</time></trkpt><trkpt lat="44.871195" lon="12.2792467"><ele>-2.5999999999999996</ele><time>2026-04-12T12:47:27.3Z</time></trkpt><trkpt lat="44.8712217" lon="12.2794083"><ele>-2.4000000000000004</ele><time>2026-04-12T12:47:28.3Z</time></trkpt><trkpt lat="44.8712333" lon="12.2795433"><ele>-2.2</ele><time>2026-04-12T12:47:29.3Z</time></trkpt><trkpt lat="44.87123" lon="12.27965"><ele>-2.0</ele><time>2026-04-12T12:47:30.3Z</time></trkpt><trkpt lat="44.871215" lon="12.2797383"><ele>-2.4000000000000004</ele><time>2026-04-12T12:47:31.3Z</time></trkpt><trkpt lat="44.871185" lon="12.2798717"><ele>-2.8000000000000003</ele><time>2026-04-12T12:47:33.3Z</time></trkpt><trkpt lat="44.8711683" lon="12.28"><ele>-3.2</ele><time>2026-04-12T12:47:35.3Z</time></trkpt><trkpt lat="44.871225" lon="12.2801333"><ele>-3.6</ele><time>2026-04-12T12:47:37.301Z</time></trkpt><trkpt lat="44.87134" lon="12.280235"><ele>-4.0</ele><time>2026-04-12T12:47:39.3Z</time></trkpt><trkpt lat="44.871395" lon="12.280335"><ele>-4.0</ele><time>2026-04-12T12:47:40.301Z</time></trkpt><trkpt lat="44.8714283" lon="12.2804667"><ele>-4.0</ele><time>2026-04-12T12:47:41.3Z</time></trkpt><trkpt lat="44.871455" lon="12.2806117"><ele>-4.0</ele><time>2026-04-12T12:47:42.301Z</time></trkpt><trkpt lat="44.87148" lon="12.2807733"><ele>-4.0</ele><time>2026-04-12T12:47:43.3Z</time></trkpt><trkpt lat="44.8715" lon="12.28093"><ele>-4.0</ele><time>2026-04-12T12:47:44.3Z</time></trkpt><trkpt lat="44.8715317" lon="12.2810967"><ele>-4.0</ele><time>2026-04-12T12:47:45.3Z</time></trkpt><trkpt lat="44.8715617" lon="12.2812767"><ele>-4.0</ele><time>2026-04-12T12:47:46.3Z</time></trkpt><trkpt lat="44.8715933" lon="12.2814567"><ele>-4.0</ele><time>2026-04-12T12:47:47.301Z</time></trkpt><trkpt lat="44.87163" lon="12.281645"><ele>-4.0</ele><time>2026-04-12T12:47:48.3Z</time></trkpt><trkpt lat="44.8716617" lon="12.2818333"><ele>-4.0</ele><time>2026-04-12T12:47:49.3Z</time></trkpt><trkpt lat="44.8717" lon="12.2820267"><ele>-4.0</ele><time>2026-04-12T12:47:50.3Z</time></trkpt><trkpt lat="44.8717417" lon="12.282235"><ele>-4.0</ele><time>2026-04-12T12:47:51.3Z</time></trkpt><trkpt lat="44.871785" lon="12.2824533"><ele>-4.0</ele><time>2026-04-12T12:47:52.3Z</time></trkpt><trkpt lat="44.871825" lon="12.2826817"><ele>-4.0</ele><time>2026-04-12T12:47:53.3Z</time></trkpt><trkpt lat="44.87187" lon="12.2829167"><ele>-4.0</ele><time>2026-04-12T12:47:54.3Z</time></trkpt><trkpt lat="44.871915" lon="12.28315"><ele>-3.6666666666666665</ele><time>2026-04-12T12:47:55.3Z</time></trkpt><trkpt lat="44.87196" lon="12.283395"><ele>-3.333333333333333</ele><time>2026-04-12T12:47:56.3Z</time></trkpt><trkpt lat="44.8720033" lon="12.2836367"><ele>-3.0</ele><time>2026-04-12T12:47:57.3Z</time></trkpt><trkpt lat="44.8720467" lon="12.2838617"><ele>-2.75</ele><time>2026-04-12T12:47:58.3Z</time></trkpt><trkpt lat="44.872085" lon="12.2840717"><ele>-2.5</ele><time>2026-04-12T12:47:59.301Z</time></trkpt><trkpt lat="44.8721183" lon="12.284265"><ele>-2.25</ele><time>2026-04-12T12:48:00.3Z</time></trkpt><trkpt lat="44.8721467" lon="12.284435"><ele>-2.0</ele><time>2026-04-12T12:48:01.301Z</time></trkpt><trkpt lat="44.8721783" lon="12.2845833"><ele>-1.9999999999999998</ele><time>2026-04-12T12:48:02.3Z</time></trkpt><trkpt lat="44.8722067" lon="12.2847017"><ele>-2.0</ele><time>2026-04-12T12:48:03.3Z</time></trkpt><trkpt lat="44.8722267" lon="12.2848067"><ele>-2.0</ele><time>2026-04-12T12:48:04.3Z</time></trkpt><trkpt lat="44.8722417" lon="12.2848983"><ele>-2.0</ele><time>2026-04-12T12:48:05.3Z</time></trkpt><trkpt lat="44.8722233" lon="12.2850533"><ele>-1.9999999999999998</ele><time>2026-04-12T12:48:07.3Z</time></trkpt><trkpt lat="44.872135" lon="12.285135"><ele>-2.0</ele><time>2026-04-12T12:48:09.3Z</time></trkpt><trkpt lat="44.872045" lon="12.2851517"><ele>-2.0</ele><time>2026-04-12T12:48:10.301Z</time></trkpt><trkpt lat="44.8719367" lon="12.2851633"><ele>-2.0</ele><time>2026-04-12T12:48:11.3Z</time></trkpt><trkpt lat="44.8718083" lon="12.28518"><ele>-2.0</ele><time>2026-04-12T12:48:12.301Z</time></trkpt><trkpt lat="44.871665" lon="12.28521"><ele>-2.0</ele><time>2026-04-12T12:48:13.301Z</time></trkpt><trkpt lat="44.8715233" lon="12.2852517"><ele>-2.0</ele><time>2026-04-12T12:48:14.3Z</time></trkpt><trkpt lat="44.8713867" lon="12.2852883"><ele>-2.0</ele><time>2026-04-12T12:48:15.3Z</time></trkpt><trkpt lat="44.871255" lon="12.285325"><ele>-2.0</ele><time>2026-04-12T12:48:16.301Z</time></trkpt><trkpt lat="44.8711217" lon="12.2853683"><ele>-2.0</ele><time>2026-04-12T12:48:17.301Z</time></trkpt><trkpt lat="44.8709883" lon="12.285415"><ele>-2.0</ele><time>2026-04-12T12:48:18.301Z</time></trkpt><trkpt lat="44.87085" lon="12.2854683"><ele>-2.0</ele><time>2026-04-12T12:48:19.3Z</time></trkpt><trkpt lat="44.87071" lon="12.28553"><ele>-2.0</ele><time>2026-04-12T12:48:20.301Z</time></trkpt><trkpt lat="44.8705717" lon="12.2855983"><ele>-2.0</ele><time>2026-04-12T12:48:21.3Z</time></trkpt><trkpt lat="44.870425" lon="12.2856733"><ele>-1.6666666666666665</ele><time>2026-04-12T12:48:22.3Z</time></trkpt><trkpt lat="44.8702833" lon="12.2857517"><ele>-1.3333333333333333</ele><time>2026-04-12T12:48:23.3Z</time></trkpt><trkpt lat="44.8701383" lon="12.2858333"><ele>-1.0</ele><time>2026-04-12T12:48:24.301Z</time></trkpt><trkpt lat="44.86999" lon="12.28592"><ele>-1.0</ele><time>2026-04-12T12:48:25.301Z</time></trkpt><trkpt lat="44.8698483" lon="12.2859983"><ele>-1.0</ele><time>2026-04-12T12:48:26.3Z</time></trkpt><trkpt lat="44.869715" lon="12.2860817"><ele>-1.0</ele><time>2026-04-12T12:48:27.3Z</time></trkpt><trkpt lat="44.8695883" lon="12.2861667"><ele>-1.0</ele><time>2026-04-12T12:48:28.3Z</time></trkpt><trkpt lat="44.8694617" lon="12.2862533"><ele>-1.0</ele><time>2026-04-12T12:48:29.3Z</time></trkpt><trkpt lat="44.869335" lon="12.2863583"><ele>-1.0</ele><time>2026-04-12T12:48:30.301Z</time></trkpt><trkpt lat="44.8692117" lon="12.2864767"><ele>-1.0</ele><time>2026-04-12T12:48:31.3Z</time></trkpt><trkpt lat="44.8690933" lon="12.2866033"><ele>-1.0</ele><time>2026-04-12T12:48:32.3Z</time></trkpt><trkpt lat="44.8689733" lon="12.286725"><ele>-0.25</ele><time>2026-04-12T12:48:33.301Z</time></trkpt><trkpt lat="44.86885" lon="12.2868367"><ele>0.5</ele><time>2026-04-12T12:48:34.3Z</time></trkpt><trkpt lat="44.8687167" lon="12.286935"><ele>1.25</ele><time>2026-04-12T12:48:35.3Z</time></trkpt><trkpt lat="44.8685883" lon="12.287035"><ele>2.0</ele><time>2026-04-12T12:48:36.3Z</time></trkpt><trkpt lat="44.8684583" lon="12.2871433"><ele>2.0</ele><time>2026-04-12T12:48:37.3Z</time></trkpt><trkpt lat="44.8683333" lon="12.2872583"><ele>2.0</ele><time>2026-04-12T12:48:38.3Z</time></trkpt><trkpt lat="44.868215" lon="12.2873817"><ele>2.0</ele><time>2026-04-12T12:48:39.3Z</time></trkpt><trkpt lat="44.8681033" lon="12.2875083"><ele>2.0</ele><time>2026-04-12T12:48:40.3Z</time></trkpt><trkpt lat="44.8679867" lon="12.287635"><ele>2.0</ele><time>2026-04-12T12:48:41.3Z</time></trkpt><trkpt lat="44.867865" lon="12.2877583"><ele>2.0</ele><time>2026-04-12T12:48:42.301Z</time></trkpt><trkpt lat="44.86775" lon="12.2878717"><ele>2.0</ele><time>2026-04-12T12:48:43.3Z</time></trkpt><trkpt lat="44.8676333" lon="12.28798"><ele>2.0</ele><time>2026-04-12T12:48:44.3Z</time></trkpt><trkpt lat="44.86751" lon="12.288075"><ele>1.75</ele><time>2026-04-12T12:48:45.3Z</time></trkpt><trkpt lat="44.8673817" lon="12.288165"><ele>1.5</ele><time>2026-04-12T12:48:46.3Z</time></trkpt><trkpt lat="44.8672483" lon="12.2882533"><ele>1.25</ele><time>2026-04-12T12:48:47.3Z</time></trkpt><trkpt lat="44.8671033" lon="12.28833"><ele>1.0</ele><time>2026-04-12T12:48:48.301Z</time></trkpt><trkpt lat="44.8669517" lon="12.2884033"><ele>1.0</ele><time>2026-04-12T12:48:49.3Z</time></trkpt><trkpt lat="44.8667933" lon="12.28848"><ele>1.0</ele><time>2026-04-12T12:48:50.301Z</time></trkpt><trkpt lat="44.8666267" lon="12.2885533"><ele>1.0</ele><time>2026-04-12T12:48:51.3Z</time></trkpt><trkpt lat="44.866465" lon="12.288615"><ele>0.0</ele><time>2026-04-12T12:48:52.3Z</time></trkpt><trkpt lat="44.866305" lon="12.288685"><ele>-1.0</ele><time>2026-04-12T12:48:53.3Z</time></trkpt><trkpt lat="44.8661333" lon="12.28875"><ele>-2.0</ele><time>2026-04-12T12:48:54.3Z</time></trkpt><trkpt lat="44.8659783" lon="12.2888083"><ele>-2.0</ele><time>2026-04-12T12:48:55.3Z</time></trkpt><trkpt lat="44.8658317" lon="12.28887"><ele>-2.0</ele><time>2026-04-12T12:48:56.3Z</time></trkpt><trkpt lat="44.865675" lon="12.2889183"><ele>-2.0</ele><time>2026-04-12T12:48:57.3Z</time></trkpt><trkpt lat="44.865515" lon="12.288975"><ele>-2.0</ele><time>2026-04-12T12:48:58.3Z</time></trkpt><trkpt lat="44.8653517" lon="12.2890367"><ele>-2.0</ele><time>2026-04-12T12:48:59.301Z</time></trkpt><trkpt lat="44.8651933" lon="12.2891133"><ele>-2.0</ele><time>2026-04-12T12:49:00.3Z</time></trkpt><trkpt lat="44.8650317" lon="12.28919"><ele>-1.6666666666666665</ele><time>2026-04-12T12:49:01.3Z</time></trkpt><trkpt lat="44.8648633" lon="12.28927"><ele>-1.3333333333333333</ele><time>2026-04-12T12:49:02.301Z</time></trkpt><trkpt lat="44.864695" lon="12.289345"><ele>-1.0</ele><time>2026-04-12T12:49:03.3Z</time></trkpt><trkpt lat="44.8645333" lon="12.2894283"><ele>-1.0</ele><time>2026-04-12T12:49:04.301Z</time></trkpt><trkpt lat="44.864385" lon="12.28951"><ele>-1.0</ele><time>2026-04-12T12:49:05.3Z</time></trkpt><trkpt lat="44.8642433" lon="12.289595"><ele>-1.0</ele><time>2026-04-12T12:49:06.301Z</time></trkpt><trkpt lat="44.8640933" lon="12.28968"><ele>-1.0</ele><time>2026-04-12T12:49:07.3Z</time></trkpt><trkpt lat="44.863925" lon="12.2897617"><ele>-1.0</ele><time>2026-04-12T12:49:08.3Z</time></trkpt><trkpt lat="44.863765" lon="12.2898533"><ele>-1.0</ele><time>2026-04-12T12:49:09.3Z</time></trkpt><trkpt lat="44.8636017" lon="12.2899417"><ele>-1.0</ele><time>2026-04-12T12:49:10.3Z</time></trkpt><trkpt lat="44.8634417" lon="12.2900367"><ele>-1.0</ele><time>2026-04-12T12:49:11.3Z</time></trkpt><trkpt lat="44.8632767" lon="12.290135"><ele>-1.0</ele><time>2026-04-12T12:49:12.3Z</time></trkpt><trkpt lat="44.863115" lon="12.2902433"><ele>-1.0</ele><time>2026-04-12T12:49:13.3Z</time></trkpt><trkpt lat="44.8629533" lon="12.2903567"><ele>-1.0</ele><time>2026-04-12T12:49:14.3Z</time></trkpt><trkpt lat="44.86279" lon="12.2904667"><ele>-1.0</ele><time>2026-04-12T12:49:15.3Z</time></trkpt><trkpt lat="44.86264" lon="12.29058"><ele>-0.6666666666666666</ele><time>2026-04-12T12:49:16.3Z</time></trkpt><trkpt lat="44.8625" lon="12.2906883"><ele>-0.3333333333333333</ele><time>2026-04-12T12:49:17.301Z</time></trkpt><trkpt lat="44.862365" lon="12.2907883"><ele>0.0</ele><time>2026-04-12T12:49:18.3Z</time></trkpt><trkpt lat="44.8622233" lon="12.2908967"><ele>0.0</ele><time>2026-04-12T12:49:19.3Z</time></trkpt><trkpt lat="44.8620883" lon="12.2910067"><ele>0.0</ele><time>2026-04-12T12:49:20.301Z</time></trkpt><trkpt lat="44.8619483" lon="12.2911083"><ele>0.0</ele><time>2026-04-12T12:49:21.3Z</time></trkpt><trkpt lat="44.8618067" lon="12.2912217"><ele>0.0</ele><time>2026-04-12T12:49:22.3Z</time></trkpt><trkpt lat="44.861665" lon="12.2913383"><ele>0.0</ele><time>2026-04-12T12:49:23.3Z</time></trkpt><trkpt lat="44.861525" lon="12.291455"><ele>0.0</ele><time>2026-04-12T12:49:24.301Z</time></trkpt><trkpt lat="44.8613867" lon="12.2915717"><ele>1.0</ele><time>2026-04-12T12:49:25.3Z</time></trkpt><trkpt lat="44.8612467" lon="12.2916867"><ele>2.0</ele><time>2026-04-12T12:49:26.3Z</time></trkpt><trkpt lat="44.861105" lon="12.2917933"><ele>3.0</ele><time>2026-04-12T12:49:27.3Z</time></trkpt><trkpt lat="44.8609717" lon="12.291915"><ele>2.3333333333333335</ele><time>2026-04-12T12:49:28.301Z</time></trkpt><trkpt lat="44.8608383" lon="12.2920317"><ele>1.6666666666666665</ele><time>2026-04-12T12:49:29.3Z</time></trkpt><trkpt lat="44.8607017" lon="12.29215"><ele>1.0</ele><time>2026-04-12T12:49:30.3Z</time></trkpt><trkpt lat="44.8605667" lon="12.2922783"><ele>1.0</ele><time>2026-04-12T12:49:31.3Z</time></trkpt><trkpt lat="44.8604317" lon="12.2924083"><ele>1.0</ele><time>2026-04-12T12:49:32.3Z</time></trkpt><trkpt lat="44.8602983" lon="12.2925333"><ele>1.0</ele><time>2026-04-12T12:49:33.3Z</time></trkpt><trkpt lat="44.860165" lon="12.2926583"><ele>0.75</ele><time>2026-04-12T12:49:34.301Z</time></trkpt><trkpt lat="44.8600383" lon="12.29278"><ele>0.5</ele><time>2026-04-12T12:49:35.3Z</time></trkpt><trkpt lat="44.8599217" lon="12.2928867"><ele>0.25</ele><time>2026-04-12T12:49:36.3Z</time></trkpt><trkpt lat="44.8597983" lon="12.293"><ele>0.0</ele><time>2026-04-12T12:49:37.3Z</time></trkpt><trkpt lat="44.8596733" lon="12.29311"><ele>-0.25</ele><time>2026-04-12T12:49:38.3Z</time></trkpt><trkpt lat="44.8595517" lon="12.2932267"><ele>-0.5</ele><time>2026-04-12T12:49:39.3Z</time></trkpt><trkpt lat="44.8594267" lon="12.2933433"><ele>-0.75</ele><time>2026-04-12T12:49:40.301Z</time></trkpt><trkpt lat="44.8593067" lon="12.29346"><ele>-1.0</ele><time>2026-04-12T12:49:41.3Z</time></trkpt><trkpt lat="44.8591833" lon="12.2935733"><ele>-1.0</ele><time>2026-04-12T12:49:42.301Z</time></trkpt><trkpt lat="44.8590567" lon="12.2937033"><ele>-1.0</ele><time>2026-04-12T12:49:43.3Z</time></trkpt><trkpt lat="44.8589367" lon="12.2938"><ele>-1.0</ele><time>2026-04-12T12:49:44.3Z</time></trkpt><trkpt lat="44.8588083" lon="12.29389"><ele>-1.0</ele><time>2026-04-12T12:49:45.301Z</time></trkpt><trkpt lat="44.858685" lon="12.29399"><ele>-1.0</ele><time>2026-04-12T12:49:46.3Z</time></trkpt><trkpt lat="44.8585567" lon="12.2940867"><ele>-1.0</ele><time>2026-04-12T12:49:47.3Z</time></trkpt><trkpt lat="44.8584267" lon="12.29418"><ele>-1.0</ele><time>2026-04-12T12:49:48.3Z</time></trkpt><trkpt lat="44.8582917" lon="12.2942783"><ele>-1.0</ele><time>2026-04-12T12:49:49.3Z</time></trkpt><trkpt lat="44.8581567" lon="12.2943933"><ele>-1.0</ele><time>2026-04-12T12:49:50.3Z</time></trkpt><trkpt lat="44.8580283" lon="12.2945167"><ele>-1.0</ele><time>2026-04-12T12:49:51.3Z</time></trkpt><trkpt lat="44.85791" lon="12.294655"><ele>-1.0</ele><time>2026-04-12T12:49:52.3Z</time></trkpt><trkpt lat="44.8577967" lon="12.294805"><ele>-1.0</ele><time>2026-04-12T12:49:53.301Z</time></trkpt><trkpt lat="44.85769" lon="12.2949667"><ele>-1.0</ele><time>2026-04-12T12:49:54.301Z</time></trkpt><trkpt lat="44.8575833" lon="12.2951333"><ele>-1.0</ele><time>2026-04-12T12:49:55.3Z</time></trkpt><trkpt lat="44.8574817" lon="12.2953033"><ele>-1.0</ele><time>2026-04-12T12:49:56.3Z</time></trkpt><trkpt lat="44.8573767" lon="12.2954667"><ele>-1.0</ele><time>2026-04-12T12:49:57.3Z</time></trkpt><trkpt lat="44.8572667" lon="12.2956217"><ele>-1.0</ele><time>2026-04-12T12:49:58.3Z</time></trkpt><trkpt lat="44.857165" lon="12.295765"><ele>-1.0</ele><time>2026-04-12T12:49:59.301Z</time></trkpt><trkpt lat="44.8570617" lon="12.2959083"><ele>-1.0</ele><time>2026-04-12T12:50:00.3Z</time></trkpt><trkpt lat="44.8569567" lon="12.296055"><ele>-1.0</ele><time>2026-04-12T12:50:01.3Z</time></trkpt><trkpt lat="44.8568567" lon="12.2962"><ele>-1.0</ele><time>2026-04-12T12:50:02.3Z</time></trkpt><trkpt lat="44.8567667" lon="12.2963433"><ele>-1.0</ele><time>2026-04-12T12:50:03.3Z</time></trkpt><trkpt lat="44.8566867" lon="12.29648"><ele>-1.0</ele><time>2026-04-12T12:50:04.301Z</time></trkpt><trkpt lat="44.85661" lon="12.2966117"><ele>-1.0</ele><time>2026-04-12T12:50:05.3Z</time></trkpt><trkpt lat="44.85653" lon="12.2967567"><ele>-1.0</ele><time>2026-04-12T12:50:06.3Z</time></trkpt><trkpt lat="44.85645" lon="12.2969017"><ele>-1.0</ele><time>2026-04-12T12:50:07.3Z</time></trkpt><trkpt lat="44.8563783" lon="12.2970367"><ele>-1.0</ele><time>2026-04-12T12:50:08.301Z</time></trkpt><trkpt lat="44.8563183" lon="12.29716"><ele>-1.0</ele><time>2026-04-12T12:50:09.3Z</time></trkpt><trkpt lat="44.8562617" lon="12.2972717"><ele>-1.0</ele><time>2026-04-12T12:50:10.3Z</time></trkpt><trkpt lat="44.8562133" lon="12.2973717"><ele>-1.0</ele><time>2026-04-12T12:50:11.3Z</time></trkpt><trkpt lat="44.8561717" lon="12.29746"><ele>-1.0</ele><time>2026-04-12T12:50:12.3Z</time></trkpt><trkpt lat="44.8561367" lon="12.2975383"><ele>-1.0</ele><time>2026-04-12T12:50:13.3Z</time></trkpt><trkpt lat="44.8560583" lon="12.2976583"><ele>-1.0</ele><time>2026-04-12T12:50:15.3Z</time></trkpt><trkpt lat="44.8559717" lon="12.2977133"><ele>-1.0</ele><time>2026-04-12T12:50:17.301Z</time></trkpt><trkpt lat="44.85587" lon="12.297715"><ele>-1.0</ele><time>2026-04-12T12:50:19.3Z</time></trkpt><trkpt lat="44.85575" lon="12.2976817"><ele>-1.0</ele><time>2026-04-12T12:50:21.3Z</time></trkpt><trkpt lat="44.8556867" lon="12.29767"><ele>-1.0</ele><time>2026-04-12T12:50:22.3Z</time></trkpt><trkpt lat="44.855575" lon="12.2976433"><ele>-1.0</ele><time>2026-04-12T12:50:24.3Z</time></trkpt><trkpt lat="44.855475" lon="12.2976067"><ele>-1.0</ele><time>2026-04-12T12:50:26.3Z</time></trkpt><trkpt lat="44.8553633" lon="12.29754"><ele>-1.0</ele><time>2026-04-12T12:50:28.3Z</time></trkpt><trkpt lat="44.855265" lon="12.29746"><ele>-0.9999999999999999</ele><time>2026-04-12T12:50:30.3Z</time></trkpt><trkpt lat="44.85521" lon="12.2973567"><ele>-1.0</ele><time>2026-04-12T12:50:32.3Z</time></trkpt><trkpt lat="44.8552017" lon="12.2972483"><ele>-1.0</ele><time>2026-04-12T12:50:34.301Z</time></trkpt><trkpt lat="44.855215" lon="12.2970983"><ele>-1.0</ele><time>2026-04-12T12:50:36.3Z</time></trkpt><trkpt lat="44.855225" lon="12.2969983"><ele>-0.9999999999999999</ele><time>2026-04-12T12:50:37.3Z</time></trkpt><trkpt lat="44.855235" lon="12.2969"><ele>-1.0</ele><time>2026-04-12T12:50:38.3Z</time></trkpt><trkpt lat="44.855245" lon="12.2967833"><ele>-1.0</ele><time>2026-04-12T12:50:39.3Z</time></trkpt><trkpt lat="44.8552517" lon="12.296675"><ele>-1.0</ele><time>2026-04-12T12:50:40.3Z</time></trkpt><trkpt lat="44.8552517" lon="12.29658"><ele>-1.0</ele><time>2026-04-12T12:50:41.3Z</time></trkpt><trkpt lat="44.8552517" lon="12.29643"><ele>-1.0</ele><time>2026-04-12T12:50:43.301Z</time></trkpt><trkpt lat="44.8551767" lon="12.2963533"><ele>-1.0</ele><time>2026-04-12T12:50:45.301Z</time></trkpt><trkpt lat="44.8550333" lon="12.2963433"><ele>-1.0</ele><time>2026-04-12T12:50:47.301Z</time></trkpt><trkpt lat="44.8549383" lon="12.2963483"><ele>-1.0</ele><time>2026-04-12T12:50:48.3Z</time></trkpt><trkpt lat="44.85484" lon="12.2963433"><ele>-1.0</ele><time>2026-04-12T12:50:49.3Z</time></trkpt><trkpt lat="44.8547467" lon="12.2963383"><ele>-1.0</ele><time>2026-04-12T12:50:50.3Z</time></trkpt><trkpt lat="44.8546433" lon="12.2963333"><ele>-1.0</ele><time>2026-04-12T12:50:51.3Z</time></trkpt><trkpt lat="44.8545467" lon="12.2963333"><ele>-1.0</ele><time>2026-04-12T12:50:52.3Z</time></trkpt><trkpt lat="44.854455" lon="12.2963233"><ele>-1.0</ele><time>2026-04-12T12:50:53.3Z</time></trkpt><trkpt lat="44.8543667" lon="12.2963067"><ele>-1.0</ele><time>2026-04-12T12:50:54.3Z</time></trkpt><trkpt lat="44.854275" lon="12.2963017"><ele>-1.0</ele><time>2026-04-12T12:50:55.3Z</time></trkpt><trkpt lat="44.854175" lon="12.2962967"><ele>-1.0</ele><time>2026-04-12T12:50:56.301Z</time></trkpt><trkpt lat="44.8540733" lon="12.2962883"><ele>-1.2000000000000002</ele><time>2026-04-12T12:50:57.3Z</time></trkpt><trkpt lat="44.8539783" lon="12.296285"><ele>-1.4000000000000001</ele><time>2026-04-12T12:50:58.3Z</time></trkpt><trkpt lat="44.8538783" lon="12.2962783"><ele>-1.6</ele><time>2026-04-12T12:50:59.3Z</time></trkpt><trkpt lat="44.8537817" lon="12.2962783"><ele>-1.8</ele><time>2026-04-12T12:51:00.301Z</time></trkpt><trkpt lat="44.8536983" lon="12.2962683"><ele>-2.0</ele><time>2026-04-12T12:51:01.301Z</time></trkpt><trkpt lat="44.8535817" lon="12.2962417"><ele>-2.0</ele><time>2026-04-12T12:51:03.3Z</time></trkpt><trkpt lat="44.8535133" lon="12.296175"><ele>-2.0</ele><time>2026-04-12T12:51:05.3Z</time></trkpt><trkpt lat="44.8534767" lon="12.2960483"><ele>-2.0</ele><time>2026-04-12T12:51:08.3Z</time></trkpt><trkpt lat="44.85343" lon="12.29595"><ele>-2.0</ele><time>2026-04-12T12:51:11.3Z</time></trkpt><trkpt lat="44.853345" lon="12.2959867"><ele>-2.0</ele><time>2026-04-12T12:51:50.3Z</time></trkpt><trkpt lat="44.8532833" lon="12.29611"><ele>-1.9999999999999998</ele><time>2026-04-12T12:51:52.3Z</time></trkpt><trkpt lat="44.853275" lon="12.2962033"><ele>-2.0</ele><time>2026-04-12T12:51:53.3Z</time></trkpt><trkpt lat="44.8532767" lon="12.2963067"><ele>-2.0</ele><time>2026-04-12T12:51:54.3Z</time></trkpt><trkpt lat="44.85328" lon="12.296425"><ele>-2.0</ele><time>2026-04-12T12:51:55.3Z</time></trkpt><trkpt lat="44.8532833" lon="12.2965517"><ele>-1.9999999999999998</ele><time>2026-04-12T12:51:56.3Z</time></trkpt><trkpt lat="44.8532867" lon="12.2966767"><ele>-2.0</ele><time>2026-04-12T12:51:57.301Z</time></trkpt><trkpt lat="44.8532917" lon="12.296795"><ele>-1.9999999999999998</ele><time>2026-04-12T12:51:58.3Z</time></trkpt><trkpt lat="44.853295" lon="12.2969"><ele>-2.0</ele><time>2026-04-12T12:51:59.3Z</time></trkpt><trkpt lat="44.8532817" lon="12.2969917"><ele>-2.0</ele><time>2026-04-12T12:52:00.3Z</time></trkpt><trkpt lat="44.8531933" lon="12.29709"><ele>-2.0</ele><time>2026-04-12T12:52:02.3Z</time></trkpt><trkpt lat="44.85311" lon="12.29709"><ele>-1.9999999999999998</ele><time>2026-04-12T12:52:03.3Z</time></trkpt><trkpt lat="44.85301" lon="12.29707"><ele>-2.0</ele><time>2026-04-12T12:52:04.3Z</time></trkpt><trkpt lat="44.8528983" lon="12.297055"><ele>-2.0</ele><time>2026-04-12T12:52:05.301Z</time></trkpt><trkpt lat="44.852775" lon="12.297035"><ele>-2.0</ele><time>2026-04-12T12:52:06.3Z</time></trkpt><trkpt lat="44.8526517" lon="12.2970367"><ele>-2.0</ele><time>2026-04-12T12:52:07.3Z</time></trkpt><trkpt lat="44.8525217" lon="12.29703"><ele>-2.0</ele><time>2026-04-12T12:52:08.3Z</time></trkpt><trkpt lat="44.8523883" lon="12.2970233"><ele>-2.0</ele><time>2026-04-12T12:52:09.301Z</time></trkpt><trkpt lat="44.8522467" lon="12.297005"><ele>-2.0</ele><time>2026-04-12T12:52:10.3Z</time></trkpt><trkpt lat="44.8521017" lon="12.2969917"><ele>-2.0</ele><time>2026-04-12T12:52:11.301Z</time></trkpt><trkpt lat="44.85195" lon="12.29698"><ele>-2.0</ele><time>2026-04-12T12:52:12.301Z</time></trkpt><trkpt lat="44.8517933" lon="12.2969733"><ele>-2.0</ele><time>2026-04-12T12:52:13.301Z</time></trkpt><trkpt lat="44.851645" lon="12.29697"><ele>-2.0</ele><time>2026-04-12T12:52:14.301Z</time></trkpt><trkpt lat="44.851505" lon="12.296965"><ele>-2.0</ele><time>2026-04-12T12:52:15.3Z</time></trkpt><trkpt lat="44.8513667" lon="12.29696"><ele>-2.0</ele><time>2026-04-12T12:52:16.301Z</time></trkpt><trkpt lat="44.851235" lon="12.296955"><ele>-2.0</ele><time>2026-04-12T12:52:17.301Z</time></trkpt><trkpt lat="44.851095" lon="12.296945"><ele>-2.0</ele><time>2026-04-12T12:52:18.3Z</time></trkpt><trkpt lat="44.85096" lon="12.29694"><ele>-2.0</ele><time>2026-04-12T12:52:19.3Z</time></trkpt><trkpt lat="44.8508133" lon="12.2969283"><ele>-2.0</ele><time>2026-04-12T12:52:20.301Z</time></trkpt><trkpt lat="44.8506733" lon="12.2969233"><ele>-2.0</ele><time>2026-04-12T12:52:21.301Z</time></trkpt><trkpt lat="44.8505333" lon="12.296915"><ele>-2.0</ele><time>2026-04-12T12:52:22.301Z</time></trkpt><trkpt lat="44.8503967" lon="12.2969133"><ele>-2.0</ele><time>2026-04-12T12:52:23.3Z</time></trkpt><trkpt lat="44.8502683" lon="12.2969067"><ele>-2.0</ele><time>2026-04-12T12:52:24.301Z</time></trkpt><trkpt lat="44.8501617" lon="12.2968933"><ele>-1.8333333333333333</ele><time>2026-04-12T12:52:25.3Z</time></trkpt><trkpt lat="44.8500633" lon="12.29688"><ele>-1.6666666666666665</ele><time>2026-04-12T12:52:26.301Z</time></trkpt><trkpt lat="44.8499817" lon="12.2968517"><ele>-1.5</ele><time>2026-04-12T12:52:27.3Z</time></trkpt><trkpt lat="44.8499067" lon="12.2968017"><ele>-1.3333333333333333</ele><time>2026-04-12T12:52:28.3Z</time></trkpt><trkpt lat="44.8498217" lon="12.29678"><ele>-1.1666666666666665</ele><time>2026-04-12T12:52:29.3Z</time></trkpt><trkpt lat="44.8497383" lon="12.2967917"><ele>-1.0</ele><time>2026-04-12T12:52:30.3Z</time></trkpt><trkpt lat="44.84963" lon="12.2968167"><ele>-1.0</ele><time>2026-04-12T12:52:31.3Z</time></trkpt><trkpt lat="44.8494833" lon="12.29685"><ele>-1.0</ele><time>2026-04-12T12:52:32.301Z</time></trkpt><trkpt lat="44.8493083" lon="12.2968533"><ele>-1.0</ele><time>2026-04-12T12:52:33.301Z</time></trkpt><trkpt lat="44.8491333" lon="12.2968317"><ele>-1.3333333333333333</ele><time>2026-04-12T12:52:34.3Z</time></trkpt><trkpt lat="44.8489667" lon="12.2968083"><ele>-1.6666666666666665</ele><time>2026-04-12T12:52:35.301Z</time></trkpt><trkpt lat="44.8488033" lon="12.2967933"><ele>-2.0</ele><time>2026-04-12T12:52:36.3Z</time></trkpt><trkpt lat="44.8486467" lon="12.2967883"><ele>-2.0</ele><time>2026-04-12T12:52:37.3Z</time></trkpt><trkpt lat="44.8484967" lon="12.2967867"><ele>-2.0</ele><time>2026-04-12T12:52:38.3Z</time></trkpt><trkpt lat="44.848365" lon="12.2968133"><ele>-2.0</ele><time>2026-04-12T12:52:39.3Z</time></trkpt><trkpt lat="44.8482467" lon="12.2968883"><ele>-2.0</ele><time>2026-04-12T12:52:40.301Z</time></trkpt><trkpt lat="44.848135" lon="12.2970067"><ele>-2.25</ele><time>2026-04-12T12:52:41.3Z</time></trkpt><trkpt lat="44.84805" lon="12.297155"><ele>-2.5</ele><time>2026-04-12T12:52:42.3Z</time></trkpt><trkpt lat="44.8479917" lon="12.297325"><ele>-2.75</ele><time>2026-04-12T12:52:43.3Z</time></trkpt><trkpt lat="44.8479667" lon="12.2975033"><ele>-3.0</ele><time>2026-04-12T12:52:44.301Z</time></trkpt><trkpt lat="44.84796" lon="12.2976967"><ele>-3.0</ele><time>2026-04-12T12:52:45.301Z</time></trkpt><trkpt lat="44.8479567" lon="12.297905"><ele>-3.0</ele><time>2026-04-12T12:52:46.3Z</time></trkpt><trkpt lat="44.8479467" lon="12.298125"><ele>-3.0</ele><time>2026-04-12T12:52:47.301Z</time></trkpt><trkpt lat="44.8479367" lon="12.29835"><ele>-3.0</ele><time>2026-04-12T12:52:48.3Z</time></trkpt><trkpt lat="44.847935" lon="12.2985767"><ele>-3.0</ele><time>2026-04-12T12:52:49.3Z</time></trkpt><trkpt lat="44.84792" lon="12.29882"><ele>-3.0</ele><time>2026-04-12T12:52:50.301Z</time></trkpt><trkpt lat="44.847915" lon="12.29906"><ele>-3.0</ele><time>2026-04-12T12:52:51.3Z</time></trkpt><trkpt lat="44.84791" lon="12.299325"><ele>-3.0</ele><time>2026-04-12T12:52:52.3Z</time></trkpt><trkpt lat="44.8479067" lon="12.299605"><ele>-3.0</ele><time>2026-04-12T12:52:53.3Z</time></trkpt><trkpt lat="44.8479017" lon="12.2999117"><ele>-3.0</ele><time>2026-04-12T12:52:54.3Z</time></trkpt><trkpt lat="44.8478917" lon="12.30024"><ele>-3.0</ele><time>2026-04-12T12:52:55.3Z</time></trkpt><trkpt lat="44.8478867" lon="12.30058"><ele>-3.0</ele><time>2026-04-12T12:52:56.3Z</time></trkpt><trkpt lat="44.8478817" lon="12.300935"><ele>-3.0</ele><time>2026-04-12T12:52:57.3Z</time></trkpt><trkpt lat="44.847875" lon="12.301285"><ele>-3.5</ele><time>2026-04-12T12:52:58.3Z</time></trkpt><trkpt lat="44.8478633" lon="12.3016133"><ele>-4.0</ele><time>2026-04-12T12:52:59.301Z</time></trkpt><trkpt lat="44.8478517" lon="12.301925"><ele>-4.0</ele><time>2026-04-12T12:53:00.3Z</time></trkpt><trkpt lat="44.8478467" lon="12.302225"><ele>-4.0</ele><time>2026-04-12T12:53:01.3Z</time></trkpt><trkpt lat="44.84784" lon="12.3024967"><ele>-4.0</ele><time>2026-04-12T12:53:02.3Z</time></trkpt><trkpt lat="44.8478367" lon="12.3027583"><ele>-4.0</ele><time>2026-04-12T12:53:03.3Z</time></trkpt><trkpt lat="44.8478283" lon="12.3030183"><ele>-4.0</ele><time>2026-04-12T12:53:04.3Z</time></trkpt><trkpt lat="44.8478233" lon="12.303275"><ele>-4.0</ele><time>2026-04-12T12:53:05.3Z</time></trkpt><trkpt lat="44.8478133" lon="12.303535"><ele>-3.6666666666666665</ele><time>2026-04-12T12:53:06.3Z</time></trkpt><trkpt lat="44.847805" lon="12.3037967"><ele>-3.333333333333333</ele><time>2026-04-12T12:53:07.3Z</time></trkpt><trkpt lat="44.8477983" lon="12.3040567"><ele>-3.0</ele><time>2026-04-12T12:53:08.301Z</time></trkpt><trkpt lat="44.8477883" lon="12.3042933"><ele>-3.0</ele><time>2026-04-12T12:53:09.3Z</time></trkpt><trkpt lat="44.84778" lon="12.3045217"><ele>-3.0</ele><time>2026-04-12T12:53:10.301Z</time></trkpt><trkpt lat="44.8477733" lon="12.304755"><ele>-3.0</ele><time>2026-04-12T12:53:11.3Z</time></trkpt><trkpt lat="44.8477717" lon="12.304985"><ele>-3.333333333333333</ele><time>2026-04-12T12:53:12.3Z</time></trkpt><trkpt lat="44.847765" lon="12.30523"><ele>-3.6666666666666665</ele><time>2026-04-12T12:53:13.301Z</time></trkpt><trkpt lat="44.8477533" lon="12.3054833"><ele>-4.0</ele><time>2026-04-12T12:53:14.3Z</time></trkpt><trkpt lat="44.847745" lon="12.3057517"><ele>-4.333333333333333</ele><time>2026-04-12T12:53:15.3Z</time></trkpt><trkpt lat="44.8477367" lon="12.306025"><ele>-4.666666666666667</ele><time>2026-04-12T12:53:16.3Z</time></trkpt><trkpt lat="44.8477283" lon="12.3062967"><ele>-5.0</ele><time>2026-04-12T12:53:17.3Z</time></trkpt><trkpt lat="44.8477233" lon="12.3065783"><ele>-5.333333333333334</ele><time>2026-04-12T12:53:18.3Z</time></trkpt><trkpt lat="44.8477183" lon="12.30687"><ele>-5.666666666666667</ele><time>2026-04-12T12:53:19.3Z</time></trkpt><trkpt lat="44.84771" lon="12.307165"><ele>-6.0</ele><time>2026-04-12T12:53:20.3Z</time></trkpt><trkpt lat="44.8477017" lon="12.3074617"><ele>-5.333333333333333</ele><time>2026-04-12T12:53:21.3Z</time></trkpt><trkpt lat="44.8476967" lon="12.3077567"><ele>-4.666666666666666</ele><time>2026-04-12T12:53:22.301Z</time></trkpt><trkpt lat="44.84769" lon="12.3080483"><ele>-4.0</ele><time>2026-04-12T12:53:23.301Z</time></trkpt><trkpt lat="44.84768" lon="12.3083367"><ele>-3.6666666666666665</ele><time>2026-04-12T12:53:24.3Z</time></trkpt><trkpt lat="44.8476733" lon="12.3086217"><ele>-3.333333333333333</ele><time>2026-04-12T12:53:25.3Z</time></trkpt><trkpt lat="44.8476717" lon="12.3089183"><ele>-3.0</ele><time>2026-04-12T12:53:26.3Z</time></trkpt><trkpt lat="44.8476617" lon="12.30923"><ele>-3.0</ele><time>2026-04-12T12:53:27.3Z</time></trkpt><trkpt lat="44.8476533" lon="12.3095517"><ele>-3.0</ele><time>2026-04-12T12:53:28.3Z</time></trkpt><trkpt lat="44.8476467" lon="12.3098833"><ele>-3.5</ele><time>2026-04-12T12:53:29.3Z</time></trkpt><trkpt lat="44.8476383" lon="12.310235"><ele>-4.0</ele><time>2026-04-12T12:53:30.3Z</time></trkpt><trkpt lat="44.8476267" lon="12.3106017"><ele>-4.5</ele><time>2026-04-12T12:53:31.301Z</time></trkpt><trkpt lat="44.847615" lon="12.31098"><ele>-5.0</ele><time>2026-04-12T12:53:32.3Z</time></trkpt><trkpt lat="44.8476083" lon="12.31136"><ele>-5.0</ele><time>2026-04-12T12:53:33.301Z</time></trkpt><trkpt lat="44.847595" lon="12.3117383"><ele>-5.0</ele><time>2026-04-12T12:53:34.3Z</time></trkpt><trkpt lat="44.8475817" lon="12.3121067"><ele>-5.0</ele><time>2026-04-12T12:53:35.3Z</time></trkpt><trkpt lat="44.8475733" lon="12.3124683"><ele>-5.0</ele><time>2026-04-12T12:53:36.3Z</time></trkpt><trkpt lat="44.8475633" lon="12.3128217"><ele>-5.0</ele><time>2026-04-12T12:53:37.3Z</time></trkpt><trkpt lat="44.8475517" lon="12.3131683"><ele>-5.0</ele><time>2026-04-12T12:53:38.3Z</time></trkpt><trkpt lat="44.8475433" lon="12.31349"><ele>-5.0</ele><time>2026-04-12T12:53:39.3Z</time></trkpt><trkpt lat="44.8475333" lon="12.3137967"><ele>-5.0</ele><time>2026-04-12T12:53:40.3Z</time></trkpt><trkpt lat="44.8475233" lon="12.3141"><ele>-5.0</ele><time>2026-04-12T12:53:41.3Z</time></trkpt><trkpt lat="44.8475183" lon="12.3143983"><ele>-5.0</ele><time>2026-04-12T12:53:42.301Z</time></trkpt><trkpt lat="44.8475133" lon="12.3146883"><ele>-5.0</ele><time>2026-04-12T12:53:43.301Z</time></trkpt><trkpt lat="44.84751" lon="12.3149783"><ele>-5.0</ele><time>2026-04-12T12:53:44.3Z</time></trkpt><trkpt lat="44.8474983" lon="12.315275"><ele>-4.333333333333334</ele><time>2026-04-12T12:53:45.3Z</time></trkpt><trkpt lat="44.84749" lon="12.3155717"><ele>-3.666666666666667</ele><time>2026-04-12T12:53:46.301Z</time></trkpt><trkpt lat="44.8474817" lon="12.3158733"><ele>-3.0</ele><time>2026-04-12T12:53:47.3Z</time></trkpt><trkpt lat="44.8474767" lon="12.3161733"><ele>-3.333333333333333</ele><time>2026-04-12T12:53:48.301Z</time></trkpt><trkpt lat="44.8474717" lon="12.31648"><ele>-3.6666666666666665</ele><time>2026-04-12T12:53:49.3Z</time></trkpt><trkpt lat="44.8474667" lon="12.316795"><ele>-4.0</ele><time>2026-04-12T12:53:50.301Z</time></trkpt><trkpt lat="44.8474517" lon="12.3171033"><ele>-4.0</ele><time>2026-04-12T12:53:51.3Z</time></trkpt><trkpt lat="44.84744" lon="12.31742"><ele>-4.0</ele><time>2026-04-12T12:53:52.3Z</time></trkpt><trkpt lat="44.84743" lon="12.31772"><ele>-4.0</ele><time>2026-04-12T12:53:53.3Z</time></trkpt><trkpt lat="44.8474233" lon="12.3180133"><ele>-3.6666666666666665</ele><time>2026-04-12T12:53:54.3Z</time></trkpt><trkpt lat="44.8474133" lon="12.3182833"><ele>-3.333333333333333</ele><time>2026-04-12T12:53:55.3Z</time></trkpt><trkpt lat="44.8474017" lon="12.3185517"><ele>-3.0</ele><time>2026-04-12T12:53:56.3Z</time></trkpt><trkpt lat="44.8474017" lon="12.3188167"><ele>-3.333333333333333</ele><time>2026-04-12T12:53:57.3Z</time></trkpt><trkpt lat="44.8473983" lon="12.3190783"><ele>-3.6666666666666665</ele><time>2026-04-12T12:53:58.3Z</time></trkpt><trkpt lat="44.8473933" lon="12.31934"><ele>-4.0</ele><time>2026-04-12T12:53:59.301Z</time></trkpt><trkpt lat="44.847385" lon="12.3195933"><ele>-4.0</ele><time>2026-04-12T12:54:00.3Z</time></trkpt><trkpt lat="44.84738" lon="12.319845"><ele>-4.0</ele><time>2026-04-12T12:54:01.3Z</time></trkpt><trkpt lat="44.8473733" lon="12.320095"><ele>-4.0</ele><time>2026-04-12T12:54:02.3Z</time></trkpt><trkpt lat="44.8473667" lon="12.3203517"><ele>-3.6666666666666665</ele><time>2026-04-12T12:54:03.3Z</time></trkpt><trkpt lat="44.8473617" lon="12.3206267"><ele>-3.333333333333333</ele><time>2026-04-12T12:54:04.3Z</time></trkpt><trkpt lat="44.8473633" lon="12.3209283"><ele>-3.0</ele><time>2026-04-12T12:54:05.3Z</time></trkpt><trkpt lat="44.8473567" lon="12.321255"><ele>-3.0</ele><time>2026-04-12T12:54:06.3Z</time></trkpt><trkpt lat="44.84735" lon="12.3215917"><ele>-3.0</ele><time>2026-04-12T12:54:07.3Z</time></trkpt><trkpt lat="44.84734" lon="12.3219317"><ele>-3.0</ele><time>2026-04-12T12:54:08.3Z</time></trkpt><trkpt lat="44.8473283" lon="12.322275"><ele>-3.0</ele><time>2026-04-12T12:54:09.3Z</time></trkpt><trkpt lat="44.8473133" lon="12.322625"><ele>-3.0</ele><time>2026-04-12T12:54:10.3Z</time></trkpt><trkpt lat="44.8473067" lon="12.32295"><ele>-3.0</ele><time>2026-04-12T12:54:11.301Z</time></trkpt><trkpt lat="44.847305" lon="12.3232567"><ele>-3.0</ele><time>2026-04-12T12:54:12.3Z</time></trkpt><trkpt lat="44.847295" lon="12.3235483"><ele>-3.333333333333333</ele><time>2026-04-12T12:54:13.3Z</time></trkpt><trkpt lat="44.847285" lon="12.32381"><ele>-3.6666666666666665</ele><time>2026-04-12T12:54:14.3Z</time></trkpt><trkpt lat="44.8472633" lon="12.324055"><ele>-4.0</ele><time>2026-04-12T12:54:15.3Z</time></trkpt><trkpt lat="44.8472133" lon="12.3242867"><ele>-4.0</ele><time>2026-04-12T12:54:16.301Z</time></trkpt><trkpt lat="44.8471367" lon="12.3245017"><ele>-4.0</ele><time>2026-04-12T12:54:17.3Z</time></trkpt><trkpt lat="44.8470367" lon="12.3247133"><ele>-4.0</ele><time>2026-04-12T12:54:18.301Z</time></trkpt><trkpt lat="44.8469233" lon="12.3249267"><ele>-4.0</ele><time>2026-04-12T12:54:19.3Z</time></trkpt><trkpt lat="44.8468083" lon="12.3251417"><ele>-4.0</ele><time>2026-04-12T12:54:20.3Z</time></trkpt><trkpt lat="44.8466917" lon="12.3253667"><ele>-4.0</ele><time>2026-04-12T12:54:21.301Z</time></trkpt><trkpt lat="44.846565" lon="12.3256"><ele>-4.0</ele><time>2026-04-12T12:54:22.301Z</time></trkpt><trkpt lat="44.8464367" lon="12.3258383"><ele>-4.0</ele><time>2026-04-12T12:54:23.3Z</time></trkpt><trkpt lat="44.846305" lon="12.3260833"><ele>-4.0</ele><time>2026-04-12T12:54:24.3Z</time></trkpt><trkpt lat="44.846175" lon="12.3263317"><ele>-4.0</ele><time>2026-04-12T12:54:25.3Z</time></trkpt><trkpt lat="44.8460433" lon="12.32658"><ele>-4.0</ele><time>2026-04-12T12:54:26.3Z</time></trkpt><trkpt lat="44.8459083" lon="12.3268333"><ele>-4.0</ele><time>2026-04-12T12:54:27.3Z</time></trkpt><trkpt lat="44.845775" lon="12.32709"><ele>-4.0</ele><time>2026-04-12T12:54:28.301Z</time></trkpt><trkpt lat="44.8456417" lon="12.32734"><ele>-4.0</ele><time>2026-04-12T12:54:29.301Z</time></trkpt><trkpt lat="44.8455017" lon="12.3275967"><ele>-4.0</ele><time>2026-04-12T12:54:30.3Z</time></trkpt><trkpt lat="44.845365" lon="12.3278567"><ele>-4.0</ele><time>2026-04-12T12:54:31.301Z</time></trkpt><trkpt lat="44.84523" lon="12.32812"><ele>-3.5</ele><time>2026-04-12T12:54:32.3Z</time></trkpt><trkpt lat="44.8450917" lon="12.3283883"><ele>-3.0</ele><time>2026-04-12T12:54:33.3Z</time></trkpt><trkpt lat="44.84495" lon="12.328655"><ele>-3.5</ele><time>2026-04-12T12:54:34.3Z</time></trkpt><trkpt lat="44.8448083" lon="12.328915"><ele>-4.0</ele><time>2026-04-12T12:54:35.3Z</time></trkpt><trkpt lat="44.8446667" lon="12.32918"><ele>-4.0</ele><time>2026-04-12T12:54:36.301Z</time></trkpt><trkpt lat="44.8445267" lon="12.3294517"><ele>-4.0</ele><time>2026-04-12T12:54:37.301Z</time></trkpt><trkpt lat="44.84439" lon="12.3297117"><ele>-4.0</ele><time>2026-04-12T12:54:38.3Z</time></trkpt><trkpt lat="44.8442617" lon="12.32996"><ele>-4.0</ele><time>2026-04-12T12:54:39.301Z</time></trkpt><trkpt lat="44.8441333" lon="12.3301983"><ele>-4.0</ele><time>2026-04-12T12:54:40.3Z</time></trkpt><trkpt lat="44.84401" lon="12.3304383"><ele>-4.0</ele><time>2026-04-12T12:54:41.301Z</time></trkpt><trkpt lat="44.8438817" lon="12.3306817"><ele>-4.0</ele><time>2026-04-12T12:54:42.301Z</time></trkpt><trkpt lat="44.843755" lon="12.3309183"><ele>-4.0</ele><time>2026-04-12T12:54:43.3Z</time></trkpt><trkpt lat="44.8436283" lon="12.3311533"><ele>-4.0</ele><time>2026-04-12T12:54:44.3Z</time></trkpt><trkpt lat="44.8435067" lon="12.3313833"><ele>-4.0</ele><time>2026-04-12T12:54:45.3Z</time></trkpt><trkpt lat="44.8433883" lon="12.33161"><ele>-4.0</ele><time>2026-04-12T12:54:46.3Z</time></trkpt><trkpt lat="44.8432683" lon="12.3318383"><ele>-4.0</ele><time>2026-04-12T12:54:47.3Z</time></trkpt><trkpt lat="44.84315" lon="12.3320633"><ele>-4.0</ele><time>2026-04-12T12:54:48.3Z</time></trkpt><trkpt lat="44.8430333" lon="12.332285"><ele>-4.0</ele><time>2026-04-12T12:54:49.301Z</time></trkpt><trkpt lat="44.8429117" lon="12.3325067"><ele>-4.0</ele><time>2026-04-12T12:54:50.301Z</time></trkpt><trkpt lat="44.8427933" lon="12.33273"><ele>-4.0</ele><time>2026-04-12T12:54:51.3Z</time></trkpt><trkpt lat="44.8426733" lon="12.3329567"><ele>-4.0</ele><time>2026-04-12T12:54:52.3Z</time></trkpt><trkpt lat="44.842555" lon="12.3331817"><ele>-4.0</ele><time>2026-04-12T12:54:53.301Z</time></trkpt><trkpt lat="44.8424383" lon="12.3334067"><ele>-4.0</ele><time>2026-04-12T12:54:54.3Z</time></trkpt><trkpt lat="44.8423167" lon="12.333635"><ele>-4.0</ele><time>2026-04-12T12:54:55.3Z</time></trkpt><trkpt lat="44.8421933" lon="12.3338667"><ele>-3.6666666666666665</ele><time>2026-04-12T12:54:56.3Z</time></trkpt><trkpt lat="44.8420717" lon="12.3340967"><ele>-3.333333333333333</ele><time>2026-04-12T12:54:57.3Z</time></trkpt><trkpt lat="44.841945" lon="12.334325"><ele>-3.0</ele><time>2026-04-12T12:54:58.3Z</time></trkpt><trkpt lat="44.84182" lon="12.3345633"><ele>-3.0</ele><time>2026-04-12T12:54:59.3Z</time></trkpt><trkpt lat="44.8417017" lon="12.3348017"><ele>-3.0</ele><time>2026-04-12T12:55:00.3Z</time></trkpt><trkpt lat="44.8415783" lon="12.3350383"><ele>-3.0</ele><time>2026-04-12T12:55:01.3Z</time></trkpt><trkpt lat="44.84145" lon="12.3352783"><ele>-3.0</ele><time>2026-04-12T12:55:02.3Z</time></trkpt><trkpt lat="44.841325" lon="12.3355167"><ele>-3.0</ele><time>2026-04-12T12:55:03.3Z</time></trkpt><trkpt lat="44.841205" lon="12.3357567"><ele>-3.0</ele><time>2026-04-12T12:55:04.3Z</time></trkpt><trkpt lat="44.8410817" lon="12.3359933"><ele>-3.0</ele><time>2026-04-12T12:55:05.3Z</time></trkpt><trkpt lat="44.840955" lon="12.3362317"><ele>-3.0</ele><time>2026-04-12T12:55:06.301Z</time></trkpt><trkpt lat="44.8408283" lon="12.33648"><ele>-3.0</ele><time>2026-04-12T12:55:07.3Z</time></trkpt><trkpt lat="44.8406983" lon="12.3367283"><ele>-3.333333333333333</ele><time>2026-04-12T12:55:08.3Z</time></trkpt><trkpt lat="44.8405633" lon="12.3369733"><ele>-3.6666666666666665</ele><time>2026-04-12T12:55:09.3Z</time></trkpt><trkpt lat="44.84043" lon="12.3372267"><ele>-4.0</ele><time>2026-04-12T12:55:10.3Z</time></trkpt><trkpt lat="44.840295" lon="12.3374817"><ele>-4.0</ele><time>2026-04-12T12:55:11.3Z</time></trkpt><trkpt lat="44.8401583" lon="12.337735"><ele>-4.0</ele><time>2026-04-12T12:55:12.3Z</time></trkpt><trkpt lat="44.8400217" lon="12.3379933"><ele>-4.0</ele><time>2026-04-12T12:55:13.3Z</time></trkpt><trkpt lat="44.8398833" lon="12.338255"><ele>-4.0</ele><time>2026-04-12T12:55:14.301Z</time></trkpt><trkpt lat="44.8397467" lon="12.3385167"><ele>-4.0</ele><time>2026-04-12T12:55:15.3Z</time></trkpt><trkpt lat="44.83961" lon="12.3387817"><ele>-4.0</ele><time>2026-04-12T12:55:16.301Z</time></trkpt><trkpt lat="44.839475" lon="12.3390383"><ele>-4.0</ele><time>2026-04-12T12:55:17.3Z</time></trkpt><trkpt lat="44.8393417" lon="12.33929"><ele>-4.0</ele><time>2026-04-12T12:55:18.3Z</time></trkpt><trkpt lat="44.8392167" lon="12.3395267"><ele>-4.0</ele><time>2026-04-12T12:55:19.3Z</time></trkpt><trkpt lat="44.8391017" lon="12.339745"><ele>-4.0</ele><time>2026-04-12T12:55:20.301Z</time></trkpt><trkpt lat="44.8389933" lon="12.3399517"><ele>-4.0</ele><time>2026-04-12T12:55:21.3Z</time></trkpt><trkpt lat="44.8388883" lon="12.3401533"><ele>-4.0</ele><time>2026-04-12T12:55:22.3Z</time></trkpt><trkpt lat="44.8387933" lon="12.3403317"><ele>-4.0</ele><time>2026-04-12T12:55:23.3Z</time></trkpt><trkpt lat="44.8387067" lon="12.3404967"><ele>-4.0</ele><time>2026-04-12T12:55:24.3Z</time></trkpt><trkpt lat="44.83862" lon="12.3406417"><ele>-4.0</ele><time>2026-04-12T12:55:25.3Z</time></trkpt><trkpt lat="44.8385317" lon="12.34077"><ele>-4.0</ele><time>2026-04-12T12:55:26.301Z</time></trkpt><trkpt lat="44.8384233" lon="12.340885"><ele>-3.6666666666666665</ele><time>2026-04-12T12:55:27.301Z</time></trkpt><trkpt lat="44.8382933" lon="12.3409883"><ele>-3.333333333333333</ele><time>2026-04-12T12:55:28.3Z</time></trkpt><trkpt lat="44.8381417" lon="12.341075"><ele>-3.0</ele><time>2026-04-12T12:55:29.3Z</time></trkpt><trkpt lat="44.8379867" lon="12.3411367"><ele>-3.0</ele><time>2026-04-12T12:55:30.3Z</time></trkpt><trkpt lat="44.83784" lon="12.3411883"><ele>-3.0</ele><time>2026-04-12T12:55:31.3Z</time></trkpt><trkpt lat="44.8376917" lon="12.3412367"><ele>-3.0</ele><time>2026-04-12T12:55:32.3Z</time></trkpt><trkpt lat="44.837545" lon="12.341275"><ele>-3.0</ele><time>2026-04-12T12:55:33.3Z</time></trkpt><trkpt lat="44.8374033" lon="12.34132"><ele>-3.0</ele><time>2026-04-12T12:55:34.301Z</time></trkpt><trkpt lat="44.8372683" lon="12.34138"><ele>-3.0</ele><time>2026-04-12T12:55:35.301Z</time></trkpt><trkpt lat="44.837145" lon="12.34145"><ele>-3.0</ele><time>2026-04-12T12:55:36.301Z</time></trkpt><trkpt lat="44.837035" lon="12.3415267"><ele>-2.8</ele><time>2026-04-12T12:55:37.3Z</time></trkpt><trkpt lat="44.8369333" lon="12.3415917"><ele>-2.5999999999999996</ele><time>2026-04-12T12:55:38.3Z</time></trkpt><trkpt lat="44.8368333" lon="12.3416517"><ele>-2.4000000000000004</ele><time>2026-04-12T12:55:39.301Z</time></trkpt><trkpt lat="44.836745" lon="12.3417"><ele>-2.2</ele><time>2026-04-12T12:55:40.301Z</time></trkpt><trkpt lat="44.83666" lon="12.3417433"><ele>-2.0</ele><time>2026-04-12T12:55:41.3Z</time></trkpt><trkpt lat="44.8365783" lon="12.341785"><ele>-1.9999999999999998</ele><time>2026-04-12T12:55:42.3Z</time></trkpt><trkpt lat="44.8365" lon="12.341825"><ele>-2.0</ele><time>2026-04-12T12:55:43.3Z</time></trkpt><trkpt lat="44.8364217" lon="12.3418667"><ele>-2.0</ele><time>2026-04-12T12:55:44.3Z</time></trkpt><trkpt lat="44.83635" lon="12.3419167"><ele>-2.0</ele><time>2026-04-12T12:55:45.3Z</time></trkpt><trkpt lat="44.8362883" lon="12.3419533"><ele>-1.9999999999999998</ele><time>2026-04-12T12:55:46.3Z</time></trkpt><trkpt lat="44.8361783" lon="12.3420183"><ele>-2.0</ele><time>2026-04-12T12:55:48.3Z</time></trkpt><trkpt lat="44.8361167" lon="12.342055"><ele>-1.9999999999999998</ele><time>2026-04-12T12:55:49.3Z</time></trkpt><trkpt lat="44.8360483" lon="12.3421033"><ele>-2.0</ele><time>2026-04-12T12:55:50.3Z</time></trkpt><trkpt lat="44.8359783" lon="12.3421667"><ele>-2.0</ele><time>2026-04-12T12:55:51.3Z</time></trkpt><trkpt lat="44.83591" lon="12.342235"><ele>-2.0</ele><time>2026-04-12T12:55:52.3Z</time></trkpt><trkpt lat="44.83585" lon="12.3422933"><ele>-1.9999999999999998</ele><time>2026-04-12T12:55:53.301Z</time></trkpt><trkpt lat="44.8357783" lon="12.342405"><ele>-2.0</ele><time>2026-04-12T12:55:55.299Z</time></trkpt><trkpt lat="44.83575" lon="12.3425067"><ele>-1.857142857142857</ele><time>2026-04-12T12:55:57.299Z</time></trkpt><trkpt lat="44.835755" lon="12.342615"><ele>-1.714285714285714</ele><time>2026-04-12T12:55:59.299Z</time></trkpt><trkpt lat="44.8357717" lon="12.34273"><ele>-1.5714285714285714</ele><time>2026-04-12T12:56:01.3Z</time></trkpt><trkpt lat="44.8357883" lon="12.342825"><ele>-1.4285714285714284</ele><time>2026-04-12T12:56:03.3Z</time></trkpt><trkpt lat="44.835805" lon="12.3429267"><ele>-1.2857142857142856</ele><time>2026-04-12T12:56:05.299Z</time></trkpt><trkpt lat="44.8358183" lon="12.343035"><ele>-1.1428571428571428</ele><time>2026-04-12T12:56:07.299Z</time></trkpt><trkpt lat="44.8358283" lon="12.3431267"><ele>-1.0</ele><time>2026-04-12T12:56:09.3Z</time></trkpt><trkpt lat="44.835825" lon="12.3432217"><ele>-0.8571428571428571</ele><time>2026-04-12T12:56:22.3Z</time></trkpt><trkpt lat="44.8358367" lon="12.3433133"><ele>-0.7142857142857142</ele><time>2026-04-12T12:56:25.299Z</time></trkpt><trkpt lat="44.835855" lon="12.343435"><ele>-0.5714285714285714</ele><time>2026-04-12T12:56:28.3Z</time></trkpt><trkpt lat="44.835865" lon="12.3435233"><ele>-0.42857142857142855</ele><time>2026-04-12T12:56:30.299Z</time></trkpt><trkpt lat="44.8358733" lon="12.3436283"><ele>-0.2857142857142857</ele><time>2026-04-12T12:56:32.299Z</time></trkpt><trkpt lat="44.835885" lon="12.343745"><ele>-0.14285714285714285</ele><time>2026-04-12T12:56:35.3Z</time></trkpt><trkpt lat="44.8358967" lon="12.3438467"><ele>0.0</ele><time>2026-04-12T12:56:39.299Z</time></trkpt><trkpt lat="44.8358983" lon="12.3439467"><ele>-0.4</ele><time>2026-04-12T12:56:43.299Z</time></trkpt><trkpt lat="44.83591" lon="12.34412"><ele>-0.8</ele><time>2026-04-12T12:58:42.3Z</time></trkpt><trkpt lat="44.8359233" lon="12.3442467"><ele>-1.2000000000000002</ele><time>2026-04-12T12:58:45.299Z</time></trkpt><trkpt lat="44.8359333" lon="12.344365"><ele>-1.6</ele><time>2026-04-12T12:58:47.299Z</time></trkpt><trkpt lat="44.8359483" lon="12.3445"><ele>-2.0</ele><time>2026-04-12T12:58:49.299Z</time></trkpt><trkpt lat="44.8359567" lon="12.34462"><ele>-1.8333333333333333</ele><time>2026-04-12T12:58:51.299Z</time></trkpt><trkpt lat="44.8359633" lon="12.3447717"><ele>-1.6666666666666665</ele><time>2026-04-12T12:58:54.299Z</time></trkpt><trkpt lat="44.83598" lon="12.344875"><ele>-1.5</ele><time>2026-04-12T12:58:56.299Z</time></trkpt><trkpt lat="44.83599" lon="12.344985"><ele>-1.3333333333333333</ele><time>2026-04-12T12:58:59.299Z</time></trkpt><trkpt lat="44.835995" lon="12.3450767"><ele>-1.1666666666666665</ele><time>2026-04-12T12:59:02.299Z</time></trkpt><trkpt lat="44.8359917" lon="12.3451733"><ele>-1.0</ele><time>2026-04-12T12:59:07.299Z</time></trkpt><trkpt lat="44.83598" lon="12.3453017"><ele>-0.9999999999999999</ele><time>2026-04-12T13:06:25.299Z</time></trkpt><trkpt lat="44.8359133" lon="12.3454267"><ele>-1.0</ele><time>2026-04-12T13:06:27.298Z</time></trkpt><trkpt lat="44.83585" lon="12.3454767"><ele>-1.0</ele><time>2026-04-12T13:06:28.298Z</time></trkpt><trkpt lat="44.83577" lon="12.34551"><ele>-1.0</ele><time>2026-04-12T13:06:29.298Z</time></trkpt><trkpt lat="44.8356917" lon="12.34554"><ele>-0.9999999999999999</ele><time>2026-04-12T13:06:30.298Z</time></trkpt><trkpt lat="44.8356167" lon="12.3455867"><ele>-1.0</ele><time>2026-04-12T13:06:31.298Z</time></trkpt><trkpt lat="44.83555" lon="12.3456383"><ele>-1.2000000000000002</ele><time>2026-04-12T13:06:32.298Z</time></trkpt><trkpt lat="44.8354867" lon="12.3456867"><ele>-1.4000000000000001</ele><time>2026-04-12T13:06:33.299Z</time></trkpt><trkpt lat="44.8353767" lon="12.345755"><ele>-1.6</ele><time>2026-04-12T13:06:35.298Z</time></trkpt><trkpt lat="44.835255" lon="12.3457917"><ele>-1.8</ele><time>2026-04-12T13:06:37.298Z</time></trkpt><trkpt lat="44.83519" lon="12.3458067"><ele>-2.0</ele><time>2026-04-12T13:06:38.298Z</time></trkpt><trkpt lat="44.8350833" lon="12.3458367"><ele>-1.9999999999999998</ele><time>2026-04-12T13:06:40.298Z</time></trkpt><trkpt lat="44.835005" lon="12.34589"><ele>-2.0</ele><time>2026-04-12T13:06:42.298Z</time></trkpt><trkpt lat="44.8349617" lon="12.345965"><ele>-2.0</ele><time>2026-04-12T13:06:45.298Z</time></trkpt><trkpt lat="44.8349583" lon="12.3460917"><ele>-2.0</ele><time>2026-04-12T13:06:48.299Z</time></trkpt><trkpt lat="44.8349917" lon="12.346215"><ele>-1.9999999999999998</ele><time>2026-04-12T13:06:50.298Z</time></trkpt><trkpt lat="44.8350683" lon="12.3463017"><ele>-2.0</ele><time>2026-04-12T13:06:52.299Z</time></trkpt><trkpt lat="44.8351817" lon="12.34632"><ele>-1.9999999999999998</ele><time>2026-04-12T13:06:54.299Z</time></trkpt><trkpt lat="44.83525" lon="12.3463083"><ele>-2.0</ele><time>2026-04-12T13:06:55.298Z</time></trkpt><trkpt lat="44.8353267" lon="12.346285"><ele>-2.0</ele><time>2026-04-12T13:06:56.298Z</time></trkpt><trkpt lat="44.8354117" lon="12.3462567"><ele>-2.0</ele><time>2026-04-12T13:06:57.298Z</time></trkpt><trkpt lat="44.8355067" lon="12.3462117"><ele>-1.9999999999999998</ele><time>2026-04-12T13:06:58.298Z</time></trkpt><trkpt lat="44.83561" lon="12.3461617"><ele>-2.0</ele><time>2026-04-12T13:06:59.298Z</time></trkpt><trkpt lat="44.8357183" lon="12.3461133"><ele>-2.0</ele><time>2026-04-12T13:07:00.298Z</time></trkpt><trkpt lat="44.8358217" lon="12.346055"><ele>-2.0</ele><time>2026-04-12T13:07:01.298Z</time></trkpt><trkpt lat="44.8359133" lon="12.3460083"><ele>-2.0</ele><time>2026-04-12T13:07:02.299Z</time></trkpt><trkpt lat="44.836" lon="12.345965"><ele>-2.0</ele><time>2026-04-12T13:07:03.299Z</time></trkpt><trkpt lat="44.8360783" lon="12.345925"><ele>-2.0</ele><time>2026-04-12T13:07:04.298Z</time></trkpt><trkpt lat="44.83615" lon="12.3459033"><ele>-1.8333333333333333</ele><time>2026-04-12T13:07:05.298Z</time></trkpt><trkpt lat="44.83622" lon="12.3459083"><ele>-1.6666666666666665</ele><time>2026-04-12T13:07:06.298Z</time></trkpt><trkpt lat="44.8362767" lon="12.34595"><ele>-1.5</ele><time>2026-04-12T13:07:07.298Z</time></trkpt><trkpt lat="44.8363233" lon="12.3460283"><ele>-1.3333333333333333</ele><time>2026-04-12T13:07:08.298Z</time></trkpt><trkpt lat="44.8363667" lon="12.3461367"><ele>-1.1666666666666665</ele><time>2026-04-12T13:07:09.298Z</time></trkpt><trkpt lat="44.83641" lon="12.34627"><ele>-1.0</ele><time>2026-04-12T13:07:10.299Z</time></trkpt><trkpt lat="44.83646" lon="12.3464233"><ele>-1.5</ele><time>2026-04-12T13:07:11.298Z</time></trkpt><trkpt lat="44.8365133" lon="12.3465867"><ele>-2.0</ele><time>2026-04-12T13:07:12.298Z</time></trkpt><trkpt lat="44.8365717" lon="12.3467567"><ele>-2.5</ele><time>2026-04-12T13:07:13.298Z</time></trkpt><trkpt lat="44.8366317" lon="12.34693"><ele>-3.0</ele><time>2026-04-12T13:07:14.299Z</time></trkpt><trkpt lat="44.836695" lon="12.34711"><ele>-3.0</ele><time>2026-04-12T13:07:15.298Z</time></trkpt><trkpt lat="44.8367617" lon="12.347295"><ele>-3.0</ele><time>2026-04-12T13:07:16.298Z</time></trkpt><trkpt lat="44.83683" lon="12.34749"><ele>-3.0</ele><time>2026-04-12T13:07:17.298Z</time></trkpt><trkpt lat="44.8368967" lon="12.3476883"><ele>-3.0</ele><time>2026-04-12T13:07:18.299Z</time></trkpt><trkpt lat="44.836965" lon="12.3478767"><ele>-3.0</ele><time>2026-04-12T13:07:19.298Z</time></trkpt><trkpt lat="44.83702" lon="12.3480517"><ele>-3.0</ele><time>2026-04-12T13:07:20.299Z</time></trkpt><trkpt lat="44.83707" lon="12.348205"><ele>-3.0</ele><time>2026-04-12T13:07:21.298Z</time></trkpt><trkpt lat="44.8371233" lon="12.3483383"><ele>-3.0</ele><time>2026-04-12T13:07:22.299Z</time></trkpt><trkpt lat="44.8371883" lon="12.34844"><ele>-3.0</ele><time>2026-04-12T13:07:23.299Z</time></trkpt><trkpt lat="44.8372717" lon="12.3484833"><ele>-3.0</ele><time>2026-04-12T13:07:24.299Z</time></trkpt><trkpt lat="44.8373633" lon="12.3484817"><ele>-3.0</ele><time>2026-04-12T13:07:25.299Z</time></trkpt><trkpt lat="44.8374767" lon="12.3484467"><ele>-3.0</ele><time>2026-04-12T13:07:26.298Z</time></trkpt><trkpt lat="44.8375983" lon="12.34841"><ele>-3.0</ele><time>2026-04-12T13:07:27.298Z</time></trkpt><trkpt lat="44.8377233" lon="12.34841"><ele>-3.0</ele><time>2026-04-12T13:07:28.298Z</time></trkpt><trkpt lat="44.8378467" lon="12.3484483"><ele>-3.0</ele><time>2026-04-12T13:07:29.298Z</time></trkpt><trkpt lat="44.83795" lon="12.34853"><ele>-3.0</ele><time>2026-04-12T13:07:30.298Z</time></trkpt><trkpt lat="44.8380417" lon="12.34865"><ele>-3.0</ele><time>2026-04-12T13:07:31.298Z</time></trkpt><trkpt lat="44.8381083" lon="12.3488133"><ele>-3.0</ele><time>2026-04-12T13:07:32.298Z</time></trkpt><trkpt lat="44.838165" lon="12.348995"><ele>-3.0</ele><time>2026-04-12T13:07:33.299Z</time></trkpt><trkpt lat="44.83822" lon="12.3491917"><ele>-3.0</ele><time>2026-04-12T13:07:34.299Z</time></trkpt><trkpt lat="44.8382767" lon="12.3494067"><ele>-3.333333333333333</ele><time>2026-04-12T13:07:35.298Z</time></trkpt><trkpt lat="44.8383367" lon="12.34963"><ele>-3.6666666666666665</ele><time>2026-04-12T13:07:36.298Z</time></trkpt><trkpt lat="44.8384017" lon="12.3498583"><ele>-4.0</ele><time>2026-04-12T13:07:37.299Z</time></trkpt><trkpt lat="44.8384617" lon="12.3500733"><ele>-4.333333333333333</ele><time>2026-04-12T13:07:38.298Z</time></trkpt><trkpt lat="44.8385167" lon="12.3502817"><ele>-4.666666666666667</ele><time>2026-04-12T13:07:39.298Z</time></trkpt><trkpt lat="44.8385767" lon="12.35049"><ele>-5.0</ele><time>2026-04-12T13:07:40.298Z</time></trkpt><trkpt lat="44.8386367" lon="12.3507033"><ele>-5.0</ele><time>2026-04-12T13:07:41.298Z</time></trkpt><trkpt lat="44.838695" lon="12.350915"><ele>-5.0</ele><time>2026-04-12T13:07:42.299Z</time></trkpt><trkpt lat="44.8387517" lon="12.3511333"><ele>-5.0</ele><time>2026-04-12T13:07:43.298Z</time></trkpt><trkpt lat="44.8388067" lon="12.3513567"><ele>-4.666666666666667</ele><time>2026-04-12T13:07:44.299Z</time></trkpt><trkpt lat="44.838865" lon="12.3515767"><ele>-4.333333333333333</ele><time>2026-04-12T13:07:45.298Z</time></trkpt><trkpt lat="44.8389267" lon="12.351805"><ele>-4.0</ele><time>2026-04-12T13:07:46.298Z</time></trkpt><trkpt lat="44.838985" lon="12.35204"><ele>-3.6666666666666665</ele><time>2026-04-12T13:07:47.299Z</time></trkpt><trkpt lat="44.83905" lon="12.3522783"><ele>-3.333333333333333</ele><time>2026-04-12T13:07:48.298Z</time></trkpt><trkpt lat="44.8391133" lon="12.352515"><ele>-3.0</ele><time>2026-04-12T13:07:49.298Z</time></trkpt><trkpt lat="44.839175" lon="12.35276"><ele>-3.0</ele><time>2026-04-12T13:07:50.298Z</time></trkpt><trkpt lat="44.8392333" lon="12.3530033"><ele>-3.0</ele><time>2026-04-12T13:07:51.299Z</time></trkpt><trkpt lat="44.8392967" lon="12.3532433"><ele>-3.0</ele><time>2026-04-12T13:07:52.298Z</time></trkpt><trkpt lat="44.8393633" lon="12.353485"><ele>-3.0</ele><time>2026-04-12T13:07:53.298Z</time></trkpt><trkpt lat="44.83943" lon="12.353745"><ele>-3.0</ele><time>2026-04-12T13:07:54.298Z</time></trkpt><trkpt lat="44.8395033" lon="12.3540383"><ele>-3.0</ele><time>2026-04-12T13:07:55.298Z</time></trkpt><trkpt lat="44.8395867" lon="12.35435"><ele>-3.0</ele><time>2026-04-12T13:07:56.299Z</time></trkpt><trkpt lat="44.8396783" lon="12.3546933"><ele>-3.0</ele><time>2026-04-12T13:07:57.299Z</time></trkpt><trkpt lat="44.8397783" lon="12.3550667"><ele>-3.0</ele><time>2026-04-12T13:07:58.298Z</time></trkpt><trkpt lat="44.8398817" lon="12.3554583"><ele>-3.0</ele><time>2026-04-12T13:07:59.298Z</time></trkpt><trkpt lat="44.83998" lon="12.355835"><ele>-2.5</ele><time>2026-04-12T13:08:00.298Z</time></trkpt><trkpt lat="44.8400733" lon="12.3561883"><ele>-2.0</ele><time>2026-04-12T13:08:01.298Z</time></trkpt><trkpt lat="44.8401583" lon="12.3565283"><ele>-3.0</ele><time>2026-04-12T13:08:02.298Z</time></trkpt><trkpt lat="44.8402383" lon="12.3568467"><ele>-4.0</ele><time>2026-04-12T13:08:03.298Z</time></trkpt><trkpt lat="44.8403183" lon="12.3571517"><ele>-4.0</ele><time>2026-04-12T13:08:04.298Z</time></trkpt><trkpt lat="44.8403967" lon="12.3574583"><ele>-4.0</ele><time>2026-04-12T13:08:05.299Z</time></trkpt><trkpt lat="44.8404733" lon="12.3577583"><ele>-3.5</ele><time>2026-04-12T13:08:06.298Z</time></trkpt><trkpt lat="44.8405517" lon="12.3580583"><ele>-3.0</ele><time>2026-04-12T13:08:07.299Z</time></trkpt><trkpt lat="44.84063" lon="12.35836"><ele>-3.0</ele><time>2026-04-12T13:08:08.299Z</time></trkpt><trkpt lat="44.8407133" lon="12.35867"><ele>-3.0</ele><time>2026-04-12T13:08:09.298Z</time></trkpt><trkpt lat="44.8407933" lon="12.3589883"><ele>-3.5</ele><time>2026-04-12T13:08:10.298Z</time></trkpt><trkpt lat="44.84087" lon="12.3593017"><ele>-4.0</ele><time>2026-04-12T13:08:11.298Z</time></trkpt><trkpt lat="44.8409417" lon="12.3595917"><ele>-4.333333333333333</ele><time>2026-04-12T13:08:12.299Z</time></trkpt><trkpt lat="44.8410117" lon="12.3598633"><ele>-4.666666666666667</ele><time>2026-04-12T13:08:13.298Z</time></trkpt><trkpt lat="44.8410817" lon="12.360125"><ele>-5.0</ele><time>2026-04-12T13:08:14.298Z</time></trkpt><trkpt lat="44.8411433" lon="12.3603667"><ele>-4.666666666666667</ele><time>2026-04-12T13:08:15.298Z</time></trkpt><trkpt lat="44.8412" lon="12.360595"><ele>-4.333333333333333</ele><time>2026-04-12T13:08:16.298Z</time></trkpt><trkpt lat="44.841255" lon="12.360805"><ele>-4.0</ele><time>2026-04-12T13:08:17.298Z</time></trkpt><trkpt lat="44.8413083" lon="12.3609967"><ele>-4.0</ele><time>2026-04-12T13:08:18.298Z</time></trkpt><trkpt lat="44.8413533" lon="12.3611733"><ele>-4.0</ele><time>2026-04-12T13:08:19.298Z</time></trkpt><trkpt lat="44.841395" lon="12.3613433"><ele>-4.0</ele><time>2026-04-12T13:08:20.299Z</time></trkpt><trkpt lat="44.841435" lon="12.3615017"><ele>-4.0</ele><time>2026-04-12T13:08:21.298Z</time></trkpt><trkpt lat="44.84147" lon="12.36164"><ele>-3.8000000000000003</ele><time>2026-04-12T13:08:22.299Z</time></trkpt><trkpt lat="44.8414917" lon="12.3617483"><ele>-3.6000000000000005</ele><time>2026-04-12T13:08:23.298Z</time></trkpt><trkpt lat="44.8415317" lon="12.3618717"><ele>-3.4</ele><time>2026-04-12T13:08:25.299Z</time></trkpt><trkpt lat="44.8415983" lon="12.3619117"><ele>-3.2</ele><time>2026-04-12T13:08:27.299Z</time></trkpt><trkpt lat="44.8417417" lon="12.3618567"><ele>-3.0</ele><time>2026-04-12T13:08:29.298Z</time></trkpt><trkpt lat="44.84183" lon="12.361795"><ele>-3.0</ele><time>2026-04-12T13:08:30.298Z</time></trkpt><trkpt lat="44.8419267" lon="12.3617367"><ele>-3.0</ele><time>2026-04-12T13:08:31.298Z</time></trkpt><trkpt lat="44.8420217" lon="12.36168"><ele>-3.0</ele><time>2026-04-12T13:08:32.299Z</time></trkpt><trkpt lat="44.8421117" lon="12.36163"><ele>-3.0</ele><time>2026-04-12T13:08:33.298Z</time></trkpt><trkpt lat="44.842195" lon="12.3615817"><ele>-3.0</ele><time>2026-04-12T13:08:34.298Z</time></trkpt><trkpt lat="44.8422767" lon="12.3615433"><ele>-3.0</ele><time>2026-04-12T13:08:35.298Z</time></trkpt><trkpt lat="44.8423617" lon="12.3615033"><ele>-3.0</ele><time>2026-04-12T13:08:36.298Z</time></trkpt><trkpt lat="44.84246" lon="12.36145"><ele>-3.0</ele><time>2026-04-12T13:08:37.298Z</time></trkpt><trkpt lat="44.8425717" lon="12.3613883"><ele>-3.0</ele><time>2026-04-12T13:08:38.298Z</time></trkpt><trkpt lat="44.8427017" lon="12.3613183"><ele>-3.333333333333333</ele><time>2026-04-12T13:08:39.298Z</time></trkpt><trkpt lat="44.84285" lon="12.3612367"><ele>-3.6666666666666665</ele><time>2026-04-12T13:08:40.298Z</time></trkpt><trkpt lat="44.843015" lon="12.3611533"><ele>-4.0</ele><time>2026-04-12T13:08:41.298Z</time></trkpt><trkpt lat="44.843195" lon="12.36105"><ele>-4.0</ele><time>2026-04-12T13:08:42.298Z</time></trkpt><trkpt lat="44.84339" lon="12.3609383"><ele>-4.0</ele><time>2026-04-12T13:08:43.299Z</time></trkpt><trkpt lat="44.8436067" lon="12.3608133"><ele>-4.0</ele><time>2026-04-12T13:08:44.298Z</time></trkpt><trkpt lat="44.8438417" lon="12.36068"><ele>-3.5</ele><time>2026-04-12T13:08:45.299Z</time></trkpt><trkpt lat="44.8440983" lon="12.36053"><ele>-3.0</ele><time>2026-04-12T13:08:46.299Z</time></trkpt><trkpt lat="44.8443633" lon="12.3603817"><ele>-2.5</ele><time>2026-04-12T13:08:47.298Z</time></trkpt><trkpt lat="44.8446167" lon="12.3602417"><ele>-2.0</ele><time>2026-04-12T13:08:48.298Z</time></trkpt><trkpt lat="44.8448567" lon="12.3601083"><ele>-2.0</ele><time>2026-04-12T13:08:49.298Z</time></trkpt><trkpt lat="44.8450917" lon="12.3599867"><ele>-2.0</ele><time>2026-04-12T13:08:50.298Z</time></trkpt><trkpt lat="44.8453183" lon="12.35986"><ele>-2.0</ele><time>2026-04-12T13:08:51.298Z</time></trkpt><trkpt lat="44.8455383" lon="12.3597333"><ele>-2.0</ele><time>2026-04-12T13:08:52.298Z</time></trkpt><trkpt lat="44.8457567" lon="12.35961"><ele>-2.5</ele><time>2026-04-12T13:08:53.298Z</time></trkpt><trkpt lat="44.845975" lon="12.35949"><ele>-3.0</ele><time>2026-04-12T13:08:54.298Z</time></trkpt><trkpt lat="44.8461867" lon="12.3593733"><ele>-3.0</ele><time>2026-04-12T13:08:55.299Z</time></trkpt><trkpt lat="44.8463967" lon="12.3592583"><ele>-3.0</ele><time>2026-04-12T13:08:56.298Z</time></trkpt><trkpt lat="44.8466017" lon="12.35915"><ele>-3.0</ele><time>2026-04-12T13:08:57.298Z</time></trkpt><trkpt lat="44.8468067" lon="12.35904"><ele>-3.0</ele><time>2026-04-12T13:08:58.298Z</time></trkpt><trkpt lat="44.847015" lon="12.358925"><ele>-3.0</ele><time>2026-04-12T13:08:59.299Z</time></trkpt><trkpt lat="44.8472267" lon="12.3588117"><ele>-3.0</ele><time>2026-04-12T13:09:00.299Z</time></trkpt><trkpt lat="44.8474367" lon="12.3586933"><ele>-3.0</ele><time>2026-04-12T13:09:01.299Z</time></trkpt><trkpt lat="44.8476433" lon="12.3585767"><ele>-3.0</ele><time>2026-04-12T13:09:02.298Z</time></trkpt><trkpt lat="44.8478567" lon="12.35846"><ele>-3.5</ele><time>2026-04-12T13:09:03.298Z</time></trkpt><trkpt lat="44.8480733" lon="12.3583417"><ele>-4.0</ele><time>2026-04-12T13:09:04.298Z</time></trkpt><trkpt lat="44.8483017" lon="12.3582183"><ele>-4.0</ele><time>2026-04-12T13:09:05.299Z</time></trkpt><trkpt lat="44.8485317" lon="12.3580933"><ele>-4.0</ele><time>2026-04-12T13:09:06.298Z</time></trkpt><trkpt lat="44.8487683" lon="12.3579583"><ele>-4.5</ele><time>2026-04-12T13:09:07.298Z</time></trkpt><trkpt lat="44.8490083" lon="12.3578217"><ele>-5.0</ele><time>2026-04-12T13:09:08.298Z</time></trkpt><trkpt lat="44.8492417" lon="12.3576933"><ele>-4.0</ele><time>2026-04-12T13:09:09.298Z</time></trkpt><trkpt lat="44.84947" lon="12.3575667"><ele>-3.0</ele><time>2026-04-12T13:09:10.299Z</time></trkpt><trkpt lat="44.8497" lon="12.357435"><ele>-3.0</ele><time>2026-04-12T13:09:11.298Z</time></trkpt><trkpt lat="44.8499317" lon="12.3573"><ele>-3.0</ele><time>2026-04-12T13:09:12.299Z</time></trkpt><trkpt lat="44.8501633" lon="12.357175"><ele>-4.0</ele><time>2026-04-12T13:09:13.298Z</time></trkpt><trkpt lat="44.8503967" lon="12.357045"><ele>-5.0</ele><time>2026-04-12T13:09:14.299Z</time></trkpt><trkpt lat="44.85063" lon="12.35691"><ele>-5.0</ele><time>2026-04-12T13:09:15.298Z</time></trkpt><trkpt lat="44.8508767" lon="12.3567717"><ele>-5.0</ele><time>2026-04-12T13:09:16.298Z</time></trkpt><trkpt lat="44.851135" lon="12.356625"><ele>-5.0</ele><time>2026-04-12T13:09:17.299Z</time></trkpt><trkpt lat="44.8514083" lon="12.3564683"><ele>-5.0</ele><time>2026-04-12T13:09:18.298Z</time></trkpt><trkpt lat="44.8516983" lon="12.3563033"><ele>-4.5</ele><time>2026-04-12T13:09:19.299Z</time></trkpt><trkpt lat="44.8520033" lon="12.3561367"><ele>-4.0</ele><time>2026-04-12T13:09:20.298Z</time></trkpt><trkpt lat="44.8523067" lon="12.355965"><ele>-4.0</ele><time>2026-04-12T13:09:21.298Z</time></trkpt><trkpt lat="44.8525967" lon="12.3558017"><ele>-4.0</ele><time>2026-04-12T13:09:22.298Z</time></trkpt><trkpt lat="44.8528667" lon="12.3556533"><ele>-3.5</ele><time>2026-04-12T13:09:23.299Z</time></trkpt><trkpt lat="44.85312" lon="12.3555167"><ele>-3.0</ele><time>2026-04-12T13:09:24.298Z</time></trkpt><trkpt lat="44.8533617" lon="12.3553767"><ele>-3.0</ele><time>2026-04-12T13:09:25.298Z</time></trkpt><trkpt lat="44.853605" lon="12.3552417"><ele>-3.0</ele><time>2026-04-12T13:09:26.298Z</time></trkpt><trkpt lat="44.8538417" lon="12.3551133"><ele>-3.0</ele><time>2026-04-12T13:09:27.298Z</time></trkpt><trkpt lat="44.8540817" lon="12.3549833"><ele>-3.0</ele><time>2026-04-12T13:09:28.298Z</time></trkpt><trkpt lat="44.8543183" lon="12.35485"><ele>-3.0</ele><time>2026-04-12T13:09:29.299Z</time></trkpt><trkpt lat="44.8545533" lon="12.3547233"><ele>-3.0</ele><time>2026-04-12T13:09:30.298Z</time></trkpt><trkpt lat="44.8547817" lon="12.3545983"><ele>-3.0</ele><time>2026-04-12T13:09:31.298Z</time></trkpt><trkpt lat="44.85501" lon="12.35447"><ele>-3.0</ele><time>2026-04-12T13:09:32.298Z</time></trkpt><trkpt lat="44.8552367" lon="12.3543417"><ele>-3.0</ele><time>2026-04-12T13:09:33.299Z</time></trkpt><trkpt lat="44.8554583" lon="12.3542133"><ele>-3.0</ele><time>2026-04-12T13:09:34.298Z</time></trkpt><trkpt lat="44.85568" lon="12.354085"><ele>-3.0</ele><time>2026-04-12T13:09:35.298Z</time></trkpt><trkpt lat="44.8559017" lon="12.3539633"><ele>-3.0</ele><time>2026-04-12T13:09:36.299Z</time></trkpt><trkpt lat="44.8561217" lon="12.3538383"><ele>-3.0</ele><time>2026-04-12T13:09:37.298Z</time></trkpt><trkpt lat="44.856335" lon="12.3537233"><ele>-3.0</ele><time>2026-04-12T13:09:38.298Z</time></trkpt><trkpt lat="44.856545" lon="12.353605"><ele>-3.0</ele><time>2026-04-12T13:09:39.298Z</time></trkpt><trkpt lat="44.85675" lon="12.3534833"><ele>-3.0</ele><time>2026-04-12T13:09:40.299Z</time></trkpt><trkpt lat="44.8569567" lon="12.35337"><ele>-3.0</ele><time>2026-04-12T13:09:41.298Z</time></trkpt><trkpt lat="44.8571583" lon="12.3532517"><ele>-2.6666666666666665</ele><time>2026-04-12T13:09:42.298Z</time></trkpt><trkpt lat="44.857355" lon="12.3531417"><ele>-2.333333333333333</ele><time>2026-04-12T13:09:43.298Z</time></trkpt><trkpt lat="44.8575517" lon="12.3530317"><ele>-2.0</ele><time>2026-04-12T13:09:44.299Z</time></trkpt><trkpt lat="44.8577483" lon="12.3529217"><ele>-3.333333333333333</ele><time>2026-04-12T13:09:45.299Z</time></trkpt><trkpt lat="44.85795" lon="12.3528033"><ele>-4.666666666666667</ele><time>2026-04-12T13:09:46.298Z</time></trkpt><trkpt lat="44.8581567" lon="12.3526783"><ele>-6.0</ele><time>2026-04-12T13:09:47.299Z</time></trkpt><trkpt lat="44.85837" lon="12.3525517"><ele>-5.5</ele><time>2026-04-12T13:09:48.298Z</time></trkpt><trkpt lat="44.85858" lon="12.3524267"><ele>-5.0</ele><time>2026-04-12T13:09:49.298Z</time></trkpt><trkpt lat="44.85881" lon="12.3523"><ele>-4.5</ele><time>2026-04-12T13:09:50.298Z</time></trkpt><trkpt lat="44.8590467" lon="12.3521683"><ele>-4.0</ele><time>2026-04-12T13:09:51.299Z</time></trkpt><trkpt lat="44.8592833" lon="12.3520367"><ele>-4.5</ele><time>2026-04-12T13:09:52.299Z</time></trkpt><trkpt lat="44.8595283" lon="12.3519017"><ele>-5.0</ele><time>2026-04-12T13:09:53.298Z</time></trkpt><trkpt lat="44.85978" lon="12.3517567"><ele>-5.0</ele><time>2026-04-12T13:09:54.298Z</time></trkpt><trkpt lat="44.8600433" lon="12.3516117"><ele>-5.0</ele><time>2026-04-12T13:09:55.298Z</time></trkpt><trkpt lat="44.8603133" lon="12.351465"><ele>-4.0</ele><time>2026-04-12T13:09:56.298Z</time></trkpt><trkpt lat="44.8605817" lon="12.3513183"><ele>-3.0</ele><time>2026-04-12T13:09:57.298Z</time></trkpt><trkpt lat="44.860845" lon="12.3511733"><ele>-3.5</ele><time>2026-04-12T13:09:58.299Z</time></trkpt><trkpt lat="44.8611083" lon="12.3510283"><ele>-4.0</ele><time>2026-04-12T13:09:59.298Z</time></trkpt><trkpt lat="44.8613717" lon="12.3508833"><ele>-4.0</ele><time>2026-04-12T13:10:00.299Z</time></trkpt><trkpt lat="44.8616317" lon="12.3507383"><ele>-4.0</ele><time>2026-04-12T13:10:01.298Z</time></trkpt><trkpt lat="44.8618883" lon="12.350595"><ele>-4.0</ele><time>2026-04-12T13:10:02.298Z</time></trkpt><trkpt lat="44.862145" lon="12.3504533"><ele>-4.0</ele><time>2026-04-12T13:10:03.298Z</time></trkpt><trkpt lat="44.8624" lon="12.3503133"><ele>-4.0</ele><time>2026-04-12T13:10:04.298Z</time></trkpt><trkpt lat="44.8626483" lon="12.3501733"><ele>-4.0</ele><time>2026-04-12T13:10:05.299Z</time></trkpt><trkpt lat="44.86289" lon="12.350045"><ele>-4.0</ele><time>2026-04-12T13:10:06.298Z</time></trkpt><trkpt lat="44.8631333" lon="12.34991"><ele>-4.0</ele><time>2026-04-12T13:10:07.298Z</time></trkpt><trkpt lat="44.8633733" lon="12.34978"><ele>-4.0</ele><time>2026-04-12T13:10:08.298Z</time></trkpt><trkpt lat="44.863605" lon="12.3496467"><ele>-4.0</ele><time>2026-04-12T13:10:09.299Z</time></trkpt><trkpt lat="44.863835" lon="12.3495167"><ele>-4.0</ele><time>2026-04-12T13:10:10.299Z</time></trkpt><trkpt lat="44.864065" lon="12.3493883"><ele>-4.0</ele><time>2026-04-12T13:10:11.299Z</time></trkpt><trkpt lat="44.8643" lon="12.3492617"><ele>-4.0</ele><time>2026-04-12T13:10:12.298Z</time></trkpt><trkpt lat="44.86453" lon="12.3491317"><ele>-4.0</ele><time>2026-04-12T13:10:13.298Z</time></trkpt><trkpt lat="44.864765" lon="12.3489983"><ele>-3.5</ele><time>2026-04-12T13:10:14.299Z</time></trkpt><trkpt lat="44.8650083" lon="12.348865"><ele>-3.0</ele><time>2026-04-12T13:10:15.299Z</time></trkpt><trkpt lat="44.8652517" lon="12.3487283"><ele>-3.0</ele><time>2026-04-12T13:10:16.298Z</time></trkpt><trkpt lat="44.8655" lon="12.3485867"><ele>-3.0</ele><time>2026-04-12T13:10:17.298Z</time></trkpt><trkpt lat="44.8657517" lon="12.3484467"><ele>-3.5</ele><time>2026-04-12T13:10:18.299Z</time></trkpt><trkpt lat="44.86601" lon="12.34831"><ele>-4.0</ele><time>2026-04-12T13:10:19.298Z</time></trkpt><trkpt lat="44.8662583" lon="12.348165"><ele>-3.0</ele><time>2026-04-12T13:10:20.298Z</time></trkpt><trkpt lat="44.8665117" lon="12.3480217"><ele>-2.0</ele><time>2026-04-12T13:10:21.299Z</time></trkpt><trkpt lat="44.8667617" lon="12.3478867"><ele>-3.0</ele><time>2026-04-12T13:10:22.298Z</time></trkpt><trkpt lat="44.8670083" lon="12.3477533"><ele>-4.0</ele><time>2026-04-12T13:10:23.298Z</time></trkpt><trkpt lat="44.8672533" lon="12.3476183"><ele>-4.0</ele><time>2026-04-12T13:10:24.298Z</time></trkpt><trkpt lat="44.8674967" lon="12.347485"><ele>-4.0</ele><time>2026-04-12T13:10:25.298Z</time></trkpt><trkpt lat="44.8677367" lon="12.34735"><ele>-4.0</ele><time>2026-04-12T13:10:26.298Z</time></trkpt><trkpt lat="44.8679717" lon="12.3472217"><ele>-4.0</ele><time>2026-04-12T13:10:27.298Z</time></trkpt><trkpt lat="44.868195" lon="12.347095"><ele>-4.0</ele><time>2026-04-12T13:10:28.299Z</time></trkpt><trkpt lat="44.8684117" lon="12.34698"><ele>-4.0</ele><time>2026-04-12T13:10:29.299Z</time></trkpt><trkpt lat="44.8686283" lon="12.3468617"><ele>-3.0</ele><time>2026-04-12T13:10:30.298Z</time></trkpt><trkpt lat="44.8688417" lon="12.3467433"><ele>-2.0</ele><time>2026-04-12T13:10:31.299Z</time></trkpt><trkpt lat="44.8690483" lon="12.3466217"><ele>-2.0</ele><time>2026-04-12T13:10:32.298Z</time></trkpt><trkpt lat="44.8692467" lon="12.3465117"><ele>-2.0</ele><time>2026-04-12T13:10:33.298Z</time></trkpt><trkpt lat="44.869435" lon="12.3464083"><ele>-2.0</ele><time>2026-04-12T13:10:34.298Z</time></trkpt><trkpt lat="44.869605" lon="12.3463133"><ele>-2.6666666666666665</ele><time>2026-04-12T13:10:35.299Z</time></trkpt><trkpt lat="44.8697617" lon="12.346215"><ele>-3.333333333333333</ele><time>2026-04-12T13:10:36.298Z</time></trkpt><trkpt lat="44.8699117" lon="12.3461167"><ele>-4.0</ele><time>2026-04-12T13:10:37.298Z</time></trkpt><trkpt lat="44.87006" lon="12.345995"><ele>-2.6666666666666665</ele><time>2026-04-12T13:10:38.298Z</time></trkpt><trkpt lat="44.8702067" lon="12.3458433"><ele>-1.3333333333333333</ele><time>2026-04-12T13:10:39.298Z</time></trkpt><trkpt lat="44.870345" lon="12.3456617"><ele>0.0</ele><time>2026-04-12T13:10:40.299Z</time></trkpt><trkpt lat="44.8704767" lon="12.3454417"><ele>0.0</ele><time>2026-04-12T13:10:41.298Z</time></trkpt><trkpt lat="44.8706117" lon="12.3451817"><ele>0.0</ele><time>2026-04-12T13:10:42.299Z</time></trkpt><trkpt lat="44.87075" lon="12.344905"><ele>-0.5</ele><time>2026-04-12T13:10:43.299Z</time></trkpt><trkpt lat="44.87089" lon="12.3446283"><ele>-1.0</ele><time>2026-04-12T13:10:44.299Z</time></trkpt><trkpt lat="44.8710317" lon="12.3443517"><ele>-1.0</ele><time>2026-04-12T13:10:45.299Z</time></trkpt><trkpt lat="44.8711683" lon="12.3440817"><ele>-1.0</ele><time>2026-04-12T13:10:46.299Z</time></trkpt><trkpt lat="44.8712967" lon="12.3438283"><ele>-1.6666666666666665</ele><time>2026-04-12T13:10:47.298Z</time></trkpt><trkpt lat="44.8714183" lon="12.34358"><ele>-2.3333333333333335</ele><time>2026-04-12T13:10:48.298Z</time></trkpt><trkpt lat="44.87154" lon="12.3433333"><ele>-3.0</ele><time>2026-04-12T13:10:49.298Z</time></trkpt><trkpt lat="44.8716617" lon="12.343095"><ele>-3.0</ele><time>2026-04-12T13:10:50.298Z</time></trkpt><trkpt lat="44.8717833" lon="12.3428483"><ele>-3.0</ele><time>2026-04-12T13:10:51.298Z</time></trkpt><trkpt lat="44.8719033" lon="12.34262"><ele>-3.0</ele><time>2026-04-12T13:10:52.299Z</time></trkpt><trkpt lat="44.8720167" lon="12.3423817"><ele>-3.0</ele><time>2026-04-12T13:10:53.298Z</time></trkpt><trkpt lat="44.872125" lon="12.3421533"><ele>-3.0</ele><time>2026-04-12T13:10:54.298Z</time></trkpt><trkpt lat="44.872225" lon="12.3419317"><ele>-3.0</ele><time>2026-04-12T13:10:55.298Z</time></trkpt><trkpt lat="44.8723183" lon="12.3417067"><ele>-3.0</ele><time>2026-04-12T13:10:56.299Z</time></trkpt><trkpt lat="44.872405" lon="12.34147"><ele>-3.0</ele><time>2026-04-12T13:10:57.299Z</time></trkpt><trkpt lat="44.872495" lon="12.3412267"><ele>-3.0</ele><time>2026-04-12T13:10:58.298Z</time></trkpt><trkpt lat="44.8725917" lon="12.3409883"><ele>-3.0</ele><time>2026-04-12T13:10:59.298Z</time></trkpt><trkpt lat="44.87269" lon="12.34074"><ele>-3.0</ele><time>2026-04-12T13:11:00.298Z</time></trkpt><trkpt lat="44.872785" lon="12.3404917"><ele>-3.0</ele><time>2026-04-12T13:11:01.298Z</time></trkpt><trkpt lat="44.87288" lon="12.34024"><ele>-2.6666666666666665</ele><time>2026-04-12T13:11:02.298Z</time></trkpt><trkpt lat="44.8729767" lon="12.33999"><ele>-2.333333333333333</ele><time>2026-04-12T13:11:03.298Z</time></trkpt><trkpt lat="44.8730717" lon="12.3397517"><ele>-2.0</ele><time>2026-04-12T13:11:04.298Z</time></trkpt><trkpt lat="44.8731633" lon="12.3395267"><ele>-1.6666666666666665</ele><time>2026-04-12T13:11:05.298Z</time></trkpt><trkpt lat="44.8732483" lon="12.339315"><ele>-1.3333333333333333</ele><time>2026-04-12T13:11:06.298Z</time></trkpt><trkpt lat="44.87332" lon="12.3391267"><ele>-1.0</ele><time>2026-04-12T13:11:07.298Z</time></trkpt><trkpt lat="44.8733883" lon="12.3389533"><ele>-1.25</ele><time>2026-04-12T13:11:08.298Z</time></trkpt><trkpt lat="44.8734533" lon="12.3387833"><ele>-1.5</ele><time>2026-04-12T13:11:09.298Z</time></trkpt><trkpt lat="44.8735233" lon="12.3386167"><ele>-1.75</ele><time>2026-04-12T13:11:10.298Z</time></trkpt><trkpt lat="44.87359" lon="12.3384417"><ele>-2.0</ele><time>2026-04-12T13:11:11.298Z</time></trkpt><trkpt lat="44.8736617" lon="12.3382567"><ele>-2.0</ele><time>2026-04-12T13:11:12.298Z</time></trkpt><trkpt lat="44.8737333" lon="12.33807"><ele>-2.0</ele><time>2026-04-12T13:11:13.299Z</time></trkpt><trkpt lat="44.8738083" lon="12.3378617"><ele>-2.0</ele><time>2026-04-12T13:11:14.298Z</time></trkpt><trkpt lat="44.8738867" lon="12.3376567"><ele>-1.6666666666666665</ele><time>2026-04-12T13:11:15.299Z</time></trkpt><trkpt lat="44.873965" lon="12.3374567"><ele>-1.3333333333333333</ele><time>2026-04-12T13:11:16.298Z</time></trkpt><trkpt lat="44.87404" lon="12.3372667"><ele>-1.0</ele><time>2026-04-12T13:11:17.299Z</time></trkpt><trkpt lat="44.8741183" lon="12.33708"><ele>-1.0</ele><time>2026-04-12T13:11:18.298Z</time></trkpt><trkpt lat="44.8742067" lon="12.3369017"><ele>-1.0</ele><time>2026-04-12T13:11:19.298Z</time></trkpt><trkpt lat="44.874295" lon="12.33672"><ele>-1.0</ele><time>2026-04-12T13:11:20.298Z</time></trkpt><trkpt lat="44.8744067" lon="12.336545"><ele>-0.6666666666666666</ele><time>2026-04-12T13:11:21.298Z</time></trkpt><trkpt lat="44.874505" lon="12.3363633"><ele>-0.3333333333333333</ele><time>2026-04-12T13:11:22.299Z</time></trkpt><trkpt lat="44.874605" lon="12.3361767"><ele>0.0</ele><time>2026-04-12T13:11:23.298Z</time></trkpt><trkpt lat="44.8747133" lon="12.3360017"><ele>0.0</ele><time>2026-04-12T13:11:24.298Z</time></trkpt><trkpt lat="44.87483" lon="12.3358333"><ele>0.0</ele><time>2026-04-12T13:11:25.299Z</time></trkpt><trkpt lat="44.874955" lon="12.3356633"><ele>0.0</ele><time>2026-04-12T13:11:26.298Z</time></trkpt><trkpt lat="44.87509" lon="12.3354867"><ele>-1.0</ele><time>2026-04-12T13:11:27.299Z</time></trkpt><trkpt lat="44.8752367" lon="12.3353117"><ele>-2.0</ele><time>2026-04-12T13:11:28.298Z</time></trkpt><trkpt lat="44.8754" lon="12.3351367"><ele>-3.0</ele><time>2026-04-12T13:11:29.298Z</time></trkpt><trkpt lat="44.875575" lon="12.33495"><ele>-3.0</ele><time>2026-04-12T13:11:30.298Z</time></trkpt><trkpt lat="44.8757567" lon="12.3347583"><ele>-3.0</ele><time>2026-04-12T13:11:31.298Z</time></trkpt><trkpt lat="44.8759417" lon="12.3345583"><ele>-1.5</ele><time>2026-04-12T13:11:32.299Z</time></trkpt><trkpt lat="44.8761267" lon="12.334355"><ele>0.0</ele><time>2026-04-12T13:11:33.299Z</time></trkpt><trkpt lat="44.8763217" lon="12.33415"><ele>0.0</ele><time>2026-04-12T13:11:34.299Z</time></trkpt><trkpt lat="44.876515" lon="12.3339433"><ele>0.0</ele><time>2026-04-12T13:11:35.298Z</time></trkpt><trkpt lat="44.8767133" lon="12.3337283"><ele>-1.0</ele><time>2026-04-12T13:11:36.299Z</time></trkpt><trkpt lat="44.87691" lon="12.3335167"><ele>-2.0</ele><time>2026-04-12T13:11:37.298Z</time></trkpt><trkpt lat="44.87711" lon="12.3333"><ele>-2.0</ele><time>2026-04-12T13:11:38.298Z</time></trkpt><trkpt lat="44.8773033" lon="12.3330883"><ele>-2.0</ele><time>2026-04-12T13:11:39.299Z</time></trkpt><trkpt lat="44.8774983" lon="12.3328783"><ele>-1.0</ele><time>2026-04-12T13:11:40.298Z</time></trkpt><trkpt lat="44.87769" lon="12.332665"><ele>0.0</ele><time>2026-04-12T13:11:41.298Z</time></trkpt><trkpt lat="44.8778867" lon="12.3324533"><ele>0.0</ele><time>2026-04-12T13:11:42.298Z</time></trkpt><trkpt lat="44.8780833" lon="12.3322483"><ele>0.0</ele><time>2026-04-12T13:11:43.298Z</time></trkpt><trkpt lat="44.8782733" lon="12.3320383"><ele>-0.5</ele><time>2026-04-12T13:11:44.298Z</time></trkpt><trkpt lat="44.878455" lon="12.3318367"><ele>-1.0</ele><time>2026-04-12T13:11:45.298Z</time></trkpt><trkpt lat="44.8786417" lon="12.331645"><ele>-1.0</ele><time>2026-04-12T13:11:46.298Z</time></trkpt><trkpt lat="44.8788217" lon="12.3314483"><ele>-1.0</ele><time>2026-04-12T13:11:47.298Z</time></trkpt><trkpt lat="44.8790067" lon="12.3312567"><ele>0.0</ele><time>2026-04-12T13:11:48.299Z</time></trkpt><trkpt lat="44.8791933" lon="12.3310583"><ele>1.0</ele><time>2026-04-12T13:11:49.298Z</time></trkpt><trkpt lat="44.8793767" lon="12.3308617"><ele>1.0</ele><time>2026-04-12T13:11:50.298Z</time></trkpt><trkpt lat="44.87956" lon="12.3306617"><ele>1.0</ele><time>2026-04-12T13:11:51.298Z</time></trkpt><trkpt lat="44.8797433" lon="12.3304617"><ele>0.5</ele><time>2026-04-12T13:11:52.298Z</time></trkpt><trkpt lat="44.8799267" lon="12.33026"><ele>0.0</ele><time>2026-04-12T13:11:53.298Z</time></trkpt><trkpt lat="44.8801117" lon="12.33006"><ele>0.0</ele><time>2026-04-12T13:11:54.299Z</time></trkpt><trkpt lat="44.8802967" lon="12.3298517"><ele>0.0</ele><time>2026-04-12T13:11:55.298Z</time></trkpt><trkpt lat="44.8804817" lon="12.3296517"><ele>0.3333333333333333</ele><time>2026-04-12T13:11:56.298Z</time></trkpt><trkpt lat="44.8806617" lon="12.329455"><ele>0.6666666666666666</ele><time>2026-04-12T13:11:57.298Z</time></trkpt><trkpt lat="44.880835" lon="12.3292667"><ele>1.0</ele><time>2026-04-12T13:11:58.298Z</time></trkpt><trkpt lat="44.8810067" lon="12.32908"><ele>1.0</ele><time>2026-04-12T13:11:59.298Z</time></trkpt><trkpt lat="44.8811783" lon="12.3288933"><ele>1.0</ele><time>2026-04-12T13:12:00.298Z</time></trkpt><trkpt lat="44.8813517" lon="12.3287033"><ele>1.0</ele><time>2026-04-12T13:12:01.299Z</time></trkpt><trkpt lat="44.8815233" lon="12.3285067"><ele>0.3333333333333333</ele><time>2026-04-12T13:12:02.298Z</time></trkpt><trkpt lat="44.8816983" lon="12.32832"><ele>-0.3333333333333333</ele><time>2026-04-12T13:12:03.298Z</time></trkpt><trkpt lat="44.88187" lon="12.3281383"><ele>-1.0</ele><time>2026-04-12T13:12:04.299Z</time></trkpt><trkpt lat="44.8820333" lon="12.3279517"><ele>-1.3333333333333333</ele><time>2026-04-12T13:12:05.298Z</time></trkpt><trkpt lat="44.8821983" lon="12.3277767"><ele>-1.6666666666666665</ele><time>2026-04-12T13:12:06.298Z</time></trkpt><trkpt lat="44.882365" lon="12.3276017"><ele>-2.0</ele><time>2026-04-12T13:12:07.299Z</time></trkpt><trkpt lat="44.8825283" lon="12.3274283"><ele>-1.6666666666666665</ele><time>2026-04-12T13:12:08.298Z</time></trkpt><trkpt lat="44.8826817" lon="12.3272633"><ele>-1.3333333333333333</ele><time>2026-04-12T13:12:09.298Z</time></trkpt><trkpt lat="44.8828217" lon="12.3270967"><ele>-1.0</ele><time>2026-04-12T13:12:10.298Z</time></trkpt><trkpt lat="44.8829467" lon="12.3269133"><ele>-1.0</ele><time>2026-04-12T13:12:11.299Z</time></trkpt><trkpt lat="44.8830733" lon="12.326715"><ele>-1.0</ele><time>2026-04-12T13:12:12.298Z</time></trkpt><trkpt lat="44.8831983" lon="12.3265333"><ele>-1.0</ele><time>2026-04-12T13:12:13.298Z</time></trkpt><trkpt lat="44.88334" lon="12.3263783"><ele>-1.0</ele><time>2026-04-12T13:12:14.298Z</time></trkpt><trkpt lat="44.8834933" lon="12.3262683"><ele>-1.0</ele><time>2026-04-12T13:12:15.299Z</time></trkpt><trkpt lat="44.8836517" lon="12.326185"><ele>-1.0</ele><time>2026-04-12T13:12:16.299Z</time></trkpt><trkpt lat="44.8838133" lon="12.3261167"><ele>-1.0</ele><time>2026-04-12T13:12:17.298Z</time></trkpt><trkpt lat="44.8839817" lon="12.326055"><ele>-1.0</ele><time>2026-04-12T13:12:18.298Z</time></trkpt><trkpt lat="44.8841467" lon="12.326005"><ele>-1.0</ele><time>2026-04-12T13:12:19.299Z</time></trkpt><trkpt lat="44.8843217" lon="12.3259417"><ele>-1.3333333333333333</ele><time>2026-04-12T13:12:20.298Z</time></trkpt><trkpt lat="44.8845" lon="12.3258833"><ele>-1.6666666666666665</ele><time>2026-04-12T13:12:21.298Z</time></trkpt><trkpt lat="44.8846667" lon="12.3258133"><ele>-2.0</ele><time>2026-04-12T13:12:22.298Z</time></trkpt><trkpt lat="44.8848317" lon="12.3257583"><ele>-2.0</ele><time>2026-04-12T13:12:23.298Z</time></trkpt><trkpt lat="44.8849867" lon="12.3257033"><ele>-2.0</ele><time>2026-04-12T13:12:24.298Z</time></trkpt><trkpt lat="44.8851417" lon="12.325655"><ele>-2.0</ele><time>2026-04-12T13:12:25.298Z</time></trkpt><trkpt lat="44.88529" lon="12.325605"><ele>-1.75</ele><time>2026-04-12T13:12:26.298Z</time></trkpt><trkpt lat="44.8854367" lon="12.325555"><ele>-1.5</ele><time>2026-04-12T13:12:27.299Z</time></trkpt><trkpt lat="44.8855817" lon="12.325505"><ele>-1.25</ele><time>2026-04-12T13:12:28.298Z</time></trkpt><trkpt lat="44.8857267" lon="12.3254567"><ele>-1.0</ele><time>2026-04-12T13:12:29.298Z</time></trkpt><trkpt lat="44.8858767" lon="12.3254083"><ele>-0.3333333333333333</ele><time>2026-04-12T13:12:30.298Z</time></trkpt><trkpt lat="44.886035" lon="12.3253533"><ele>0.3333333333333333</ele><time>2026-04-12T13:12:31.298Z</time></trkpt><trkpt lat="44.8862033" lon="12.3253017"><ele>1.0</ele><time>2026-04-12T13:12:32.299Z</time></trkpt><trkpt lat="44.886375" lon="12.3252433"><ele>1.0</ele><time>2026-04-12T13:12:33.298Z</time></trkpt><trkpt lat="44.8865417" lon="12.32518"><ele>1.0</ele><time>2026-04-12T13:12:34.298Z</time></trkpt><trkpt lat="44.8867183" lon="12.3251333"><ele>1.0</ele><time>2026-04-12T13:12:35.298Z</time></trkpt><trkpt lat="44.8868917" lon="12.3250833"><ele>0.6666666666666666</ele><time>2026-04-12T13:12:36.298Z</time></trkpt><trkpt lat="44.8870567" lon="12.3250317"><ele>0.3333333333333333</ele><time>2026-04-12T13:12:37.298Z</time></trkpt><trkpt lat="44.8872233" lon="12.3249817"><ele>0.0</ele><time>2026-04-12T13:12:38.298Z</time></trkpt><trkpt lat="44.8873883" lon="12.3249217"><ele>0.0</ele><time>2026-04-12T13:12:39.298Z</time></trkpt><trkpt lat="44.8875467" lon="12.3248683"><ele>0.0</ele><time>2026-04-12T13:12:40.298Z</time></trkpt><trkpt lat="44.887705" lon="12.3248233"><ele>0.0</ele><time>2026-04-12T13:12:41.298Z</time></trkpt><trkpt lat="44.8878583" lon="12.324775"><ele>-0.6666666666666666</ele><time>2026-04-12T13:12:42.299Z</time></trkpt><trkpt lat="44.88801" lon="12.3247133"><ele>-1.3333333333333333</ele><time>2026-04-12T13:12:43.298Z</time></trkpt><trkpt lat="44.8881533" lon="12.32468"><ele>-2.0</ele><time>2026-04-12T13:12:44.298Z</time></trkpt><trkpt lat="44.88831" lon="12.3246133"><ele>-2.0</ele><time>2026-04-12T13:12:45.298Z</time></trkpt><trkpt lat="44.88847" lon="12.324555"><ele>-2.0</ele><time>2026-04-12T13:12:46.298Z</time></trkpt><trkpt lat="44.8886217" lon="12.3245033"><ele>-2.0</ele><time>2026-04-12T13:12:47.298Z</time></trkpt><trkpt lat="44.8887817" lon="12.3244517"><ele>-2.0</ele><time>2026-04-12T13:12:48.298Z</time></trkpt><trkpt lat="44.8889433" lon="12.32439"><ele>-2.0</ele><time>2026-04-12T13:12:49.299Z</time></trkpt><trkpt lat="44.8891083" lon="12.32434"><ele>-2.0</ele><time>2026-04-12T13:12:50.298Z</time></trkpt><trkpt lat="44.8892783" lon="12.32429"><ele>-2.0</ele><time>2026-04-12T13:12:51.298Z</time></trkpt><trkpt lat="44.8894533" lon="12.3242333"><ele>-2.0</ele><time>2026-04-12T13:12:52.298Z</time></trkpt><trkpt lat="44.88964" lon="12.3241683"><ele>-2.0</ele><time>2026-04-12T13:12:53.298Z</time></trkpt><trkpt lat="44.8898433" lon="12.3241017"><ele>-2.0</ele><time>2026-04-12T13:12:54.298Z</time></trkpt><trkpt lat="44.890055" lon="12.3240217"><ele>-2.0</ele><time>2026-04-12T13:12:55.299Z</time></trkpt><trkpt lat="44.8902733" lon="12.3239433"><ele>-2.0</ele><time>2026-04-12T13:12:56.298Z</time></trkpt><trkpt lat="44.8904983" lon="12.3238617"><ele>-2.5</ele><time>2026-04-12T13:12:57.298Z</time></trkpt><trkpt lat="44.89073" lon="12.32378"><ele>-3.0</ele><time>2026-04-12T13:12:58.298Z</time></trkpt><trkpt lat="44.89096" lon="12.3237017"><ele>-3.0</ele><time>2026-04-12T13:12:59.298Z</time></trkpt><trkpt lat="44.89119" lon="12.3236267"><ele>-3.0</ele><time>2026-04-12T13:13:00.298Z</time></trkpt><trkpt lat="44.891415" lon="12.323555"><ele>-3.0</ele><time>2026-04-12T13:13:01.298Z</time></trkpt><trkpt lat="44.8916283" lon="12.323485"><ele>-3.0</ele><time>2026-04-12T13:13:02.298Z</time></trkpt><trkpt lat="44.8918383" lon="12.32341"><ele>-3.0</ele><time>2026-04-12T13:13:03.298Z</time></trkpt><trkpt lat="44.8920467" lon="12.3233333"><ele>-3.0</ele><time>2026-04-12T13:13:04.298Z</time></trkpt><trkpt lat="44.89226" lon="12.323255"><ele>-3.0</ele><time>2026-04-12T13:13:05.298Z</time></trkpt><trkpt lat="44.8924683" lon="12.323185"><ele>-3.0</ele><time>2026-04-12T13:13:06.298Z</time></trkpt><trkpt lat="44.892685" lon="12.3231067"><ele>-3.0</ele><time>2026-04-12T13:13:07.298Z</time></trkpt><trkpt lat="44.8929" lon="12.3230283"><ele>-3.0</ele><time>2026-04-12T13:13:08.298Z</time></trkpt><trkpt lat="44.8931117" lon="12.3229467"><ele>-3.0</ele><time>2026-04-12T13:13:09.298Z</time></trkpt><trkpt lat="44.8933233" lon="12.3228683"><ele>-2.6666666666666665</ele><time>2026-04-12T13:13:10.298Z</time></trkpt><trkpt lat="44.89354" lon="12.3227883"><ele>-2.333333333333333</ele><time>2026-04-12T13:13:11.297Z</time></trkpt><trkpt lat="44.8937533" lon="12.3227117"><ele>-2.0</ele><time>2026-04-12T13:13:12.297Z</time></trkpt><trkpt lat="44.8939683" lon="12.3226317"><ele>-2.0</ele><time>2026-04-12T13:13:13.297Z</time></trkpt><trkpt lat="44.89418" lon="12.3225583"><ele>-2.0</ele><time>2026-04-12T13:13:14.297Z</time></trkpt><trkpt lat="44.8943933" lon="12.3224833"><ele>-2.0</ele><time>2026-04-12T13:13:15.297Z</time></trkpt><trkpt lat="44.8946033" lon="12.3224067"><ele>-2.333333333333333</ele><time>2026-04-12T13:13:16.297Z</time></trkpt><trkpt lat="44.8948167" lon="12.3223283"><ele>-2.6666666666666665</ele><time>2026-04-12T13:13:17.297Z</time></trkpt><trkpt lat="44.895025" lon="12.3222417"><ele>-3.0</ele><time>2026-04-12T13:13:18.297Z</time></trkpt><trkpt lat="44.895235" lon="12.3221233"><ele>-3.0</ele><time>2026-04-12T13:13:19.297Z</time></trkpt><trkpt lat="44.89545" lon="12.3219667"><ele>-3.0</ele><time>2026-04-12T13:13:20.298Z</time></trkpt><trkpt lat="44.8956733" lon="12.32178"><ele>-3.0</ele><time>2026-04-12T13:13:21.298Z</time></trkpt><trkpt lat="44.8958983" lon="12.3215667"><ele>-3.0</ele><time>2026-04-12T13:13:22.297Z</time></trkpt><trkpt lat="44.8961433" lon="12.32135"><ele>-2.0</ele><time>2026-04-12T13:13:23.297Z</time></trkpt><trkpt lat="44.8963767" lon="12.3211217"><ele>-1.0</ele><time>2026-04-12T13:13:24.297Z</time></trkpt><trkpt lat="44.8966067" lon="12.320895"><ele>-1.5</ele><time>2026-04-12T13:13:25.297Z</time></trkpt><trkpt lat="44.896825" lon="12.3206717"><ele>-2.0</ele><time>2026-04-12T13:13:26.297Z</time></trkpt><trkpt lat="44.89702" lon="12.3204633"><ele>-2.333333333333333</ele><time>2026-04-12T13:13:27.297Z</time></trkpt><trkpt lat="44.89718" lon="12.3202817"><ele>-2.6666666666666665</ele><time>2026-04-12T13:13:28.298Z</time></trkpt><trkpt lat="44.89732" lon="12.3201133"><ele>-3.0</ele><time>2026-04-12T13:13:29.298Z</time></trkpt><trkpt lat="44.8974517" lon="12.3199517"><ele>-3.0</ele><time>2026-04-12T13:13:30.297Z</time></trkpt><trkpt lat="44.897575" lon="12.319795"><ele>-3.0</ele><time>2026-04-12T13:13:31.297Z</time></trkpt><trkpt lat="44.8976967" lon="12.319635"><ele>-3.0</ele><time>2026-04-12T13:13:32.297Z</time></trkpt><trkpt lat="44.897815" lon="12.3194733"><ele>-2.6666666666666665</ele><time>2026-04-12T13:13:33.297Z</time></trkpt><trkpt lat="44.89793" lon="12.3193"><ele>-2.333333333333333</ele><time>2026-04-12T13:13:34.297Z</time></trkpt><trkpt lat="44.8980517" lon="12.319125"><ele>-2.0</ele><time>2026-04-12T13:13:35.297Z</time></trkpt><trkpt lat="44.8981617" lon="12.3189417"><ele>-2.333333333333333</ele><time>2026-04-12T13:13:36.298Z</time></trkpt><trkpt lat="44.8982883" lon="12.318765"><ele>-2.6666666666666665</ele><time>2026-04-12T13:13:37.297Z</time></trkpt><trkpt lat="44.8984067" lon="12.3185817"><ele>-3.0</ele><time>2026-04-12T13:13:38.298Z</time></trkpt><trkpt lat="44.8985267" lon="12.318395"><ele>-2.3333333333333335</ele><time>2026-04-12T13:13:39.298Z</time></trkpt><trkpt lat="44.8986483" lon="12.3182033"><ele>-1.6666666666666665</ele><time>2026-04-12T13:13:40.297Z</time></trkpt><trkpt lat="44.898765" lon="12.318015"><ele>-1.0</ele><time>2026-04-12T13:13:41.297Z</time></trkpt><trkpt lat="44.898885" lon="12.3178233"><ele>-1.0</ele><time>2026-04-12T13:13:42.298Z</time></trkpt><trkpt lat="44.8990067" lon="12.3176283"><ele>-1.0</ele><time>2026-04-12T13:13:43.297Z</time></trkpt><trkpt lat="44.899135" lon="12.31743"><ele>-1.0</ele><time>2026-04-12T13:13:44.297Z</time></trkpt><trkpt lat="44.899265" lon="12.3172233"><ele>-1.3333333333333333</ele><time>2026-04-12T13:13:45.297Z</time></trkpt><trkpt lat="44.899395" lon="12.3170217"><ele>-1.6666666666666665</ele><time>2026-04-12T13:13:46.297Z</time></trkpt><trkpt lat="44.89953" lon="12.316825"><ele>-2.0</ele><time>2026-04-12T13:13:47.297Z</time></trkpt><trkpt lat="44.8996667" lon="12.31663"><ele>-2.0</ele><time>2026-04-12T13:13:48.298Z</time></trkpt><trkpt lat="44.8998017" lon="12.3164367"><ele>-2.0</ele><time>2026-04-12T13:13:49.298Z</time></trkpt><trkpt lat="44.8999483" lon="12.3162417"><ele>-2.0</ele><time>2026-04-12T13:13:50.298Z</time></trkpt><trkpt lat="44.9000933" lon="12.3160483"><ele>-2.0</ele><time>2026-04-12T13:13:51.297Z</time></trkpt><trkpt lat="44.9002417" lon="12.315855"><ele>-2.0</ele><time>2026-04-12T13:13:52.297Z</time></trkpt><trkpt lat="44.9003867" lon="12.315665"><ele>-2.0</ele><time>2026-04-12T13:13:53.298Z</time></trkpt><trkpt lat="44.9005367" lon="12.3154783"><ele>-2.0</ele><time>2026-04-12T13:13:54.297Z</time></trkpt><trkpt lat="44.9006833" lon="12.315285"><ele>-2.0</ele><time>2026-04-12T13:13:55.297Z</time></trkpt><trkpt lat="44.90084" lon="12.3151017"><ele>-2.0</ele><time>2026-04-12T13:13:56.297Z</time></trkpt><trkpt lat="44.9010017" lon="12.314925"><ele>-1.3333333333333333</ele><time>2026-04-12T13:13:57.298Z</time></trkpt><trkpt lat="44.901165" lon="12.3147467"><ele>-0.6666666666666666</ele><time>2026-04-12T13:13:58.297Z</time></trkpt><trkpt lat="44.9013333" lon="12.3145733"><ele>0.0</ele><time>2026-04-12T13:13:59.298Z</time></trkpt><trkpt lat="44.9014967" lon="12.3143917"><ele>0.0</ele><time>2026-04-12T13:14:00.297Z</time></trkpt><trkpt lat="44.90166" lon="12.31421"><ele>0.0</ele><time>2026-04-12T13:14:01.297Z</time></trkpt><trkpt lat="44.9018333" lon="12.3140267"><ele>0.0</ele><time>2026-04-12T13:14:02.297Z</time></trkpt><trkpt lat="44.9020017" lon="12.31385"><ele>0.0</ele><time>2026-04-12T13:14:03.298Z</time></trkpt><trkpt lat="44.9021817" lon="12.31366"><ele>0.0</ele><time>2026-04-12T13:14:04.297Z</time></trkpt><trkpt lat="44.9023617" lon="12.313475"><ele>0.0</ele><time>2026-04-12T13:14:05.297Z</time></trkpt><trkpt lat="44.9025433" lon="12.3132883"><ele>-1.0</ele><time>2026-04-12T13:14:06.297Z</time></trkpt><trkpt lat="44.9027167" lon="12.3131"><ele>-2.0</ele><time>2026-04-12T13:14:07.297Z</time></trkpt><trkpt lat="44.9028833" lon="12.31292"><ele>-3.0</ele><time>2026-04-12T13:14:08.297Z</time></trkpt><trkpt lat="44.9030433" lon="12.3127533"><ele>-3.0</ele><time>2026-04-12T13:14:09.297Z</time></trkpt><trkpt lat="44.9032017" lon="12.3125917"><ele>-3.0</ele><time>2026-04-12T13:14:10.297Z</time></trkpt><trkpt lat="44.903355" lon="12.3124417"><ele>-3.0</ele><time>2026-04-12T13:14:11.297Z</time></trkpt><trkpt lat="44.9035167" lon="12.3122917"><ele>-2.3333333333333335</ele><time>2026-04-12T13:14:12.297Z</time></trkpt><trkpt lat="44.9036867" lon="12.3121583"><ele>-1.6666666666666665</ele><time>2026-04-12T13:14:13.298Z</time></trkpt><trkpt lat="44.9038633" lon="12.3120417"><ele>-1.0</ele><time>2026-04-12T13:14:14.297Z</time></trkpt><trkpt lat="44.9040433" lon="12.31194"><ele>-1.0</ele><time>2026-04-12T13:14:15.297Z</time></trkpt><trkpt lat="44.9042317" lon="12.311855"><ele>-1.0</ele><time>2026-04-12T13:14:16.297Z</time></trkpt><trkpt lat="44.904425" lon="12.31179"><ele>-1.0</ele><time>2026-04-12T13:14:17.297Z</time></trkpt><trkpt lat="44.904635" lon="12.311735"><ele>-1.0</ele><time>2026-04-12T13:14:18.297Z</time></trkpt><trkpt lat="44.9048567" lon="12.3117017"><ele>-1.0</ele><time>2026-04-12T13:14:19.297Z</time></trkpt><trkpt lat="44.9050833" lon="12.31168"><ele>-1.0</ele><time>2026-04-12T13:14:20.297Z</time></trkpt><trkpt lat="44.905315" lon="12.3116833"><ele>-1.0</ele><time>2026-04-12T13:14:21.297Z</time></trkpt><trkpt lat="44.9055483" lon="12.3117083"><ele>-1.0</ele><time>2026-04-12T13:14:22.297Z</time></trkpt><trkpt lat="44.9057917" lon="12.3117567"><ele>-1.0</ele><time>2026-04-12T13:14:23.297Z</time></trkpt><trkpt lat="44.906035" lon="12.3118167"><ele>-1.5</ele><time>2026-04-12T13:14:24.297Z</time></trkpt><trkpt lat="44.90629" lon="12.3118717"><ele>-2.0</ele><time>2026-04-12T13:14:25.298Z</time></trkpt><trkpt lat="44.906555" lon="12.3119267"><ele>-2.5</ele><time>2026-04-12T13:14:26.298Z</time></trkpt><trkpt lat="44.90683" lon="12.3119833"><ele>-3.0</ele><time>2026-04-12T13:14:27.297Z</time></trkpt><trkpt lat="44.9071" lon="12.3120417"><ele>-3.0</ele><time>2026-04-12T13:14:28.297Z</time></trkpt><trkpt lat="44.9073733" lon="12.3120933"><ele>-3.0</ele><time>2026-04-12T13:14:29.297Z</time></trkpt><trkpt lat="44.9076467" lon="12.3121583"><ele>-3.0</ele><time>2026-04-12T13:14:30.298Z</time></trkpt><trkpt lat="44.907915" lon="12.31222"><ele>-3.0</ele><time>2026-04-12T13:14:31.297Z</time></trkpt><trkpt lat="44.90819" lon="12.3122767"><ele>-3.0</ele><time>2026-04-12T13:14:32.297Z</time></trkpt><trkpt lat="44.9084667" lon="12.3123333"><ele>-3.0</ele><time>2026-04-12T13:14:33.298Z</time></trkpt><trkpt lat="44.9087417" lon="12.31239"><ele>-3.0</ele><time>2026-04-12T13:14:34.297Z</time></trkpt><trkpt lat="44.90902" lon="12.31245"><ele>-3.0</ele><time>2026-04-12T13:14:35.298Z</time></trkpt><trkpt lat="44.9093033" lon="12.31251"><ele>-3.5</ele><time>2026-04-12T13:14:36.298Z</time></trkpt><trkpt lat="44.9095867" lon="12.31257"><ele>-4.0</ele><time>2026-04-12T13:14:37.297Z</time></trkpt><trkpt lat="44.90987" lon="12.3126133"><ele>-4.0</ele><time>2026-04-12T13:14:38.297Z</time></trkpt><trkpt lat="44.910155" lon="12.3126833"><ele>-4.0</ele><time>2026-04-12T13:14:39.297Z</time></trkpt><trkpt lat="44.9104383" lon="12.3127417"><ele>-4.0</ele><time>2026-04-12T13:14:40.298Z</time></trkpt><trkpt lat="44.9107183" lon="12.3128"><ele>-4.0</ele><time>2026-04-12T13:14:41.297Z</time></trkpt><trkpt lat="44.9110017" lon="12.31286"><ele>-4.0</ele><time>2026-04-12T13:14:42.297Z</time></trkpt><trkpt lat="44.9112883" lon="12.3129183"><ele>-4.0</ele><time>2026-04-12T13:14:43.297Z</time></trkpt><trkpt lat="44.9115767" lon="12.3129817"><ele>-4.0</ele><time>2026-04-12T13:14:44.298Z</time></trkpt><trkpt lat="44.911865" lon="12.3130433"><ele>-4.0</ele><time>2026-04-12T13:14:45.297Z</time></trkpt><trkpt lat="44.9121517" lon="12.3130967"><ele>-4.0</ele><time>2026-04-12T13:14:46.298Z</time></trkpt><trkpt lat="44.9124383" lon="12.3131583"><ele>-4.0</ele><time>2026-04-12T13:14:47.297Z</time></trkpt><trkpt lat="44.9127233" lon="12.3132217"><ele>-4.0</ele><time>2026-04-12T13:14:48.297Z</time></trkpt><trkpt lat="44.9130083" lon="12.3132833"><ele>-4.0</ele><time>2026-04-12T13:14:49.298Z</time></trkpt><trkpt lat="44.91328" lon="12.313335"><ele>-3.5</ele><time>2026-04-12T13:14:50.298Z</time></trkpt><trkpt lat="44.9135417" lon="12.3133917"><ele>-3.0</ele><time>2026-04-12T13:14:51.297Z</time></trkpt><trkpt lat="44.9137917" lon="12.3134417"><ele>-3.0</ele><time>2026-04-12T13:14:52.298Z</time></trkpt><trkpt lat="44.914035" lon="12.313495"><ele>-3.0</ele><time>2026-04-12T13:14:53.297Z</time></trkpt><trkpt lat="44.9142767" lon="12.3135433"><ele>-4.0</ele><time>2026-04-12T13:14:54.298Z</time></trkpt><trkpt lat="44.91451" lon="12.313595"><ele>-5.0</ele><time>2026-04-12T13:14:55.298Z</time></trkpt><trkpt lat="44.9147417" lon="12.3136467"><ele>-5.0</ele><time>2026-04-12T13:14:56.297Z</time></trkpt><trkpt lat="44.9149717" lon="12.3136967"><ele>-5.0</ele><time>2026-04-12T13:14:57.297Z</time></trkpt><trkpt lat="44.9151983" lon="12.3137467"><ele>-5.0</ele><time>2026-04-12T13:14:58.298Z</time></trkpt><trkpt lat="44.915425" lon="12.3137917"><ele>-5.0</ele><time>2026-04-12T13:14:59.297Z</time></trkpt><trkpt lat="44.9156517" lon="12.313835"><ele>-5.0</ele><time>2026-04-12T13:15:00.297Z</time></trkpt><trkpt lat="44.9158717" lon="12.31388"><ele>-5.0</ele><time>2026-04-12T13:15:01.297Z</time></trkpt><trkpt lat="44.9160867" lon="12.3139267"><ele>-5.0</ele><time>2026-04-12T13:15:02.297Z</time></trkpt><trkpt lat="44.91629" lon="12.3139767"><ele>-5.0</ele><time>2026-04-12T13:15:03.297Z</time></trkpt><trkpt lat="44.916485" lon="12.3140167"><ele>-5.0</ele><time>2026-04-12T13:15:04.298Z</time></trkpt><trkpt lat="44.91667" lon="12.3140517"><ele>-5.0</ele><time>2026-04-12T13:15:05.297Z</time></trkpt><trkpt lat="44.916855" lon="12.3140867"><ele>-5.0</ele><time>2026-04-12T13:15:06.297Z</time></trkpt><trkpt lat="44.9170383" lon="12.314115"><ele>-5.0</ele><time>2026-04-12T13:15:07.297Z</time></trkpt><trkpt lat="44.9172283" lon="12.3141333"><ele>-5.0</ele><time>2026-04-12T13:15:08.297Z</time></trkpt><trkpt lat="44.917425" lon="12.3141317"><ele>-5.0</ele><time>2026-04-12T13:15:09.297Z</time></trkpt><trkpt lat="44.9176283" lon="12.3140917"><ele>-5.0</ele><time>2026-04-12T13:15:10.297Z</time></trkpt><trkpt lat="44.917835" lon="12.3140183"><ele>-5.0</ele><time>2026-04-12T13:15:11.298Z</time></trkpt><trkpt lat="44.9180283" lon="12.3139067"><ele>-5.0</ele><time>2026-04-12T13:15:12.297Z</time></trkpt><trkpt lat="44.9182317" lon="12.3137617"><ele>-5.0</ele><time>2026-04-12T13:15:13.297Z</time></trkpt><trkpt lat="44.9184233" lon="12.31358"><ele>-5.0</ele><time>2026-04-12T13:15:14.297Z</time></trkpt><trkpt lat="44.9186217" lon="12.3133483"><ele>-5.0</ele><time>2026-04-12T13:15:15.298Z</time></trkpt><trkpt lat="44.91882" lon="12.3130717"><ele>-5.0</ele><time>2026-04-12T13:15:16.297Z</time></trkpt><trkpt lat="44.91902" lon="12.3127633"><ele>-5.0</ele><time>2026-04-12T13:15:17.297Z</time></trkpt><trkpt lat="44.9192367" lon="12.3124317"><ele>-6.0</ele><time>2026-04-12T13:15:18.297Z</time></trkpt><trkpt lat="44.919455" lon="12.3120967"><ele>-7.0</ele><time>2026-04-12T13:15:19.297Z</time></trkpt><trkpt lat="44.9196717" lon="12.3117667"><ele>-7.0</ele><time>2026-04-12T13:15:20.297Z</time></trkpt><trkpt lat="44.9198783" lon="12.3114483"><ele>-7.0</ele><time>2026-04-12T13:15:21.297Z</time></trkpt><trkpt lat="44.9200767" lon="12.3111417"><ele>-6.5</ele><time>2026-04-12T13:15:22.298Z</time></trkpt><trkpt lat="44.9202717" lon="12.3108367"><ele>-6.0</ele><time>2026-04-12T13:15:23.297Z</time></trkpt><trkpt lat="44.9204667" lon="12.3105333"><ele>-6.0</ele><time>2026-04-12T13:15:24.297Z</time></trkpt><trkpt lat="44.9206567" lon="12.31024"><ele>-6.0</ele><time>2026-04-12T13:15:25.297Z</time></trkpt><trkpt lat="44.92084" lon="12.3099517"><ele>-6.5</ele><time>2026-04-12T13:15:26.298Z</time></trkpt><trkpt lat="44.92102" lon="12.30967"><ele>-7.0</ele><time>2026-04-12T13:15:27.297Z</time></trkpt><trkpt lat="44.9211833" lon="12.3094033"><ele>-7.0</ele><time>2026-04-12T13:15:28.297Z</time></trkpt><trkpt lat="44.921345" lon="12.3091483"><ele>-7.0</ele><time>2026-04-12T13:15:29.298Z</time></trkpt><trkpt lat="44.9215" lon="12.3089133"><ele>-6.666666666666667</ele><time>2026-04-12T13:15:30.298Z</time></trkpt><trkpt lat="44.921655" lon="12.308685"><ele>-6.333333333333334</ele><time>2026-04-12T13:15:31.297Z</time></trkpt><trkpt lat="44.9218133" lon="12.3084683"><ele>-6.0</ele><time>2026-04-12T13:15:32.297Z</time></trkpt><trkpt lat="44.9219867" lon="12.3082817"><ele>-5.666666666666667</ele><time>2026-04-12T13:15:33.297Z</time></trkpt><trkpt lat="44.9221783" lon="12.3081217"><ele>-5.333333333333334</ele><time>2026-04-12T13:15:34.298Z</time></trkpt><trkpt lat="44.9223717" lon="12.3079817"><ele>-5.0</ele><time>2026-04-12T13:15:35.297Z</time></trkpt><trkpt lat="44.9225567" lon="12.3078717"><ele>-5.0</ele><time>2026-04-12T13:15:36.298Z</time></trkpt><trkpt lat="44.922745" lon="12.3077867"><ele>-5.0</ele><time>2026-04-12T13:15:37.297Z</time></trkpt><trkpt lat="44.9229283" lon="12.3077183"><ele>-5.0</ele><time>2026-04-12T13:15:38.298Z</time></trkpt><trkpt lat="44.9231083" lon="12.307675"><ele>-5.0</ele><time>2026-04-12T13:15:39.298Z</time></trkpt><trkpt lat="44.9232883" lon="12.3076517"><ele>-5.0</ele><time>2026-04-12T13:15:40.298Z</time></trkpt><trkpt lat="44.9234633" lon="12.3076467"><ele>-5.0</ele><time>2026-04-12T13:15:41.297Z</time></trkpt><trkpt lat="44.9236367" lon="12.30766"><ele>-4.333333333333334</ele><time>2026-04-12T13:15:42.297Z</time></trkpt><trkpt lat="44.9238167" lon="12.3077033"><ele>-3.666666666666667</ele><time>2026-04-12T13:15:43.297Z</time></trkpt><trkpt lat="44.924" lon="12.3077467"><ele>-3.0</ele><time>2026-04-12T13:15:44.298Z</time></trkpt><trkpt lat="44.924185" lon="12.3077883"><ele>-3.333333333333333</ele><time>2026-04-12T13:15:45.297Z</time></trkpt><trkpt lat="44.9243583" lon="12.3078267"><ele>-3.6666666666666665</ele><time>2026-04-12T13:15:46.297Z</time></trkpt><trkpt lat="44.92453" lon="12.3078617"><ele>-4.0</ele><time>2026-04-12T13:15:47.298Z</time></trkpt><trkpt lat="44.924705" lon="12.3078967"><ele>-4.0</ele><time>2026-04-12T13:15:48.297Z</time></trkpt><trkpt lat="44.924885" lon="12.3079383"><ele>-4.0</ele><time>2026-04-12T13:15:49.297Z</time></trkpt><trkpt lat="44.925065" lon="12.3079767"><ele>-4.0</ele><time>2026-04-12T13:15:50.297Z</time></trkpt><trkpt lat="44.9252483" lon="12.3080117"><ele>-4.333333333333333</ele><time>2026-04-12T13:15:51.297Z</time></trkpt><trkpt lat="44.92543" lon="12.308055"><ele>-4.666666666666667</ele><time>2026-04-12T13:15:52.298Z</time></trkpt><trkpt lat="44.9256217" lon="12.3080967"><ele>-5.0</ele><time>2026-04-12T13:15:53.297Z</time></trkpt><trkpt lat="44.9258167" lon="12.3081383"><ele>-5.0</ele><time>2026-04-12T13:15:54.297Z</time></trkpt><trkpt lat="44.926005" lon="12.3081833"><ele>-5.0</ele><time>2026-04-12T13:15:55.297Z</time></trkpt><trkpt lat="44.9261983" lon="12.3082183"><ele>-5.0</ele><time>2026-04-12T13:15:56.298Z</time></trkpt><trkpt lat="44.9263917" lon="12.3082533"><ele>-5.0</ele><time>2026-04-12T13:15:57.297Z</time></trkpt><trkpt lat="44.926585" lon="12.3082933"><ele>-5.0</ele><time>2026-04-12T13:15:58.298Z</time></trkpt><trkpt lat="44.9267867" lon="12.3083267"><ele>-5.0</ele><time>2026-04-12T13:15:59.297Z</time></trkpt><trkpt lat="44.9269917" lon="12.3083717"><ele>-5.0</ele><time>2026-04-12T13:16:00.297Z</time></trkpt><trkpt lat="44.9271983" lon="12.3084133"><ele>-5.0</ele><time>2026-04-12T13:16:01.297Z</time></trkpt><trkpt lat="44.9274167" lon="12.3084633"><ele>-5.0</ele><time>2026-04-12T13:16:02.297Z</time></trkpt><trkpt lat="44.927635" lon="12.30851"><ele>-5.0</ele><time>2026-04-12T13:16:03.297Z</time></trkpt><trkpt lat="44.9278467" lon="12.3085517"><ele>-5.0</ele><time>2026-04-12T13:16:04.297Z</time></trkpt><trkpt lat="44.92806" lon="12.3085983"><ele>-5.0</ele><time>2026-04-12T13:16:05.298Z</time></trkpt><trkpt lat="44.9282767" lon="12.3086483"><ele>-5.0</ele><time>2026-04-12T13:16:06.297Z</time></trkpt><trkpt lat="44.928495" lon="12.3086883"><ele>-5.0</ele><time>2026-04-12T13:16:07.297Z</time></trkpt><trkpt lat="44.9287117" lon="12.30873"><ele>-5.0</ele><time>2026-04-12T13:16:08.297Z</time></trkpt><trkpt lat="44.9289333" lon="12.30878"><ele>-5.0</ele><time>2026-04-12T13:16:09.297Z</time></trkpt><trkpt lat="44.9291583" lon="12.308825"><ele>-5.0</ele><time>2026-04-12T13:16:10.297Z</time></trkpt><trkpt lat="44.929385" lon="12.3088733"><ele>-5.0</ele><time>2026-04-12T13:16:11.297Z</time></trkpt><trkpt lat="44.9296133" lon="12.3089217"><ele>-5.0</ele><time>2026-04-12T13:16:12.297Z</time></trkpt><trkpt lat="44.9298517" lon="12.308975"><ele>-5.0</ele><time>2026-04-12T13:16:13.297Z</time></trkpt><trkpt lat="44.9300933" lon="12.3090283"><ele>-5.0</ele><time>2026-04-12T13:16:14.297Z</time></trkpt><trkpt lat="44.930325" lon="12.3090833"><ele>-5.0</ele><time>2026-04-12T13:16:15.298Z</time></trkpt><trkpt lat="44.93056" lon="12.3091317"><ele>-5.0</ele><time>2026-04-12T13:16:16.297Z</time></trkpt><trkpt lat="44.93079" lon="12.30918"><ele>-4.666666666666667</ele><time>2026-04-12T13:16:17.297Z</time></trkpt><trkpt lat="44.93101" lon="12.3092233"><ele>-4.333333333333333</ele><time>2026-04-12T13:16:18.298Z</time></trkpt><trkpt lat="44.9312267" lon="12.30927"><ele>-4.0</ele><time>2026-04-12T13:16:19.297Z</time></trkpt><trkpt lat="44.93143" lon="12.30931"><ele>-4.0</ele><time>2026-04-12T13:16:20.297Z</time></trkpt><trkpt lat="44.9316333" lon="12.3093517"><ele>-4.0</ele><time>2026-04-12T13:16:21.298Z</time></trkpt><trkpt lat="44.9318317" lon="12.30939"><ele>-4.0</ele><time>2026-04-12T13:16:22.297Z</time></trkpt><trkpt lat="44.9320367" lon="12.30943"><ele>-4.333333333333333</ele><time>2026-04-12T13:16:23.298Z</time></trkpt><trkpt lat="44.9322317" lon="12.309475"><ele>-4.666666666666667</ele><time>2026-04-12T13:16:24.297Z</time></trkpt><trkpt lat="44.9324183" lon="12.309515"><ele>-5.0</ele><time>2026-04-12T13:16:25.297Z</time></trkpt><trkpt lat="44.93259" lon="12.30955"><ele>-5.0</ele><time>2026-04-12T13:16:26.297Z</time></trkpt><trkpt lat="44.9327583" lon="12.3095767"><ele>-5.0</ele><time>2026-04-12T13:16:27.297Z</time></trkpt><trkpt lat="44.932935" lon="12.3095883"><ele>-5.0</ele><time>2026-04-12T13:16:28.297Z</time></trkpt><trkpt lat="44.933105" lon="12.3095617"><ele>-5.0</ele><time>2026-04-12T13:16:29.297Z</time></trkpt><trkpt lat="44.9332767" lon="12.309485"><ele>-5.0</ele><time>2026-04-12T13:16:30.297Z</time></trkpt><trkpt lat="44.9334417" lon="12.3093767"><ele>-5.0</ele><time>2026-04-12T13:16:31.298Z</time></trkpt><trkpt lat="44.9335967" lon="12.3092583"><ele>-4.666666666666667</ele><time>2026-04-12T13:16:32.297Z</time></trkpt><trkpt lat="44.9337483" lon="12.3091667"><ele>-4.333333333333333</ele><time>2026-04-12T13:16:33.297Z</time></trkpt><trkpt lat="44.933915" lon="12.309115"><ele>-4.0</ele><time>2026-04-12T13:16:34.298Z</time></trkpt><trkpt lat="44.9341133" lon="12.3090917"><ele>-4.0</ele><time>2026-04-12T13:16:35.297Z</time></trkpt><trkpt lat="44.9343233" lon="12.3091083"><ele>-4.0</ele><time>2026-04-12T13:16:36.297Z</time></trkpt><trkpt lat="44.934535" lon="12.3091367"><ele>-4.0</ele><time>2026-04-12T13:16:37.297Z</time></trkpt><trkpt lat="44.9347367" lon="12.3091667"><ele>-4.0</ele><time>2026-04-12T13:16:38.297Z</time></trkpt><trkpt lat="44.9349267" lon="12.3091883"><ele>-4.0</ele><time>2026-04-12T13:16:39.297Z</time></trkpt><trkpt lat="44.9351083" lon="12.309205"><ele>-4.0</ele><time>2026-04-12T13:16:40.297Z</time></trkpt><trkpt lat="44.9352817" lon="12.3092183"><ele>-4.333333333333333</ele><time>2026-04-12T13:16:41.297Z</time></trkpt><trkpt lat="44.9354483" lon="12.3092117"><ele>-4.666666666666667</ele><time>2026-04-12T13:16:42.297Z</time></trkpt><trkpt lat="44.9356033" lon="12.309195"><ele>-5.0</ele><time>2026-04-12T13:16:43.297Z</time></trkpt><trkpt lat="44.9357617" lon="12.309135"><ele>-4.333333333333334</ele><time>2026-04-12T13:16:44.298Z</time></trkpt><trkpt lat="44.9359233" lon="12.30903"><ele>-3.666666666666667</ele><time>2026-04-12T13:16:45.297Z</time></trkpt><trkpt lat="44.93607" lon="12.30892"><ele>-3.0</ele><time>2026-04-12T13:16:46.297Z</time></trkpt><trkpt lat="44.9362133" lon="12.3088117"><ele>-3.0</ele><time>2026-04-12T13:16:47.297Z</time></trkpt><trkpt lat="44.9363517" lon="12.30871"><ele>-3.0</ele><time>2026-04-12T13:16:48.297Z</time></trkpt><trkpt lat="44.9364783" lon="12.3086167"><ele>-3.0</ele><time>2026-04-12T13:16:49.297Z</time></trkpt><trkpt lat="44.9366033" lon="12.3085167"><ele>-3.0</ele><time>2026-04-12T13:16:50.297Z</time></trkpt><trkpt lat="44.9367117" lon="12.3084017"><ele>-2.0</ele><time>2026-04-12T13:16:51.297Z</time></trkpt><trkpt lat="44.9368333" lon="12.3082517"><ele>-1.0</ele><time>2026-04-12T13:16:52.297Z</time></trkpt><trkpt lat="44.9369333" lon="12.308085"><ele>0.0</ele><time>2026-04-12T13:16:53.298Z</time></trkpt><trkpt lat="44.9370233" lon="12.307885"><ele>0.0</ele><time>2026-04-12T13:16:54.297Z</time></trkpt><trkpt lat="44.937095" lon="12.3076783"><ele>0.0</ele><time>2026-04-12T13:16:55.297Z</time></trkpt><trkpt lat="44.9371483" lon="12.3074533"><ele>0.0</ele><time>2026-04-12T13:16:56.297Z</time></trkpt><trkpt lat="44.937185" lon="12.30722"><ele>0.6666666666666666</ele><time>2026-04-12T13:16:57.297Z</time></trkpt><trkpt lat="44.9372133" lon="12.3069867"><ele>1.3333333333333333</ele><time>2026-04-12T13:16:58.297Z</time></trkpt><trkpt lat="44.9372383" lon="12.3067533"><ele>2.0</ele><time>2026-04-12T13:16:59.297Z</time></trkpt><trkpt lat="44.9372633" lon="12.306515"><ele>1.6666666666666665</ele><time>2026-04-12T13:17:00.297Z</time></trkpt><trkpt lat="44.937295" lon="12.3062817"><ele>1.3333333333333333</ele><time>2026-04-12T13:17:01.297Z</time></trkpt><trkpt lat="44.937335" lon="12.3060417"><ele>1.0</ele><time>2026-04-12T13:17:02.297Z</time></trkpt><trkpt lat="44.9373767" lon="12.3057983"><ele>0.6666666666666666</ele><time>2026-04-12T13:17:03.297Z</time></trkpt><trkpt lat="44.9374317" lon="12.3055567"><ele>0.3333333333333333</ele><time>2026-04-12T13:17:04.298Z</time></trkpt><trkpt lat="44.937495" lon="12.30532"><ele>0.0</ele><time>2026-04-12T13:17:05.297Z</time></trkpt><trkpt lat="44.9375683" lon="12.3050867"><ele>0.0</ele><time>2026-04-12T13:17:06.297Z</time></trkpt><trkpt lat="44.9376417" lon="12.304855"><ele>0.0</ele><time>2026-04-12T13:17:07.297Z</time></trkpt><trkpt lat="44.93772" lon="12.3046183"><ele>0.0</ele><time>2026-04-12T13:17:08.298Z</time></trkpt><trkpt lat="44.93781" lon="12.30439"><ele>0.3333333333333333</ele><time>2026-04-12T13:17:09.298Z</time></trkpt><trkpt lat="44.9379083" lon="12.304175"><ele>0.6666666666666666</ele><time>2026-04-12T13:17:10.297Z</time></trkpt><trkpt lat="44.9380033" lon="12.30397"><ele>1.0</ele><time>2026-04-12T13:17:11.297Z</time></trkpt><trkpt lat="44.9381" lon="12.3037667"><ele>1.0</ele><time>2026-04-12T13:17:12.297Z</time></trkpt><trkpt lat="44.9381967" lon="12.3035583"><ele>1.0</ele><time>2026-04-12T13:17:13.298Z</time></trkpt><trkpt lat="44.938295" lon="12.303355"><ele>1.0</ele><time>2026-04-12T13:17:14.297Z</time></trkpt><trkpt lat="44.93839" lon="12.30315"><ele>1.3333333333333333</ele><time>2026-04-12T13:17:15.297Z</time></trkpt><trkpt lat="44.93848" lon="12.3029433"><ele>1.6666666666666665</ele><time>2026-04-12T13:17:16.297Z</time></trkpt><trkpt lat="44.9385767" lon="12.3027367"><ele>2.0</ele><time>2026-04-12T13:17:17.297Z</time></trkpt><trkpt lat="44.9386783" lon="12.302535"><ele>2.0</ele><time>2026-04-12T13:17:18.297Z</time></trkpt><trkpt lat="44.938775" lon="12.3023583"><ele>2.0</ele><time>2026-04-12T13:17:19.297Z</time></trkpt><trkpt lat="44.9388783" lon="12.3021717"><ele>2.0</ele><time>2026-04-12T13:17:20.298Z</time></trkpt><trkpt lat="44.9389883" lon="12.301975"><ele>1.6666666666666665</ele><time>2026-04-12T13:17:21.298Z</time></trkpt><trkpt lat="44.9390967" lon="12.3017717"><ele>1.3333333333333333</ele><time>2026-04-12T13:17:22.297Z</time></trkpt><trkpt lat="44.9391983" lon="12.3015783"><ele>1.0</ele><time>2026-04-12T13:17:23.298Z</time></trkpt><trkpt lat="44.9392983" lon="12.3013783"><ele>1.0</ele><time>2026-04-12T13:17:24.298Z</time></trkpt><trkpt lat="44.9394" lon="12.3011817"><ele>1.0</ele><time>2026-04-12T13:17:25.297Z</time></trkpt><trkpt lat="44.93949" lon="12.30099"><ele>1.0</ele><time>2026-04-12T13:17:26.297Z</time></trkpt><trkpt lat="44.9395767" lon="12.3007933"><ele>1.0</ele><time>2026-04-12T13:17:27.298Z</time></trkpt><trkpt lat="44.9396617" lon="12.30062"><ele>1.0</ele><time>2026-04-12T13:17:28.297Z</time></trkpt><trkpt lat="44.9397483" lon="12.3004633"><ele>1.0</ele><time>2026-04-12T13:17:29.297Z</time></trkpt><trkpt lat="44.9398583" lon="12.300325"><ele>1.0</ele><time>2026-04-12T13:17:30.297Z</time></trkpt><trkpt lat="44.939985" lon="12.3002267"><ele>0.6666666666666666</ele><time>2026-04-12T13:17:31.297Z</time></trkpt><trkpt lat="44.9401417" lon="12.3001367"><ele>0.3333333333333333</ele><time>2026-04-12T13:17:32.298Z</time></trkpt><trkpt lat="44.9403083" lon="12.3000467"><ele>0.0</ele><time>2026-04-12T13:17:33.297Z</time></trkpt><trkpt lat="44.940475" lon="12.299955"><ele>0.0</ele><time>2026-04-12T13:17:34.297Z</time></trkpt><trkpt lat="44.9406367" lon="12.2998467"><ele>0.0</ele><time>2026-04-12T13:17:35.297Z</time></trkpt><trkpt lat="44.940795" lon="12.2997183"><ele>0.0</ele><time>2026-04-12T13:17:36.297Z</time></trkpt><trkpt lat="44.9409567" lon="12.299585"><ele>-0.3333333333333333</ele><time>2026-04-12T13:17:37.297Z</time></trkpt><trkpt lat="44.94111" lon="12.299455"><ele>-0.6666666666666666</ele><time>2026-04-12T13:17:38.297Z</time></trkpt><trkpt lat="44.941265" lon="12.29932"><ele>-1.0</ele><time>2026-04-12T13:17:39.297Z</time></trkpt><trkpt lat="44.941415" lon="12.29918"><ele>-1.0</ele><time>2026-04-12T13:17:40.298Z</time></trkpt><trkpt lat="44.9415717" lon="12.2990483"><ele>-1.0</ele><time>2026-04-12T13:17:41.297Z</time></trkpt><trkpt lat="44.9417367" lon="12.2989317"><ele>-1.0</ele><time>2026-04-12T13:17:42.297Z</time></trkpt><trkpt lat="44.9419133" lon="12.29883"><ele>-1.6666666666666665</ele><time>2026-04-12T13:17:43.298Z</time></trkpt><trkpt lat="44.942095" lon="12.298735"><ele>-2.3333333333333335</ele><time>2026-04-12T13:17:44.297Z</time></trkpt><trkpt lat="44.942285" lon="12.2986633"><ele>-3.0</ele><time>2026-04-12T13:17:45.297Z</time></trkpt><trkpt lat="44.942475" lon="12.2986033"><ele>-2.3333333333333335</ele><time>2026-04-12T13:17:46.298Z</time></trkpt><trkpt lat="44.94267" lon="12.2985567"><ele>-1.6666666666666665</ele><time>2026-04-12T13:17:47.298Z</time></trkpt><trkpt lat="44.9428667" lon="12.2985117"><ele>-1.0</ele><time>2026-04-12T13:17:48.297Z</time></trkpt><trkpt lat="44.9430583" lon="12.298475"><ele>-1.0</ele><time>2026-04-12T13:17:49.297Z</time></trkpt><trkpt lat="44.943245" lon="12.298455"><ele>-1.0</ele><time>2026-04-12T13:17:50.297Z</time></trkpt><trkpt lat="44.943415" lon="12.2984183"><ele>-1.0</ele><time>2026-04-12T13:17:51.297Z</time></trkpt><trkpt lat="44.9435817" lon="12.29838"><ele>0.0</ele><time>2026-04-12T13:17:52.297Z</time></trkpt><trkpt lat="44.943755" lon="12.2983283"><ele>1.0</ele><time>2026-04-12T13:17:53.297Z</time></trkpt><trkpt lat="44.9439267" lon="12.2982783"><ele>2.0</ele><time>2026-04-12T13:17:54.297Z</time></trkpt><trkpt lat="44.9441" lon="12.2982217"><ele>1.3333333333333333</ele><time>2026-04-12T13:17:55.298Z</time></trkpt><trkpt lat="44.944265" lon="12.2981667"><ele>0.6666666666666666</ele><time>2026-04-12T13:17:56.297Z</time></trkpt><trkpt lat="44.9444367" lon="12.29813"><ele>0.0</ele><time>2026-04-12T13:17:57.297Z</time></trkpt><trkpt lat="44.944605" lon="12.2981017"><ele>-1.3333333333333333</ele><time>2026-04-12T13:17:58.297Z</time></trkpt><trkpt lat="44.9447817" lon="12.2980833"><ele>-2.6666666666666665</ele><time>2026-04-12T13:17:59.297Z</time></trkpt><trkpt lat="44.9449633" lon="12.2980717"><ele>-4.0</ele><time>2026-04-12T13:18:00.297Z</time></trkpt><trkpt lat="44.945145" lon="12.2980767"><ele>-3.333333333333333</ele><time>2026-04-12T13:18:01.297Z</time></trkpt><trkpt lat="44.94532" lon="12.2981033"><ele>-2.6666666666666665</ele><time>2026-04-12T13:18:02.297Z</time></trkpt><trkpt lat="44.94549" lon="12.29815"><ele>-2.0</ele><time>2026-04-12T13:18:03.297Z</time></trkpt><trkpt lat="44.9456533" lon="12.2982133"><ele>-2.0</ele><time>2026-04-12T13:18:04.297Z</time></trkpt><trkpt lat="44.9458033" lon="12.2983083"><ele>-2.0</ele><time>2026-04-12T13:18:05.297Z</time></trkpt><trkpt lat="44.9459433" lon="12.2984167"><ele>-2.0</ele><time>2026-04-12T13:18:06.297Z</time></trkpt><trkpt lat="44.94609" lon="12.29852"><ele>-2.333333333333333</ele><time>2026-04-12T13:18:07.297Z</time></trkpt><trkpt lat="44.9462383" lon="12.298605"><ele>-2.6666666666666665</ele><time>2026-04-12T13:18:08.297Z</time></trkpt><trkpt lat="44.9463933" lon="12.29868"><ele>-3.0</ele><time>2026-04-12T13:18:09.297Z</time></trkpt><trkpt lat="44.946555" lon="12.2987433"><ele>-3.333333333333333</ele><time>2026-04-12T13:18:10.297Z</time></trkpt><trkpt lat="44.946715" lon="12.2988"><ele>-3.6666666666666665</ele><time>2026-04-12T13:18:11.297Z</time></trkpt><trkpt lat="44.946865" lon="12.2988433"><ele>-4.0</ele><time>2026-04-12T13:18:12.297Z</time></trkpt><trkpt lat="44.9470017" lon="12.298885"><ele>-3.333333333333333</ele><time>2026-04-12T13:18:13.298Z</time></trkpt><trkpt lat="44.947155" lon="12.298935"><ele>-2.6666666666666665</ele><time>2026-04-12T13:18:14.298Z</time></trkpt><trkpt lat="44.9473017" lon="12.298995"><ele>-2.0</ele><time>2026-04-12T13:18:15.297Z</time></trkpt><trkpt lat="44.9474517" lon="12.2990667"><ele>-1.3333333333333333</ele><time>2026-04-12T13:18:16.297Z</time></trkpt><trkpt lat="44.9476083" lon="12.2991617"><ele>-0.6666666666666666</ele><time>2026-04-12T13:18:17.297Z</time></trkpt><trkpt lat="44.9477667" lon="12.2992683"><ele>0.0</ele><time>2026-04-12T13:18:18.297Z</time></trkpt><trkpt lat="44.94793" lon="12.2993733"><ele>0.0</ele><time>2026-04-12T13:18:19.298Z</time></trkpt><trkpt lat="44.94809" lon="12.2994717"><ele>0.0</ele><time>2026-04-12T13:18:20.297Z</time></trkpt><trkpt lat="44.948255" lon="12.2995617"><ele>0.0</ele><time>2026-04-12T13:18:21.298Z</time></trkpt><trkpt lat="44.9484233" lon="12.2996433"><ele>-0.6666666666666666</ele><time>2026-04-12T13:18:22.297Z</time></trkpt><trkpt lat="44.9485933" lon="12.29971"><ele>-1.3333333333333333</ele><time>2026-04-12T13:18:23.298Z</time></trkpt><trkpt lat="44.9487733" lon="12.2997867"><ele>-2.0</ele><time>2026-04-12T13:18:24.298Z</time></trkpt><trkpt lat="44.94896" lon="12.299845"><ele>-1.0</ele><time>2026-04-12T13:18:25.297Z</time></trkpt><trkpt lat="44.9491383" lon="12.2998967"><ele>0.0</ele><time>2026-04-12T13:18:26.297Z</time></trkpt><trkpt lat="44.9493217" lon="12.2999383"><ele>1.0</ele><time>2026-04-12T13:18:27.298Z</time></trkpt><trkpt lat="44.9494917" lon="12.29996"><ele>1.0</ele><time>2026-04-12T13:18:28.298Z</time></trkpt><trkpt lat="44.9496567" lon="12.299965"><ele>1.0</ele><time>2026-04-12T13:18:29.297Z</time></trkpt><trkpt lat="44.9498067" lon="12.299955"><ele>1.0</ele><time>2026-04-12T13:18:30.297Z</time></trkpt><trkpt lat="44.94995" lon="12.2999217"><ele>1.25</ele><time>2026-04-12T13:18:31.298Z</time></trkpt><trkpt lat="44.9500783" lon="12.299875"><ele>1.5</ele><time>2026-04-12T13:18:32.297Z</time></trkpt><trkpt lat="44.950205" lon="12.2998383"><ele>1.75</ele><time>2026-04-12T13:18:33.298Z</time></trkpt><trkpt lat="44.9503183" lon="12.2998"><ele>2.0</ele><time>2026-04-12T13:18:34.297Z</time></trkpt><trkpt lat="44.9504083" lon="12.2997717"><ele>1.9999999999999998</ele><time>2026-04-12T13:18:35.297Z</time></trkpt><trkpt lat="44.9504733" lon="12.299755"><ele>2.0</ele><time>2026-04-12T13:18:36.298Z</time></trkpt><trkpt lat="44.9505733" lon="12.2996833"><ele>2.0</ele><time>2026-04-12T13:18:38.297Z</time></trkpt><trkpt lat="44.9506067" lon="12.2996017"><ele>2.0</ele><time>2026-04-12T13:18:39.297Z</time></trkpt><trkpt lat="44.9506183" lon="12.2994917"><ele>1.9999999999999998</ele><time>2026-04-12T13:18:40.298Z</time></trkpt><trkpt lat="44.9506" lon="12.2993667"><ele>2.0</ele><time>2026-04-12T13:18:41.297Z</time></trkpt><trkpt lat="44.95056" lon="12.2992183"><ele>1.5</ele><time>2026-04-12T13:18:42.297Z</time></trkpt><trkpt lat="44.950515" lon="12.2990333"><ele>1.0</ele><time>2026-04-12T13:18:43.298Z</time></trkpt><trkpt lat="44.9504767" lon="12.298855"><ele>0.5</ele><time>2026-04-12T13:18:44.298Z</time></trkpt><trkpt lat="44.95044" lon="12.2986683"><ele>0.0</ele><time>2026-04-12T13:18:45.297Z</time></trkpt><trkpt lat="44.9504033" lon="12.2984817"><ele>-0.25</ele><time>2026-04-12T13:18:46.297Z</time></trkpt><trkpt lat="44.9503667" lon="12.2982867"><ele>-0.5</ele><time>2026-04-12T13:18:47.297Z</time></trkpt><trkpt lat="44.95033" lon="12.2980867"><ele>-0.75</ele><time>2026-04-12T13:18:48.297Z</time></trkpt><trkpt lat="44.95029" lon="12.2978817"><ele>-1.0</ele><time>2026-04-12T13:18:49.298Z</time></trkpt><trkpt lat="44.9502483" lon="12.297685"><ele>-1.25</ele><time>2026-04-12T13:18:50.297Z</time></trkpt><trkpt lat="44.9501983" lon="12.2974967"><ele>-1.5</ele><time>2026-04-12T13:18:51.297Z</time></trkpt><trkpt lat="44.9501617" lon="12.2973033"><ele>-1.75</ele><time>2026-04-12T13:18:52.298Z</time></trkpt><trkpt lat="44.9501217" lon="12.297125"><ele>-2.0</ele><time>2026-04-12T13:18:53.297Z</time></trkpt><trkpt lat="44.9500817" lon="12.2969333"><ele>-2.0</ele><time>2026-04-12T13:18:54.298Z</time></trkpt><trkpt lat="44.9500233" lon="12.2967417"><ele>-2.0</ele><time>2026-04-12T13:18:55.297Z</time></trkpt><trkpt lat="44.94996" lon="12.2965383"><ele>-2.0</ele><time>2026-04-12T13:18:56.297Z</time></trkpt><trkpt lat="44.9498817" lon="12.2963317"><ele>-2.333333333333333</ele><time>2026-04-12T13:18:57.297Z</time></trkpt><trkpt lat="44.9497933" lon="12.2961183"><ele>-2.6666666666666665</ele><time>2026-04-12T13:18:58.297Z</time></trkpt><trkpt lat="44.9497" lon="12.295905"><ele>-3.0</ele><time>2026-04-12T13:18:59.297Z</time></trkpt><trkpt lat="44.9496083" lon="12.2956983"><ele>-3.666666666666667</ele><time>2026-04-12T13:19:00.297Z</time></trkpt><trkpt lat="44.9495217" lon="12.2955"><ele>-4.333333333333334</ele><time>2026-04-12T13:19:01.298Z</time></trkpt><trkpt lat="44.9494367" lon="12.29531"><ele>-5.0</ele><time>2026-04-12T13:19:02.297Z</time></trkpt><trkpt lat="44.9493533" lon="12.2951283"><ele>-5.0</ele><time>2026-04-12T13:19:03.297Z</time></trkpt><trkpt lat="44.9492783" lon="12.2949533"><ele>-5.0</ele><time>2026-04-12T13:19:04.297Z</time></trkpt><trkpt lat="44.9492033" lon="12.29479"><ele>-5.0</ele><time>2026-04-12T13:19:05.298Z</time></trkpt><trkpt lat="44.9491333" lon="12.2946283"><ele>-5.0</ele><time>2026-04-12T13:19:06.297Z</time></trkpt><trkpt lat="44.94907" lon="12.29449"><ele>-5.0</ele><time>2026-04-12T13:19:07.298Z</time></trkpt><trkpt lat="44.949015" lon="12.2943817"><ele>-5.0</ele><time>2026-04-12T13:19:08.298Z</time></trkpt><trkpt lat="44.9489733" lon="12.29429"><ele>-5.0</ele><time>2026-04-12T13:19:09.297Z</time></trkpt><trkpt lat="44.9489133" lon="12.294175"><ele>-5.0</ele><time>2026-04-12T13:19:11.297Z</time></trkpt><trkpt lat="44.948835" lon="12.2941317"><ele>-5.0</ele><time>2026-04-12T13:19:14.297Z</time></trkpt><trkpt lat="44.9487767" lon="12.2941683"><ele>-5.0</ele><time>2026-04-12T13:19:22.297Z</time></trkpt><trkpt lat="44.9487217" lon="12.2942883"><ele>-5.0</ele><time>2026-04-12T13:19:24.297Z</time></trkpt><trkpt lat="44.948715" lon="12.2944083"><ele>-5.0</ele><time>2026-04-12T13:19:25.297Z</time></trkpt><trkpt lat="44.9487183" lon="12.2945783"><ele>-5.0</ele><time>2026-04-12T13:19:26.298Z</time></trkpt><trkpt lat="44.9487217" lon="12.29479"><ele>-5.0</ele><time>2026-04-12T13:19:27.297Z</time></trkpt><trkpt lat="44.948725" lon="12.2950317"><ele>-4.666666666666667</ele><time>2026-04-12T13:19:28.297Z</time></trkpt><trkpt lat="44.9487283" lon="12.2952967"><ele>-4.333333333333333</ele><time>2026-04-12T13:19:29.297Z</time></trkpt><trkpt lat="44.948725" lon="12.2955683"><ele>-4.0</ele><time>2026-04-12T13:19:30.298Z</time></trkpt><trkpt lat="44.9487217" lon="12.2958483"><ele>-4.0</ele><time>2026-04-12T13:19:31.298Z</time></trkpt><trkpt lat="44.9487167" lon="12.2961367"><ele>-4.0</ele><time>2026-04-12T13:19:32.297Z</time></trkpt><trkpt lat="44.948705" lon="12.296405"><ele>-4.0</ele><time>2026-04-12T13:19:33.297Z</time></trkpt><trkpt lat="44.9486917" lon="12.29667"><ele>-4.0</ele><time>2026-04-12T13:19:34.297Z</time></trkpt><trkpt lat="44.948675" lon="12.2969333"><ele>-4.0</ele><time>2026-04-12T13:19:35.297Z</time></trkpt><trkpt lat="44.9486617" lon="12.2972033"><ele>-4.0</ele><time>2026-04-12T13:19:36.297Z</time></trkpt><trkpt lat="44.948655" lon="12.29747"><ele>-4.0</ele><time>2026-04-12T13:19:37.297Z</time></trkpt><trkpt lat="44.9486417" lon="12.297725"><ele>-4.0</ele><time>2026-04-12T13:19:38.298Z</time></trkpt><trkpt lat="44.94863" lon="12.2979783"><ele>-4.0</ele><time>2026-04-12T13:19:39.298Z</time></trkpt><trkpt lat="44.9486217" lon="12.2982333"><ele>-4.0</ele><time>2026-04-12T13:19:40.297Z</time></trkpt><trkpt lat="44.9486117" lon="12.29849"><ele>-4.0</ele><time>2026-04-12T13:19:41.297Z</time></trkpt><trkpt lat="44.9486033" lon="12.2987383"><ele>-4.0</ele><time>2026-04-12T13:19:42.298Z</time></trkpt><trkpt lat="44.94859" lon="12.2989967"><ele>-3.333333333333333</ele><time>2026-04-12T13:19:43.297Z</time></trkpt><trkpt lat="44.9485783" lon="12.2992383"><ele>-2.6666666666666665</ele><time>2026-04-12T13:19:44.297Z</time></trkpt><trkpt lat="44.948565" lon="12.29949"><ele>-2.0</ele><time>2026-04-12T13:19:45.297Z</time></trkpt><trkpt lat="44.9485517" lon="12.29974"><ele>-0.6666666666666666</ele><time>2026-04-12T13:19:46.297Z</time></trkpt><trkpt lat="44.9485433" lon="12.2999917"><ele>0.6666666666666666</ele><time>2026-04-12T13:19:47.298Z</time></trkpt><trkpt lat="44.9485283" lon="12.300245"><ele>2.0</ele><time>2026-04-12T13:19:48.297Z</time></trkpt><trkpt lat="44.9485167" lon="12.3005"><ele>1.6666666666666665</ele><time>2026-04-12T13:19:49.297Z</time></trkpt><trkpt lat="44.9485067" lon="12.300765"><ele>1.3333333333333333</ele><time>2026-04-12T13:19:50.297Z</time></trkpt><trkpt lat="44.9485" lon="12.3010217"><ele>1.0</ele><time>2026-04-12T13:19:51.297Z</time></trkpt><trkpt lat="44.94849" lon="12.3012867"><ele>0.6666666666666666</ele><time>2026-04-12T13:19:52.297Z</time></trkpt><trkpt lat="44.94848" lon="12.301555"><ele>0.3333333333333333</ele><time>2026-04-12T13:19:53.297Z</time></trkpt><trkpt lat="44.94847" lon="12.301835"><ele>0.0</ele><time>2026-04-12T13:19:54.298Z</time></trkpt><trkpt lat="44.948455" lon="12.3021233"><ele>0.0</ele><time>2026-04-12T13:19:55.297Z</time></trkpt><trkpt lat="44.9484417" lon="12.3024183"><ele>0.0</ele><time>2026-04-12T13:19:56.297Z</time></trkpt><trkpt lat="44.9484317" lon="12.3027183"><ele>0.0</ele><time>2026-04-12T13:19:57.297Z</time></trkpt><trkpt lat="44.9484183" lon="12.3030267"><ele>0.0</ele><time>2026-04-12T13:19:58.297Z</time></trkpt><trkpt lat="44.948405" lon="12.303345"><ele>0.0</ele><time>2026-04-12T13:19:59.298Z</time></trkpt><trkpt lat="44.9483917" lon="12.3036633"><ele>0.0</ele><time>2026-04-12T13:20:00.297Z</time></trkpt><trkpt lat="44.94838" lon="12.3039767"><ele>0.0</ele><time>2026-04-12T13:20:01.297Z</time></trkpt><trkpt lat="44.9483617" lon="12.3042817"><ele>0.0</ele><time>2026-04-12T13:20:02.297Z</time></trkpt><trkpt lat="44.9483433" lon="12.304565"><ele>-0.3333333333333333</ele><time>2026-04-12T13:20:03.298Z</time></trkpt><trkpt lat="44.9483333" lon="12.304855"><ele>-0.6666666666666666</ele><time>2026-04-12T13:20:04.297Z</time></trkpt><trkpt lat="44.9483183" lon="12.3051383"><ele>-1.0</ele><time>2026-04-12T13:20:05.298Z</time></trkpt><trkpt lat="44.948305" lon="12.3054283"><ele>-1.6666666666666665</ele><time>2026-04-12T13:20:06.298Z</time></trkpt><trkpt lat="44.948295" lon="12.305725"><ele>-2.3333333333333335</ele><time>2026-04-12T13:20:07.298Z</time></trkpt><trkpt lat="44.9482817" lon="12.3060367"><ele>-3.0</ele><time>2026-04-12T13:20:08.298Z</time></trkpt><trkpt lat="44.9482733" lon="12.3063483"><ele>-3.333333333333333</ele><time>2026-04-12T13:20:09.297Z</time></trkpt><trkpt lat="44.9482617" lon="12.3066583"><ele>-3.6666666666666665</ele><time>2026-04-12T13:20:10.298Z</time></trkpt><trkpt lat="44.9482433" lon="12.3069467"><ele>-4.0</ele><time>2026-04-12T13:20:11.297Z</time></trkpt><trkpt lat="44.9482317" lon="12.307225"><ele>-4.333333333333333</ele><time>2026-04-12T13:20:12.297Z</time></trkpt><trkpt lat="44.9482217" lon="12.3074933"><ele>-4.666666666666667</ele><time>2026-04-12T13:20:13.298Z</time></trkpt><trkpt lat="44.9482117" lon="12.3077533"><ele>-5.0</ele><time>2026-04-12T13:20:14.298Z</time></trkpt><trkpt lat="44.9482" lon="12.3080167"><ele>-4.666666666666667</ele><time>2026-04-12T13:20:15.298Z</time></trkpt><trkpt lat="44.94819" lon="12.30828"><ele>-4.333333333333333</ele><time>2026-04-12T13:20:16.297Z</time></trkpt><trkpt lat="44.948175" lon="12.3085567"><ele>-4.0</ele><time>2026-04-12T13:20:17.298Z</time></trkpt><trkpt lat="44.9481583" lon="12.3088333"><ele>-4.0</ele><time>2026-04-12T13:20:18.297Z</time></trkpt><trkpt lat="44.94814" lon="12.3091033"><ele>-4.0</ele><time>2026-04-12T13:20:19.297Z</time></trkpt><trkpt lat="44.948125" lon="12.3093617"><ele>-4.0</ele><time>2026-04-12T13:20:20.297Z</time></trkpt><trkpt lat="44.9481033" lon="12.30962"><ele>-4.0</ele><time>2026-04-12T13:20:21.297Z</time></trkpt><trkpt lat="44.9480767" lon="12.3098683"><ele>-4.0</ele><time>2026-04-12T13:20:22.297Z</time></trkpt><trkpt lat="44.948045" lon="12.310115"><ele>-4.0</ele><time>2026-04-12T13:20:23.297Z</time></trkpt><trkpt lat="44.9480117" lon="12.3103633"><ele>-4.666666666666666</ele><time>2026-04-12T13:20:24.298Z</time></trkpt><trkpt lat="44.9479783" lon="12.310605"><ele>-5.333333333333333</ele><time>2026-04-12T13:20:25.297Z</time></trkpt><trkpt lat="44.9479467" lon="12.3108517"><ele>-6.0</ele><time>2026-04-12T13:20:26.298Z</time></trkpt><trkpt lat="44.94791" lon="12.3111033"><ele>-6.0</ele><time>2026-04-12T13:20:27.297Z</time></trkpt><trkpt lat="44.9478733" lon="12.311345"><ele>-6.0</ele><time>2026-04-12T13:20:28.298Z</time></trkpt><trkpt lat="44.947835" lon="12.3115733"><ele>-6.0</ele><time>2026-04-12T13:20:29.298Z</time></trkpt><trkpt lat="44.9477883" lon="12.3117917"><ele>-5.333333333333333</ele><time>2026-04-12T13:20:30.298Z</time></trkpt><trkpt lat="44.9477383" lon="12.312005"><ele>-4.666666666666666</ele><time>2026-04-12T13:20:31.297Z</time></trkpt><trkpt lat="44.9476833" lon="12.31222"><ele>-4.0</ele><time>2026-04-12T13:20:32.297Z</time></trkpt><trkpt lat="44.9476267" lon="12.3124333"><ele>-4.0</ele><time>2026-04-12T13:20:33.297Z</time></trkpt><trkpt lat="44.9475633" lon="12.3126433"><ele>-4.0</ele><time>2026-04-12T13:20:34.297Z</time></trkpt><trkpt lat="44.9475067" lon="12.3128483"><ele>-4.0</ele><time>2026-04-12T13:20:35.298Z</time></trkpt><trkpt lat="44.9474467" lon="12.31304"><ele>-3.6666666666666665</ele><time>2026-04-12T13:20:36.297Z</time></trkpt><trkpt lat="44.94738" lon="12.3132367"><ele>-3.333333333333333</ele><time>2026-04-12T13:20:37.298Z</time></trkpt><trkpt lat="44.9473133" lon="12.313435"><ele>-3.0</ele><time>2026-04-12T13:20:38.297Z</time></trkpt><trkpt lat="44.947255" lon="12.3136317"><ele>-3.0</ele><time>2026-04-12T13:20:39.297Z</time></trkpt><trkpt lat="44.9471833" lon="12.313845"><ele>-3.0</ele><time>2026-04-12T13:20:40.297Z</time></trkpt><trkpt lat="44.9471083" lon="12.3140567"><ele>-3.0</ele><time>2026-04-12T13:20:41.297Z</time></trkpt><trkpt lat="44.9470333" lon="12.3142767"><ele>-2.6666666666666665</ele><time>2026-04-12T13:20:42.298Z</time></trkpt><trkpt lat="44.9469667" lon="12.314475"><ele>-2.333333333333333</ele><time>2026-04-12T13:20:43.297Z</time></trkpt><trkpt lat="44.9469" lon="12.314675"><ele>-2.0</ele><time>2026-04-12T13:20:44.298Z</time></trkpt><trkpt lat="44.94683" lon="12.3148933"><ele>-2.6666666666666665</ele><time>2026-04-12T13:20:45.297Z</time></trkpt><trkpt lat="44.946755" lon="12.3151167"><ele>-3.333333333333333</ele><time>2026-04-12T13:20:46.297Z</time></trkpt><trkpt lat="44.9466733" lon="12.3153517"><ele>-4.0</ele><time>2026-04-12T13:20:47.298Z</time></trkpt><trkpt lat="44.94659" lon="12.31559"><ele>-4.333333333333333</ele><time>2026-04-12T13:20:48.297Z</time></trkpt><trkpt lat="44.9464967" lon="12.3158233"><ele>-4.666666666666667</ele><time>2026-04-12T13:20:49.297Z</time></trkpt><trkpt lat="44.9463917" lon="12.31607"><ele>-5.0</ele><time>2026-04-12T13:20:50.297Z</time></trkpt><trkpt lat="44.94628" lon="12.31631"><ele>-5.0</ele><time>2026-04-12T13:20:51.297Z</time></trkpt><trkpt lat="44.9461617" lon="12.3165483"><ele>-5.0</ele><time>2026-04-12T13:20:52.298Z</time></trkpt><trkpt lat="44.9460333" lon="12.3167917"><ele>-5.0</ele><time>2026-04-12T13:20:53.298Z</time></trkpt><trkpt lat="44.9459" lon="12.3170317"><ele>-5.0</ele><time>2026-04-12T13:20:54.298Z</time></trkpt><trkpt lat="44.9457683" lon="12.3172717"><ele>-5.0</ele><time>2026-04-12T13:20:55.297Z</time></trkpt><trkpt lat="44.94564" lon="12.3175083"><ele>-5.0</ele><time>2026-04-12T13:20:56.297Z</time></trkpt><trkpt lat="44.94552" lon="12.317735"><ele>-5.0</ele><time>2026-04-12T13:20:57.297Z</time></trkpt><trkpt lat="44.9454017" lon="12.3179567"><ele>-5.0</ele><time>2026-04-12T13:20:58.297Z</time></trkpt><trkpt lat="44.945275" lon="12.3181817"><ele>-5.0</ele><time>2026-04-12T13:20:59.297Z</time></trkpt><trkpt lat="44.9451567" lon="12.3184117"><ele>-5.0</ele><time>2026-04-12T13:21:00.297Z</time></trkpt><trkpt lat="44.9450267" lon="12.3186367"><ele>-5.0</ele><time>2026-04-12T13:21:01.297Z</time></trkpt><trkpt lat="44.9449033" lon="12.318855"><ele>-5.0</ele><time>2026-04-12T13:21:02.298Z</time></trkpt><trkpt lat="44.94478" lon="12.319085"><ele>-5.333333333333334</ele><time>2026-04-12T13:21:03.298Z</time></trkpt><trkpt lat="44.9446567" lon="12.3193117"><ele>-5.666666666666667</ele><time>2026-04-12T13:21:04.297Z</time></trkpt><trkpt lat="44.9445383" lon="12.3195267"><ele>-6.0</ele><time>2026-04-12T13:21:05.297Z</time></trkpt><trkpt lat="44.94442" lon="12.319745"><ele>-6.0</ele><time>2026-04-12T13:21:06.297Z</time></trkpt><trkpt lat="44.9442983" lon="12.3199617"><ele>-6.0</ele><time>2026-04-12T13:21:07.297Z</time></trkpt><trkpt lat="44.94418" lon="12.3201717"><ele>-6.0</ele><time>2026-04-12T13:21:08.298Z</time></trkpt><trkpt lat="44.9440583" lon="12.3203833"><ele>-5.666666666666667</ele><time>2026-04-12T13:21:09.297Z</time></trkpt><trkpt lat="44.9439417" lon="12.3205983"><ele>-5.333333333333334</ele><time>2026-04-12T13:21:10.297Z</time></trkpt><trkpt lat="44.9438233" lon="12.3208117"><ele>-5.0</ele><time>2026-04-12T13:21:11.297Z</time></trkpt><trkpt lat="44.9437067" lon="12.3210267"><ele>-5.0</ele><time>2026-04-12T13:21:12.297Z</time></trkpt><trkpt lat="44.9435917" lon="12.32124"><ele>-5.0</ele><time>2026-04-12T13:21:13.297Z</time></trkpt><trkpt lat="44.9434767" lon="12.3214533"><ele>-5.0</ele><time>2026-04-12T13:21:14.297Z</time></trkpt><trkpt lat="44.9433583" lon="12.3216633"><ele>-5.0</ele><time>2026-04-12T13:21:15.297Z</time></trkpt><trkpt lat="44.9432367" lon="12.32187"><ele>-5.0</ele><time>2026-04-12T13:21:16.297Z</time></trkpt><trkpt lat="44.9431333" lon="12.32209"><ele>-5.0</ele><time>2026-04-12T13:21:17.297Z</time></trkpt><trkpt lat="44.9430467" lon="12.322335"><ele>-5.0</ele><time>2026-04-12T13:21:18.297Z</time></trkpt><trkpt lat="44.9429883" lon="12.3225983"><ele>-5.0</ele><time>2026-04-12T13:21:19.297Z</time></trkpt><trkpt lat="44.942965" lon="12.3228683"><ele>-5.0</ele><time>2026-04-12T13:21:20.297Z</time></trkpt><trkpt lat="44.94297" lon="12.323145"><ele>-5.0</ele><time>2026-04-12T13:21:21.297Z</time></trkpt><trkpt lat="44.94299" lon="12.323415"><ele>-5.0</ele><time>2026-04-12T13:21:22.298Z</time></trkpt><trkpt lat="44.943025" lon="12.3236967"><ele>-5.0</ele><time>2026-04-12T13:21:23.298Z</time></trkpt><trkpt lat="44.943065" lon="12.324"><ele>-4.666666666666667</ele><time>2026-04-12T13:21:24.297Z</time></trkpt><trkpt lat="44.9430983" lon="12.3243067"><ele>-4.333333333333333</ele><time>2026-04-12T13:21:25.297Z</time></trkpt><trkpt lat="44.9431367" lon="12.3246067"><ele>-4.0</ele><time>2026-04-12T13:21:26.297Z</time></trkpt><trkpt lat="44.9431767" lon="12.324905"><ele>-4.666666666666666</ele><time>2026-04-12T13:21:27.298Z</time></trkpt><trkpt lat="44.943215" lon="12.3252067"><ele>-5.333333333333333</ele><time>2026-04-12T13:21:28.297Z</time></trkpt><trkpt lat="44.9432517" lon="12.3255017"><ele>-6.0</ele><time>2026-04-12T13:21:29.298Z</time></trkpt><trkpt lat="44.9432883" lon="12.3257983"><ele>-6.0</ele><time>2026-04-12T13:21:30.297Z</time></trkpt><trkpt lat="44.9433267" lon="12.3260917"><ele>-6.0</ele><time>2026-04-12T13:21:31.297Z</time></trkpt><trkpt lat="44.9433583" lon="12.3263867"><ele>-6.0</ele><time>2026-04-12T13:21:32.297Z</time></trkpt><trkpt lat="44.9433983" lon="12.3266683"><ele>-6.0</ele><time>2026-04-12T13:21:33.297Z</time></trkpt><trkpt lat="44.94343" lon="12.3269317"><ele>-6.0</ele><time>2026-04-12T13:21:34.297Z</time></trkpt><trkpt lat="44.9434633" lon="12.3271817"><ele>-6.0</ele><time>2026-04-12T13:21:35.297Z</time></trkpt><trkpt lat="44.9434967" lon="12.327425"><ele>-6.333333333333334</ele><time>2026-04-12T13:21:36.297Z</time></trkpt><trkpt lat="44.9435283" lon="12.3276717"><ele>-6.666666666666667</ele><time>2026-04-12T13:21:37.297Z</time></trkpt><trkpt lat="44.9435567" lon="12.3279083"><ele>-7.0</ele><time>2026-04-12T13:21:38.298Z</time></trkpt><trkpt lat="44.9435883" lon="12.328155"><ele>-7.0</ele><time>2026-04-12T13:21:39.297Z</time></trkpt><trkpt lat="44.943615" lon="12.328405"><ele>-7.0</ele><time>2026-04-12T13:21:40.297Z</time></trkpt><trkpt lat="44.9436483" lon="12.3286467"><ele>-7.0</ele><time>2026-04-12T13:21:41.298Z</time></trkpt><trkpt lat="44.9436767" lon="12.3288983"><ele>-6.333333333333334</ele><time>2026-04-12T13:21:42.297Z</time></trkpt><trkpt lat="44.9437083" lon="12.3291483"><ele>-5.666666666666667</ele><time>2026-04-12T13:21:43.298Z</time></trkpt><trkpt lat="44.9437433" lon="12.329395"><ele>-5.0</ele><time>2026-04-12T13:21:44.297Z</time></trkpt><trkpt lat="44.9437733" lon="12.32965"><ele>-4.666666666666667</ele><time>2026-04-12T13:21:45.298Z</time></trkpt><trkpt lat="44.9438083" lon="12.3299017"><ele>-4.333333333333333</ele><time>2026-04-12T13:21:46.297Z</time></trkpt><trkpt lat="44.94384" lon="12.3301517"><ele>-4.0</ele><time>2026-04-12T13:21:47.297Z</time></trkpt><trkpt lat="44.9438783" lon="12.3303967"><ele>-4.333333333333333</ele><time>2026-04-12T13:21:48.298Z</time></trkpt><trkpt lat="44.9439083" lon="12.3306467"><ele>-4.666666666666667</ele><time>2026-04-12T13:21:49.297Z</time></trkpt><trkpt lat="44.9439383" lon="12.3308983"><ele>-5.0</ele><time>2026-04-12T13:21:50.297Z</time></trkpt><trkpt lat="44.94397" lon="12.3311433"><ele>-5.0</ele><time>2026-04-12T13:21:51.298Z</time></trkpt><trkpt lat="44.9440017" lon="12.33139"><ele>-5.0</ele><time>2026-04-12T13:21:52.297Z</time></trkpt><trkpt lat="44.94403" lon="12.331655"><ele>-5.0</ele><time>2026-04-12T13:21:53.297Z</time></trkpt><trkpt lat="44.9440633" lon="12.3319133"><ele>-5.0</ele><time>2026-04-12T13:21:54.297Z</time></trkpt><trkpt lat="44.9440933" lon="12.3321517"><ele>-5.0</ele><time>2026-04-12T13:21:55.297Z</time></trkpt><trkpt lat="44.9441167" lon="12.3323767"><ele>-5.0</ele><time>2026-04-12T13:21:56.297Z</time></trkpt><trkpt lat="44.9441367" lon="12.3325817"><ele>-5.0</ele><time>2026-04-12T13:21:57.298Z</time></trkpt><trkpt lat="44.9441467" lon="12.3327633"><ele>-5.0</ele><time>2026-04-12T13:21:58.297Z</time></trkpt><trkpt lat="44.9441383" lon="12.3329267"><ele>-5.0</ele><time>2026-04-12T13:21:59.297Z</time></trkpt><trkpt lat="44.94411" lon="12.3330717"><ele>-5.0</ele><time>2026-04-12T13:22:00.297Z</time></trkpt><trkpt lat="44.9440967" lon="12.3331983"><ele>-5.0</ele><time>2026-04-12T13:22:01.298Z</time></trkpt><trkpt lat="44.94411" lon="12.3333383"><ele>-4.75</ele><time>2026-04-12T13:22:02.297Z</time></trkpt><trkpt lat="44.944155" lon="12.3334917"><ele>-4.5</ele><time>2026-04-12T13:22:03.297Z</time></trkpt><trkpt lat="44.9442167" lon="12.3336833"><ele>-4.25</ele><time>2026-04-12T13:22:04.297Z</time></trkpt><trkpt lat="44.9442767" lon="12.3339067"><ele>-4.0</ele><time>2026-04-12T13:22:05.297Z</time></trkpt><trkpt lat="44.9443233" lon="12.3341583"><ele>-4.0</ele><time>2026-04-12T13:22:06.297Z</time></trkpt><trkpt lat="44.9443667" lon="12.3344283"><ele>-4.0</ele><time>2026-04-12T13:22:07.297Z</time></trkpt><trkpt lat="44.9444167" lon="12.3347167"><ele>-4.0</ele><time>2026-04-12T13:22:08.298Z</time></trkpt><trkpt lat="44.9444633" lon="12.3350133"><ele>-3.0</ele><time>2026-04-12T13:22:09.297Z</time></trkpt><trkpt lat="44.944515" lon="12.3353217"><ele>-2.0</ele><time>2026-04-12T13:22:10.297Z</time></trkpt><trkpt lat="44.9445583" lon="12.33565"><ele>-2.0</ele><time>2026-04-12T13:22:11.297Z</time></trkpt><trkpt lat="44.944595" lon="12.3359683"><ele>-2.0</ele><time>2026-04-12T13:22:12.297Z</time></trkpt><trkpt lat="44.94463" lon="12.3362833"><ele>-2.0</ele><time>2026-04-12T13:22:13.297Z</time></trkpt><trkpt lat="44.94467" lon="12.3365717"><ele>-2.0</ele><time>2026-04-12T13:22:14.297Z</time></trkpt><trkpt lat="44.944705" lon="12.3368483"><ele>-2.0</ele><time>2026-04-12T13:22:15.298Z</time></trkpt><trkpt lat="44.9447383" lon="12.3371183"><ele>-2.0</ele><time>2026-04-12T13:22:16.297Z</time></trkpt><trkpt lat="44.944775" lon="12.3373833"><ele>-2.0</ele><time>2026-04-12T13:22:17.297Z</time></trkpt><trkpt lat="44.9448017" lon="12.33763"><ele>-2.0</ele><time>2026-04-12T13:22:18.298Z</time></trkpt><trkpt lat="44.944835" lon="12.3378583"><ele>-2.6666666666666665</ele><time>2026-04-12T13:22:19.297Z</time></trkpt><trkpt lat="44.9448633" lon="12.3381033"><ele>-3.333333333333333</ele><time>2026-04-12T13:22:20.298Z</time></trkpt><trkpt lat="44.9448917" lon="12.3383533"><ele>-4.0</ele><time>2026-04-12T13:22:21.297Z</time></trkpt><trkpt lat="44.9449217" lon="12.3386133"><ele>-4.0</ele><time>2026-04-12T13:22:22.298Z</time></trkpt><trkpt lat="44.9449517" lon="12.3388733"><ele>-4.0</ele><time>2026-04-12T13:22:23.297Z</time></trkpt><trkpt lat="44.9449833" lon="12.3391467"><ele>-4.0</ele><time>2026-04-12T13:22:24.297Z</time></trkpt><trkpt lat="44.9450233" lon="12.3394033"><ele>-4.0</ele><time>2026-04-12T13:22:25.297Z</time></trkpt><trkpt lat="44.9450583" lon="12.3396733"><ele>-4.0</ele><time>2026-04-12T13:22:26.297Z</time></trkpt><trkpt lat="44.94509" lon="12.33995"><ele>-4.0</ele><time>2026-04-12T13:22:27.297Z</time></trkpt><trkpt lat="44.945125" lon="12.3402267"><ele>-4.0</ele><time>2026-04-12T13:22:28.297Z</time></trkpt><trkpt lat="44.945155" lon="12.340505"><ele>-4.0</ele><time>2026-04-12T13:22:29.297Z</time></trkpt><trkpt lat="44.94519" lon="12.34079"><ele>-4.0</ele><time>2026-04-12T13:22:30.297Z</time></trkpt><trkpt lat="44.9452267" lon="12.3410683"><ele>-4.0</ele><time>2026-04-12T13:22:31.297Z</time></trkpt><trkpt lat="44.945265" lon="12.3413467"><ele>-4.0</ele><time>2026-04-12T13:22:32.297Z</time></trkpt><trkpt lat="44.9453017" lon="12.3416317"><ele>-4.0</ele><time>2026-04-12T13:22:33.298Z</time></trkpt><trkpt lat="44.94534" lon="12.3419283"><ele>-4.333333333333333</ele><time>2026-04-12T13:22:34.297Z</time></trkpt><trkpt lat="44.9453767" lon="12.342225"><ele>-4.666666666666667</ele><time>2026-04-12T13:22:35.297Z</time></trkpt><trkpt lat="44.945415" lon="12.3425267"><ele>-5.0</ele><time>2026-04-12T13:22:36.297Z</time></trkpt><trkpt lat="44.9454533" lon="12.3428333"><ele>-4.333333333333334</ele><time>2026-04-12T13:22:37.297Z</time></trkpt><trkpt lat="44.9454983" lon="12.343135"><ele>-3.666666666666667</ele><time>2026-04-12T13:22:38.297Z</time></trkpt><trkpt lat="44.9455367" lon="12.343445"><ele>-3.0</ele><time>2026-04-12T13:22:39.297Z</time></trkpt><trkpt lat="44.945575" lon="12.3437617"><ele>-3.5</ele><time>2026-04-12T13:22:40.297Z</time></trkpt><trkpt lat="44.945615" lon="12.3440783"><ele>-4.0</ele><time>2026-04-12T13:22:41.297Z</time></trkpt><trkpt lat="44.9456567" lon="12.3443967"><ele>-4.0</ele><time>2026-04-12T13:22:42.297Z</time></trkpt><trkpt lat="44.9456983" lon="12.3447083"><ele>-4.0</ele><time>2026-04-12T13:22:43.298Z</time></trkpt><trkpt lat="44.9457333" lon="12.34504"><ele>-4.5</ele><time>2026-04-12T13:22:44.298Z</time></trkpt><trkpt lat="44.9457767" lon="12.345355"><ele>-5.0</ele><time>2026-04-12T13:22:45.297Z</time></trkpt><trkpt lat="44.9458167" lon="12.3456817"><ele>-5.0</ele><time>2026-04-12T13:22:46.298Z</time></trkpt><trkpt lat="44.94586" lon="12.346015"><ele>-5.0</ele><time>2026-04-12T13:22:47.297Z</time></trkpt><trkpt lat="44.9458983" lon="12.3463533"><ele>-5.0</ele><time>2026-04-12T13:22:48.297Z</time></trkpt><trkpt lat="44.9459383" lon="12.34668"><ele>-5.0</ele><time>2026-04-12T13:22:49.297Z</time></trkpt><trkpt lat="44.945975" lon="12.3469933"><ele>-5.666666666666667</ele><time>2026-04-12T13:22:50.297Z</time></trkpt><trkpt lat="44.9460133" lon="12.3473"><ele>-6.333333333333334</ele><time>2026-04-12T13:22:51.297Z</time></trkpt><trkpt lat="44.946055" lon="12.3476017"><ele>-7.0</ele><time>2026-04-12T13:22:52.297Z</time></trkpt><trkpt lat="44.9461017" lon="12.3479067"><ele>-6.666666666666667</ele><time>2026-04-12T13:22:53.297Z</time></trkpt><trkpt lat="44.9461667" lon="12.3482017"><ele>-6.333333333333334</ele><time>2026-04-12T13:22:54.297Z</time></trkpt><trkpt lat="44.9462533" lon="12.348485"><ele>-6.0</ele><time>2026-04-12T13:22:55.298Z</time></trkpt><trkpt lat="44.9463533" lon="12.34877"><ele>-5.5</ele><time>2026-04-12T13:22:56.297Z</time></trkpt><trkpt lat="44.9464717" lon="12.3490433"><ele>-5.0</ele><time>2026-04-12T13:22:57.297Z</time></trkpt><trkpt lat="44.9466083" lon="12.3493"><ele>-4.5</ele><time>2026-04-12T13:22:58.297Z</time></trkpt><trkpt lat="44.94676" lon="12.3495417"><ele>-4.0</ele><time>2026-04-12T13:22:59.297Z</time></trkpt><trkpt lat="44.9469383" lon="12.3497733"><ele>-5.0</ele><time>2026-04-12T13:23:00.297Z</time></trkpt><trkpt lat="44.9471433" lon="12.35"><ele>-6.0</ele><time>2026-04-12T13:23:01.298Z</time></trkpt><trkpt lat="44.94737" lon="12.3502067"><ele>-5.5</ele><time>2026-04-12T13:23:02.297Z</time></trkpt><trkpt lat="44.94761" lon="12.3504083"><ele>-5.0</ele><time>2026-04-12T13:23:03.298Z</time></trkpt><trkpt lat="44.9478617" lon="12.35062"><ele>-5.0</ele><time>2026-04-12T13:23:04.298Z</time></trkpt><trkpt lat="44.94812" lon="12.3508433"><ele>-5.0</ele><time>2026-04-12T13:23:05.298Z</time></trkpt><trkpt lat="44.9483917" lon="12.3510717"><ele>-5.5</ele><time>2026-04-12T13:23:06.297Z</time></trkpt><trkpt lat="44.9486733" lon="12.351315"><ele>-6.0</ele><time>2026-04-12T13:23:07.297Z</time></trkpt><trkpt lat="44.94896" lon="12.3515617"><ele>-5.0</ele><time>2026-04-12T13:23:08.297Z</time></trkpt><trkpt lat="44.9492567" lon="12.3518133"><ele>-4.0</ele><time>2026-04-12T13:23:09.298Z</time></trkpt><trkpt lat="44.94955" lon="12.3520617"><ele>-3.5</ele><time>2026-04-12T13:23:10.297Z</time></trkpt><trkpt lat="44.9498383" lon="12.3523017"><ele>-3.0</ele><time>2026-04-12T13:23:11.297Z</time></trkpt><trkpt lat="44.9501183" lon="12.3525467"><ele>-2.0</ele><time>2026-04-12T13:23:12.298Z</time></trkpt><trkpt lat="44.95039" lon="12.3527783"><ele>-1.0</ele><time>2026-04-12T13:23:13.297Z</time></trkpt><trkpt lat="44.950645" lon="12.352995"><ele>-1.5</ele><time>2026-04-12T13:23:14.298Z</time></trkpt><trkpt lat="44.950885" lon="12.3531983"><ele>-2.0</ele><time>2026-04-12T13:23:15.297Z</time></trkpt><trkpt lat="44.9511117" lon="12.3533967"><ele>-2.0</ele><time>2026-04-12T13:23:16.297Z</time></trkpt><trkpt lat="44.9513267" lon="12.3535767"><ele>-2.0</ele><time>2026-04-12T13:23:17.297Z</time></trkpt><trkpt lat="44.9515383" lon="12.3537517"><ele>-2.5</ele><time>2026-04-12T13:23:18.298Z</time></trkpt><trkpt lat="44.9517533" lon="12.3539317"><ele>-3.0</ele><time>2026-04-12T13:23:19.297Z</time></trkpt><trkpt lat="44.951965" lon="12.3541067"><ele>-3.0</ele><time>2026-04-12T13:23:20.297Z</time></trkpt><trkpt lat="44.952175" lon="12.3542833"><ele>-3.0</ele><time>2026-04-12T13:23:21.298Z</time></trkpt><trkpt lat="44.9523767" lon="12.3544567"><ele>-2.5</ele><time>2026-04-12T13:23:22.297Z</time></trkpt><trkpt lat="44.95258" lon="12.35463"><ele>-2.0</ele><time>2026-04-12T13:23:23.297Z</time></trkpt><trkpt lat="44.9527717" lon="12.3547967"><ele>-2.0</ele><time>2026-04-12T13:23:24.297Z</time></trkpt><trkpt lat="44.9529417" lon="12.3549483"><ele>-2.0</ele><time>2026-04-12T13:23:25.297Z</time></trkpt><trkpt lat="44.9531017" lon="12.3550867"><ele>-2.0</ele><time>2026-04-12T13:23:26.297Z</time></trkpt><trkpt lat="44.9532467" lon="12.3552017"><ele>-1.75</ele><time>2026-04-12T13:23:27.298Z</time></trkpt><trkpt lat="44.9533783" lon="12.35531"><ele>-1.5</ele><time>2026-04-12T13:23:28.297Z</time></trkpt><trkpt lat="44.9535033" lon="12.3554117"><ele>-1.25</ele><time>2026-04-12T13:23:29.297Z</time></trkpt><trkpt lat="44.9536167" lon="12.3555017"><ele>-1.0</ele><time>2026-04-12T13:23:30.297Z</time></trkpt><trkpt lat="44.95372" lon="12.3555983"><ele>-1.0</ele><time>2026-04-12T13:23:31.298Z</time></trkpt><trkpt lat="44.95382" lon="12.3557167"><ele>-1.0</ele><time>2026-04-12T13:23:32.297Z</time></trkpt><trkpt lat="44.95391" lon="12.35586"><ele>-1.0</ele><time>2026-04-12T13:23:33.297Z</time></trkpt><trkpt lat="44.95399" lon="12.3560217"><ele>-1.0</ele><time>2026-04-12T13:23:34.297Z</time></trkpt><trkpt lat="44.9540583" lon="12.35622"><ele>-1.0</ele><time>2026-04-12T13:23:35.297Z</time></trkpt><trkpt lat="44.9540967" lon="12.3563917"><ele>-1.0</ele><time>2026-04-12T13:23:36.298Z</time></trkpt><trkpt lat="44.9541167" lon="12.3565483"><ele>-1.0</ele><time>2026-04-12T13:23:37.297Z</time></trkpt><trkpt lat="44.9541267" lon="12.3566933"><ele>-1.0</ele><time>2026-04-12T13:23:38.297Z</time></trkpt><trkpt lat="44.954125" lon="12.3568367"><ele>-1.0</ele><time>2026-04-12T13:23:39.297Z</time></trkpt><trkpt lat="44.95412" lon="12.3569817"><ele>-1.0</ele><time>2026-04-12T13:23:40.297Z</time></trkpt><trkpt lat="44.9541133" lon="12.3571317"><ele>-1.0</ele><time>2026-04-12T13:23:41.297Z</time></trkpt><trkpt lat="44.9541083" lon="12.3572767"><ele>-1.0</ele><time>2026-04-12T13:23:42.297Z</time></trkpt><trkpt lat="44.954105" lon="12.35741"><ele>-1.0</ele><time>2026-04-12T13:23:43.297Z</time></trkpt><trkpt lat="44.9541017" lon="12.3575333"><ele>-1.0</ele><time>2026-04-12T13:23:44.297Z</time></trkpt><trkpt lat="44.9540883" lon="12.357655"><ele>-1.1666666666666665</ele><time>2026-04-12T13:23:45.297Z</time></trkpt><trkpt lat="44.9540683" lon="12.35775"><ele>-1.3333333333333333</ele><time>2026-04-12T13:23:46.297Z</time></trkpt><trkpt lat="44.9540333" lon="12.3578367"><ele>-1.5</ele><time>2026-04-12T13:23:47.297Z</time></trkpt><trkpt lat="44.9539817" lon="12.357915"><ele>-1.6666666666666665</ele><time>2026-04-12T13:23:48.297Z</time></trkpt><trkpt lat="44.9539067" lon="12.3579833"><ele>-1.8333333333333333</ele><time>2026-04-12T13:23:49.298Z</time></trkpt><trkpt lat="44.9538133" lon="12.3580383"><ele>-2.0</ele><time>2026-04-12T13:23:50.297Z</time></trkpt><trkpt lat="44.95372" lon="12.35809"><ele>-2.0</ele><time>2026-04-12T13:23:51.297Z</time></trkpt><trkpt lat="44.9536267" lon="12.35814"><ele>-2.0</ele><time>2026-04-12T13:23:52.297Z</time></trkpt><trkpt lat="44.95353" lon="12.3581983"><ele>-2.0</ele><time>2026-04-12T13:23:53.298Z</time></trkpt><trkpt lat="44.9534333" lon="12.358255"><ele>-2.0</ele><time>2026-04-12T13:23:54.297Z</time></trkpt><trkpt lat="44.9533417" lon="12.358315"><ele>-2.0</ele><time>2026-04-12T13:23:55.298Z</time></trkpt><trkpt lat="44.9532667" lon="12.3583617"><ele>-2.2</ele><time>2026-04-12T13:23:56.297Z</time></trkpt><trkpt lat="44.953205" lon="12.358405"><ele>-2.4000000000000004</ele><time>2026-04-12T13:23:57.297Z</time></trkpt><trkpt lat="44.9530983" lon="12.3584833"><ele>-2.5999999999999996</ele><time>2026-04-12T13:23:59.298Z</time></trkpt><trkpt lat="44.953" lon="12.3585467"><ele>-2.8</ele><time>2026-04-12T13:24:01.297Z</time></trkpt><trkpt lat="44.9529067" lon="12.35862"><ele>-3.0</ele><time>2026-04-12T13:24:03.297Z</time></trkpt><trkpt lat="44.95281" lon="12.3587"><ele>-3.0</ele><time>2026-04-12T13:24:05.297Z</time></trkpt><trkpt lat="44.9527133" lon="12.3587833"><ele>-3.0</ele><time>2026-04-12T13:24:07.297Z</time></trkpt><trkpt lat="44.95262" lon="12.3588583"><ele>-3.0</ele><time>2026-04-12T13:24:09.298Z</time></trkpt><trkpt lat="44.9525617" lon="12.3589067"><ele>-3.0</ele><time>2026-04-12T13:24:11.297Z</time></trkpt><trkpt lat="44.9524483" lon="12.3590083"><ele>-3.0</ele><time>2026-04-12T13:24:31.297Z</time></trkpt><trkpt lat="44.95236" lon="12.3590833"><ele>-3.0</ele><time>2026-04-12T13:24:32.297Z</time></trkpt><trkpt lat="44.9522667" lon="12.3591583"><ele>-3.0</ele><time>2026-04-12T13:24:33.297Z</time></trkpt><trkpt lat="44.952165" lon="12.3592417"><ele>-3.0</ele><time>2026-04-12T13:24:34.297Z</time></trkpt><trkpt lat="44.952055" lon="12.3593367"><ele>-3.0</ele><time>2026-04-12T13:24:35.298Z</time></trkpt><trkpt lat="44.951935" lon="12.3594367"><ele>-3.0</ele><time>2026-04-12T13:24:36.298Z</time></trkpt><trkpt lat="44.9518067" lon="12.3595467"><ele>-3.0</ele><time>2026-04-12T13:24:37.298Z</time></trkpt><trkpt lat="44.9516633" lon="12.3596783"><ele>-3.0</ele><time>2026-04-12T13:24:38.298Z</time></trkpt><trkpt lat="44.9515083" lon="12.3598183"><ele>-3.333333333333333</ele><time>2026-04-12T13:24:39.297Z</time></trkpt><trkpt lat="44.9513433" lon="12.35996"><ele>-3.6666666666666665</ele><time>2026-04-12T13:24:40.297Z</time></trkpt><trkpt lat="44.9511683" lon="12.3601067"><ele>-4.0</ele><time>2026-04-12T13:24:41.297Z</time></trkpt><trkpt lat="44.95099" lon="12.3602467"><ele>-3.6666666666666665</ele><time>2026-04-12T13:24:42.298Z</time></trkpt><trkpt lat="44.9508133" lon="12.3603867"><ele>-3.333333333333333</ele><time>2026-04-12T13:24:43.297Z</time></trkpt><trkpt lat="44.95063" lon="12.3605317"><ele>-3.0</ele><time>2026-04-12T13:24:44.298Z</time></trkpt><trkpt lat="44.95044" lon="12.36067"><ele>-3.0</ele><time>2026-04-12T13:24:45.297Z</time></trkpt><trkpt lat="44.9502333" lon="12.360805"><ele>-3.0</ele><time>2026-04-12T13:24:46.297Z</time></trkpt><trkpt lat="44.9500167" lon="12.3609367"><ele>-3.0</ele><time>2026-04-12T13:24:47.297Z</time></trkpt><trkpt lat="44.9497933" lon="12.3610583"><ele>-3.0</ele><time>2026-04-12T13:24:48.297Z</time></trkpt><trkpt lat="44.9495533" lon="12.3611617"><ele>-3.0</ele><time>2026-04-12T13:24:49.297Z</time></trkpt><trkpt lat="44.9493133" lon="12.3612383"><ele>-3.0</ele><time>2026-04-12T13:24:50.297Z</time></trkpt><trkpt lat="44.9490733" lon="12.3612867"><ele>-3.5</ele><time>2026-04-12T13:24:51.297Z</time></trkpt><trkpt lat="44.9488383" lon="12.3612983"><ele>-4.0</ele><time>2026-04-12T13:24:52.297Z</time></trkpt><trkpt lat="44.948595" lon="12.3612583"><ele>-3.5</ele><time>2026-04-12T13:24:53.298Z</time></trkpt><trkpt lat="44.9483483" lon="12.361195"><ele>-3.0</ele><time>2026-04-12T13:24:54.297Z</time></trkpt><trkpt lat="44.9481117" lon="12.3611233"><ele>-3.0</ele><time>2026-04-12T13:24:55.298Z</time></trkpt><trkpt lat="44.9478883" lon="12.36106"><ele>-3.0</ele><time>2026-04-12T13:24:56.297Z</time></trkpt><trkpt lat="44.9476683" lon="12.3610117"><ele>-3.333333333333333</ele><time>2026-04-12T13:24:57.298Z</time></trkpt><trkpt lat="44.9474517" lon="12.3609733"><ele>-3.6666666666666665</ele><time>2026-04-12T13:24:58.297Z</time></trkpt><trkpt lat="44.9472367" lon="12.36095"><ele>-4.0</ele><time>2026-04-12T13:24:59.297Z</time></trkpt><trkpt lat="44.9470167" lon="12.3609333"><ele>-4.0</ele><time>2026-04-12T13:25:00.297Z</time></trkpt><trkpt lat="44.94679" lon="12.36092"><ele>-4.0</ele><time>2026-04-12T13:25:01.296Z</time></trkpt><trkpt lat="44.9465567" lon="12.36091"><ele>-4.0</ele><time>2026-04-12T13:25:02.297Z</time></trkpt><trkpt lat="44.9463217" lon="12.3608983"><ele>-4.0</ele><time>2026-04-12T13:25:03.297Z</time></trkpt><trkpt lat="44.94608" lon="12.3608867"><ele>-3.0</ele><time>2026-04-12T13:25:04.297Z</time></trkpt><trkpt lat="44.9458383" lon="12.36088"><ele>-2.0</ele><time>2026-04-12T13:25:05.298Z</time></trkpt><trkpt lat="44.9456067" lon="12.36087"><ele>-2.0</ele><time>2026-04-12T13:25:06.298Z</time></trkpt><trkpt lat="44.9453817" lon="12.360865"><ele>-2.0</ele><time>2026-04-12T13:25:07.297Z</time></trkpt><trkpt lat="44.94516" lon="12.3608533"><ele>-2.0</ele><time>2026-04-12T13:25:08.297Z</time></trkpt><trkpt lat="44.9449367" lon="12.3608517"><ele>-1.5</ele><time>2026-04-12T13:25:09.297Z</time></trkpt><trkpt lat="44.94471" lon="12.3608417"><ele>-1.0</ele><time>2026-04-12T13:25:10.297Z</time></trkpt><trkpt lat="44.9444817" lon="12.3608267"><ele>-1.0</ele><time>2026-04-12T13:25:11.298Z</time></trkpt><trkpt lat="44.9442517" lon="12.36082"><ele>-1.0</ele><time>2026-04-12T13:25:12.298Z</time></trkpt><trkpt lat="44.9440333" lon="12.36081"><ele>-1.0</ele><time>2026-04-12T13:25:13.297Z</time></trkpt><trkpt lat="44.94383" lon="12.3608033"><ele>-1.3333333333333333</ele><time>2026-04-12T13:25:14.297Z</time></trkpt><trkpt lat="44.9436367" lon="12.3608017"><ele>-1.6666666666666665</ele><time>2026-04-12T13:25:15.297Z</time></trkpt><trkpt lat="44.943445" lon="12.3608083"><ele>-2.0</ele><time>2026-04-12T13:25:16.297Z</time></trkpt><trkpt lat="44.94325" lon="12.3608267"><ele>-2.0</ele><time>2026-04-12T13:25:17.297Z</time></trkpt><trkpt lat="44.9430567" lon="12.3608583"><ele>-2.0</ele><time>2026-04-12T13:25:18.297Z</time></trkpt><trkpt lat="44.9428517" lon="12.3609217"><ele>-2.0</ele><time>2026-04-12T13:25:19.296Z</time></trkpt><trkpt lat="44.9426467" lon="12.3610017"><ele>-2.333333333333333</ele><time>2026-04-12T13:25:20.296Z</time></trkpt><trkpt lat="44.942455" lon="12.361095"><ele>-2.6666666666666665</ele><time>2026-04-12T13:25:21.297Z</time></trkpt><trkpt lat="44.9422717" lon="12.3612017"><ele>-3.0</ele><time>2026-04-12T13:25:22.297Z</time></trkpt><trkpt lat="44.9420917" lon="12.3613183"><ele>-2.6666666666666665</ele><time>2026-04-12T13:25:23.297Z</time></trkpt><trkpt lat="44.9419167" lon="12.36145"><ele>-2.333333333333333</ele><time>2026-04-12T13:25:24.296Z</time></trkpt><trkpt lat="44.9417417" lon="12.36158"><ele>-2.0</ele><time>2026-04-12T13:25:25.296Z</time></trkpt><trkpt lat="44.9415733" lon="12.3617033"><ele>-2.0</ele><time>2026-04-12T13:25:26.296Z</time></trkpt><trkpt lat="44.9414033" lon="12.3618283"><ele>-2.0</ele><time>2026-04-12T13:25:27.296Z</time></trkpt><trkpt lat="44.9412283" lon="12.36196"><ele>-2.0</ele><time>2026-04-12T13:25:28.296Z</time></trkpt><trkpt lat="44.941055" lon="12.3620983"><ele>-2.333333333333333</ele><time>2026-04-12T13:25:29.297Z</time></trkpt><trkpt lat="44.94088" lon="12.3622433"><ele>-2.6666666666666665</ele><time>2026-04-12T13:25:30.296Z</time></trkpt><trkpt lat="44.940695" lon="12.3623933"><ele>-3.0</ele><time>2026-04-12T13:25:31.297Z</time></trkpt><trkpt lat="44.9405117" lon="12.36254"><ele>-3.0</ele><time>2026-04-12T13:25:32.296Z</time></trkpt><trkpt lat="44.9403233" lon="12.3627033"><ele>-3.0</ele><time>2026-04-12T13:25:33.296Z</time></trkpt><trkpt lat="44.9401333" lon="12.3628617"><ele>-3.0</ele><time>2026-04-12T13:25:34.297Z</time></trkpt><trkpt lat="44.9399433" lon="12.363025"><ele>-2.6666666666666665</ele><time>2026-04-12T13:25:35.297Z</time></trkpt><trkpt lat="44.9397517" lon="12.3631817"><ele>-2.333333333333333</ele><time>2026-04-12T13:25:36.296Z</time></trkpt><trkpt lat="44.9395633" lon="12.3633367"><ele>-2.0</ele><time>2026-04-12T13:25:37.296Z</time></trkpt><trkpt lat="44.93937" lon="12.3634967"><ele>-2.5</ele><time>2026-04-12T13:25:38.296Z</time></trkpt><trkpt lat="44.9391783" lon="12.36366"><ele>-3.0</ele><time>2026-04-12T13:25:39.296Z</time></trkpt><trkpt lat="44.9389817" lon="12.3638267"><ele>-3.0</ele><time>2026-04-12T13:25:40.297Z</time></trkpt><trkpt lat="44.9387767" lon="12.3639933"><ele>-3.0</ele><time>2026-04-12T13:25:41.297Z</time></trkpt><trkpt lat="44.9385733" lon="12.3641633"><ele>-2.5</ele><time>2026-04-12T13:25:42.296Z</time></trkpt><trkpt lat="44.9383717" lon="12.3643317"><ele>-2.0</ele><time>2026-04-12T13:25:43.297Z</time></trkpt><trkpt lat="44.938175" lon="12.364495"><ele>-2.0</ele><time>2026-04-12T13:25:44.296Z</time></trkpt><trkpt lat="44.937985" lon="12.3646583"><ele>-2.0</ele><time>2026-04-12T13:25:45.297Z</time></trkpt><trkpt lat="44.937805" lon="12.3648117"><ele>-2.0</ele><time>2026-04-12T13:25:46.296Z</time></trkpt><trkpt lat="44.937635" lon="12.3649583"><ele>-2.333333333333333</ele><time>2026-04-12T13:25:47.296Z</time></trkpt><trkpt lat="44.937465" lon="12.365105"><ele>-2.6666666666666665</ele><time>2026-04-12T13:25:48.297Z</time></trkpt><trkpt lat="44.9372967" lon="12.36525"><ele>-3.0</ele><time>2026-04-12T13:25:49.297Z</time></trkpt><trkpt lat="44.9371267" lon="12.3653917"><ele>-3.0</ele><time>2026-04-12T13:25:50.296Z</time></trkpt><trkpt lat="44.9369617" lon="12.3655317"><ele>-3.0</ele><time>2026-04-12T13:25:51.296Z</time></trkpt><trkpt lat="44.9367933" lon="12.36567"><ele>-3.0</ele><time>2026-04-12T13:25:52.296Z</time></trkpt><trkpt lat="44.9366233" lon="12.3658133"><ele>-3.0</ele><time>2026-04-12T13:25:53.297Z</time></trkpt><trkpt lat="44.9364517" lon="12.3659617"><ele>-3.0</ele><time>2026-04-12T13:25:54.297Z</time></trkpt><trkpt lat="44.9362867" lon="12.366115"><ele>-3.0</ele><time>2026-04-12T13:25:55.296Z</time></trkpt><trkpt lat="44.9361283" lon="12.3662883"><ele>-2.6666666666666665</ele><time>2026-04-12T13:25:56.296Z</time></trkpt><trkpt lat="44.93598" lon="12.366475"><ele>-2.333333333333333</ele><time>2026-04-12T13:25:57.296Z</time></trkpt><trkpt lat="44.9358333" lon="12.3666867"><ele>-2.0</ele><time>2026-04-12T13:25:58.296Z</time></trkpt><trkpt lat="44.9356917" lon="12.3669133"><ele>-2.0</ele><time>2026-04-12T13:25:59.296Z</time></trkpt><trkpt lat="44.93555" lon="12.3671567"><ele>-2.0</ele><time>2026-04-12T13:26:00.296Z</time></trkpt><trkpt lat="44.9354117" lon="12.3674"><ele>-2.0</ele><time>2026-04-12T13:26:01.296Z</time></trkpt><trkpt lat="44.935275" lon="12.36764"><ele>-2.333333333333333</ele><time>2026-04-12T13:26:02.296Z</time></trkpt><trkpt lat="44.9351433" lon="12.3678683"><ele>-2.6666666666666665</ele><time>2026-04-12T13:26:03.297Z</time></trkpt><trkpt lat="44.9350233" lon="12.3680883"><ele>-3.0</ele><time>2026-04-12T13:26:04.296Z</time></trkpt><trkpt lat="44.9349017" lon="12.3683067"><ele>-3.0</ele><time>2026-04-12T13:26:05.296Z</time></trkpt><trkpt lat="44.9347783" lon="12.3685267"><ele>-3.0</ele><time>2026-04-12T13:26:06.296Z</time></trkpt><trkpt lat="44.93466" lon="12.368745"><ele>-3.0</ele><time>2026-04-12T13:26:07.296Z</time></trkpt><trkpt lat="44.9345383" lon="12.3689633"><ele>-3.0</ele><time>2026-04-12T13:26:08.296Z</time></trkpt><trkpt lat="44.9344167" lon="12.3691733"><ele>-3.0</ele><time>2026-04-12T13:26:09.296Z</time></trkpt><trkpt lat="44.9342917" lon="12.369385"><ele>-3.0</ele><time>2026-04-12T13:26:10.296Z</time></trkpt><trkpt lat="44.9341667" lon="12.369605"><ele>-3.0</ele><time>2026-04-12T13:26:11.296Z</time></trkpt><trkpt lat="44.9340417" lon="12.36982"><ele>-3.0</ele><time>2026-04-12T13:26:12.297Z</time></trkpt><trkpt lat="44.93392" lon="12.37004"><ele>-3.0</ele><time>2026-04-12T13:26:13.296Z</time></trkpt><trkpt lat="44.933805" lon="12.3702567"><ele>-3.0</ele><time>2026-04-12T13:26:14.296Z</time></trkpt><trkpt lat="44.9336867" lon="12.370465"><ele>-3.0</ele><time>2026-04-12T13:26:15.296Z</time></trkpt><trkpt lat="44.9335683" lon="12.370675"><ele>-3.0</ele><time>2026-04-12T13:26:16.296Z</time></trkpt><trkpt lat="44.933445" lon="12.37088"><ele>-2.6666666666666665</ele><time>2026-04-12T13:26:17.297Z</time></trkpt><trkpt lat="44.933325" lon="12.3710967"><ele>-2.333333333333333</ele><time>2026-04-12T13:26:18.297Z</time></trkpt><trkpt lat="44.9332" lon="12.3713033"><ele>-2.0</ele><time>2026-04-12T13:26:19.296Z</time></trkpt><trkpt lat="44.9330733" lon="12.3715"><ele>-2.0</ele><time>2026-04-12T13:26:20.296Z</time></trkpt><trkpt lat="44.9329467" lon="12.3717067"><ele>-2.0</ele><time>2026-04-12T13:26:21.297Z</time></trkpt><trkpt lat="44.9328183" lon="12.371915"><ele>-2.0</ele><time>2026-04-12T13:26:22.296Z</time></trkpt><trkpt lat="44.9326833" lon="12.3721233"><ele>-2.0</ele><time>2026-04-12T13:26:23.296Z</time></trkpt><trkpt lat="44.93255" lon="12.3723383"><ele>-2.0</ele><time>2026-04-12T13:26:24.297Z</time></trkpt><trkpt lat="44.9324267" lon="12.3725417"><ele>-2.0</ele><time>2026-04-12T13:26:25.296Z</time></trkpt><trkpt lat="44.9323033" lon="12.37274"><ele>-2.0</ele><time>2026-04-12T13:26:26.296Z</time></trkpt><trkpt lat="44.932185" lon="12.3729217"><ele>-2.0</ele><time>2026-04-12T13:26:27.297Z</time></trkpt><trkpt lat="44.9320767" lon="12.3730883"><ele>-2.0</ele><time>2026-04-12T13:26:28.296Z</time></trkpt><trkpt lat="44.93197" lon="12.3732517"><ele>-2.0</ele><time>2026-04-12T13:26:29.296Z</time></trkpt><trkpt lat="44.9318617" lon="12.3734217"><ele>-2.0</ele><time>2026-04-12T13:26:30.296Z</time></trkpt><trkpt lat="44.931755" lon="12.3735933"><ele>-2.0</ele><time>2026-04-12T13:26:31.297Z</time></trkpt><trkpt lat="44.9316483" lon="12.3737783"><ele>-2.0</ele><time>2026-04-12T13:26:32.296Z</time></trkpt><trkpt lat="44.931545" lon="12.3739683"><ele>-2.0</ele><time>2026-04-12T13:26:33.296Z</time></trkpt><trkpt lat="44.931445" lon="12.37417"><ele>-2.0</ele><time>2026-04-12T13:26:34.296Z</time></trkpt><trkpt lat="44.9313533" lon="12.3743783"><ele>-2.0</ele><time>2026-04-12T13:26:35.296Z</time></trkpt><trkpt lat="44.9312683" lon="12.3745967"><ele>-2.0</ele><time>2026-04-12T13:26:36.296Z</time></trkpt><trkpt lat="44.9311933" lon="12.3748183"><ele>-2.0</ele><time>2026-04-12T13:26:37.297Z</time></trkpt><trkpt lat="44.9311167" lon="12.3750483"><ele>-2.0</ele><time>2026-04-12T13:26:38.297Z</time></trkpt><trkpt lat="44.9310433" lon="12.375275"><ele>-2.0</ele><time>2026-04-12T13:26:39.296Z</time></trkpt><trkpt lat="44.93097" lon="12.3755017"><ele>-2.0</ele><time>2026-04-12T13:26:40.296Z</time></trkpt><trkpt lat="44.9309033" lon="12.3757267"><ele>-2.333333333333333</ele><time>2026-04-12T13:26:41.297Z</time></trkpt><trkpt lat="44.9308383" lon="12.37595"><ele>-2.6666666666666665</ele><time>2026-04-12T13:26:42.296Z</time></trkpt><trkpt lat="44.9307767" lon="12.376185"><ele>-3.0</ele><time>2026-04-12T13:26:43.296Z</time></trkpt><trkpt lat="44.9307233" lon="12.3764217"><ele>-3.333333333333333</ele><time>2026-04-12T13:26:44.297Z</time></trkpt><trkpt lat="44.930675" lon="12.3766833"><ele>-3.6666666666666665</ele><time>2026-04-12T13:26:45.296Z</time></trkpt><trkpt lat="44.9306317" lon="12.376945"><ele>-4.0</ele><time>2026-04-12T13:26:46.296Z</time></trkpt><trkpt lat="44.93059" lon="12.3772133"><ele>-4.0</ele><time>2026-04-12T13:26:47.297Z</time></trkpt><trkpt lat="44.93055" lon="12.3774883"><ele>-4.0</ele><time>2026-04-12T13:26:48.297Z</time></trkpt><trkpt lat="44.93051" lon="12.3777567"><ele>-4.0</ele><time>2026-04-12T13:26:49.296Z</time></trkpt><trkpt lat="44.93047" lon="12.3780217"><ele>-3.333333333333333</ele><time>2026-04-12T13:26:50.297Z</time></trkpt><trkpt lat="44.930435" lon="12.3782867"><ele>-2.6666666666666665</ele><time>2026-04-12T13:26:51.296Z</time></trkpt><trkpt lat="44.9303967" lon="12.3785567"><ele>-2.0</ele><time>2026-04-12T13:26:52.296Z</time></trkpt><trkpt lat="44.9303567" lon="12.3788167"><ele>-2.0</ele><time>2026-04-12T13:26:53.297Z</time></trkpt><trkpt lat="44.930315" lon="12.3790783"><ele>-2.0</ele><time>2026-04-12T13:26:54.297Z</time></trkpt><trkpt lat="44.930275" lon="12.379335"><ele>-2.0</ele><time>2026-04-12T13:26:55.296Z</time></trkpt><trkpt lat="44.9302333" lon="12.3795917"><ele>-2.6666666666666665</ele><time>2026-04-12T13:26:56.297Z</time></trkpt><trkpt lat="44.9301917" lon="12.3798533"><ele>-3.333333333333333</ele><time>2026-04-12T13:26:57.297Z</time></trkpt><trkpt lat="44.930155" lon="12.3801233"><ele>-4.0</ele><time>2026-04-12T13:26:58.296Z</time></trkpt><trkpt lat="44.9301083" lon="12.3803933"><ele>-4.0</ele><time>2026-04-12T13:26:59.296Z</time></trkpt><trkpt lat="44.9300683" lon="12.3806617"><ele>-4.0</ele><time>2026-04-12T13:27:00.296Z</time></trkpt><trkpt lat="44.9300267" lon="12.3809267"><ele>-4.0</ele><time>2026-04-12T13:27:01.296Z</time></trkpt><trkpt lat="44.9299783" lon="12.3812"><ele>-4.0</ele><time>2026-04-12T13:27:02.297Z</time></trkpt><trkpt lat="44.9299283" lon="12.3814783"><ele>-4.0</ele><time>2026-04-12T13:27:03.296Z</time></trkpt><trkpt lat="44.92988" lon="12.38174"><ele>-4.0</ele><time>2026-04-12T13:27:04.296Z</time></trkpt><trkpt lat="44.9298367" lon="12.3819917"><ele>-3.6666666666666665</ele><time>2026-04-12T13:27:05.296Z</time></trkpt><trkpt lat="44.929795" lon="12.3822317"><ele>-3.333333333333333</ele><time>2026-04-12T13:27:06.296Z</time></trkpt><trkpt lat="44.9297467" lon="12.3824533"><ele>-3.0</ele><time>2026-04-12T13:27:07.297Z</time></trkpt><trkpt lat="44.9296867" lon="12.3826783"><ele>-3.0</ele><time>2026-04-12T13:27:08.296Z</time></trkpt><trkpt lat="44.9296017" lon="12.38289"><ele>-3.0</ele><time>2026-04-12T13:27:09.296Z</time></trkpt><trkpt lat="44.9294917" lon="12.3830833"><ele>-3.0</ele><time>2026-04-12T13:27:10.297Z</time></trkpt><trkpt lat="44.929355" lon="12.3832467"><ele>-2.6666666666666665</ele><time>2026-04-12T13:27:11.297Z</time></trkpt><trkpt lat="44.929205" lon="12.3833967"><ele>-2.333333333333333</ele><time>2026-04-12T13:27:12.297Z</time></trkpt><trkpt lat="44.92905" lon="12.38353"><ele>-2.0</ele><time>2026-04-12T13:27:13.296Z</time></trkpt><trkpt lat="44.9289017" lon="12.3836483"><ele>-2.0</ele><time>2026-04-12T13:27:14.296Z</time></trkpt><trkpt lat="44.9287567" lon="12.38377"><ele>-2.0</ele><time>2026-04-12T13:27:15.297Z</time></trkpt><trkpt lat="44.9286083" lon="12.3838933"><ele>-2.0</ele><time>2026-04-12T13:27:16.296Z</time></trkpt><trkpt lat="44.928455" lon="12.3840217"><ele>-2.6666666666666665</ele><time>2026-04-12T13:27:17.296Z</time></trkpt><trkpt lat="44.928305" lon="12.38415"><ele>-3.333333333333333</ele><time>2026-04-12T13:27:18.296Z</time></trkpt><trkpt lat="44.9281483" lon="12.38428"><ele>-4.0</ele><time>2026-04-12T13:27:19.296Z</time></trkpt><trkpt lat="44.9280017" lon="12.3844"><ele>-4.0</ele><time>2026-04-12T13:27:20.296Z</time></trkpt><trkpt lat="44.92786" lon="12.3845117"><ele>-4.0</ele><time>2026-04-12T13:27:21.296Z</time></trkpt><trkpt lat="44.9277217" lon="12.3846233"><ele>-4.0</ele><time>2026-04-12T13:27:22.297Z</time></trkpt><trkpt lat="44.9275767" lon="12.3847267"><ele>-4.0</ele><time>2026-04-12T13:27:23.297Z</time></trkpt><trkpt lat="44.9274167" lon="12.384825"><ele>-4.0</ele><time>2026-04-12T13:27:24.297Z</time></trkpt><trkpt lat="44.9272533" lon="12.3849117"><ele>-4.0</ele><time>2026-04-12T13:27:25.296Z</time></trkpt><trkpt lat="44.92708" lon="12.3849983"><ele>-4.0</ele><time>2026-04-12T13:27:26.296Z</time></trkpt><trkpt lat="44.9268967" lon="12.3850733"><ele>-4.0</ele><time>2026-04-12T13:27:27.296Z</time></trkpt><trkpt lat="44.926715" lon="12.385135"><ele>-4.0</ele><time>2026-04-12T13:27:28.296Z</time></trkpt><trkpt lat="44.9265333" lon="12.3851983"><ele>-4.333333333333333</ele><time>2026-04-12T13:27:29.296Z</time></trkpt><trkpt lat="44.926355" lon="12.38527"><ele>-4.666666666666667</ele><time>2026-04-12T13:27:30.296Z</time></trkpt><trkpt lat="44.926175" lon="12.3853317"><ele>-5.0</ele><time>2026-04-12T13:27:31.297Z</time></trkpt><trkpt lat="44.9260067" lon="12.3853883"><ele>-4.333333333333334</ele><time>2026-04-12T13:27:32.296Z</time></trkpt><trkpt lat="44.9258283" lon="12.385445"><ele>-3.666666666666667</ele><time>2026-04-12T13:27:33.296Z</time></trkpt><trkpt lat="44.9256583" lon="12.3855017"><ele>-3.0</ele><time>2026-04-12T13:27:34.296Z</time></trkpt><trkpt lat="44.92549" lon="12.38555"><ele>-3.0</ele><time>2026-04-12T13:27:35.296Z</time></trkpt><trkpt lat="44.9253167" lon="12.3856033"><ele>-3.0</ele><time>2026-04-12T13:27:36.296Z</time></trkpt><trkpt lat="44.9251417" lon="12.3856567"><ele>-3.0</ele><time>2026-04-12T13:27:37.297Z</time></trkpt><trkpt lat="44.9249817" lon="12.3857117"><ele>-2.6666666666666665</ele><time>2026-04-12T13:27:38.296Z</time></trkpt><trkpt lat="44.9248217" lon="12.38576"><ele>-2.333333333333333</ele><time>2026-04-12T13:27:39.296Z</time></trkpt><trkpt lat="44.9246733" lon="12.3858067"><ele>-2.0</ele><time>2026-04-12T13:27:40.296Z</time></trkpt><trkpt lat="44.924535" lon="12.385855"><ele>-2.0</ele><time>2026-04-12T13:27:41.297Z</time></trkpt><trkpt lat="44.924405" lon="12.3859017"><ele>-2.0</ele><time>2026-04-12T13:27:42.297Z</time></trkpt><trkpt lat="44.9242867" lon="12.385945"><ele>-2.0</ele><time>2026-04-12T13:27:43.296Z</time></trkpt><trkpt lat="44.9241683" lon="12.3859917"><ele>-2.0</ele><time>2026-04-12T13:27:44.296Z</time></trkpt><trkpt lat="44.9240633" lon="12.38604"><ele>-2.1666666666666665</ele><time>2026-04-12T13:27:45.296Z</time></trkpt><trkpt lat="44.92396" lon="12.386085"><ele>-2.333333333333333</ele><time>2026-04-12T13:27:46.297Z</time></trkpt><trkpt lat="44.92387" lon="12.3861267"><ele>-2.5</ele><time>2026-04-12T13:27:47.296Z</time></trkpt><trkpt lat="44.9237917" lon="12.3861583"><ele>-2.6666666666666665</ele><time>2026-04-12T13:27:48.296Z</time></trkpt><trkpt lat="44.9237133" lon="12.3861883"><ele>-2.8333333333333335</ele><time>2026-04-12T13:27:49.297Z</time></trkpt><trkpt lat="44.92364" lon="12.386225"><ele>-3.0</ele><time>2026-04-12T13:27:50.297Z</time></trkpt><trkpt lat="44.9235517" lon="12.386275"><ele>-3.0</ele><time>2026-04-12T13:27:51.296Z</time></trkpt><trkpt lat="44.9234567" lon="12.38632"><ele>-3.0</ele><time>2026-04-12T13:27:52.296Z</time></trkpt><trkpt lat="44.923355" lon="12.3863633"><ele>-3.0</ele><time>2026-04-12T13:27:53.296Z</time></trkpt><trkpt lat="44.9232517" lon="12.3864083"><ele>-3.0</ele><time>2026-04-12T13:27:54.296Z</time></trkpt><trkpt lat="44.9231467" lon="12.3864617"><ele>-3.0</ele><time>2026-04-12T13:27:55.296Z</time></trkpt><trkpt lat="44.923045" lon="12.3865117"><ele>-2.8333333333333335</ele><time>2026-04-12T13:27:56.296Z</time></trkpt><trkpt lat="44.9229517" lon="12.3865483"><ele>-2.6666666666666665</ele><time>2026-04-12T13:27:57.296Z</time></trkpt><trkpt lat="44.9228733" lon="12.3865833"><ele>-2.5</ele><time>2026-04-12T13:27:58.297Z</time></trkpt><trkpt lat="44.9227983" lon="12.3866183"><ele>-2.333333333333333</ele><time>2026-04-12T13:27:59.297Z</time></trkpt><trkpt lat="44.922725" lon="12.3866417"><ele>-2.1666666666666665</ele><time>2026-04-12T13:28:00.296Z</time></trkpt><trkpt lat="44.92264" lon="12.3866767"><ele>-2.0</ele><time>2026-04-12T13:28:01.296Z</time></trkpt><trkpt lat="44.92256" lon="12.3867133"><ele>-1.75</ele><time>2026-04-12T13:28:02.296Z</time></trkpt><trkpt lat="44.9224617" lon="12.38676"><ele>-1.5</ele><time>2026-04-12T13:28:03.296Z</time></trkpt><trkpt lat="44.9223517" lon="12.3868083"><ele>-1.25</ele><time>2026-04-12T13:28:04.296Z</time></trkpt><trkpt lat="44.92224" lon="12.3868617"><ele>-1.0</ele><time>2026-04-12T13:28:05.296Z</time></trkpt><trkpt lat="44.92213" lon="12.3869133"><ele>-1.0</ele><time>2026-04-12T13:28:06.296Z</time></trkpt><trkpt lat="44.922025" lon="12.3869517"><ele>-1.0</ele><time>2026-04-12T13:28:07.296Z</time></trkpt><trkpt lat="44.921925" lon="12.3869917"><ele>-1.0</ele><time>2026-04-12T13:28:08.296Z</time></trkpt><trkpt lat="44.92183" lon="12.3870417"><ele>-1.0</ele><time>2026-04-12T13:28:09.296Z</time></trkpt><trkpt lat="44.9217367" lon="12.3870817"><ele>-1.0</ele><time>2026-04-12T13:28:10.297Z</time></trkpt><trkpt lat="44.921645" lon="12.387125"><ele>-1.0</ele><time>2026-04-12T13:28:11.296Z</time></trkpt><trkpt lat="44.9215517" lon="12.387165"><ele>-1.0</ele><time>2026-04-12T13:28:12.296Z</time></trkpt><trkpt lat="44.9214667" lon="12.3872083"><ele>-1.0</ele><time>2026-04-12T13:28:13.296Z</time></trkpt><trkpt lat="44.9213817" lon="12.38725"><ele>-1.0</ele><time>2026-04-12T13:28:14.296Z</time></trkpt><trkpt lat="44.9212867" lon="12.3872967"><ele>-1.0</ele><time>2026-04-12T13:28:15.296Z</time></trkpt><trkpt lat="44.9211983" lon="12.3873433"><ele>-0.9999999999999999</ele><time>2026-04-12T13:28:16.296Z</time></trkpt><trkpt lat="44.9211233" lon="12.3873767"><ele>-1.0</ele><time>2026-04-12T13:28:17.297Z</time></trkpt><trkpt lat="44.9210517" lon="12.3874017"><ele>-1.0</ele><time>2026-04-12T13:28:18.297Z</time></trkpt><trkpt lat="44.920985" lon="12.3874267"><ele>-1.0</ele><time>2026-04-12T13:28:19.296Z</time></trkpt><trkpt lat="44.9209033" lon="12.3874683"><ele>-0.9999999999999999</ele><time>2026-04-12T13:28:20.296Z</time></trkpt><trkpt lat="44.92082" lon="12.3875133"><ele>-1.0</ele><time>2026-04-12T13:28:21.296Z</time></trkpt><trkpt lat="44.92073" lon="12.3875567"><ele>-1.2000000000000002</ele><time>2026-04-12T13:28:22.297Z</time></trkpt><trkpt lat="44.9206383" lon="12.3876033"><ele>-1.4000000000000001</ele><time>2026-04-12T13:28:23.296Z</time></trkpt><trkpt lat="44.9205417" lon="12.3876533"><ele>-1.6</ele><time>2026-04-12T13:28:24.296Z</time></trkpt><trkpt lat="44.9204383" lon="12.3877067"><ele>-1.8</ele><time>2026-04-12T13:28:25.296Z</time></trkpt><trkpt lat="44.92033" lon="12.3877583"><ele>-2.0</ele><time>2026-04-12T13:28:26.296Z</time></trkpt><trkpt lat="44.9202183" lon="12.3878133"><ele>-2.0</ele><time>2026-04-12T13:28:27.297Z</time></trkpt><trkpt lat="44.9200933" lon="12.3878733"><ele>-2.0</ele><time>2026-04-12T13:28:28.297Z</time></trkpt><trkpt lat="44.9199617" lon="12.3879433"><ele>-2.0</ele><time>2026-04-12T13:28:29.297Z</time></trkpt><trkpt lat="44.919825" lon="12.3880167"><ele>-2.0</ele><time>2026-04-12T13:28:30.296Z</time></trkpt><trkpt lat="44.9196883" lon="12.3880867"><ele>-2.5</ele><time>2026-04-12T13:28:31.296Z</time></trkpt><trkpt lat="44.9195483" lon="12.38816"><ele>-3.0</ele><time>2026-04-12T13:28:32.297Z</time></trkpt><trkpt lat="44.9194117" lon="12.3882417"><ele>-3.5</ele><time>2026-04-12T13:28:33.296Z</time></trkpt><trkpt lat="44.919275" lon="12.388325"><ele>-4.0</ele><time>2026-04-12T13:28:34.296Z</time></trkpt><trkpt lat="44.919155" lon="12.3883983"><ele>-4.0</ele><time>2026-04-12T13:28:35.296Z</time></trkpt><trkpt lat="44.9190383" lon="12.3884733"><ele>-4.0</ele><time>2026-04-12T13:28:36.297Z</time></trkpt><trkpt lat="44.9189317" lon="12.38855"><ele>-4.0</ele><time>2026-04-12T13:28:37.297Z</time></trkpt><trkpt lat="44.91881" lon="12.388635"><ele>-4.0</ele><time>2026-04-12T13:28:38.297Z</time></trkpt><trkpt lat="44.918685" lon="12.3887333"><ele>-4.0</ele><time>2026-04-12T13:28:39.296Z</time></trkpt><trkpt lat="44.9185683" lon="12.3888317"><ele>-4.0</ele><time>2026-04-12T13:28:40.296Z</time></trkpt><trkpt lat="44.918455" lon="12.3889317"><ele>-4.0</ele><time>2026-04-12T13:28:41.296Z</time></trkpt><trkpt lat="44.9183567" lon="12.3890367"><ele>-4.0</ele><time>2026-04-12T13:28:42.296Z</time></trkpt><trkpt lat="44.9182617" lon="12.3891383"><ele>-4.0</ele><time>2026-04-12T13:28:43.296Z</time></trkpt><trkpt lat="44.918175" lon="12.3892267"><ele>-4.0</ele><time>2026-04-12T13:28:44.296Z</time></trkpt><trkpt lat="44.918095" lon="12.3893067"><ele>-4.0</ele><time>2026-04-12T13:28:45.297Z</time></trkpt><trkpt lat="44.9180183" lon="12.3893883"><ele>-4.0</ele><time>2026-04-12T13:28:46.296Z</time></trkpt><trkpt lat="44.9179417" lon="12.3894767"><ele>-4.0</ele><time>2026-04-12T13:28:47.296Z</time></trkpt><trkpt lat="44.917865" lon="12.3895717"><ele>-4.0</ele><time>2026-04-12T13:28:48.297Z</time></trkpt><trkpt lat="44.9177717" lon="12.38967"><ele>-4.0</ele><time>2026-04-12T13:28:49.296Z</time></trkpt><trkpt lat="44.9176683" lon="12.3897767"><ele>-4.0</ele><time>2026-04-12T13:28:50.296Z</time></trkpt><trkpt lat="44.9175667" lon="12.3898767"><ele>-4.0</ele><time>2026-04-12T13:28:51.296Z</time></trkpt><trkpt lat="44.917475" lon="12.3899717"><ele>-3.75</ele><time>2026-04-12T13:28:52.296Z</time></trkpt><trkpt lat="44.9173783" lon="12.3900683"><ele>-3.5</ele><time>2026-04-12T13:28:53.297Z</time></trkpt><trkpt lat="44.91728" lon="12.39017"><ele>-3.25</ele><time>2026-04-12T13:28:54.297Z</time></trkpt><trkpt lat="44.9171817" lon="12.3902733"><ele>-3.0</ele><time>2026-04-12T13:28:55.296Z</time></trkpt><trkpt lat="44.9170767" lon="12.39038"><ele>-3.0</ele><time>2026-04-12T13:28:56.297Z</time></trkpt><trkpt lat="44.91697" lon="12.39049"><ele>-3.0</ele><time>2026-04-12T13:28:57.296Z</time></trkpt><trkpt lat="44.9168617" lon="12.3906"><ele>-3.0</ele><time>2026-04-12T13:28:58.296Z</time></trkpt><trkpt lat="44.9167533" lon="12.39071"><ele>-3.0</ele><time>2026-04-12T13:28:59.297Z</time></trkpt><trkpt lat="44.9166433" lon="12.3908117"><ele>-3.25</ele><time>2026-04-12T13:29:00.297Z</time></trkpt><trkpt lat="44.9165317" lon="12.3909033"><ele>-3.5</ele><time>2026-04-12T13:29:01.296Z</time></trkpt><trkpt lat="44.9164167" lon="12.391"><ele>-3.75</ele><time>2026-04-12T13:29:02.297Z</time></trkpt><trkpt lat="44.9163" lon="12.3910967"><ele>-4.0</ele><time>2026-04-12T13:29:03.296Z</time></trkpt><trkpt lat="44.9161833" lon="12.3911967"><ele>-4.0</ele><time>2026-04-12T13:29:04.297Z</time></trkpt><trkpt lat="44.9160617" lon="12.3912933"><ele>-4.0</ele><time>2026-04-12T13:29:05.297Z</time></trkpt><trkpt lat="44.9159367" lon="12.391385"><ele>-4.0</ele><time>2026-04-12T13:29:06.296Z</time></trkpt><trkpt lat="44.9158217" lon="12.3914817"><ele>-4.0</ele><time>2026-04-12T13:29:07.297Z</time></trkpt><trkpt lat="44.9157033" lon="12.3915767"><ele>-4.0</ele><time>2026-04-12T13:29:08.297Z</time></trkpt><trkpt lat="44.9155817" lon="12.3916733"><ele>-4.0</ele><time>2026-04-12T13:29:09.297Z</time></trkpt><trkpt lat="44.9154533" lon="12.3917667"><ele>-4.0</ele><time>2026-04-12T13:29:10.296Z</time></trkpt><trkpt lat="44.9153217" lon="12.3918617"><ele>-4.0</ele><time>2026-04-12T13:29:11.296Z</time></trkpt><trkpt lat="44.91519" lon="12.3919483"><ele>-4.0</ele><time>2026-04-12T13:29:12.297Z</time></trkpt><trkpt lat="44.915055" lon="12.39203"><ele>-4.0</ele><time>2026-04-12T13:29:13.297Z</time></trkpt><trkpt lat="44.9149133" lon="12.39211"><ele>-4.0</ele><time>2026-04-12T13:29:14.296Z</time></trkpt><trkpt lat="44.914775" lon="12.3921917"><ele>-4.0</ele><time>2026-04-12T13:29:15.296Z</time></trkpt><trkpt lat="44.9146383" lon="12.39228"><ele>-3.75</ele><time>2026-04-12T13:29:16.296Z</time></trkpt><trkpt lat="44.9145117" lon="12.3923617"><ele>-3.5</ele><time>2026-04-12T13:29:17.296Z</time></trkpt><trkpt lat="44.91438" lon="12.39245"><ele>-3.25</ele><time>2026-04-12T13:29:18.296Z</time></trkpt><trkpt lat="44.914245" lon="12.3925417"><ele>-3.0</ele><time>2026-04-12T13:29:19.297Z</time></trkpt><trkpt lat="44.9141083" lon="12.3926317"><ele>-3.0</ele><time>2026-04-12T13:29:20.297Z</time></trkpt><trkpt lat="44.9139783" lon="12.39272"><ele>-3.0</ele><time>2026-04-12T13:29:21.296Z</time></trkpt><trkpt lat="44.913845" lon="12.392795"><ele>-3.0</ele><time>2026-04-12T13:29:22.296Z</time></trkpt><trkpt lat="44.9137033" lon="12.39286"><ele>-3.0</ele><time>2026-04-12T13:29:23.296Z</time></trkpt><trkpt lat="44.913555" lon="12.3929133"><ele>-3.0</ele><time>2026-04-12T13:29:24.296Z</time></trkpt><trkpt lat="44.913405" lon="12.392955"><ele>-3.0</ele><time>2026-04-12T13:29:25.296Z</time></trkpt><trkpt lat="44.9132533" lon="12.3929833"><ele>-3.0</ele><time>2026-04-12T13:29:26.296Z</time></trkpt><trkpt lat="44.9130967" lon="12.39301"><ele>-3.0</ele><time>2026-04-12T13:29:27.296Z</time></trkpt><trkpt lat="44.9129383" lon="12.3930267"><ele>-3.0</ele><time>2026-04-12T13:29:28.296Z</time></trkpt><trkpt lat="44.9127883" lon="12.393035"><ele>-3.0</ele><time>2026-04-12T13:29:29.297Z</time></trkpt><trkpt lat="44.9126383" lon="12.3930367"><ele>-3.333333333333333</ele><time>2026-04-12T13:29:30.297Z</time></trkpt><trkpt lat="44.9124817" lon="12.3930183"><ele>-3.6666666666666665</ele><time>2026-04-12T13:29:31.296Z</time></trkpt><trkpt lat="44.9123267" lon="12.3929767"><ele>-4.0</ele><time>2026-04-12T13:29:32.296Z</time></trkpt><trkpt lat="44.9121717" lon="12.39293"><ele>-4.0</ele><time>2026-04-12T13:29:33.296Z</time></trkpt><trkpt lat="44.91202" lon="12.3928883"><ele>-4.0</ele><time>2026-04-12T13:29:34.296Z</time></trkpt><trkpt lat="44.9118683" lon="12.392845"><ele>-4.0</ele><time>2026-04-12T13:29:35.296Z</time></trkpt><trkpt lat="44.9117167" lon="12.3927933"><ele>-4.333333333333333</ele><time>2026-04-12T13:29:36.297Z</time></trkpt><trkpt lat="44.9115617" lon="12.39274"><ele>-4.666666666666667</ele><time>2026-04-12T13:29:37.296Z</time></trkpt><trkpt lat="44.911415" lon="12.3926967"><ele>-5.0</ele><time>2026-04-12T13:29:38.296Z</time></trkpt><trkpt lat="44.9112717" lon="12.3926633"><ele>-5.0</ele><time>2026-04-12T13:29:39.297Z</time></trkpt><trkpt lat="44.9111267" lon="12.3926517"><ele>-5.0</ele><time>2026-04-12T13:29:40.296Z</time></trkpt><trkpt lat="44.9109717" lon="12.3926767"><ele>-5.0</ele><time>2026-04-12T13:29:41.296Z</time></trkpt><trkpt lat="44.9108183" lon="12.39274"><ele>-4.666666666666667</ele><time>2026-04-12T13:29:42.296Z</time></trkpt><trkpt lat="44.9106583" lon="12.3928467"><ele>-4.333333333333333</ele><time>2026-04-12T13:29:43.296Z</time></trkpt><trkpt lat="44.910485" lon="12.39297"><ele>-4.0</ele><time>2026-04-12T13:29:44.296Z</time></trkpt><trkpt lat="44.9103183" lon="12.3930883"><ele>-4.0</ele><time>2026-04-12T13:29:45.296Z</time></trkpt><trkpt lat="44.9101633" lon="12.3932017"><ele>-4.0</ele><time>2026-04-12T13:29:46.297Z</time></trkpt><trkpt lat="44.9100133" lon="12.3933117"><ele>-4.0</ele><time>2026-04-12T13:29:47.296Z</time></trkpt><trkpt lat="44.9098733" lon="12.3934167"><ele>-4.333333333333333</ele><time>2026-04-12T13:29:48.296Z</time></trkpt><trkpt lat="44.90974" lon="12.3935183"><ele>-4.666666666666667</ele><time>2026-04-12T13:29:49.296Z</time></trkpt><trkpt lat="44.9096017" lon="12.3936167"><ele>-5.0</ele><time>2026-04-12T13:29:50.296Z</time></trkpt><trkpt lat="44.9094583" lon="12.39371"><ele>-5.0</ele><time>2026-04-12T13:29:51.296Z</time></trkpt><trkpt lat="44.90931" lon="12.393805"><ele>-5.0</ele><time>2026-04-12T13:29:52.296Z</time></trkpt><trkpt lat="44.9091667" lon="12.3939017"><ele>-5.0</ele><time>2026-04-12T13:29:53.297Z</time></trkpt><trkpt lat="44.9090133" lon="12.3939967"><ele>-4.666666666666667</ele><time>2026-04-12T13:29:54.296Z</time></trkpt><trkpt lat="44.9088667" lon="12.3940933"><ele>-4.333333333333333</ele><time>2026-04-12T13:29:55.296Z</time></trkpt><trkpt lat="44.9087167" lon="12.39419"><ele>-4.0</ele><time>2026-04-12T13:29:56.297Z</time></trkpt><trkpt lat="44.9085667" lon="12.3942917"><ele>-4.0</ele><time>2026-04-12T13:29:57.296Z</time></trkpt><trkpt lat="44.9084183" lon="12.3943917"><ele>-4.0</ele><time>2026-04-12T13:29:58.296Z</time></trkpt><trkpt lat="44.9082633" lon="12.39449"><ele>-4.0</ele><time>2026-04-12T13:29:59.297Z</time></trkpt><trkpt lat="44.90811" lon="12.3945867"><ele>-4.0</ele><time>2026-04-12T13:30:00.297Z</time></trkpt><trkpt lat="44.9079583" lon="12.3946917"><ele>-4.0</ele><time>2026-04-12T13:30:01.296Z</time></trkpt><trkpt lat="44.9078083" lon="12.39479"><ele>-4.0</ele><time>2026-04-12T13:30:02.296Z</time></trkpt><trkpt lat="44.90766" lon="12.3948867"><ele>-4.333333333333333</ele><time>2026-04-12T13:30:03.296Z</time></trkpt><trkpt lat="44.90751" lon="12.3949833"><ele>-4.666666666666667</ele><time>2026-04-12T13:30:04.297Z</time></trkpt><trkpt lat="44.9073667" lon="12.3950833"><ele>-5.0</ele><time>2026-04-12T13:30:05.297Z</time></trkpt><trkpt lat="44.9072183" lon="12.39518"><ele>-5.0</ele><time>2026-04-12T13:30:06.296Z</time></trkpt><trkpt lat="44.9070767" lon="12.39527"><ele>-5.0</ele><time>2026-04-12T13:30:07.297Z</time></trkpt><trkpt lat="44.9069317" lon="12.3953567"><ele>-5.0</ele><time>2026-04-12T13:30:08.296Z</time></trkpt><trkpt lat="44.9067833" lon="12.39544"><ele>-4.666666666666667</ele><time>2026-04-12T13:30:09.296Z</time></trkpt><trkpt lat="44.9066333" lon="12.3955033"><ele>-4.333333333333333</ele><time>2026-04-12T13:30:10.296Z</time></trkpt><trkpt lat="44.9064883" lon="12.3955567"><ele>-4.0</ele><time>2026-04-12T13:30:11.296Z</time></trkpt><trkpt lat="44.906335" lon="12.395605"><ele>-4.0</ele><time>2026-04-12T13:30:12.296Z</time></trkpt><trkpt lat="44.9061833" lon="12.3956483"><ele>-4.0</ele><time>2026-04-12T13:30:13.296Z</time></trkpt><trkpt lat="44.90603" lon="12.3956917"><ele>-4.0</ele><time>2026-04-12T13:30:14.296Z</time></trkpt><trkpt lat="44.9058783" lon="12.3957317"><ele>-4.0</ele><time>2026-04-12T13:30:15.296Z</time></trkpt><trkpt lat="44.90574" lon="12.3957683"><ele>-4.0</ele><time>2026-04-12T13:30:16.296Z</time></trkpt><trkpt lat="44.9056067" lon="12.3958067"><ele>-4.0</ele><time>2026-04-12T13:30:17.296Z</time></trkpt><trkpt lat="44.905485" lon="12.39583"><ele>-4.0</ele><time>2026-04-12T13:30:18.296Z</time></trkpt><trkpt lat="44.9053467" lon="12.3958583"><ele>-4.0</ele><time>2026-04-12T13:30:19.296Z</time></trkpt><trkpt lat="44.9052183" lon="12.3958783"><ele>-4.0</ele><time>2026-04-12T13:30:20.297Z</time></trkpt><trkpt lat="44.90511" lon="12.3958967"><ele>-4.0</ele><time>2026-04-12T13:30:21.296Z</time></trkpt><trkpt lat="44.9050083" lon="12.39593"><ele>-4.0</ele><time>2026-04-12T13:30:22.296Z</time></trkpt><trkpt lat="44.9049317" lon="12.395965"><ele>-4.0</ele><time>2026-04-12T13:30:23.296Z</time></trkpt><trkpt lat="44.9048633" lon="12.39607"><ele>-4.0</ele><time>2026-04-12T13:30:25.296Z</time></trkpt><trkpt lat="44.9048817" lon="12.3962217"><ele>-4.0</ele><time>2026-04-12T13:30:27.296Z</time></trkpt><trkpt lat="44.9049033" lon="12.3963317"><ele>-4.0</ele><time>2026-04-12T13:30:28.296Z</time></trkpt><trkpt lat="44.904925" lon="12.3965017"><ele>-4.0</ele><time>2026-04-12T13:30:29.297Z</time></trkpt><trkpt lat="44.9049417" lon="12.3966767"><ele>-4.0</ele><time>2026-04-12T13:30:30.297Z</time></trkpt><trkpt lat="44.9049517" lon="12.3968433"><ele>-4.0</ele><time>2026-04-12T13:30:31.296Z</time></trkpt><trkpt lat="44.904965" lon="12.3970167"><ele>-4.0</ele><time>2026-04-12T13:30:32.296Z</time></trkpt><trkpt lat="44.9049717" lon="12.3971783"><ele>-4.0</ele><time>2026-04-12T13:30:33.296Z</time></trkpt><trkpt lat="44.9049783" lon="12.3973267"><ele>-4.0</ele><time>2026-04-12T13:30:34.296Z</time></trkpt><trkpt lat="44.9049767" lon="12.3974717"><ele>-4.0</ele><time>2026-04-12T13:30:35.296Z</time></trkpt><trkpt lat="44.9049733" lon="12.39763"><ele>-3.833333333333333</ele><time>2026-04-12T13:30:36.297Z</time></trkpt><trkpt lat="44.9049583" lon="12.3977667"><ele>-3.6666666666666665</ele><time>2026-04-12T13:30:37.296Z</time></trkpt><trkpt lat="44.90494" lon="12.3978867"><ele>-3.5</ele><time>2026-04-12T13:30:38.296Z</time></trkpt><trkpt lat="44.9049317" lon="12.398"><ele>-3.333333333333333</ele><time>2026-04-12T13:30:39.297Z</time></trkpt><trkpt lat="44.90492" lon="12.3980917"><ele>-3.1666666666666665</ele><time>2026-04-12T13:30:40.296Z</time></trkpt><trkpt lat="44.90491" lon="12.398195"><ele>-3.0</ele><time>2026-04-12T13:30:41.296Z</time></trkpt><trkpt lat="44.9048883" lon="12.39829"><ele>-3.0</ele><time>2026-04-12T13:30:42.296Z</time></trkpt><trkpt lat="44.9048417" lon="12.3983683"><ele>-3.0</ele><time>2026-04-12T13:30:43.296Z</time></trkpt><trkpt lat="44.9047683" lon="12.398415"><ele>-3.0</ele><time>2026-04-12T13:30:44.296Z</time></trkpt><trkpt lat="44.9046733" lon="12.39842"><ele>-3.0</ele><time>2026-04-12T13:30:45.296Z</time></trkpt><trkpt lat="44.9045767" lon="12.3984267"><ele>-3.0</ele><time>2026-04-12T13:30:46.297Z</time></trkpt><trkpt lat="44.904495" lon="12.3984483"><ele>-3.0</ele><time>2026-04-12T13:30:47.296Z</time></trkpt><trkpt lat="44.9044283" lon="12.3985033"><ele>-3.0</ele><time>2026-04-12T13:30:48.296Z</time></trkpt><trkpt lat="44.9043883" lon="12.3986233"><ele>-3.0</ele><time>2026-04-12T13:30:49.296Z</time></trkpt><trkpt lat="44.9043633" lon="12.39878"><ele>-3.0</ele><time>2026-04-12T13:30:50.296Z</time></trkpt><trkpt lat="44.9043417" lon="12.39897"><ele>-3.0</ele><time>2026-04-12T13:30:51.297Z</time></trkpt><trkpt lat="44.9043167" lon="12.399175"><ele>-3.0</ele><time>2026-04-12T13:30:52.296Z</time></trkpt><trkpt lat="44.9042917" lon="12.3993833"><ele>-3.0</ele><time>2026-04-12T13:30:53.296Z</time></trkpt><trkpt lat="44.9042667" lon="12.3996283"><ele>-3.0</ele><time>2026-04-12T13:30:54.297Z</time></trkpt><trkpt lat="44.90424" lon="12.399875"><ele>-3.0</ele><time>2026-04-12T13:30:55.296Z</time></trkpt><trkpt lat="44.904215" lon="12.4001133"><ele>-3.0</ele><time>2026-04-12T13:30:56.296Z</time></trkpt><trkpt lat="44.90419" lon="12.4003467"><ele>-3.0</ele><time>2026-04-12T13:30:57.296Z</time></trkpt><trkpt lat="44.9041633" lon="12.400575"><ele>-3.25</ele><time>2026-04-12T13:30:58.296Z</time></trkpt><trkpt lat="44.90414" lon="12.4007833"><ele>-3.5</ele><time>2026-04-12T13:30:59.297Z</time></trkpt><trkpt lat="44.9041217" lon="12.4009667"><ele>-3.75</ele><time>2026-04-12T13:31:00.296Z</time></trkpt><trkpt lat="44.9040983" lon="12.401155"><ele>-4.0</ele><time>2026-04-12T13:31:01.296Z</time></trkpt><trkpt lat="44.90408" lon="12.4013283"><ele>-4.0</ele><time>2026-04-12T13:31:02.296Z</time></trkpt><trkpt lat="44.9040567" lon="12.40151"><ele>-4.0</ele><time>2026-04-12T13:31:03.296Z</time></trkpt><trkpt lat="44.90404" lon="12.40169"><ele>-4.0</ele><time>2026-04-12T13:31:04.296Z</time></trkpt><trkpt lat="44.9040183" lon="12.4018767"><ele>-4.0</ele><time>2026-04-12T13:31:05.297Z</time></trkpt><trkpt lat="44.9040017" lon="12.4020733"><ele>-4.0</ele><time>2026-04-12T13:31:06.296Z</time></trkpt><trkpt lat="44.9039833" lon="12.4022583"><ele>-4.0</ele><time>2026-04-12T13:31:07.296Z</time></trkpt><trkpt lat="44.9039617" lon="12.402455"><ele>-4.0</ele><time>2026-04-12T13:31:08.297Z</time></trkpt><trkpt lat="44.9039383" lon="12.4026583"><ele>-4.0</ele><time>2026-04-12T13:31:09.296Z</time></trkpt><trkpt lat="44.903915" lon="12.4028617"><ele>-4.0</ele><time>2026-04-12T13:31:10.296Z</time></trkpt><trkpt lat="44.90389" lon="12.4030683"><ele>-4.0</ele><time>2026-04-12T13:31:11.297Z</time></trkpt><trkpt lat="44.9038633" lon="12.4032667"><ele>-4.0</ele><time>2026-04-12T13:31:12.296Z</time></trkpt><trkpt lat="44.90384" lon="12.4034567"><ele>-4.0</ele><time>2026-04-12T13:31:13.296Z</time></trkpt><trkpt lat="44.9038233" lon="12.403635"><ele>-4.0</ele><time>2026-04-12T13:31:14.297Z</time></trkpt><trkpt lat="44.903805" lon="12.4038233"><ele>-4.0</ele><time>2026-04-12T13:31:15.296Z</time></trkpt><trkpt lat="44.90379" lon="12.404"><ele>-4.0</ele><time>2026-04-12T13:31:16.296Z</time></trkpt><trkpt lat="44.90377" lon="12.4041567"><ele>-4.0</ele><time>2026-04-12T13:31:17.297Z</time></trkpt><trkpt lat="44.9037517" lon="12.4043083"><ele>-4.2</ele><time>2026-04-12T13:31:18.296Z</time></trkpt><trkpt lat="44.903735" lon="12.4044433"><ele>-4.4</ele><time>2026-04-12T13:31:19.296Z</time></trkpt><trkpt lat="44.9037167" lon="12.40459"><ele>-4.6</ele><time>2026-04-12T13:31:20.296Z</time></trkpt><trkpt lat="44.9037033" lon="12.4047317"><ele>-4.8</ele><time>2026-04-12T13:31:21.296Z</time></trkpt><trkpt lat="44.90369" lon="12.4048617"><ele>-5.0</ele><time>2026-04-12T13:31:22.296Z</time></trkpt><trkpt lat="44.903675" lon="12.4049767"><ele>-5.166666666666667</ele><time>2026-04-12T13:31:23.296Z</time></trkpt><trkpt lat="44.903665" lon="12.4050833"><ele>-5.333333333333334</ele><time>2026-04-12T13:31:24.296Z</time></trkpt><trkpt lat="44.9036533" lon="12.4051967"><ele>-5.5</ele><time>2026-04-12T13:31:25.296Z</time></trkpt><trkpt lat="44.9036417" lon="12.4053117"><ele>-5.666666666666667</ele><time>2026-04-12T13:31:26.296Z</time></trkpt><trkpt lat="44.90363" lon="12.4054317"><ele>-5.833333333333333</ele><time>2026-04-12T13:31:27.296Z</time></trkpt><trkpt lat="44.9036183" lon="12.4055567"><ele>-6.0</ele><time>2026-04-12T13:31:28.296Z</time></trkpt><trkpt lat="44.9036033" lon="12.40569"><ele>-6.25</ele><time>2026-04-12T13:31:29.296Z</time></trkpt><trkpt lat="44.9035883" lon="12.4058383"><ele>-6.5</ele><time>2026-04-12T13:31:30.296Z</time></trkpt><trkpt lat="44.90357" lon="12.405995"><ele>-6.75</ele><time>2026-04-12T13:31:31.296Z</time></trkpt><trkpt lat="44.9035467" lon="12.4061633"><ele>-7.0</ele><time>2026-04-12T13:31:32.296Z</time></trkpt><trkpt lat="44.9035283" lon="12.4063333"><ele>-6.25</ele><time>2026-04-12T13:31:33.296Z</time></trkpt><trkpt lat="44.9035083" lon="12.4065083"><ele>-5.5</ele><time>2026-04-12T13:31:34.296Z</time></trkpt><trkpt lat="44.9034883" lon="12.40669"><ele>-4.75</ele><time>2026-04-12T13:31:35.296Z</time></trkpt><trkpt lat="44.9034733" lon="12.4068667"><ele>-4.0</ele><time>2026-04-12T13:31:36.296Z</time></trkpt><trkpt lat="44.9034567" lon="12.40705"><ele>-4.0</ele><time>2026-04-12T13:31:37.296Z</time></trkpt><trkpt lat="44.90344" lon="12.4072317"><ele>-4.0</ele><time>2026-04-12T13:31:38.296Z</time></trkpt><trkpt lat="44.903415" lon="12.4074283"><ele>-4.0</ele><time>2026-04-12T13:31:39.297Z</time></trkpt><trkpt lat="44.9033917" lon="12.4076333"><ele>-4.0</ele><time>2026-04-12T13:31:40.296Z</time></trkpt><trkpt lat="44.9033683" lon="12.4078433"><ele>-4.666666666666666</ele><time>2026-04-12T13:31:41.296Z</time></trkpt><trkpt lat="44.9033433" lon="12.408065"><ele>-5.333333333333333</ele><time>2026-04-12T13:31:42.297Z</time></trkpt><trkpt lat="44.9033167" lon="12.4082933"><ele>-6.0</ele><time>2026-04-12T13:31:43.297Z</time></trkpt><trkpt lat="44.9032933" lon="12.4085117"><ele>-6.0</ele><time>2026-04-12T13:31:44.296Z</time></trkpt><trkpt lat="44.90327" lon="12.4087333"><ele>-6.0</ele><time>2026-04-12T13:31:45.296Z</time></trkpt><trkpt lat="44.9032467" lon="12.4089567"><ele>-6.0</ele><time>2026-04-12T13:31:46.296Z</time></trkpt><trkpt lat="44.9032233" lon="12.4091717"><ele>-5.666666666666667</ele><time>2026-04-12T13:31:47.296Z</time></trkpt><trkpt lat="44.9032" lon="12.4094"><ele>-5.333333333333334</ele><time>2026-04-12T13:31:48.296Z</time></trkpt><trkpt lat="44.903175" lon="12.4096167"><ele>-5.0</ele><time>2026-04-12T13:31:49.296Z</time></trkpt><trkpt lat="44.9031517" lon="12.4098383"><ele>-5.0</ele><time>2026-04-12T13:31:50.297Z</time></trkpt><trkpt lat="44.903125" lon="12.4100667"><ele>-5.0</ele><time>2026-04-12T13:31:51.296Z</time></trkpt><trkpt lat="44.9031" lon="12.4102883"><ele>-5.0</ele><time>2026-04-12T13:31:52.297Z</time></trkpt><trkpt lat="44.9030733" lon="12.410515"><ele>-4.333333333333334</ele><time>2026-04-12T13:31:53.296Z</time></trkpt><trkpt lat="44.90305" lon="12.4107383"><ele>-3.666666666666667</ele><time>2026-04-12T13:31:54.296Z</time></trkpt><trkpt lat="44.9030283" lon="12.410955"><ele>-3.0</ele><time>2026-04-12T13:31:55.297Z</time></trkpt><trkpt lat="44.9030067" lon="12.4111683"><ele>-3.333333333333333</ele><time>2026-04-12T13:31:56.296Z</time></trkpt><trkpt lat="44.9029783" lon="12.4113917"><ele>-3.6666666666666665</ele><time>2026-04-12T13:31:57.296Z</time></trkpt><trkpt lat="44.902955" lon="12.411615"><ele>-4.0</ele><time>2026-04-12T13:31:58.296Z</time></trkpt><trkpt lat="44.9029383" lon="12.4118333"><ele>-4.0</ele><time>2026-04-12T13:31:59.296Z</time></trkpt><trkpt lat="44.9029167" lon="12.4120633"><ele>-4.0</ele><time>2026-04-12T13:32:00.296Z</time></trkpt><trkpt lat="44.90289" lon="12.41229"><ele>-4.0</ele><time>2026-04-12T13:32:01.296Z</time></trkpt><trkpt lat="44.9028617" lon="12.4125217"><ele>-4.0</ele><time>2026-04-12T13:32:02.297Z</time></trkpt><trkpt lat="44.9028333" lon="12.4127567"><ele>-4.0</ele><time>2026-04-12T13:32:03.296Z</time></trkpt><trkpt lat="44.9028083" lon="12.4129733"><ele>-4.0</ele><time>2026-04-12T13:32:04.296Z</time></trkpt><trkpt lat="44.9027833" lon="12.4131983"><ele>-4.0</ele><time>2026-04-12T13:32:05.296Z</time></trkpt><trkpt lat="44.9027583" lon="12.41341"><ele>-4.0</ele><time>2026-04-12T13:32:06.296Z</time></trkpt><trkpt lat="44.902735" lon="12.413625"><ele>-4.0</ele><time>2026-04-12T13:32:07.296Z</time></trkpt><trkpt lat="44.90271" lon="12.4138367"><ele>-4.0</ele><time>2026-04-12T13:32:08.296Z</time></trkpt><trkpt lat="44.9026883" lon="12.41404"><ele>-4.0</ele><time>2026-04-12T13:32:09.297Z</time></trkpt><trkpt lat="44.9026633" lon="12.4142483"><ele>-4.0</ele><time>2026-04-12T13:32:10.296Z</time></trkpt><trkpt lat="44.9026383" lon="12.4144583"><ele>-4.0</ele><time>2026-04-12T13:32:11.296Z</time></trkpt><trkpt lat="44.9026183" lon="12.4146733"><ele>-4.0</ele><time>2026-04-12T13:32:12.296Z</time></trkpt><trkpt lat="44.902595" lon="12.4148883"><ele>-4.0</ele><time>2026-04-12T13:32:13.297Z</time></trkpt><trkpt lat="44.9025683" lon="12.4151067"><ele>-4.0</ele><time>2026-04-12T13:32:14.296Z</time></trkpt><trkpt lat="44.9025433" lon="12.4153217"><ele>-4.333333333333333</ele><time>2026-04-12T13:32:15.296Z</time></trkpt><trkpt lat="44.9025217" lon="12.415535"><ele>-4.666666666666667</ele><time>2026-04-12T13:32:16.296Z</time></trkpt><trkpt lat="44.9024983" lon="12.4157617"><ele>-5.0</ele><time>2026-04-12T13:32:17.296Z</time></trkpt><trkpt lat="44.9024733" lon="12.4159733"><ele>-5.0</ele><time>2026-04-12T13:32:18.296Z</time></trkpt><trkpt lat="44.9024517" lon="12.4161767"><ele>-5.0</ele><time>2026-04-12T13:32:19.296Z</time></trkpt><trkpt lat="44.902435" lon="12.4163617"><ele>-5.0</ele><time>2026-04-12T13:32:20.296Z</time></trkpt><trkpt lat="44.902415" lon="12.4165367"><ele>-5.0</ele><time>2026-04-12T13:32:21.296Z</time></trkpt><trkpt lat="44.9023983" lon="12.41671"><ele>-4.75</ele><time>2026-04-12T13:32:22.296Z</time></trkpt><trkpt lat="44.9023817" lon="12.416875"><ele>-4.5</ele><time>2026-04-12T13:32:23.296Z</time></trkpt><trkpt lat="44.90236" lon="12.4170467"><ele>-4.25</ele><time>2026-04-12T13:32:24.297Z</time></trkpt><trkpt lat="44.9023417" lon="12.4172117"><ele>-4.0</ele><time>2026-04-12T13:32:25.297Z</time></trkpt><trkpt lat="44.9023333" lon="12.4173567"><ele>-3.9999999999999996</ele><time>2026-04-12T13:32:26.296Z</time></trkpt><trkpt lat="44.9023133" lon="12.4174883"><ele>-4.0</ele><time>2026-04-12T13:32:27.296Z</time></trkpt><trkpt lat="44.9023" lon="12.4176083"><ele>-4.0</ele><time>2026-04-12T13:32:28.296Z</time></trkpt><trkpt lat="44.9022883" lon="12.4177267"><ele>-4.0</ele><time>2026-04-12T13:32:29.296Z</time></trkpt><trkpt lat="44.9022767" lon="12.417825"><ele>-3.9999999999999996</ele><time>2026-04-12T13:32:30.296Z</time></trkpt><trkpt lat="44.9022683" lon="12.4179167"><ele>-4.0</ele><time>2026-04-12T13:32:31.296Z</time></trkpt><trkpt lat="44.9022517" lon="12.4180983"><ele>-3.9999999999999996</ele><time>2026-04-12T13:32:33.296Z</time></trkpt><trkpt lat="44.9022283" lon="12.4181883"><ele>-4.0</ele><time>2026-04-12T13:32:34.296Z</time></trkpt><trkpt lat="44.902185" lon="12.41827"><ele>-4.0</ele><time>2026-04-12T13:32:35.297Z</time></trkpt><trkpt lat="44.90212" lon="12.4183317"><ele>-4.0</ele><time>2026-04-12T13:32:36.296Z</time></trkpt><trkpt lat="44.902035" lon="12.4183733"><ele>-3.9999999999999996</ele><time>2026-04-12T13:32:37.296Z</time></trkpt><trkpt lat="44.9019317" lon="12.4184"><ele>-4.0</ele><time>2026-04-12T13:32:38.297Z</time></trkpt><trkpt lat="44.9018333" lon="12.4184267"><ele>-3.8000000000000003</ele><time>2026-04-12T13:32:39.297Z</time></trkpt><trkpt lat="44.901735" lon="12.4184533"><ele>-3.6000000000000005</ele><time>2026-04-12T13:32:40.296Z</time></trkpt><trkpt lat="44.90163" lon="12.418485"><ele>-3.4</ele><time>2026-04-12T13:32:41.296Z</time></trkpt><trkpt lat="44.9015167" lon="12.4185217"><ele>-3.2</ele><time>2026-04-12T13:32:42.296Z</time></trkpt><trkpt lat="44.901405" lon="12.418555"><ele>-3.0</ele><time>2026-04-12T13:32:43.296Z</time></trkpt><trkpt lat="44.901285" lon="12.41859"><ele>-3.0</ele><time>2026-04-12T13:32:44.296Z</time></trkpt><trkpt lat="44.901165" lon="12.4186283"><ele>-3.0</ele><time>2026-04-12T13:32:45.296Z</time></trkpt><trkpt lat="44.9010383" lon="12.4186617"><ele>-3.0</ele><time>2026-04-12T13:32:46.296Z</time></trkpt><trkpt lat="44.900915" lon="12.418695"><ele>-3.0</ele><time>2026-04-12T13:32:47.296Z</time></trkpt><trkpt lat="44.9008" lon="12.418725"><ele>-3.0</ele><time>2026-04-12T13:32:48.297Z</time></trkpt><trkpt lat="44.9006933" lon="12.418755"><ele>-3.0</ele><time>2026-04-12T13:32:49.296Z</time></trkpt><trkpt lat="44.900585" lon="12.418785"><ele>-3.0</ele><time>2026-04-12T13:32:50.296Z</time></trkpt><trkpt lat="44.900475" lon="12.41882"><ele>-3.0</ele><time>2026-04-12T13:32:51.296Z</time></trkpt><trkpt lat="44.9003733" lon="12.41885"><ele>-3.0</ele><time>2026-04-12T13:32:52.296Z</time></trkpt><trkpt lat="44.90027" lon="12.418885"><ele>-3.0</ele><time>2026-04-12T13:32:53.297Z</time></trkpt><trkpt lat="44.9001717" lon="12.4189167"><ele>-3.0</ele><time>2026-04-12T13:32:54.296Z</time></trkpt><trkpt lat="44.9000683" lon="12.41895"><ele>-3.0</ele><time>2026-04-12T13:32:55.296Z</time></trkpt><trkpt lat="44.8999667" lon="12.41898"><ele>-3.0</ele><time>2026-04-12T13:32:56.296Z</time></trkpt><trkpt lat="44.8998567" lon="12.4190133"><ele>-3.0</ele><time>2026-04-12T13:32:57.296Z</time></trkpt><trkpt lat="44.8997483" lon="12.419045"><ele>-3.0</ele><time>2026-04-12T13:32:58.297Z</time></trkpt><trkpt lat="44.8996433" lon="12.419075"><ele>-3.0</ele><time>2026-04-12T13:32:59.296Z</time></trkpt><trkpt lat="44.8995417" lon="12.4191017"><ele>-3.0</ele><time>2026-04-12T13:33:00.297Z</time></trkpt><trkpt lat="44.899435" lon="12.4191333"><ele>-3.0</ele><time>2026-04-12T13:33:01.296Z</time></trkpt><trkpt lat="44.8993183" lon="12.41917"><ele>-3.0</ele><time>2026-04-12T13:33:02.296Z</time></trkpt><trkpt lat="44.8992033" lon="12.41921"><ele>-3.0</ele><time>2026-04-12T13:33:03.296Z</time></trkpt><trkpt lat="44.899095" lon="12.41924"><ele>-3.0</ele><time>2026-04-12T13:33:04.296Z</time></trkpt><trkpt lat="44.8989967" lon="12.4192683"><ele>-3.0</ele><time>2026-04-12T13:33:05.297Z</time></trkpt><trkpt lat="44.89891" lon="12.419295"><ele>-3.0</ele><time>2026-04-12T13:33:06.297Z</time></trkpt><trkpt lat="44.898835" lon="12.4193183"><ele>-3.0</ele><time>2026-04-12T13:33:07.296Z</time></trkpt><trkpt lat="44.898765" lon="12.4193333"><ele>-3.0</ele><time>2026-04-12T13:33:08.297Z</time></trkpt><trkpt lat="44.898695" lon="12.4193533"><ele>-3.0</ele><time>2026-04-12T13:33:09.296Z</time></trkpt><trkpt lat="44.8986283" lon="12.4193783"><ele>-3.0</ele><time>2026-04-12T13:33:10.296Z</time></trkpt><trkpt lat="44.8985217" lon="12.4194217"><ele>-3.0</ele><time>2026-04-12T13:33:12.296Z</time></trkpt><trkpt lat="44.8984233" lon="12.4194383"><ele>-3.0</ele><time>2026-04-12T13:33:14.296Z</time></trkpt><trkpt lat="44.89833" lon="12.4194133"><ele>-3.0</ele><time>2026-04-12T13:33:16.296Z</time></trkpt><trkpt lat="44.8982583" lon="12.4193717"><ele>-2.8</ele><time>2026-04-12T13:33:36.296Z</time></trkpt><trkpt lat="44.8981633" lon="12.4192517"><ele>-2.5999999999999996</ele><time>2026-04-12T13:33:38.297Z</time></trkpt><trkpt lat="44.8981083" lon="12.4191583"><ele>-2.4000000000000004</ele><time>2026-04-12T13:33:39.297Z</time></trkpt><trkpt lat="44.898055" lon="12.4190617"><ele>-2.2</ele><time>2026-04-12T13:33:40.296Z</time></trkpt><trkpt lat="44.8979983" lon="12.4189617"><ele>-2.0</ele><time>2026-04-12T13:33:41.296Z</time></trkpt><trkpt lat="44.89794" lon="12.4188483"><ele>-2.1666666666666665</ele><time>2026-04-12T13:33:42.296Z</time></trkpt><trkpt lat="44.8978833" lon="12.4187267"><ele>-2.333333333333333</ele><time>2026-04-12T13:33:43.296Z</time></trkpt><trkpt lat="44.8978333" lon="12.418615"><ele>-2.5</ele><time>2026-04-12T13:33:44.296Z</time></trkpt><trkpt lat="44.8977917" lon="12.4185233"><ele>-2.6666666666666665</ele><time>2026-04-12T13:33:45.296Z</time></trkpt><trkpt lat="44.89776" lon="12.418445"><ele>-2.8333333333333335</ele><time>2026-04-12T13:33:46.296Z</time></trkpt><trkpt lat="44.8977083" lon="12.4183117"><ele>-3.0</ele><time>2026-04-12T13:33:48.297Z</time></trkpt><trkpt lat="44.8976567" lon="12.4181817"><ele>-3.0</ele><time>2026-04-12T13:33:50.296Z</time></trkpt><trkpt lat="44.8976067" lon="12.4180517"><ele>-3.0</ele><time>2026-04-12T13:33:52.296Z</time></trkpt><trkpt lat="44.897555" lon="12.4179333"><ele>-3.0</ele><time>2026-04-12T13:33:54.296Z</time></trkpt><trkpt lat="44.8975" lon="12.4178033"><ele>-3.0</ele><time>2026-04-12T13:33:56.296Z</time></trkpt><trkpt lat="44.8974383" lon="12.4176417"><ele>-3.0</ele><time>2026-04-12T13:33:58.296Z</time></trkpt><trkpt lat="44.897405" lon="12.41755"><ele>-2.8333333333333335</ele><time>2026-04-12T13:33:59.296Z</time></trkpt><trkpt lat="44.89737" lon="12.4174633"><ele>-2.6666666666666665</ele><time>2026-04-12T13:34:00.297Z</time></trkpt><trkpt lat="44.89734" lon="12.4173833"><ele>-2.5</ele><time>2026-04-12T13:34:01.296Z</time></trkpt><trkpt lat="44.8972817" lon="12.4172283"><ele>-2.333333333333333</ele><time>2026-04-12T13:34:03.296Z</time></trkpt><trkpt lat="44.8972467" lon="12.4171483"><ele>-2.1666666666666665</ele><time>2026-04-12T13:34:04.296Z</time></trkpt><trkpt lat="44.897215" lon="12.4170667"><ele>-2.0</ele><time>2026-04-12T13:34:05.296Z</time></trkpt><trkpt lat="44.8971833" lon="12.41698"><ele>-2.2857142857142856</ele><time>2026-04-12T13:34:06.297Z</time></trkpt><trkpt lat="44.8971517" lon="12.4168933"><ele>-2.571428571428571</ele><time>2026-04-12T13:34:07.297Z</time></trkpt><trkpt lat="44.897115" lon="12.4168067"><ele>-2.8571428571428568</ele><time>2026-04-12T13:34:08.297Z</time></trkpt><trkpt lat="44.8970767" lon="12.4167233"><ele>-3.142857142857143</ele><time>2026-04-12T13:34:09.296Z</time></trkpt><trkpt lat="44.89704" lon="12.4166367"><ele>-3.428571428571428</ele><time>2026-04-12T13:34:10.296Z</time></trkpt><trkpt lat="44.8970083" lon="12.4165517"><ele>-3.714285714285714</ele><time>2026-04-12T13:34:11.296Z</time></trkpt><trkpt lat="44.8969717" lon="12.416465"><ele>-4.0</ele><time>2026-04-12T13:34:12.296Z</time></trkpt><trkpt lat="44.896935" lon="12.4163733"><ele>-4.2</ele><time>2026-04-12T13:34:13.296Z</time></trkpt><trkpt lat="44.8968967" lon="12.4162667"><ele>-4.4</ele><time>2026-04-12T13:34:14.296Z</time></trkpt><trkpt lat="44.896855" lon="12.416155"><ele>-4.6</ele><time>2026-04-12T13:34:15.297Z</time></trkpt><trkpt lat="44.8968117" lon="12.4160333"><ele>-4.8</ele><time>2026-04-12T13:34:16.296Z</time></trkpt><trkpt lat="44.896765" lon="12.4159117"><ele>-5.0</ele><time>2026-04-12T13:34:17.296Z</time></trkpt><trkpt lat="44.8967233" lon="12.4157917"><ele>-4.333333333333334</ele><time>2026-04-12T13:34:18.296Z</time></trkpt><trkpt lat="44.8966833" lon="12.415685"><ele>-3.666666666666667</ele><time>2026-04-12T13:34:19.296Z</time></trkpt><trkpt lat="44.896645" lon="12.4155767"><ele>-3.0</ele><time>2026-04-12T13:34:20.297Z</time></trkpt><trkpt lat="44.8966083" lon="12.41547"><ele>-2.3333333333333335</ele><time>2026-04-12T13:34:21.296Z</time></trkpt><trkpt lat="44.8965717" lon="12.4153567"><ele>-1.6666666666666665</ele><time>2026-04-12T13:34:22.296Z</time></trkpt><trkpt lat="44.89653" lon="12.41524"><ele>-1.0</ele><time>2026-04-12T13:34:23.296Z</time></trkpt><trkpt lat="44.8964833" lon="12.415115"><ele>-1.0</ele><time>2026-04-12T13:34:24.296Z</time></trkpt><trkpt lat="44.8964367" lon="12.4149883"><ele>-1.0</ele><time>2026-04-12T13:34:25.296Z</time></trkpt><trkpt lat="44.8963817" lon="12.4148533"><ele>-1.0</ele><time>2026-04-12T13:34:26.296Z</time></trkpt><trkpt lat="44.896335" lon="12.4147217"><ele>-1.0</ele><time>2026-04-12T13:34:27.296Z</time></trkpt><trkpt lat="44.8962933" lon="12.414595"><ele>-1.0</ele><time>2026-04-12T13:34:28.296Z</time></trkpt><trkpt lat="44.8962467" lon="12.4144783"><ele>-1.4</ele><time>2026-04-12T13:34:29.296Z</time></trkpt><trkpt lat="44.896205" lon="12.414365"><ele>-1.8</ele><time>2026-04-12T13:34:30.297Z</time></trkpt><trkpt lat="44.896165" lon="12.414255"><ele>-2.1999999999999997</ele><time>2026-04-12T13:34:31.296Z</time></trkpt><trkpt lat="44.8961267" lon="12.41414"><ele>-2.6</ele><time>2026-04-12T13:34:32.296Z</time></trkpt><trkpt lat="44.8960883" lon="12.41402"><ele>-3.0</ele><time>2026-04-12T13:34:33.296Z</time></trkpt><trkpt lat="44.8960467" lon="12.4138967"><ele>-2.8</ele><time>2026-04-12T13:34:34.296Z</time></trkpt><trkpt lat="44.8960067" lon="12.4137733"><ele>-2.5999999999999996</ele><time>2026-04-12T13:34:35.296Z</time></trkpt><trkpt lat="44.895965" lon="12.413645"><ele>-2.4000000000000004</ele><time>2026-04-12T13:34:36.296Z</time></trkpt><trkpt lat="44.8959217" lon="12.4135167"><ele>-2.2</ele><time>2026-04-12T13:34:37.297Z</time></trkpt><trkpt lat="44.8958783" lon="12.4133833"><ele>-2.0</ele><time>2026-04-12T13:34:38.296Z</time></trkpt><trkpt lat="44.8958317" lon="12.4132483"><ele>-2.0</ele><time>2026-04-12T13:34:39.296Z</time></trkpt><trkpt lat="44.8957833" lon="12.413115"><ele>-2.0</ele><time>2026-04-12T13:34:40.297Z</time></trkpt><trkpt lat="44.895735" lon="12.4129867"><ele>-2.0</ele><time>2026-04-12T13:34:41.297Z</time></trkpt><trkpt lat="44.8956867" lon="12.4128567"><ele>-2.0</ele><time>2026-04-12T13:34:42.296Z</time></trkpt><trkpt lat="44.8956383" lon="12.412725"><ele>-2.0</ele><time>2026-04-12T13:34:43.296Z</time></trkpt><trkpt lat="44.89559" lon="12.4125933"><ele>-2.0</ele><time>2026-04-12T13:34:44.296Z</time></trkpt><trkpt lat="44.8955333" lon="12.412465"><ele>-2.0</ele><time>2026-04-12T13:34:45.297Z</time></trkpt><trkpt lat="44.89548" lon="12.4123367"><ele>-2.0</ele><time>2026-04-12T13:34:46.296Z</time></trkpt><trkpt lat="44.895425" lon="12.4122083"><ele>-2.0</ele><time>2026-04-12T13:34:47.296Z</time></trkpt><trkpt lat="44.8953683" lon="12.4120833"><ele>-2.0</ele><time>2026-04-12T13:34:48.296Z</time></trkpt><trkpt lat="44.89531" lon="12.4119567"><ele>-2.0</ele><time>2026-04-12T13:34:49.296Z</time></trkpt><trkpt lat="44.895255" lon="12.411825"><ele>-2.0</ele><time>2026-04-12T13:34:50.296Z</time></trkpt><trkpt lat="44.8952" lon="12.4116933"><ele>-2.0</ele><time>2026-04-12T13:34:51.297Z</time></trkpt><trkpt lat="44.895145" lon="12.411555"><ele>-2.0</ele><time>2026-04-12T13:34:52.297Z</time></trkpt><trkpt lat="44.895085" lon="12.4114167"><ele>-2.0</ele><time>2026-04-12T13:34:53.296Z</time></trkpt><trkpt lat="44.89502" lon="12.411275"><ele>-2.0</ele><time>2026-04-12T13:34:54.297Z</time></trkpt><trkpt lat="44.8949617" lon="12.4111283"><ele>-2.0</ele><time>2026-04-12T13:34:55.297Z</time></trkpt><trkpt lat="44.8949017" lon="12.4109883"><ele>-2.0</ele><time>2026-04-12T13:34:56.296Z</time></trkpt><trkpt lat="44.894845" lon="12.41085"><ele>-2.0</ele><time>2026-04-12T13:34:57.296Z</time></trkpt><trkpt lat="44.8947817" lon="12.4107167"><ele>-2.0</ele><time>2026-04-12T13:34:58.297Z</time></trkpt><trkpt lat="44.8947167" lon="12.4105783"><ele>-2.0</ele><time>2026-04-12T13:34:59.296Z</time></trkpt><trkpt lat="44.8946533" lon="12.410435"><ele>-2.0</ele><time>2026-04-12T13:35:00.297Z</time></trkpt><trkpt lat="44.894595" lon="12.410305"><ele>-2.0</ele><time>2026-04-12T13:35:01.296Z</time></trkpt><trkpt lat="44.89454" lon="12.41018"><ele>-2.2</ele><time>2026-04-12T13:35:02.296Z</time></trkpt><trkpt lat="44.8944883" lon="12.4100567"><ele>-2.4000000000000004</ele><time>2026-04-12T13:35:03.296Z</time></trkpt><trkpt lat="44.894445" lon="12.4099283"><ele>-2.5999999999999996</ele><time>2026-04-12T13:35:04.296Z</time></trkpt><trkpt lat="44.8944133" lon="12.4097883"><ele>-2.8</ele><time>2026-04-12T13:35:05.297Z</time></trkpt><trkpt lat="44.8944033" lon="12.4096333"><ele>-3.0</ele><time>2026-04-12T13:35:06.297Z</time></trkpt><trkpt lat="44.8944183" lon="12.40947"><ele>-3.0</ele><time>2026-04-12T13:35:07.296Z</time></trkpt><trkpt lat="44.89446" lon="12.40928"><ele>-3.0</ele><time>2026-04-12T13:35:08.296Z</time></trkpt><trkpt lat="44.89452" lon="12.40908"><ele>-3.0</ele><time>2026-04-12T13:35:09.296Z</time></trkpt><trkpt lat="44.8945833" lon="12.40889"><ele>-3.0</ele><time>2026-04-12T13:35:10.297Z</time></trkpt><trkpt lat="44.8946417" lon="12.408705"><ele>-3.0</ele><time>2026-04-12T13:35:11.296Z</time></trkpt><trkpt lat="44.8946967" lon="12.4085383"><ele>-3.0</ele><time>2026-04-12T13:35:12.297Z</time></trkpt><trkpt lat="44.8947333" lon="12.4083767"><ele>-3.0</ele><time>2026-04-12T13:35:13.296Z</time></trkpt><trkpt lat="44.8947517" lon="12.40822"><ele>-3.0</ele><time>2026-04-12T13:35:14.296Z</time></trkpt><trkpt lat="44.8947567" lon="12.4080683"><ele>-2.8</ele><time>2026-04-12T13:35:15.296Z</time></trkpt><trkpt lat="44.894755" lon="12.407915"><ele>-2.5999999999999996</ele><time>2026-04-12T13:35:16.296Z</time></trkpt><trkpt lat="44.8947467" lon="12.407765"><ele>-2.4000000000000004</ele><time>2026-04-12T13:35:17.296Z</time></trkpt><trkpt lat="44.8947367" lon="12.4076217"><ele>-2.2</ele><time>2026-04-12T13:35:18.297Z</time></trkpt><trkpt lat="44.8947283" lon="12.4074817"><ele>-2.0</ele><time>2026-04-12T13:35:19.296Z</time></trkpt><trkpt lat="44.8947167" lon="12.4073517"><ele>-2.0</ele><time>2026-04-12T13:35:20.296Z</time></trkpt><trkpt lat="44.8947067" lon="12.4072217"><ele>-2.0</ele><time>2026-04-12T13:35:21.296Z</time></trkpt><trkpt lat="44.8946983" lon="12.407085"><ele>-2.0</ele><time>2026-04-12T13:35:22.296Z</time></trkpt><trkpt lat="44.89469" lon="12.4069517"><ele>-2.0</ele><time>2026-04-12T13:35:23.297Z</time></trkpt><trkpt lat="44.8946833" lon="12.4068183"><ele>-2.0</ele><time>2026-04-12T13:35:24.296Z</time></trkpt><trkpt lat="44.8946717" lon="12.4066833"><ele>-2.0</ele><time>2026-04-12T13:35:25.296Z</time></trkpt><trkpt lat="44.8946617" lon="12.4065417"><ele>-2.0</ele><time>2026-04-12T13:35:26.296Z</time></trkpt><trkpt lat="44.894655" lon="12.4064"><ele>-2.0</ele><time>2026-04-12T13:35:27.296Z</time></trkpt><trkpt lat="44.89465" lon="12.4062517"><ele>-2.0</ele><time>2026-04-12T13:35:28.297Z</time></trkpt><trkpt lat="44.8946433" lon="12.406105"><ele>-2.0</ele><time>2026-04-12T13:35:29.296Z</time></trkpt><trkpt lat="44.8946333" lon="12.4059633"><ele>-2.2</ele><time>2026-04-12T13:35:30.296Z</time></trkpt><trkpt lat="44.8946267" lon="12.4058117"><ele>-2.4000000000000004</ele><time>2026-04-12T13:35:31.296Z</time></trkpt><trkpt lat="44.894615" lon="12.4056633"><ele>-2.5999999999999996</ele><time>2026-04-12T13:35:32.296Z</time></trkpt><trkpt lat="44.8946067" lon="12.4055067"><ele>-2.8</ele><time>2026-04-12T13:35:33.297Z</time></trkpt><trkpt lat="44.8946" lon="12.4053583"><ele>-3.0</ele><time>2026-04-12T13:35:34.296Z</time></trkpt><trkpt lat="44.8945917" lon="12.40521"><ele>-3.0</ele><time>2026-04-12T13:35:35.296Z</time></trkpt><trkpt lat="44.894585" lon="12.405065"><ele>-3.0</ele><time>2026-04-12T13:35:36.296Z</time></trkpt><trkpt lat="44.8945767" lon="12.4049333"><ele>-3.0</ele><time>2026-04-12T13:35:37.296Z</time></trkpt><trkpt lat="44.8945617" lon="12.4048083"><ele>-3.0</ele><time>2026-04-12T13:35:38.296Z</time></trkpt><trkpt lat="44.894535" lon="12.404695"><ele>-3.0</ele><time>2026-04-12T13:35:39.297Z</time></trkpt><trkpt lat="44.894495" lon="12.4046083"><ele>-3.0</ele><time>2026-04-12T13:35:40.296Z</time></trkpt><trkpt lat="44.894445" lon="12.4045383"><ele>-2.8333333333333335</ele><time>2026-04-12T13:35:41.296Z</time></trkpt><trkpt lat="44.8943933" lon="12.404475"><ele>-2.6666666666666665</ele><time>2026-04-12T13:35:42.297Z</time></trkpt><trkpt lat="44.8943317" lon="12.4044083"><ele>-2.5</ele><time>2026-04-12T13:35:43.296Z</time></trkpt><trkpt lat="44.8942683" lon="12.4043333"><ele>-2.333333333333333</ele><time>2026-04-12T13:35:44.296Z</time></trkpt><trkpt lat="44.8942017" lon="12.4042533"><ele>-2.1666666666666665</ele><time>2026-04-12T13:35:45.296Z</time></trkpt><trkpt lat="44.8941267" lon="12.4041633"><ele>-2.0</ele><time>2026-04-12T13:35:46.296Z</time></trkpt><trkpt lat="44.8940483" lon="12.4040667"><ele>-2.0</ele><time>2026-04-12T13:35:47.296Z</time></trkpt><trkpt lat="44.893965" lon="12.4039733"><ele>-2.0</ele><time>2026-04-12T13:35:48.296Z</time></trkpt><trkpt lat="44.8938817" lon="12.4038783"><ele>-2.0</ele><time>2026-04-12T13:35:49.296Z</time></trkpt><trkpt lat="44.8937967" lon="12.4037767"><ele>-2.0</ele><time>2026-04-12T13:35:50.297Z</time></trkpt><trkpt lat="44.8937033" lon="12.4036717"><ele>-2.0</ele><time>2026-04-12T13:35:51.296Z</time></trkpt><trkpt lat="44.8936067" lon="12.40356"><ele>-2.0</ele><time>2026-04-12T13:35:52.296Z</time></trkpt><trkpt lat="44.8935083" lon="12.4034517"><ele>-2.0</ele><time>2026-04-12T13:35:53.297Z</time></trkpt><trkpt lat="44.89341" lon="12.4033367"><ele>-2.0</ele><time>2026-04-12T13:35:54.296Z</time></trkpt><trkpt lat="44.8933117" lon="12.4032233"><ele>-2.0</ele><time>2026-04-12T13:35:55.297Z</time></trkpt><trkpt lat="44.8932183" lon="12.4031083"><ele>-1.75</ele><time>2026-04-12T13:35:56.296Z</time></trkpt><trkpt lat="44.8931267" lon="12.4030033"><ele>-1.5</ele><time>2026-04-12T13:35:57.296Z</time></trkpt><trkpt lat="44.89303" lon="12.4029"><ele>-1.25</ele><time>2026-04-12T13:35:58.296Z</time></trkpt><trkpt lat="44.892935" lon="12.4027933"><ele>-1.0</ele><time>2026-04-12T13:35:59.296Z</time></trkpt><trkpt lat="44.8928417" lon="12.4026817"><ele>-1.0</ele><time>2026-04-12T13:36:00.297Z</time></trkpt><trkpt lat="44.89274" lon="12.4025633"><ele>-1.0</ele><time>2026-04-12T13:36:01.296Z</time></trkpt><trkpt lat="44.892645" lon="12.4024433"><ele>-1.0</ele><time>2026-04-12T13:36:02.296Z</time></trkpt><trkpt lat="44.8925433" lon="12.4023217"><ele>-1.0</ele><time>2026-04-12T13:36:03.296Z</time></trkpt><trkpt lat="44.8924383" lon="12.4021967"><ele>-1.0</ele><time>2026-04-12T13:36:04.296Z</time></trkpt><trkpt lat="44.8923317" lon="12.4020733"><ele>-1.0</ele><time>2026-04-12T13:36:05.296Z</time></trkpt><trkpt lat="44.8922283" lon="12.4019467"><ele>-1.0</ele><time>2026-04-12T13:36:06.296Z</time></trkpt><trkpt lat="44.8921283" lon="12.4018283"><ele>-1.0</ele><time>2026-04-12T13:36:07.296Z</time></trkpt><trkpt lat="44.8920367" lon="12.4017217"><ele>-1.0</ele><time>2026-04-12T13:36:08.297Z</time></trkpt><trkpt lat="44.8919517" lon="12.4016183"><ele>-1.0</ele><time>2026-04-12T13:36:09.296Z</time></trkpt><trkpt lat="44.89187" lon="12.4015267"><ele>-1.0</ele><time>2026-04-12T13:36:10.297Z</time></trkpt><trkpt lat="44.8917917" lon="12.4014383"><ele>-1.0</ele><time>2026-04-12T13:36:11.296Z</time></trkpt><trkpt lat="44.8917167" lon="12.4013483"><ele>-1.0</ele><time>2026-04-12T13:36:12.296Z</time></trkpt><trkpt lat="44.89164" lon="12.40126"><ele>-1.1666666666666665</ele><time>2026-04-12T13:36:13.297Z</time></trkpt><trkpt lat="44.8915633" lon="12.401175"><ele>-1.3333333333333333</ele><time>2026-04-12T13:36:14.297Z</time></trkpt><trkpt lat="44.8914883" lon="12.4010917"><ele>-1.5</ele><time>2026-04-12T13:36:15.297Z</time></trkpt><trkpt lat="44.891425" lon="12.401015"><ele>-1.6666666666666665</ele><time>2026-04-12T13:36:16.296Z</time></trkpt><trkpt lat="44.8913733" lon="12.40095"><ele>-1.8333333333333333</ele><time>2026-04-12T13:36:17.296Z</time></trkpt><trkpt lat="44.8912967" lon="12.400855"><ele>-2.0</ele><time>2026-04-12T13:36:19.297Z</time></trkpt><trkpt lat="44.89122" lon="12.400785"><ele>-1.9999999999999998</ele><time>2026-04-12T13:36:21.296Z</time></trkpt><trkpt lat="44.8911383" lon="12.4006917"><ele>-2.0</ele><time>2026-04-12T13:36:23.297Z</time></trkpt><trkpt lat="44.8910717" lon="12.4006"><ele>-2.0</ele><time>2026-04-12T13:36:25.296Z</time></trkpt><trkpt lat="44.89102" lon="12.4005083"><ele>-2.0</ele><time>2026-04-12T13:36:27.296Z</time></trkpt><trkpt lat="44.8909817" lon="12.40042"><ele>-1.9999999999999998</ele><time>2026-04-12T13:36:29.296Z</time></trkpt><trkpt lat="44.8909367" lon="12.4003433"><ele>-2.0</ele><time>2026-04-12T13:36:32.296Z</time></trkpt><trkpt lat="44.8909017" lon="12.4002517"><ele>-1.857142857142857</ele><time>2026-04-12T13:36:36.296Z</time></trkpt><trkpt lat="44.8908417" lon="12.40022"><ele>-1.714285714285714</ele><time>2026-04-12T13:37:17.297Z</time></trkpt><trkpt lat="44.890835" lon="12.4003117"><ele>-1.5714285714285714</ele><time>2026-04-12T13:37:20.296Z</time></trkpt><trkpt lat="44.890905" lon="12.4003667"><ele>-1.4285714285714284</ele><time>2026-04-12T13:37:22.296Z</time></trkpt><trkpt lat="44.8909667" lon="12.4003883"><ele>-1.2857142857142856</ele><time>2026-04-12T13:37:24.296Z</time></trkpt><trkpt lat="44.8910367" lon="12.400325"><ele>-1.1428571428571428</ele><time>2026-04-12T13:37:27.296Z</time></trkpt><trkpt lat="44.891045" lon="12.4002183"><ele>-1.0</ele><time>2026-04-12T13:37:29.296Z</time></trkpt><trkpt lat="44.89106" lon="12.4000817"><ele>-1.0</ele><time>2026-04-12T13:37:41.296Z</time></trkpt><trkpt lat="44.8911533" lon="12.40006"><ele>-1.0</ele><time>2026-04-12T13:37:44.296Z</time></trkpt><trkpt lat="44.8912083" lon="12.4001333"><ele>-1.0</ele><time>2026-04-12T13:37:47.296Z</time></trkpt><trkpt lat="44.89109" lon="12.4000117"><ele>-1.0</ele><time>2026-04-12T13:43:26.296Z</time></trkpt></trkseg><trkseg><trkpt lat="44.8876233" lon="12.4017683"><ele>0.75</ele><time>2026-04-12T13:54:22.308Z</time></trkpt><trkpt lat="44.8875217" lon="12.4018967"><ele>0.5</ele><time>2026-04-12T13:54:23.309Z</time></trkpt><trkpt lat="44.8874167" lon="12.4020283"><ele>0.25</ele><time>2026-04-12T13:54:24.308Z</time></trkpt><trkpt lat="44.887305" lon="12.402165"><ele>0.0</ele><time>2026-04-12T13:54:25.308Z</time></trkpt><trkpt lat="44.8871917" lon="12.4023"><ele>0.0</ele><time>2026-04-12T13:54:26.308Z</time></trkpt><trkpt lat="44.887085" lon="12.402425"><ele>0.0</ele><time>2026-04-12T13:54:27.308Z</time></trkpt><trkpt lat="44.8869867" lon="12.4025417"><ele>0.0</ele><time>2026-04-12T13:54:28.308Z</time></trkpt><trkpt lat="44.8868883" lon="12.402665"><ele>0.0</ele><time>2026-04-12T13:54:29.308Z</time></trkpt><trkpt lat="44.886785" lon="12.4027917"><ele>0.0</ele><time>2026-04-12T13:54:30.308Z</time></trkpt><trkpt lat="44.8866833" lon="12.4029283"><ele>0.0</ele><time>2026-04-12T13:54:31.309Z</time></trkpt><trkpt lat="44.886585" lon="12.4030667"><ele>0.0</ele><time>2026-04-12T13:54:32.308Z</time></trkpt><trkpt lat="44.88649" lon="12.40322"><ele>0.0</ele><time>2026-04-12T13:54:33.309Z</time></trkpt><trkpt lat="44.8863983" lon="12.4033667"><ele>0.0</ele><time>2026-04-12T13:54:34.308Z</time></trkpt><trkpt lat="44.8863183" lon="12.4035033"><ele>0.0</ele><time>2026-04-12T13:54:35.309Z</time></trkpt><trkpt lat="44.8862333" lon="12.4036367"><ele>0.0</ele><time>2026-04-12T13:54:36.309Z</time></trkpt><trkpt lat="44.886155" lon="12.4037667"><ele>0.0</ele><time>2026-04-12T13:54:37.308Z</time></trkpt><trkpt lat="44.8860817" lon="12.4038867"><ele>0.0</ele><time>2026-04-12T13:54:38.308Z</time></trkpt><trkpt lat="44.8860067" lon="12.4039933"><ele>0.0</ele><time>2026-04-12T13:54:39.308Z</time></trkpt><trkpt lat="44.8859367" lon="12.40409"><ele>0.0</ele><time>2026-04-12T13:54:40.309Z</time></trkpt><trkpt lat="44.88586" lon="12.4041783"><ele>0.0</ele><time>2026-04-12T13:54:41.308Z</time></trkpt><trkpt lat="44.88578" lon="12.4042683"><ele>0.0</ele><time>2026-04-12T13:54:42.309Z</time></trkpt><trkpt lat="44.8856883" lon="12.404325"><ele>0.16666666666666666</ele><time>2026-04-12T13:54:43.308Z</time></trkpt><trkpt lat="44.885605" lon="12.40436"><ele>0.3333333333333333</ele><time>2026-04-12T13:54:44.308Z</time></trkpt><trkpt lat="44.8855317" lon="12.40439"><ele>0.5</ele><time>2026-04-12T13:54:45.308Z</time></trkpt><trkpt lat="44.885465" lon="12.40441"><ele>0.6666666666666666</ele><time>2026-04-12T13:54:46.308Z</time></trkpt><trkpt lat="44.885365" lon="12.4044283"><ele>0.8333333333333333</ele><time>2026-04-12T13:54:48.308Z</time></trkpt><trkpt lat="44.8852767" lon="12.4043933"><ele>1.0</ele><time>2026-04-12T13:54:50.309Z</time></trkpt><trkpt lat="44.8852133" lon="12.4043567"><ele>0.9999999999999999</ele><time>2026-04-12T13:54:52.309Z</time></trkpt><trkpt lat="44.8851767" lon="12.4044417"><ele>1.0</ele><time>2026-04-12T13:54:55.308Z</time></trkpt><trkpt lat="44.88522" lon="12.4045067"><ele>1.0</ele><time>2026-04-12T13:54:57.308Z</time></trkpt><trkpt lat="44.8852733" lon="12.4044417"><ele>1.0</ele><time>2026-04-12T13:55:01.309Z</time></trkpt><trkpt lat="44.8852017" lon="12.4042983"><ele>0.9999999999999999</ele><time>2026-04-12T13:55:17.308Z</time></trkpt><trkpt lat="44.8851667" lon="12.4041933"><ele>1.0</ele><time>2026-04-12T13:55:18.308Z</time></trkpt><trkpt lat="44.885125" lon="12.40407"><ele>0.5</ele><time>2026-04-12T13:55:19.308Z</time></trkpt><trkpt lat="44.8850733" lon="12.4039333"><ele>0.0</ele><time>2026-04-12T13:55:20.308Z</time></trkpt><trkpt lat="44.8850183" lon="12.40377"><ele>-0.5</ele><time>2026-04-12T13:55:21.309Z</time></trkpt><trkpt lat="44.8849533" lon="12.4036183"><ele>-1.0</ele><time>2026-04-12T13:55:22.309Z</time></trkpt><trkpt lat="44.8848867" lon="12.40346"><ele>-1.0</ele><time>2026-04-12T13:55:23.308Z</time></trkpt><trkpt lat="44.8848133" lon="12.403305"><ele>-1.0</ele><time>2026-04-12T13:55:24.308Z</time></trkpt><trkpt lat="44.88474" lon="12.4031533"><ele>-1.0</ele><time>2026-04-12T13:55:25.309Z</time></trkpt><trkpt lat="44.8846633" lon="12.403005"><ele>-1.0</ele><time>2026-04-12T13:55:26.308Z</time></trkpt><trkpt lat="44.8845833" lon="12.40286"><ele>-1.5</ele><time>2026-04-12T13:55:27.308Z</time></trkpt><trkpt lat="44.8845017" lon="12.4027133"><ele>-2.0</ele><time>2026-04-12T13:55:28.309Z</time></trkpt><trkpt lat="44.88442" lon="12.4025483"><ele>-2.5</ele><time>2026-04-12T13:55:29.308Z</time></trkpt><trkpt lat="44.884335" lon="12.4023917"><ele>-3.0</ele><time>2026-04-12T13:55:30.309Z</time></trkpt><trkpt lat="44.8842533" lon="12.4022367"><ele>-2.25</ele><time>2026-04-12T13:55:31.309Z</time></trkpt><trkpt lat="44.8841833" lon="12.4020883"><ele>-1.5</ele><time>2026-04-12T13:55:32.308Z</time></trkpt><trkpt lat="44.884115" lon="12.4019417"><ele>-0.75</ele><time>2026-04-12T13:55:33.309Z</time></trkpt><trkpt lat="44.8840533" lon="12.4017833"><ele>0.0</ele><time>2026-04-12T13:55:34.308Z</time></trkpt><trkpt lat="44.8840017" lon="12.40163"><ele>0.0</ele><time>2026-04-12T13:55:35.308Z</time></trkpt><trkpt lat="44.8839533" lon="12.4014767"><ele>0.0</ele><time>2026-04-12T13:55:36.309Z</time></trkpt><trkpt lat="44.8839083" lon="12.4013333"><ele>0.0</ele><time>2026-04-12T13:55:37.308Z</time></trkpt><trkpt lat="44.8838667" lon="12.4012"><ele>0.0</ele><time>2026-04-12T13:55:38.308Z</time></trkpt><trkpt lat="44.8838217" lon="12.401065"><ele>0.0</ele><time>2026-04-12T13:55:39.308Z</time></trkpt><trkpt lat="44.8837617" lon="12.4009333"><ele>-0.75</ele><time>2026-04-12T13:55:40.308Z</time></trkpt><trkpt lat="44.8836867" lon="12.400805"><ele>-1.5</ele><time>2026-04-12T13:55:41.308Z</time></trkpt><trkpt lat="44.88361" lon="12.4006767"><ele>-2.25</ele><time>2026-04-12T13:55:42.308Z</time></trkpt><trkpt lat="44.8835283" lon="12.4005483"><ele>-3.0</ele><time>2026-04-12T13:55:43.308Z</time></trkpt><trkpt lat="44.883445" lon="12.4004283"><ele>-2.5</ele><time>2026-04-12T13:55:44.309Z</time></trkpt><trkpt lat="44.8833583" lon="12.4003067"><ele>-2.0</ele><time>2026-04-12T13:55:45.309Z</time></trkpt><trkpt lat="44.8832767" lon="12.4001867"><ele>-1.5</ele><time>2026-04-12T13:55:46.308Z</time></trkpt><trkpt lat="44.8831983" lon="12.4000733"><ele>-1.0</ele><time>2026-04-12T13:55:47.308Z</time></trkpt><trkpt lat="44.8831217" lon="12.399975"><ele>-1.0</ele><time>2026-04-12T13:55:48.308Z</time></trkpt><trkpt lat="44.883045" lon="12.3998733"><ele>-1.0</ele><time>2026-04-12T13:55:49.309Z</time></trkpt><trkpt lat="44.8829667" lon="12.3997783"><ele>-1.0</ele><time>2026-04-12T13:55:50.308Z</time></trkpt><trkpt lat="44.882885" lon="12.3996933"><ele>-1.0</ele><time>2026-04-12T13:55:51.308Z</time></trkpt><trkpt lat="44.8827983" lon="12.39961"><ele>-1.0</ele><time>2026-04-12T13:55:52.308Z</time></trkpt><trkpt lat="44.8827067" lon="12.399535"><ele>-1.2000000000000002</ele><time>2026-04-12T13:55:53.308Z</time></trkpt><trkpt lat="44.8826133" lon="12.3994683"><ele>-1.4000000000000001</ele><time>2026-04-12T13:55:54.308Z</time></trkpt><trkpt lat="44.8825133" lon="12.3994183"><ele>-1.6</ele><time>2026-04-12T13:55:55.308Z</time></trkpt><trkpt lat="44.88241" lon="12.399375"><ele>-1.8</ele><time>2026-04-12T13:55:56.308Z</time></trkpt><trkpt lat="44.882295" lon="12.3993283"><ele>-2.0</ele><time>2026-04-12T13:55:57.309Z</time></trkpt><trkpt lat="44.88218" lon="12.3992833"><ele>-2.0</ele><time>2026-04-12T13:55:58.308Z</time></trkpt><trkpt lat="44.882065" lon="12.399235"><ele>-2.0</ele><time>2026-04-12T13:55:59.308Z</time></trkpt><trkpt lat="44.8819667" lon="12.3991833"><ele>-2.0</ele><time>2026-04-12T13:56:00.308Z</time></trkpt><trkpt lat="44.88187" lon="12.3991167"><ele>-2.0</ele><time>2026-04-12T13:56:01.308Z</time></trkpt><trkpt lat="44.8817967" lon="12.39903"><ele>-2.0</ele><time>2026-04-12T13:56:02.308Z</time></trkpt><trkpt lat="44.88173" lon="12.3989317"><ele>-1.4000000000000001</ele><time>2026-04-12T13:56:03.309Z</time></trkpt><trkpt lat="44.8816717" lon="12.3988167"><ele>-0.8000000000000002</ele><time>2026-04-12T13:56:04.308Z</time></trkpt><trkpt lat="44.881625" lon="12.398695"><ele>-0.19999999999999996</ele><time>2026-04-12T13:56:05.308Z</time></trkpt><trkpt lat="44.8815783" lon="12.3985717"><ele>0.4</ele><time>2026-04-12T13:56:06.308Z</time></trkpt><trkpt lat="44.8815283" lon="12.39844"><ele>1.0</ele><time>2026-04-12T13:56:07.308Z</time></trkpt><trkpt lat="44.8814867" lon="12.3983167"><ele>1.0</ele><time>2026-04-12T13:56:08.309Z</time></trkpt><trkpt lat="44.8814467" lon="12.3981967"><ele>1.0</ele><time>2026-04-12T13:56:09.308Z</time></trkpt><trkpt lat="44.88141" lon="12.3980817"><ele>1.0</ele><time>2026-04-12T13:56:10.308Z</time></trkpt><trkpt lat="44.88137" lon="12.3979683"><ele>1.0</ele><time>2026-04-12T13:56:11.309Z</time></trkpt><trkpt lat="44.88133" lon="12.3978517"><ele>1.0</ele><time>2026-04-12T13:56:12.308Z</time></trkpt><trkpt lat="44.8812883" lon="12.3977283"><ele>0.6000000000000001</ele><time>2026-04-12T13:56:13.308Z</time></trkpt><trkpt lat="44.8812483" lon="12.3976033"><ele>0.20000000000000007</ele><time>2026-04-12T13:56:14.308Z</time></trkpt><trkpt lat="44.8812067" lon="12.3974717"><ele>-0.20000000000000007</ele><time>2026-04-12T13:56:15.309Z</time></trkpt><trkpt lat="44.8811667" lon="12.3973333"><ele>-0.6000000000000001</ele><time>2026-04-12T13:56:16.309Z</time></trkpt><trkpt lat="44.8811267" lon="12.3972033"><ele>-1.0</ele><time>2026-04-12T13:56:17.308Z</time></trkpt><trkpt lat="44.881085" lon="12.3970717"><ele>-1.2000000000000002</ele><time>2026-04-12T13:56:18.308Z</time></trkpt><trkpt lat="44.8810367" lon="12.3969433"><ele>-1.4000000000000001</ele><time>2026-04-12T13:56:19.308Z</time></trkpt><trkpt lat="44.8809867" lon="12.3968133"><ele>-1.6</ele><time>2026-04-12T13:56:20.309Z</time></trkpt><trkpt lat="44.8809367" lon="12.39668"><ele>-1.8</ele><time>2026-04-12T13:56:21.308Z</time></trkpt><trkpt lat="44.88089" lon="12.3965467"><ele>-2.0</ele><time>2026-04-12T13:56:22.309Z</time></trkpt><trkpt lat="44.8808367" lon="12.3964117"><ele>-1.8</ele><time>2026-04-12T13:56:23.308Z</time></trkpt><trkpt lat="44.8807883" lon="12.39628"><ele>-1.6</ele><time>2026-04-12T13:56:24.308Z</time></trkpt><trkpt lat="44.8807367" lon="12.3961517"><ele>-1.4000000000000001</ele><time>2026-04-12T13:56:25.308Z</time></trkpt><trkpt lat="44.8806817" lon="12.39602"><ele>-1.2000000000000002</ele><time>2026-04-12T13:56:26.309Z</time></trkpt><trkpt lat="44.880625" lon="12.3958867"><ele>-1.0</ele><time>2026-04-12T13:56:27.308Z</time></trkpt><trkpt lat="44.880565" lon="12.3957517"><ele>-1.0</ele><time>2026-04-12T13:56:28.308Z</time></trkpt><trkpt lat="44.8805017" lon="12.395615"><ele>-1.0</ele><time>2026-04-12T13:56:29.308Z</time></trkpt><trkpt lat="44.880445" lon="12.395485"><ele>-1.0</ele><time>2026-04-12T13:56:30.308Z</time></trkpt><trkpt lat="44.8803867" lon="12.3953533"><ele>-1.0</ele><time>2026-04-12T13:56:31.309Z</time></trkpt><trkpt lat="44.8803283" lon="12.39522"><ele>-1.0</ele><time>2026-04-12T13:56:32.309Z</time></trkpt><trkpt lat="44.8802733" lon="12.395095"><ele>-1.2000000000000002</ele><time>2026-04-12T13:56:33.309Z</time></trkpt><trkpt lat="44.8802183" lon="12.3949717"><ele>-1.4000000000000001</ele><time>2026-04-12T13:56:34.309Z</time></trkpt><trkpt lat="44.880165" lon="12.3948517"><ele>-1.6</ele><time>2026-04-12T13:56:35.308Z</time></trkpt><trkpt lat="44.88011" lon="12.3947283"><ele>-1.8</ele><time>2026-04-12T13:56:36.308Z</time></trkpt><trkpt lat="44.8800567" lon="12.3945967"><ele>-2.0</ele><time>2026-04-12T13:56:37.309Z</time></trkpt><trkpt lat="44.8800033" lon="12.394475"><ele>-2.0</ele><time>2026-04-12T13:56:38.309Z</time></trkpt><trkpt lat="44.8799517" lon="12.3943583"><ele>-2.0</ele><time>2026-04-12T13:56:39.308Z</time></trkpt><trkpt lat="44.8799017" lon="12.3942467"><ele>-2.0</ele><time>2026-04-12T13:56:40.309Z</time></trkpt><trkpt lat="44.8798517" lon="12.39413"><ele>-2.0</ele><time>2026-04-12T13:56:41.308Z</time></trkpt><trkpt lat="44.8798033" lon="12.3940133"><ele>-2.0</ele><time>2026-04-12T13:56:42.309Z</time></trkpt><trkpt lat="44.879755" lon="12.3939017"><ele>-1.9999999999999998</ele><time>2026-04-12T13:56:43.309Z</time></trkpt><trkpt lat="44.879705" lon="12.3937967"><ele>-2.0</ele><time>2026-04-12T13:56:44.308Z</time></trkpt><trkpt lat="44.8796483" lon="12.393695"><ele>-2.0</ele><time>2026-04-12T13:56:45.309Z</time></trkpt><trkpt lat="44.87959" lon="12.3936"><ele>-2.0</ele><time>2026-04-12T13:56:46.308Z</time></trkpt><trkpt lat="44.87953" lon="12.3935117"><ele>-1.9999999999999998</ele><time>2026-04-12T13:56:47.308Z</time></trkpt><trkpt lat="44.8794667" lon="12.3934283"><ele>-2.0</ele><time>2026-04-12T13:56:48.308Z</time></trkpt><trkpt lat="44.8793967" lon="12.3933533"><ele>-1.9999999999999998</ele><time>2026-04-12T13:56:49.308Z</time></trkpt><trkpt lat="44.879325" lon="12.3932783"><ele>-2.0</ele><time>2026-04-12T13:56:50.308Z</time></trkpt><trkpt lat="44.879265" lon="12.393215"><ele>-2.0</ele><time>2026-04-12T13:56:51.308Z</time></trkpt><trkpt lat="44.879205" lon="12.393155"><ele>-2.0</ele><time>2026-04-12T13:56:52.308Z</time></trkpt><trkpt lat="44.8791483" lon="12.393095"><ele>-1.9999999999999998</ele><time>2026-04-12T13:56:53.308Z</time></trkpt><trkpt lat="44.879095" lon="12.3930417"><ele>-2.0</ele><time>2026-04-12T13:56:54.309Z</time></trkpt><trkpt lat="44.8790167" lon="12.3929533"><ele>-1.9999999999999998</ele><time>2026-04-12T13:56:56.308Z</time></trkpt><trkpt lat="44.879005" lon="12.392855"><ele>-2.0</ele><time>2026-04-12T13:56:58.308Z</time></trkpt><trkpt lat="44.87905" lon="12.39278"><ele>-2.0</ele><time>2026-04-12T13:57:00.308Z</time></trkpt><trkpt lat="44.87916" lon="12.3926933"><ele>-2.0</ele><time>2026-04-12T13:57:02.308Z</time></trkpt><trkpt lat="44.87923" lon="12.3926483"><ele>-1.9999999999999998</ele><time>2026-04-12T13:57:03.308Z</time></trkpt><trkpt lat="44.8793117" lon="12.3925983"><ele>-2.0</ele><time>2026-04-12T13:57:04.308Z</time></trkpt><trkpt lat="44.8794133" lon="12.3925383"><ele>-2.0</ele><time>2026-04-12T13:57:05.308Z</time></trkpt><trkpt lat="44.879525" lon="12.39247"><ele>-2.0</ele><time>2026-04-12T13:57:06.308Z</time></trkpt><trkpt lat="44.8796417" lon="12.3923967"><ele>-2.0</ele><time>2026-04-12T13:57:07.308Z</time></trkpt><trkpt lat="44.87976" lon="12.3923283"><ele>-2.0</ele><time>2026-04-12T13:57:08.308Z</time></trkpt><trkpt lat="44.8798833" lon="12.3922533"><ele>-2.333333333333333</ele><time>2026-04-12T13:57:09.308Z</time></trkpt><trkpt lat="44.8800167" lon="12.3921683"><ele>-2.6666666666666665</ele><time>2026-04-12T13:57:10.308Z</time></trkpt><trkpt lat="44.8801533" lon="12.3920767"><ele>-3.0</ele><time>2026-04-12T13:57:11.308Z</time></trkpt><trkpt lat="44.880295" lon="12.3919883"><ele>-3.333333333333333</ele><time>2026-04-12T13:57:12.308Z</time></trkpt><trkpt lat="44.88045" lon="12.391905"><ele>-3.6666666666666665</ele><time>2026-04-12T13:57:13.308Z</time></trkpt><trkpt lat="44.8806" lon="12.3918017"><ele>-4.0</ele><time>2026-04-12T13:57:14.308Z</time></trkpt><trkpt lat="44.8807517" lon="12.3916983"><ele>-4.0</ele><time>2026-04-12T13:57:15.308Z</time></trkpt><trkpt lat="44.8808967" lon="12.3916033"><ele>-4.0</ele><time>2026-04-12T13:57:16.308Z</time></trkpt><trkpt lat="44.881045" lon="12.3915083"><ele>-4.0</ele><time>2026-04-12T13:57:17.308Z</time></trkpt><trkpt lat="44.8811933" lon="12.3914183"><ele>-3.6666666666666665</ele><time>2026-04-12T13:57:18.308Z</time></trkpt><trkpt lat="44.8813417" lon="12.3913167"><ele>-3.333333333333333</ele><time>2026-04-12T13:57:19.309Z</time></trkpt><trkpt lat="44.8814917" lon="12.39121"><ele>-3.0</ele><time>2026-04-12T13:57:20.309Z</time></trkpt><trkpt lat="44.8816533" lon="12.391125"><ele>-3.333333333333333</ele><time>2026-04-12T13:57:21.308Z</time></trkpt><trkpt lat="44.8818083" lon="12.3910367"><ele>-3.6666666666666665</ele><time>2026-04-12T13:57:22.308Z</time></trkpt><trkpt lat="44.8819683" lon="12.3909317"><ele>-4.0</ele><time>2026-04-12T13:57:23.308Z</time></trkpt><trkpt lat="44.88212" lon="12.390825"><ele>-4.0</ele><time>2026-04-12T13:57:24.308Z</time></trkpt><trkpt lat="44.8822783" lon="12.390715"><ele>-4.0</ele><time>2026-04-12T13:57:25.308Z</time></trkpt><trkpt lat="44.8824417" lon="12.3906167"><ele>-4.0</ele><time>2026-04-12T13:57:26.309Z</time></trkpt><trkpt lat="44.8826033" lon="12.3905067"><ele>-4.0</ele><time>2026-04-12T13:57:27.308Z</time></trkpt><trkpt lat="44.8827483" lon="12.3903783"><ele>-4.0</ele><time>2026-04-12T13:57:28.308Z</time></trkpt><trkpt lat="44.8829133" lon="12.3902783"><ele>-4.0</ele><time>2026-04-12T13:57:29.308Z</time></trkpt><trkpt lat="44.8830783" lon="12.3901817"><ele>-4.0</ele><time>2026-04-12T13:57:30.308Z</time></trkpt><trkpt lat="44.8832417" lon="12.3900767"><ele>-4.0</ele><time>2026-04-12T13:57:31.308Z</time></trkpt><trkpt lat="44.8834017" lon="12.38997"><ele>-4.0</ele><time>2026-04-12T13:57:32.308Z</time></trkpt><trkpt lat="44.8835683" lon="12.3898667"><ele>-3.6666666666666665</ele><time>2026-04-12T13:57:33.308Z</time></trkpt><trkpt lat="44.8837417" lon="12.3897567"><ele>-3.333333333333333</ele><time>2026-04-12T13:57:34.308Z</time></trkpt><trkpt lat="44.8839133" lon="12.3896383"><ele>-3.0</ele><time>2026-04-12T13:57:35.308Z</time></trkpt><trkpt lat="44.8840933" lon="12.38952"><ele>-3.333333333333333</ele><time>2026-04-12T13:57:36.308Z</time></trkpt><trkpt lat="44.8842667" lon="12.389405"><ele>-3.6666666666666665</ele><time>2026-04-12T13:57:37.308Z</time></trkpt><trkpt lat="44.8844367" lon="12.389295"><ele>-4.0</ele><time>2026-04-12T13:57:38.309Z</time></trkpt><trkpt lat="44.88461" lon="12.38919"><ele>-4.0</ele><time>2026-04-12T13:57:39.309Z</time></trkpt><trkpt lat="44.8847883" lon="12.389085"><ele>-4.0</ele><time>2026-04-12T13:57:40.308Z</time></trkpt><trkpt lat="44.88495" lon="12.3889817"><ele>-4.0</ele><time>2026-04-12T13:57:41.308Z</time></trkpt><trkpt lat="44.88512" lon="12.3888717"><ele>-4.0</ele><time>2026-04-12T13:57:42.309Z</time></trkpt><trkpt lat="44.8852883" lon="12.3887683"><ele>-4.0</ele><time>2026-04-12T13:57:43.308Z</time></trkpt><trkpt lat="44.8854567" lon="12.3886467"><ele>-4.0</ele><time>2026-04-12T13:57:44.308Z</time></trkpt><trkpt lat="44.8856267" lon="12.3885383"><ele>-4.0</ele><time>2026-04-12T13:57:45.309Z</time></trkpt><trkpt lat="44.8857983" lon="12.388425"><ele>-4.0</ele><time>2026-04-12T13:57:46.308Z</time></trkpt><trkpt lat="44.88597" lon="12.3883083"><ele>-4.0</ele><time>2026-04-12T13:57:47.308Z</time></trkpt><trkpt lat="44.8861517" lon="12.388185"><ele>-4.0</ele><time>2026-04-12T13:57:48.308Z</time></trkpt><trkpt lat="44.886335" lon="12.3880717"><ele>-4.0</ele><time>2026-04-12T13:57:49.308Z</time></trkpt><trkpt lat="44.886515" lon="12.3879583"><ele>-4.0</ele><time>2026-04-12T13:57:50.308Z</time></trkpt><trkpt lat="44.886695" lon="12.38785"><ele>-4.0</ele><time>2026-04-12T13:57:51.308Z</time></trkpt><trkpt lat="44.88688" lon="12.38773"><ele>-4.0</ele><time>2026-04-12T13:57:52.309Z</time></trkpt><trkpt lat="44.8870733" lon="12.38761"><ele>-4.0</ele><time>2026-04-12T13:57:53.309Z</time></trkpt><trkpt lat="44.8872667" lon="12.3874867"><ele>-4.0</ele><time>2026-04-12T13:57:54.308Z</time></trkpt><trkpt lat="44.8874633" lon="12.3873533"><ele>-4.0</ele><time>2026-04-12T13:57:55.308Z</time></trkpt><trkpt lat="44.887655" lon="12.3872283"><ele>-4.0</ele><time>2026-04-12T13:57:56.309Z</time></trkpt><trkpt lat="44.8878367" lon="12.387115"><ele>-4.0</ele><time>2026-04-12T13:57:57.308Z</time></trkpt><trkpt lat="44.8880083" lon="12.3870083"><ele>-4.0</ele><time>2026-04-12T13:57:58.308Z</time></trkpt><trkpt lat="44.8881767" lon="12.3868983"><ele>-4.0</ele><time>2026-04-12T13:57:59.308Z</time></trkpt><trkpt lat="44.8883483" lon="12.3867883"><ele>-4.666666666666666</ele><time>2026-04-12T13:58:00.308Z</time></trkpt><trkpt lat="44.8885183" lon="12.386675"><ele>-5.333333333333333</ele><time>2026-04-12T13:58:01.308Z</time></trkpt><trkpt lat="44.8886833" lon="12.38657"><ele>-6.0</ele><time>2026-04-12T13:58:02.308Z</time></trkpt><trkpt lat="44.88885" lon="12.38646"><ele>-6.0</ele><time>2026-04-12T13:58:03.309Z</time></trkpt><trkpt lat="44.8890183" lon="12.3863483"><ele>-6.0</ele><time>2026-04-12T13:58:04.308Z</time></trkpt><trkpt lat="44.8891867" lon="12.3862367"><ele>-6.0</ele><time>2026-04-12T13:58:05.308Z</time></trkpt><trkpt lat="44.889355" lon="12.38613"><ele>-5.666666666666667</ele><time>2026-04-12T13:58:06.308Z</time></trkpt><trkpt lat="44.8895233" lon="12.3860167"><ele>-5.333333333333334</ele><time>2026-04-12T13:58:07.308Z</time></trkpt><trkpt lat="44.8896917" lon="12.3859117"><ele>-5.0</ele><time>2026-04-12T13:58:08.308Z</time></trkpt><trkpt lat="44.8898633" lon="12.3858067"><ele>-5.0</ele><time>2026-04-12T13:58:09.308Z</time></trkpt><trkpt lat="44.8900333" lon="12.3857"><ele>-5.0</ele><time>2026-04-12T13:58:10.308Z</time></trkpt><trkpt lat="44.8902067" lon="12.385585"><ele>-5.0</ele><time>2026-04-12T13:58:11.309Z</time></trkpt><trkpt lat="44.890395" lon="12.3854533"><ele>-5.0</ele><time>2026-04-12T13:58:12.308Z</time></trkpt><trkpt lat="44.8905733" lon="12.385335"><ele>-5.0</ele><time>2026-04-12T13:58:13.308Z</time></trkpt><trkpt lat="44.890755" lon="12.3852133"><ele>-5.0</ele><time>2026-04-12T13:58:14.309Z</time></trkpt><trkpt lat="44.8909433" lon="12.3850983"><ele>-5.333333333333334</ele><time>2026-04-12T13:58:15.309Z</time></trkpt><trkpt lat="44.891135" lon="12.384975"><ele>-5.666666666666667</ele><time>2026-04-12T13:58:16.308Z</time></trkpt><trkpt lat="44.8913233" lon="12.3848467"><ele>-6.0</ele><time>2026-04-12T13:58:17.308Z</time></trkpt><trkpt lat="44.891515" lon="12.3847183"><ele>-5.666666666666667</ele><time>2026-04-12T13:58:18.308Z</time></trkpt><trkpt lat="44.8917083" lon="12.3845967"><ele>-5.333333333333334</ele><time>2026-04-12T13:58:19.309Z</time></trkpt><trkpt lat="44.891905" lon="12.3844733"><ele>-5.0</ele><time>2026-04-12T13:58:20.309Z</time></trkpt><trkpt lat="44.892095" lon="12.3843467"><ele>-5.0</ele><time>2026-04-12T13:58:21.309Z</time></trkpt><trkpt lat="44.8922767" lon="12.38423"><ele>-5.0</ele><time>2026-04-12T13:58:22.308Z</time></trkpt><trkpt lat="44.89245" lon="12.3841217"><ele>-5.0</ele><time>2026-04-12T13:58:23.308Z</time></trkpt><trkpt lat="44.8926117" lon="12.3840133"><ele>-5.0</ele><time>2026-04-12T13:58:24.308Z</time></trkpt><trkpt lat="44.89278" lon="12.3839067"><ele>-5.0</ele><time>2026-04-12T13:58:25.308Z</time></trkpt><trkpt lat="44.8929483" lon="12.3838017"><ele>-5.0</ele><time>2026-04-12T13:58:26.308Z</time></trkpt><trkpt lat="44.8931133" lon="12.3837"><ele>-5.0</ele><time>2026-04-12T13:58:27.309Z</time></trkpt><trkpt lat="44.8932767" lon="12.3835983"><ele>-5.0</ele><time>2026-04-12T13:58:28.308Z</time></trkpt><trkpt lat="44.89344" lon="12.38349"><ele>-5.0</ele><time>2026-04-12T13:58:29.308Z</time></trkpt><trkpt lat="44.8936067" lon="12.383385"><ele>-5.0</ele><time>2026-04-12T13:58:30.308Z</time></trkpt><trkpt lat="44.8937817" lon="12.3832717"><ele>-5.0</ele><time>2026-04-12T13:58:31.308Z</time></trkpt><trkpt lat="44.89395" lon="12.3831683"><ele>-5.0</ele><time>2026-04-12T13:58:32.308Z</time></trkpt><trkpt lat="44.8941267" lon="12.3830617"><ele>-5.0</ele><time>2026-04-12T13:58:33.308Z</time></trkpt><trkpt lat="44.8943017" lon="12.38295"><ele>-5.0</ele><time>2026-04-12T13:58:34.308Z</time></trkpt><trkpt lat="44.894475" lon="12.3828367"><ele>-5.0</ele><time>2026-04-12T13:58:35.309Z</time></trkpt><trkpt lat="44.8946533" lon="12.3827267"><ele>-5.0</ele><time>2026-04-12T13:58:36.308Z</time></trkpt><trkpt lat="44.8948317" lon="12.3826033"><ele>-5.0</ele><time>2026-04-12T13:58:37.309Z</time></trkpt><trkpt lat="44.89501" lon="12.382485"><ele>-5.0</ele><time>2026-04-12T13:58:38.308Z</time></trkpt><trkpt lat="44.8951817" lon="12.3823817"><ele>-5.0</ele><time>2026-04-12T13:58:39.308Z</time></trkpt><trkpt lat="44.895355" lon="12.3822767"><ele>-5.0</ele><time>2026-04-12T13:58:40.309Z</time></trkpt><trkpt lat="44.895525" lon="12.3821617"><ele>-5.0</ele><time>2026-04-12T13:58:41.308Z</time></trkpt><trkpt lat="44.8956867" lon="12.3820533"><ele>-5.0</ele><time>2026-04-12T13:58:42.309Z</time></trkpt><trkpt lat="44.895845" lon="12.38194"><ele>-5.0</ele><time>2026-04-12T13:58:43.309Z</time></trkpt><trkpt lat="44.896" lon="12.3818317"><ele>-5.0</ele><time>2026-04-12T13:58:44.308Z</time></trkpt><trkpt lat="44.89616" lon="12.3817183"><ele>-5.0</ele><time>2026-04-12T13:58:45.308Z</time></trkpt><trkpt lat="44.896315" lon="12.3816217"><ele>-5.0</ele><time>2026-04-12T13:58:46.308Z</time></trkpt><trkpt lat="44.8964817" lon="12.3815233"><ele>-5.0</ele><time>2026-04-12T13:58:47.308Z</time></trkpt><trkpt lat="44.89665" lon="12.3814167"><ele>-5.0</ele><time>2026-04-12T13:58:48.308Z</time></trkpt><trkpt lat="44.896815" lon="12.3813217"><ele>-5.0</ele><time>2026-04-12T13:58:49.309Z</time></trkpt><trkpt lat="44.8969833" lon="12.3812167"><ele>-5.0</ele><time>2026-04-12T13:58:50.308Z</time></trkpt><trkpt lat="44.8971517" lon="12.3811083"><ele>-5.0</ele><time>2026-04-12T13:58:51.309Z</time></trkpt><trkpt lat="44.897325" lon="12.3809967"><ele>-5.0</ele><time>2026-04-12T13:58:52.308Z</time></trkpt><trkpt lat="44.8974933" lon="12.3808817"><ele>-5.0</ele><time>2026-04-12T13:58:53.308Z</time></trkpt><trkpt lat="44.8976583" lon="12.3807683"><ele>-5.0</ele><time>2026-04-12T13:58:54.308Z</time></trkpt><trkpt lat="44.897815" lon="12.3806633"><ele>-5.0</ele><time>2026-04-12T13:58:55.308Z</time></trkpt><trkpt lat="44.8979683" lon="12.380565"><ele>-5.0</ele><time>2026-04-12T13:58:56.309Z</time></trkpt><trkpt lat="44.8981133" lon="12.3804717"><ele>-5.0</ele><time>2026-04-12T13:58:57.308Z</time></trkpt><trkpt lat="44.8982533" lon="12.3803817"><ele>-5.0</ele><time>2026-04-12T13:58:58.308Z</time></trkpt><trkpt lat="44.8983883" lon="12.380305"><ele>-5.0</ele><time>2026-04-12T13:58:59.308Z</time></trkpt><trkpt lat="44.898505" lon="12.3802283"><ele>-5.0</ele><time>2026-04-12T13:59:00.309Z</time></trkpt><trkpt lat="44.898615" lon="12.3801517"><ele>-5.166666666666667</ele><time>2026-04-12T13:59:01.308Z</time></trkpt><trkpt lat="44.89871" lon="12.3800883"><ele>-5.333333333333334</ele><time>2026-04-12T13:59:02.308Z</time></trkpt><trkpt lat="44.8987967" lon="12.3800367"><ele>-5.5</ele><time>2026-04-12T13:59:03.308Z</time></trkpt><trkpt lat="44.8988783" lon="12.3799817"><ele>-5.666666666666667</ele><time>2026-04-12T13:59:04.308Z</time></trkpt><trkpt lat="44.8989367" lon="12.379945"><ele>-5.833333333333333</ele><time>2026-04-12T13:59:05.308Z</time></trkpt><trkpt lat="44.8990083" lon="12.3799033"><ele>-6.0</ele><time>2026-04-12T13:59:07.309Z</time></trkpt><trkpt lat="44.899055" lon="12.3798317"><ele>-6.0</ele><time>2026-04-12T13:59:12.308Z</time></trkpt><trkpt lat="44.8990517" lon="12.3797"><ele>-6.0</ele><time>2026-04-12T13:59:14.309Z</time></trkpt><trkpt lat="44.89902" lon="12.3795833"><ele>-6.0</ele><time>2026-04-12T13:59:15.308Z</time></trkpt><trkpt lat="44.8989667" lon="12.37945"><ele>-6.0</ele><time>2026-04-12T13:59:16.309Z</time></trkpt><trkpt lat="44.8989067" lon="12.37929"><ele>-6.0</ele><time>2026-04-12T13:59:17.308Z</time></trkpt><trkpt lat="44.8988533" lon="12.37912"><ele>-5.666666666666667</ele><time>2026-04-12T13:59:18.308Z</time></trkpt><trkpt lat="44.898795" lon="12.3789383"><ele>-5.333333333333334</ele><time>2026-04-12T13:59:19.308Z</time></trkpt><trkpt lat="44.8987333" lon="12.37874"><ele>-5.0</ele><time>2026-04-12T13:59:20.309Z</time></trkpt><trkpt lat="44.89866" lon="12.37852"><ele>-5.0</ele><time>2026-04-12T13:59:21.308Z</time></trkpt><trkpt lat="44.8985833" lon="12.3782883"><ele>-5.0</ele><time>2026-04-12T13:59:22.309Z</time></trkpt><trkpt lat="44.8985017" lon="12.3780417"><ele>-5.0</ele><time>2026-04-12T13:59:23.308Z</time></trkpt><trkpt lat="44.8984167" lon="12.3777917"><ele>-5.0</ele><time>2026-04-12T13:59:24.308Z</time></trkpt><trkpt lat="44.8983367" lon="12.3775417"><ele>-5.0</ele><time>2026-04-12T13:59:25.308Z</time></trkpt><trkpt lat="44.8982583" lon="12.3773033"><ele>-5.0</ele><time>2026-04-12T13:59:26.308Z</time></trkpt><trkpt lat="44.898185" lon="12.37707"><ele>-5.666666666666667</ele><time>2026-04-12T13:59:27.308Z</time></trkpt><trkpt lat="44.89811" lon="12.376845"><ele>-6.333333333333334</ele><time>2026-04-12T13:59:28.308Z</time></trkpt><trkpt lat="44.898035" lon="12.3766233"><ele>-7.0</ele><time>2026-04-12T13:59:29.308Z</time></trkpt><trkpt lat="44.8979633" lon="12.3764033"><ele>-7.333333333333334</ele><time>2026-04-12T13:59:30.308Z</time></trkpt><trkpt lat="44.8978967" lon="12.3761933"><ele>-7.666666666666666</ele><time>2026-04-12T13:59:31.308Z</time></trkpt><trkpt lat="44.89783" lon="12.3759933"><ele>-8.0</ele><time>2026-04-12T13:59:32.309Z</time></trkpt><trkpt lat="44.8977633" lon="12.3757883"><ele>-8.0</ele><time>2026-04-12T13:59:33.308Z</time></trkpt><trkpt lat="44.8976967" lon="12.3755833"><ele>-8.0</ele><time>2026-04-12T13:59:34.308Z</time></trkpt><trkpt lat="44.8976283" lon="12.3753717"><ele>-8.0</ele><time>2026-04-12T13:59:35.309Z</time></trkpt><trkpt lat="44.89756" lon="12.3751567"><ele>-7.666666666666666</ele><time>2026-04-12T13:59:36.308Z</time></trkpt><trkpt lat="44.89749" lon="12.374945"><ele>-7.333333333333334</ele><time>2026-04-12T13:59:37.308Z</time></trkpt><trkpt lat="44.89742" lon="12.3747333"><ele>-7.0</ele><time>2026-04-12T13:59:38.308Z</time></trkpt><trkpt lat="44.8973483" lon="12.3745217"><ele>-7.0</ele><time>2026-04-12T13:59:39.309Z</time></trkpt><trkpt lat="44.8972733" lon="12.374305"><ele>-7.0</ele><time>2026-04-12T13:59:40.309Z</time></trkpt><trkpt lat="44.8972033" lon="12.3740867"><ele>-7.0</ele><time>2026-04-12T13:59:41.308Z</time></trkpt><trkpt lat="44.89713" lon="12.373865"><ele>-6.666666666666667</ele><time>2026-04-12T13:59:42.308Z</time></trkpt><trkpt lat="44.8970533" lon="12.3736317"><ele>-6.333333333333334</ele><time>2026-04-12T13:59:43.309Z</time></trkpt><trkpt lat="44.8969767" lon="12.373395"><ele>-6.0</ele><time>2026-04-12T13:59:44.308Z</time></trkpt><trkpt lat="44.8969" lon="12.373145"><ele>-5.666666666666667</ele><time>2026-04-12T13:59:45.308Z</time></trkpt><trkpt lat="44.8968133" lon="12.3728883"><ele>-5.333333333333334</ele><time>2026-04-12T13:59:46.308Z</time></trkpt><trkpt lat="44.8967283" lon="12.3726317"><ele>-5.0</ele><time>2026-04-12T13:59:47.309Z</time></trkpt><trkpt lat="44.8966467" lon="12.3723717"><ele>-5.0</ele><time>2026-04-12T13:59:48.308Z</time></trkpt><trkpt lat="44.8965633" lon="12.372115"><ele>-5.0</ele><time>2026-04-12T13:59:49.309Z</time></trkpt><trkpt lat="44.8964833" lon="12.3718617"><ele>-5.0</ele><time>2026-04-12T13:59:50.308Z</time></trkpt><trkpt lat="44.896405" lon="12.3716133"><ele>-5.0</ele><time>2026-04-12T13:59:51.308Z</time></trkpt><trkpt lat="44.896325" lon="12.3713667"><ele>-5.0</ele><time>2026-04-12T13:59:52.308Z</time></trkpt><trkpt lat="44.896245" lon="12.3711183"><ele>-5.0</ele><time>2026-04-12T13:59:53.308Z</time></trkpt><trkpt lat="44.896165" lon="12.370875"><ele>-5.0</ele><time>2026-04-12T13:59:54.309Z</time></trkpt><trkpt lat="44.89609" lon="12.37064"><ele>-5.0</ele><time>2026-04-12T13:59:55.309Z</time></trkpt><trkpt lat="44.89601" lon="12.3703983"><ele>-5.0</ele><time>2026-04-12T13:59:56.308Z</time></trkpt><trkpt lat="44.89593" lon="12.3701567"><ele>-5.0</ele><time>2026-04-12T13:59:57.309Z</time></trkpt><trkpt lat="44.8958533" lon="12.3699183"><ele>-5.0</ele><time>2026-04-12T13:59:58.309Z</time></trkpt><trkpt lat="44.8957767" lon="12.369685"><ele>-5.0</ele><time>2026-04-12T13:59:59.308Z</time></trkpt><trkpt lat="44.895695" lon="12.369445"><ele>-5.0</ele><time>2026-04-12T14:00:00.308Z</time></trkpt><trkpt lat="44.8956133" lon="12.3692033"><ele>-5.0</ele><time>2026-04-12T14:00:01.309Z</time></trkpt><trkpt lat="44.8955317" lon="12.3689717"><ele>-5.0</ele><time>2026-04-12T14:00:02.309Z</time></trkpt><trkpt lat="44.89545" lon="12.368735"><ele>-5.333333333333334</ele><time>2026-04-12T14:00:03.309Z</time></trkpt><trkpt lat="44.8953733" lon="12.36849"><ele>-5.666666666666667</ele><time>2026-04-12T14:00:04.308Z</time></trkpt><trkpt lat="44.895295" lon="12.368235"><ele>-6.0</ele><time>2026-04-12T14:00:05.309Z</time></trkpt><trkpt lat="44.8952083" lon="12.3679783"><ele>-6.0</ele><time>2026-04-12T14:00:06.308Z</time></trkpt><trkpt lat="44.89512" lon="12.3677133"><ele>-6.0</ele><time>2026-04-12T14:00:07.308Z</time></trkpt><trkpt lat="44.8950333" lon="12.3674483"><ele>-6.0</ele><time>2026-04-12T14:00:08.308Z</time></trkpt><trkpt lat="44.8949483" lon="12.3671767"><ele>-5.666666666666667</ele><time>2026-04-12T14:00:09.309Z</time></trkpt><trkpt lat="44.8948583" lon="12.3668983"><ele>-5.333333333333334</ele><time>2026-04-12T14:00:10.308Z</time></trkpt><trkpt lat="44.8947683" lon="12.36662"><ele>-5.0</ele><time>2026-04-12T14:00:11.309Z</time></trkpt><trkpt lat="44.89468" lon="12.3663433"><ele>-5.0</ele><time>2026-04-12T14:00:12.309Z</time></trkpt><trkpt lat="44.89459" lon="12.3660567"><ele>-5.0</ele><time>2026-04-12T14:00:13.308Z</time></trkpt><trkpt lat="44.8944933" lon="12.3657717"><ele>-5.0</ele><time>2026-04-12T14:00:14.308Z</time></trkpt><trkpt lat="44.8943967" lon="12.3654767"><ele>-5.0</ele><time>2026-04-12T14:00:15.309Z</time></trkpt><trkpt lat="44.894295" lon="12.3651717"><ele>-5.0</ele><time>2026-04-12T14:00:16.309Z</time></trkpt><trkpt lat="44.8941917" lon="12.3648567"><ele>-4.5</ele><time>2026-04-12T14:00:17.308Z</time></trkpt><trkpt lat="44.8940933" lon="12.364545"><ele>-4.0</ele><time>2026-04-12T14:00:18.309Z</time></trkpt><trkpt lat="44.8939883" lon="12.36423"><ele>-4.0</ele><time>2026-04-12T14:00:19.308Z</time></trkpt><trkpt lat="44.893885" lon="12.36391"><ele>-4.0</ele><time>2026-04-12T14:00:20.308Z</time></trkpt><trkpt lat="44.8937817" lon="12.3635933"><ele>-4.0</ele><time>2026-04-12T14:00:21.309Z</time></trkpt><trkpt lat="44.89368" lon="12.363275"><ele>-4.0</ele><time>2026-04-12T14:00:22.309Z</time></trkpt><trkpt lat="44.893575" lon="12.3629633"><ele>-4.0</ele><time>2026-04-12T14:00:23.308Z</time></trkpt><trkpt lat="44.89347" lon="12.3626533"><ele>-4.0</ele><time>2026-04-12T14:00:24.308Z</time></trkpt><trkpt lat="44.8933667" lon="12.362335"><ele>-5.0</ele><time>2026-04-12T14:00:25.309Z</time></trkpt><trkpt lat="44.893265" lon="12.3620183"><ele>-6.0</ele><time>2026-04-12T14:00:26.308Z</time></trkpt><trkpt lat="44.8931667" lon="12.3616983"><ele>-6.0</ele><time>2026-04-12T14:00:27.309Z</time></trkpt><trkpt lat="44.8930583" lon="12.3613733"><ele>-6.0</ele><time>2026-04-12T14:00:28.308Z</time></trkpt><trkpt lat="44.89295" lon="12.36105"><ele>-5.0</ele><time>2026-04-12T14:00:29.308Z</time></trkpt><trkpt lat="44.892845" lon="12.360735"><ele>-4.0</ele><time>2026-04-12T14:00:30.308Z</time></trkpt><trkpt lat="44.8927433" lon="12.3604267"><ele>-4.0</ele><time>2026-04-12T14:00:31.309Z</time></trkpt><trkpt lat="44.89265" lon="12.360125"><ele>-4.0</ele><time>2026-04-12T14:00:32.308Z</time></trkpt><trkpt lat="44.8925467" lon="12.3598233"><ele>-4.0</ele><time>2026-04-12T14:00:33.308Z</time></trkpt><trkpt lat="44.89245" lon="12.3595217"><ele>-4.0</ele><time>2026-04-12T14:00:34.308Z</time></trkpt><trkpt lat="44.892355" lon="12.35924"><ele>-4.0</ele><time>2026-04-12T14:00:35.309Z</time></trkpt><trkpt lat="44.8922667" lon="12.3589633"><ele>-4.0</ele><time>2026-04-12T14:00:36.309Z</time></trkpt><trkpt lat="44.8921817" lon="12.3586867"><ele>-4.0</ele><time>2026-04-12T14:00:37.309Z</time></trkpt><trkpt lat="44.8920933" lon="12.3584117"><ele>-4.0</ele><time>2026-04-12T14:00:38.308Z</time></trkpt><trkpt lat="44.8919967" lon="12.35814"><ele>-4.0</ele><time>2026-04-12T14:00:39.308Z</time></trkpt><trkpt lat="44.8919" lon="12.3578667"><ele>-4.0</ele><time>2026-04-12T14:00:40.308Z</time></trkpt><trkpt lat="44.8918067" lon="12.357595"><ele>-4.0</ele><time>2026-04-12T14:00:41.308Z</time></trkpt><trkpt lat="44.891725" lon="12.3573217"><ele>-4.0</ele><time>2026-04-12T14:00:42.309Z</time></trkpt><trkpt lat="44.89164" lon="12.3570517"><ele>-4.0</ele><time>2026-04-12T14:00:43.309Z</time></trkpt><trkpt lat="44.89155" lon="12.356775"><ele>-4.666666666666666</ele><time>2026-04-12T14:00:44.308Z</time></trkpt><trkpt lat="44.8914583" lon="12.356505"><ele>-5.333333333333333</ele><time>2026-04-12T14:00:45.308Z</time></trkpt><trkpt lat="44.8913617" lon="12.3562133"><ele>-6.0</ele><time>2026-04-12T14:00:46.308Z</time></trkpt><trkpt lat="44.89127" lon="12.3559317"><ele>-6.0</ele><time>2026-04-12T14:00:47.308Z</time></trkpt><trkpt lat="44.8911767" lon="12.355645"><ele>-6.0</ele><time>2026-04-12T14:00:48.309Z</time></trkpt><trkpt lat="44.891085" lon="12.3553583"><ele>-6.0</ele><time>2026-04-12T14:00:49.308Z</time></trkpt><trkpt lat="44.8909867" lon="12.3550683"><ele>-5.5</ele><time>2026-04-12T14:00:50.308Z</time></trkpt><trkpt lat="44.8908867" lon="12.3547783"><ele>-5.0</ele><time>2026-04-12T14:00:51.309Z</time></trkpt><trkpt lat="44.890785" lon="12.3544933"><ele>-5.0</ele><time>2026-04-12T14:00:52.308Z</time></trkpt><trkpt lat="44.8906883" lon="12.3542017"><ele>-5.0</ele><time>2026-04-12T14:00:53.308Z</time></trkpt><trkpt lat="44.890595" lon="12.353915"><ele>-4.666666666666667</ele><time>2026-04-12T14:00:54.308Z</time></trkpt><trkpt lat="44.8905033" lon="12.353625"><ele>-4.333333333333333</ele><time>2026-04-12T14:00:55.308Z</time></trkpt><trkpt lat="44.890415" lon="12.353345"><ele>-4.0</ele><time>2026-04-12T14:00:56.308Z</time></trkpt><trkpt lat="44.890325" lon="12.3530633"><ele>-4.333333333333333</ele><time>2026-04-12T14:00:57.309Z</time></trkpt><trkpt lat="44.8902367" lon="12.35278"><ele>-4.666666666666667</ele><time>2026-04-12T14:00:58.307Z</time></trkpt><trkpt lat="44.89015" lon="12.35251"><ele>-5.0</ele><time>2026-04-12T14:00:59.307Z</time></trkpt><trkpt lat="44.89006" lon="12.3522333"><ele>-4.666666666666667</ele><time>2026-04-12T14:01:00.307Z</time></trkpt><trkpt lat="44.8899683" lon="12.3519517"><ele>-4.333333333333333</ele><time>2026-04-12T14:01:01.308Z</time></trkpt><trkpt lat="44.8898833" lon="12.35168"><ele>-4.0</ele><time>2026-04-12T14:01:02.308Z</time></trkpt><trkpt lat="44.8897967" lon="12.3514083"><ele>-4.333333333333333</ele><time>2026-04-12T14:01:03.308Z</time></trkpt><trkpt lat="44.8897067" lon="12.35114"><ele>-4.666666666666667</ele><time>2026-04-12T14:01:04.307Z</time></trkpt><trkpt lat="44.889615" lon="12.3508717"><ele>-5.0</ele><time>2026-04-12T14:01:05.307Z</time></trkpt><trkpt lat="44.8895217" lon="12.3506017"><ele>-4.333333333333334</ele><time>2026-04-12T14:01:06.307Z</time></trkpt><trkpt lat="44.8894317" lon="12.3503333"><ele>-3.666666666666667</ele><time>2026-04-12T14:01:07.307Z</time></trkpt><trkpt lat="44.8893383" lon="12.3500583"><ele>-3.0</ele><time>2026-04-12T14:01:08.308Z</time></trkpt><trkpt lat="44.889245" lon="12.34978"><ele>-3.333333333333333</ele><time>2026-04-12T14:01:09.307Z</time></trkpt><trkpt lat="44.8891567" lon="12.3495"><ele>-3.6666666666666665</ele><time>2026-04-12T14:01:10.308Z</time></trkpt><trkpt lat="44.889065" lon="12.3492217"><ele>-4.0</ele><time>2026-04-12T14:01:11.308Z</time></trkpt><trkpt lat="44.888985" lon="12.348955"><ele>-4.333333333333333</ele><time>2026-04-12T14:01:12.307Z</time></trkpt><trkpt lat="44.8889" lon="12.3486967"><ele>-4.666666666666667</ele><time>2026-04-12T14:01:13.307Z</time></trkpt><trkpt lat="44.8888167" lon="12.3484383"><ele>-5.0</ele><time>2026-04-12T14:01:14.307Z</time></trkpt><trkpt lat="44.8887283" lon="12.3481767"><ele>-4.666666666666667</ele><time>2026-04-12T14:01:15.308Z</time></trkpt><trkpt lat="44.88865" lon="12.34792"><ele>-4.333333333333333</ele><time>2026-04-12T14:01:16.307Z</time></trkpt><trkpt lat="44.8885617" lon="12.3476567"><ele>-4.0</ele><time>2026-04-12T14:01:17.307Z</time></trkpt><trkpt lat="44.8884767" lon="12.3474"><ele>-4.666666666666666</ele><time>2026-04-12T14:01:18.308Z</time></trkpt><trkpt lat="44.8883917" lon="12.3471383"><ele>-5.333333333333333</ele><time>2026-04-12T14:01:19.307Z</time></trkpt><trkpt lat="44.8883133" lon="12.34688"><ele>-6.0</ele><time>2026-04-12T14:01:20.307Z</time></trkpt><trkpt lat="44.8882317" lon="12.34662"><ele>-5.333333333333333</ele><time>2026-04-12T14:01:21.307Z</time></trkpt><trkpt lat="44.888145" lon="12.3463483"><ele>-4.666666666666666</ele><time>2026-04-12T14:01:22.307Z</time></trkpt><trkpt lat="44.888055" lon="12.346075"><ele>-4.0</ele><time>2026-04-12T14:01:23.307Z</time></trkpt><trkpt lat="44.88797" lon="12.345805"><ele>-4.0</ele><time>2026-04-12T14:01:24.307Z</time></trkpt><trkpt lat="44.8878783" lon="12.3455233"><ele>-4.0</ele><time>2026-04-12T14:01:25.307Z</time></trkpt><trkpt lat="44.887785" lon="12.3452433"><ele>-4.0</ele><time>2026-04-12T14:01:26.307Z</time></trkpt><trkpt lat="44.88769" lon="12.344955"><ele>-4.5</ele><time>2026-04-12T14:01:27.307Z</time></trkpt><trkpt lat="44.8875917" lon="12.34467"><ele>-5.0</ele><time>2026-04-12T14:01:28.307Z</time></trkpt><trkpt lat="44.8874917" lon="12.34438"><ele>-5.0</ele><time>2026-04-12T14:01:29.307Z</time></trkpt><trkpt lat="44.887395" lon="12.3440817"><ele>-5.0</ele><time>2026-04-12T14:01:30.307Z</time></trkpt><trkpt lat="44.8873" lon="12.34378"><ele>-5.5</ele><time>2026-04-12T14:01:31.308Z</time></trkpt><trkpt lat="44.8872017" lon="12.3434767"><ele>-6.0</ele><time>2026-04-12T14:01:32.307Z</time></trkpt><trkpt lat="44.8871033" lon="12.3431767"><ele>-5.0</ele><time>2026-04-12T14:01:33.307Z</time></trkpt><trkpt lat="44.8870033" lon="12.34287"><ele>-4.0</ele><time>2026-04-12T14:01:34.307Z</time></trkpt><trkpt lat="44.8869017" lon="12.34257"><ele>-4.0</ele><time>2026-04-12T14:01:35.307Z</time></trkpt><trkpt lat="44.8868033" lon="12.3422683"><ele>-4.0</ele><time>2026-04-12T14:01:36.307Z</time></trkpt><trkpt lat="44.8867033" lon="12.3419617"><ele>-4.0</ele><time>2026-04-12T14:01:37.307Z</time></trkpt><trkpt lat="44.8866067" lon="12.3416483"><ele>-4.0</ele><time>2026-04-12T14:01:38.308Z</time></trkpt><trkpt lat="44.8865083" lon="12.341335"><ele>-4.0</ele><time>2026-04-12T14:01:39.308Z</time></trkpt><trkpt lat="44.8864" lon="12.3410167"><ele>-4.0</ele><time>2026-04-12T14:01:40.307Z</time></trkpt><trkpt lat="44.8862883" lon="12.3406967"><ele>-4.5</ele><time>2026-04-12T14:01:41.307Z</time></trkpt><trkpt lat="44.8861817" lon="12.3403917"><ele>-5.0</ele><time>2026-04-12T14:01:42.307Z</time></trkpt><trkpt lat="44.8860767" lon="12.3400933"><ele>-5.0</ele><time>2026-04-12T14:01:43.307Z</time></trkpt><trkpt lat="44.8859767" lon="12.3397867"><ele>-5.0</ele><time>2026-04-12T14:01:44.307Z</time></trkpt><trkpt lat="44.8858817" lon="12.3394883"><ele>-5.0</ele><time>2026-04-12T14:01:45.308Z</time></trkpt><trkpt lat="44.88578" lon="12.3391883"><ele>-5.0</ele><time>2026-04-12T14:01:46.307Z</time></trkpt><trkpt lat="44.8856833" lon="12.3388917"><ele>-4.0</ele><time>2026-04-12T14:01:47.308Z</time></trkpt><trkpt lat="44.8855867" lon="12.3385967"><ele>-3.0</ele><time>2026-04-12T14:01:48.307Z</time></trkpt><trkpt lat="44.8854883" lon="12.338305"><ele>-3.0</ele><time>2026-04-12T14:01:49.308Z</time></trkpt><trkpt lat="44.8853933" lon="12.33801"><ele>-3.0</ele><time>2026-04-12T14:01:50.308Z</time></trkpt><trkpt lat="44.8852983" lon="12.3377117"><ele>-3.0</ele><time>2026-04-12T14:01:51.307Z</time></trkpt><trkpt lat="44.8852017" lon="12.33742"><ele>-3.0</ele><time>2026-04-12T14:01:52.307Z</time></trkpt><trkpt lat="44.885105" lon="12.3371167"><ele>-3.0</ele><time>2026-04-12T14:01:53.307Z</time></trkpt><trkpt lat="44.8850067" lon="12.3368167"><ele>-3.0</ele><time>2026-04-12T14:01:54.308Z</time></trkpt><trkpt lat="44.8849117" lon="12.3365183"><ele>-4.0</ele><time>2026-04-12T14:01:55.307Z</time></trkpt><trkpt lat="44.88482" lon="12.3362317"><ele>-5.0</ele><time>2026-04-12T14:01:56.308Z</time></trkpt><trkpt lat="44.884725" lon="12.3359367"><ele>-5.0</ele><time>2026-04-12T14:01:57.307Z</time></trkpt><trkpt lat="44.88463" lon="12.335645"><ele>-5.0</ele><time>2026-04-12T14:01:58.308Z</time></trkpt><trkpt lat="44.8845333" lon="12.33535"><ele>-5.0</ele><time>2026-04-12T14:01:59.307Z</time></trkpt><trkpt lat="44.884435" lon="12.335055"><ele>-5.0</ele><time>2026-04-12T14:02:00.307Z</time></trkpt><trkpt lat="44.884335" lon="12.334765"><ele>-4.5</ele><time>2026-04-12T14:02:01.308Z</time></trkpt><trkpt lat="44.8842417" lon="12.3344733"><ele>-4.0</ele><time>2026-04-12T14:02:02.308Z</time></trkpt><trkpt lat="44.8841433" lon="12.3341783"><ele>-3.0</ele><time>2026-04-12T14:02:03.307Z</time></trkpt><trkpt lat="44.8840517" lon="12.3338883"><ele>-2.0</ele><time>2026-04-12T14:02:04.307Z</time></trkpt><trkpt lat="44.88396" lon="12.3336033"><ele>-1.0</ele><time>2026-04-12T14:02:05.308Z</time></trkpt><trkpt lat="44.883875" lon="12.3333383"><ele>-1.0</ele><time>2026-04-12T14:02:06.307Z</time></trkpt><trkpt lat="44.88379" lon="12.333085"><ele>-1.0</ele><time>2026-04-12T14:02:07.307Z</time></trkpt><trkpt lat="44.8837083" lon="12.3328367"><ele>-1.0</ele><time>2026-04-12T14:02:08.307Z</time></trkpt><trkpt lat="44.8836317" lon="12.3325983"><ele>-1.6666666666666665</ele><time>2026-04-12T14:02:09.307Z</time></trkpt><trkpt lat="44.8835583" lon="12.332375"><ele>-2.3333333333333335</ele><time>2026-04-12T14:02:10.307Z</time></trkpt><trkpt lat="44.8834883" lon="12.33216"><ele>-3.0</ele><time>2026-04-12T14:02:11.307Z</time></trkpt><trkpt lat="44.8834217" lon="12.331955"><ele>-3.0</ele><time>2026-04-12T14:02:12.308Z</time></trkpt><trkpt lat="44.88336" lon="12.33176"><ele>-3.0</ele><time>2026-04-12T14:02:13.307Z</time></trkpt><trkpt lat="44.8832917" lon="12.3315733"><ele>-3.0</ele><time>2026-04-12T14:02:14.307Z</time></trkpt><trkpt lat="44.8832367" lon="12.3314033"><ele>-3.0</ele><time>2026-04-12T14:02:15.307Z</time></trkpt><trkpt lat="44.883185" lon="12.331255"><ele>-2.6666666666666665</ele><time>2026-04-12T14:02:16.307Z</time></trkpt><trkpt lat="44.8831383" lon="12.3311183"><ele>-2.3333333333333335</ele><time>2026-04-12T14:02:17.307Z</time></trkpt><trkpt lat="44.8831017" lon="12.331005"><ele>-2.0</ele><time>2026-04-12T14:02:18.307Z</time></trkpt><trkpt lat="44.8830733" lon="12.330915"><ele>-1.6666666666666665</ele><time>2026-04-12T14:02:19.307Z</time></trkpt><trkpt lat="44.8830333" lon="12.3307883"><ele>-1.3333333333333333</ele><time>2026-04-12T14:02:21.307Z</time></trkpt><trkpt lat="44.8830383" lon="12.33068"><ele>-1.0</ele><time>2026-04-12T14:02:23.308Z</time></trkpt><trkpt lat="44.8831367" lon="12.3305367"><ele>-1.25</ele><time>2026-04-12T14:02:25.307Z</time></trkpt><trkpt lat="44.8832333" lon="12.3304367"><ele>-1.5</ele><time>2026-04-12T14:02:26.307Z</time></trkpt><trkpt lat="44.883355" lon="12.3303233"><ele>-1.75</ele><time>2026-04-12T14:02:27.307Z</time></trkpt><trkpt lat="44.883475" lon="12.3302033"><ele>-2.0</ele><time>2026-04-12T14:02:28.307Z</time></trkpt><trkpt lat="44.8836083" lon="12.3300767"><ele>-2.0</ele><time>2026-04-12T14:02:29.308Z</time></trkpt><trkpt lat="44.8837533" lon="12.32996"><ele>-2.0</ele><time>2026-04-12T14:02:30.307Z</time></trkpt><trkpt lat="44.8839" lon="12.32983"><ele>-2.0</ele><time>2026-04-12T14:02:31.307Z</time></trkpt><trkpt lat="44.88405" lon="12.329725"><ele>-1.3333333333333333</ele><time>2026-04-12T14:02:32.307Z</time></trkpt><trkpt lat="44.8842067" lon="12.3296233"><ele>-0.6666666666666666</ele><time>2026-04-12T14:02:33.308Z</time></trkpt><trkpt lat="44.884365" lon="12.3295283"><ele>0.0</ele><time>2026-04-12T14:02:34.308Z</time></trkpt><trkpt lat="44.884525" lon="12.3294383"><ele>0.3333333333333333</ele><time>2026-04-12T14:02:35.307Z</time></trkpt><trkpt lat="44.8846883" lon="12.32935"><ele>0.6666666666666666</ele><time>2026-04-12T14:02:36.307Z</time></trkpt><trkpt lat="44.8848467" lon="12.3292633"><ele>1.0</ele><time>2026-04-12T14:02:37.308Z</time></trkpt><trkpt lat="44.88501" lon="12.3291767"><ele>0.3333333333333333</ele><time>2026-04-12T14:02:38.307Z</time></trkpt><trkpt lat="44.8851717" lon="12.3290967"><ele>-0.3333333333333333</ele><time>2026-04-12T14:02:39.308Z</time></trkpt><trkpt lat="44.8853183" lon="12.3290283"><ele>-1.0</ele><time>2026-04-12T14:02:40.307Z</time></trkpt><trkpt lat="44.8854417" lon="12.328965"><ele>-1.0</ele><time>2026-04-12T14:02:41.308Z</time></trkpt><trkpt lat="44.88556" lon="12.3289017"><ele>-1.0</ele><time>2026-04-12T14:02:42.308Z</time></trkpt><trkpt lat="44.885685" lon="12.32884"><ele>-1.0</ele><time>2026-04-12T14:02:43.307Z</time></trkpt><trkpt lat="44.885805" lon="12.3287683"><ele>-1.0</ele><time>2026-04-12T14:02:44.307Z</time></trkpt><trkpt lat="44.8859217" lon="12.32871"><ele>-0.25</ele><time>2026-04-12T14:02:45.308Z</time></trkpt><trkpt lat="44.88604" lon="12.3286483"><ele>0.5</ele><time>2026-04-12T14:02:46.307Z</time></trkpt><trkpt lat="44.8861633" lon="12.3285883"><ele>1.25</ele><time>2026-04-12T14:02:47.308Z</time></trkpt><trkpt lat="44.8862967" lon="12.3285267"><ele>2.0</ele><time>2026-04-12T14:02:48.307Z</time></trkpt><trkpt lat="44.8864367" lon="12.3284717"><ele>2.0</ele><time>2026-04-12T14:02:49.308Z</time></trkpt><trkpt lat="44.8865833" lon="12.32842"><ele>2.0</ele><time>2026-04-12T14:02:50.307Z</time></trkpt><trkpt lat="44.88674" lon="12.3283633"><ele>2.0</ele><time>2026-04-12T14:02:51.307Z</time></trkpt><trkpt lat="44.8869" lon="12.3283067"><ele>2.0</ele><time>2026-04-12T14:02:52.307Z</time></trkpt><trkpt lat="44.8870633" lon="12.3282617"><ele>2.0</ele><time>2026-04-12T14:02:53.308Z</time></trkpt><trkpt lat="44.8872283" lon="12.328205"><ele>2.0</ele><time>2026-04-12T14:02:54.308Z</time></trkpt><trkpt lat="44.8874" lon="12.3281633"><ele>2.0</ele><time>2026-04-12T14:02:55.307Z</time></trkpt><trkpt lat="44.8875783" lon="12.328135"><ele>2.0</ele><time>2026-04-12T14:02:56.307Z</time></trkpt><trkpt lat="44.8877433" lon="12.328105"><ele>2.0</ele><time>2026-04-12T14:02:57.308Z</time></trkpt><trkpt lat="44.8878983" lon="12.3280867"><ele>2.0</ele><time>2026-04-12T14:02:58.307Z</time></trkpt><trkpt lat="44.8880683" lon="12.3280817"><ele>2.0</ele><time>2026-04-12T14:02:59.308Z</time></trkpt><trkpt lat="44.8882467" lon="12.3281183"><ele>2.0</ele><time>2026-04-12T14:03:00.307Z</time></trkpt><trkpt lat="44.8884167" lon="12.3281683"><ele>1.0</ele><time>2026-04-12T14:03:01.307Z</time></trkpt><trkpt lat="44.8885983" lon="12.3282167"><ele>0.0</ele><time>2026-04-12T14:03:02.308Z</time></trkpt><trkpt lat="44.8887783" lon="12.3282783"><ele>-1.0</ele><time>2026-04-12T14:03:03.307Z</time></trkpt><trkpt lat="44.88896" lon="12.3283383"><ele>-1.0</ele><time>2026-04-12T14:03:04.307Z</time></trkpt><trkpt lat="44.889145" lon="12.3283917"><ele>-1.0</ele><time>2026-04-12T14:03:05.307Z</time></trkpt><trkpt lat="44.88933" lon="12.3284433"><ele>-1.0</ele><time>2026-04-12T14:03:06.307Z</time></trkpt><trkpt lat="44.8895" lon="12.3284917"><ele>-1.3333333333333333</ele><time>2026-04-12T14:03:07.307Z</time></trkpt><trkpt lat="44.8896617" lon="12.32853"><ele>-1.6666666666666665</ele><time>2026-04-12T14:03:08.307Z</time></trkpt><trkpt lat="44.8898217" lon="12.32856"><ele>-2.0</ele><time>2026-04-12T14:03:09.308Z</time></trkpt><trkpt lat="44.8899867" lon="12.3285817"><ele>-1.3333333333333333</ele><time>2026-04-12T14:03:10.308Z</time></trkpt><trkpt lat="44.8901533" lon="12.3285933"><ele>-0.6666666666666666</ele><time>2026-04-12T14:03:11.308Z</time></trkpt><trkpt lat="44.8903183" lon="12.3286"><ele>0.0</ele><time>2026-04-12T14:03:12.308Z</time></trkpt><trkpt lat="44.8904917" lon="12.3286067"><ele>0.0</ele><time>2026-04-12T14:03:13.308Z</time></trkpt><trkpt lat="44.89067" lon="12.3286133"><ele>0.0</ele><time>2026-04-12T14:03:14.307Z</time></trkpt><trkpt lat="44.8908483" lon="12.3286133"><ele>0.0</ele><time>2026-04-12T14:03:15.308Z</time></trkpt><trkpt lat="44.8910283" lon="12.3286267"><ele>0.3333333333333333</ele><time>2026-04-12T14:03:16.308Z</time></trkpt><trkpt lat="44.89121" lon="12.3286367"><ele>0.6666666666666666</ele><time>2026-04-12T14:03:17.307Z</time></trkpt><trkpt lat="44.8914" lon="12.3286483"><ele>1.0</ele><time>2026-04-12T14:03:18.307Z</time></trkpt><trkpt lat="44.8915933" lon="12.3286733"><ele>1.0</ele><time>2026-04-12T14:03:19.307Z</time></trkpt><trkpt lat="44.8917867" lon="12.3286917"><ele>1.0</ele><time>2026-04-12T14:03:20.307Z</time></trkpt><trkpt lat="44.8919817" lon="12.3287067"><ele>1.0</ele><time>2026-04-12T14:03:21.308Z</time></trkpt><trkpt lat="44.8921767" lon="12.3287167"><ele>1.0</ele><time>2026-04-12T14:03:22.307Z</time></trkpt><trkpt lat="44.8923617" lon="12.328725"><ele>1.0</ele><time>2026-04-12T14:03:23.307Z</time></trkpt><trkpt lat="44.8925333" lon="12.3287233"><ele>1.0</ele><time>2026-04-12T14:03:24.307Z</time></trkpt><trkpt lat="44.8926967" lon="12.3287317"><ele>0.75</ele><time>2026-04-12T14:03:25.307Z</time></trkpt><trkpt lat="44.8928467" lon="12.3287317"><ele>0.5</ele><time>2026-04-12T14:03:26.307Z</time></trkpt><trkpt lat="44.8929967" lon="12.328725"><ele>0.25</ele><time>2026-04-12T14:03:27.308Z</time></trkpt><trkpt lat="44.8931433" lon="12.3287067"><ele>0.0</ele><time>2026-04-12T14:03:28.307Z</time></trkpt><trkpt lat="44.8932983" lon="12.32867"><ele>-0.6666666666666666</ele><time>2026-04-12T14:03:29.307Z</time></trkpt><trkpt lat="44.89345" lon="12.3286083"><ele>-1.3333333333333333</ele><time>2026-04-12T14:03:30.308Z</time></trkpt><trkpt lat="44.893605" lon="12.3285333"><ele>-2.0</ele><time>2026-04-12T14:03:31.307Z</time></trkpt><trkpt lat="44.8937583" lon="12.32845"><ele>-2.0</ele><time>2026-04-12T14:03:32.307Z</time></trkpt><trkpt lat="44.893905" lon="12.328365"><ele>-2.0</ele><time>2026-04-12T14:03:33.307Z</time></trkpt><trkpt lat="44.8940433" lon="12.328285"><ele>-2.0</ele><time>2026-04-12T14:03:34.307Z</time></trkpt><trkpt lat="44.8941767" lon="12.3281983"><ele>-2.333333333333333</ele><time>2026-04-12T14:03:35.307Z</time></trkpt><trkpt lat="44.894315" lon="12.3281133"><ele>-2.6666666666666665</ele><time>2026-04-12T14:03:36.308Z</time></trkpt><trkpt lat="44.89446" lon="12.32803"><ele>-3.0</ele><time>2026-04-12T14:03:37.307Z</time></trkpt><trkpt lat="44.8946083" lon="12.327935"><ele>-2.6666666666666665</ele><time>2026-04-12T14:03:38.308Z</time></trkpt><trkpt lat="44.8947633" lon="12.327835"><ele>-2.333333333333333</ele><time>2026-04-12T14:03:39.308Z</time></trkpt><trkpt lat="44.8949233" lon="12.3277233"><ele>-2.0</ele><time>2026-04-12T14:03:40.307Z</time></trkpt><trkpt lat="44.8950917" lon="12.3276067"><ele>-2.0</ele><time>2026-04-12T14:03:41.307Z</time></trkpt><trkpt lat="44.8952667" lon="12.3274783"><ele>-2.0</ele><time>2026-04-12T14:03:42.307Z</time></trkpt><trkpt lat="44.8954517" lon="12.3273317"><ele>-2.0</ele><time>2026-04-12T14:03:43.307Z</time></trkpt><trkpt lat="44.8956317" lon="12.3271567"><ele>-2.5</ele><time>2026-04-12T14:03:44.307Z</time></trkpt><trkpt lat="44.895815" lon="12.3269667"><ele>-3.0</ele><time>2026-04-12T14:03:45.307Z</time></trkpt><trkpt lat="44.8959917" lon="12.32676"><ele>-3.0</ele><time>2026-04-12T14:03:46.308Z</time></trkpt><trkpt lat="44.8961767" lon="12.3265467"><ele>-3.0</ele><time>2026-04-12T14:03:47.307Z</time></trkpt><trkpt lat="44.89636" lon="12.3263117"><ele>-1.5</ele><time>2026-04-12T14:03:48.307Z</time></trkpt><trkpt lat="44.896545" lon="12.326075"><ele>0.0</ele><time>2026-04-12T14:03:49.307Z</time></trkpt><trkpt lat="44.8967333" lon="12.3258333"><ele>0.0</ele><time>2026-04-12T14:03:50.307Z</time></trkpt><trkpt lat="44.896925" lon="12.325595"><ele>0.0</ele><time>2026-04-12T14:03:51.307Z</time></trkpt><trkpt lat="44.8971183" lon="12.3253517"><ele>0.0</ele><time>2026-04-12T14:03:52.307Z</time></trkpt><trkpt lat="44.89731" lon="12.325105"><ele>0.0</ele><time>2026-04-12T14:03:53.307Z</time></trkpt><trkpt lat="44.8975033" lon="12.3248633"><ele>-0.5</ele><time>2026-04-12T14:03:54.307Z</time></trkpt><trkpt lat="44.8976967" lon="12.32462"><ele>-1.0</ele><time>2026-04-12T14:03:55.307Z</time></trkpt><trkpt lat="44.8978917" lon="12.324385"><ele>-1.0</ele><time>2026-04-12T14:03:56.307Z</time></trkpt><trkpt lat="44.89808" lon="12.3241633"><ele>-1.0</ele><time>2026-04-12T14:03:57.307Z</time></trkpt><trkpt lat="44.898265" lon="12.3239483"><ele>-2.0</ele><time>2026-04-12T14:03:58.307Z</time></trkpt><trkpt lat="44.8984467" lon="12.3237383"><ele>-3.0</ele><time>2026-04-12T14:03:59.307Z</time></trkpt><trkpt lat="44.8986217" lon="12.32353"><ele>-3.0</ele><time>2026-04-12T14:04:00.308Z</time></trkpt><trkpt lat="44.898805" lon="12.3233183"><ele>-3.0</ele><time>2026-04-12T14:04:01.308Z</time></trkpt><trkpt lat="44.898985" lon="12.3231067"><ele>-2.0</ele><time>2026-04-12T14:04:02.307Z</time></trkpt><trkpt lat="44.89917" lon="12.3229"><ele>-1.0</ele><time>2026-04-12T14:04:03.308Z</time></trkpt><trkpt lat="44.899355" lon="12.3226833"><ele>-1.0</ele><time>2026-04-12T14:04:04.307Z</time></trkpt><trkpt lat="44.8995417" lon="12.3224717"><ele>-1.0</ele><time>2026-04-12T14:04:05.307Z</time></trkpt><trkpt lat="44.8997267" lon="12.3222583"><ele>0.0</ele><time>2026-04-12T14:04:06.308Z</time></trkpt><trkpt lat="44.89991" lon="12.3220433"><ele>1.0</ele><time>2026-04-12T14:04:07.308Z</time></trkpt><trkpt lat="44.900095" lon="12.3218217"><ele>0.5</ele><time>2026-04-12T14:04:08.307Z</time></trkpt><trkpt lat="44.900275" lon="12.3216033"><ele>0.0</ele><time>2026-04-12T14:04:09.307Z</time></trkpt><trkpt lat="44.9004583" lon="12.3213783"><ele>0.0</ele><time>2026-04-12T14:04:10.308Z</time></trkpt><trkpt lat="44.9006383" lon="12.32115"><ele>0.0</ele><time>2026-04-12T14:04:11.307Z</time></trkpt><trkpt lat="44.9008117" lon="12.3209183"><ele>-0.3333333333333333</ele><time>2026-04-12T14:04:12.307Z</time></trkpt><trkpt lat="44.9009767" lon="12.320695"><ele>-0.6666666666666666</ele><time>2026-04-12T14:04:13.307Z</time></trkpt><trkpt lat="44.901135" lon="12.32048"><ele>-1.0</ele><time>2026-04-12T14:04:14.307Z</time></trkpt><trkpt lat="44.90127" lon="12.320275"><ele>-1.0</ele><time>2026-04-12T14:04:15.308Z</time></trkpt><trkpt lat="44.9013833" lon="12.3200583"><ele>-1.0</ele><time>2026-04-12T14:04:16.307Z</time></trkpt><trkpt lat="44.901475" lon="12.31981"><ele>-1.0</ele><time>2026-04-12T14:04:17.308Z</time></trkpt><trkpt lat="44.90155" lon="12.319535"><ele>-1.0</ele><time>2026-04-12T14:04:18.307Z</time></trkpt><trkpt lat="44.9016267" lon="12.31925"><ele>-1.0</ele><time>2026-04-12T14:04:19.307Z</time></trkpt><trkpt lat="44.9017167" lon="12.3189667"><ele>-1.0</ele><time>2026-04-12T14:04:20.307Z</time></trkpt><trkpt lat="44.9018367" lon="12.3186933"><ele>-1.5</ele><time>2026-04-12T14:04:21.307Z</time></trkpt><trkpt lat="44.9019917" lon="12.3184283"><ele>-2.0</ele><time>2026-04-12T14:04:22.308Z</time></trkpt><trkpt lat="44.90216" lon="12.31817"><ele>-1.0</ele><time>2026-04-12T14:04:23.307Z</time></trkpt><trkpt lat="44.9023333" lon="12.3179083"><ele>0.0</ele><time>2026-04-12T14:04:24.307Z</time></trkpt><trkpt lat="44.9025083" lon="12.317635"><ele>-0.5</ele><time>2026-04-12T14:04:25.307Z</time></trkpt><trkpt lat="44.9026817" lon="12.317365"><ele>-1.0</ele><time>2026-04-12T14:04:26.308Z</time></trkpt><trkpt lat="44.9028467" lon="12.317105"><ele>-1.5</ele><time>2026-04-12T14:04:27.307Z</time></trkpt><trkpt lat="44.9030033" lon="12.3168633"><ele>-2.0</ele><time>2026-04-12T14:04:28.307Z</time></trkpt><trkpt lat="44.9031633" lon="12.316655"><ele>-2.0</ele><time>2026-04-12T14:04:29.307Z</time></trkpt><trkpt lat="44.9033383" lon="12.3164833"><ele>-2.0</ele><time>2026-04-12T14:04:30.307Z</time></trkpt><trkpt lat="44.9035233" lon="12.3163483"><ele>-2.0</ele><time>2026-04-12T14:04:31.307Z</time></trkpt><trkpt lat="44.903725" lon="12.3162267"><ele>-1.5</ele><time>2026-04-12T14:04:32.307Z</time></trkpt><trkpt lat="44.90393" lon="12.3161067"><ele>-1.0</ele><time>2026-04-12T14:04:33.307Z</time></trkpt><trkpt lat="44.9041483" lon="12.3159833"><ele>-1.5</ele><time>2026-04-12T14:04:34.307Z</time></trkpt><trkpt lat="44.9043667" lon="12.3158617"><ele>-2.0</ele><time>2026-04-12T14:04:35.307Z</time></trkpt><trkpt lat="44.9045833" lon="12.3157417"><ele>-2.0</ele><time>2026-04-12T14:04:36.307Z</time></trkpt><trkpt lat="44.9048" lon="12.3156183"><ele>-2.0</ele><time>2026-04-12T14:04:37.307Z</time></trkpt><trkpt lat="44.90502" lon="12.3154967"><ele>0.0</ele><time>2026-04-12T14:04:38.307Z</time></trkpt><trkpt lat="44.90524" lon="12.31538"><ele>2.0</ele><time>2026-04-12T14:04:39.307Z</time></trkpt><trkpt lat="44.90546" lon="12.3152967"><ele>2.0</ele><time>2026-04-12T14:04:40.307Z</time></trkpt><trkpt lat="44.9056883" lon="12.3152333"><ele>2.0</ele><time>2026-04-12T14:04:41.307Z</time></trkpt><trkpt lat="44.90591" lon="12.3151883"><ele>1.6666666666666665</ele><time>2026-04-12T14:04:42.307Z</time></trkpt><trkpt lat="44.9061383" lon="12.3151433"><ele>1.3333333333333333</ele><time>2026-04-12T14:04:43.307Z</time></trkpt><trkpt lat="44.906355" lon="12.3151017"><ele>1.0</ele><time>2026-04-12T14:04:44.307Z</time></trkpt><trkpt lat="44.9065633" lon="12.31507"><ele>1.0</ele><time>2026-04-12T14:04:45.307Z</time></trkpt><trkpt lat="44.9067767" lon="12.3150567"><ele>1.0</ele><time>2026-04-12T14:04:46.307Z</time></trkpt><trkpt lat="44.90699" lon="12.3150683"><ele>1.0</ele><time>2026-04-12T14:04:47.308Z</time></trkpt><trkpt lat="44.9072" lon="12.3151083"><ele>1.0</ele><time>2026-04-12T14:04:48.307Z</time></trkpt><trkpt lat="44.9074033" lon="12.31517"><ele>1.0</ele><time>2026-04-12T14:04:49.307Z</time></trkpt><trkpt lat="44.90761" lon="12.31525"><ele>1.0</ele><time>2026-04-12T14:04:50.307Z</time></trkpt><trkpt lat="44.9078167" lon="12.3153483"><ele>1.3333333333333333</ele><time>2026-04-12T14:04:51.307Z</time></trkpt><trkpt lat="44.9080233" lon="12.3154533"><ele>1.6666666666666665</ele><time>2026-04-12T14:04:52.307Z</time></trkpt><trkpt lat="44.9082217" lon="12.3155667"><ele>2.0</ele><time>2026-04-12T14:04:53.307Z</time></trkpt><trkpt lat="44.908425" lon="12.315695"><ele>2.0</ele><time>2026-04-12T14:04:54.308Z</time></trkpt><trkpt lat="44.9086267" lon="12.31582"><ele>2.0</ele><time>2026-04-12T14:04:55.307Z</time></trkpt><trkpt lat="44.9088317" lon="12.3159383"><ele>2.0</ele><time>2026-04-12T14:04:56.307Z</time></trkpt><trkpt lat="44.90904" lon="12.31605"><ele>1.5</ele><time>2026-04-12T14:04:57.307Z</time></trkpt><trkpt lat="44.9092533" lon="12.3161717"><ele>1.0</ele><time>2026-04-12T14:04:58.307Z</time></trkpt><trkpt lat="44.9094633" lon="12.3162917"><ele>1.5</ele><time>2026-04-12T14:04:59.307Z</time></trkpt><trkpt lat="44.9096683" lon="12.31642"><ele>2.0</ele><time>2026-04-12T14:05:00.307Z</time></trkpt><trkpt lat="44.9098717" lon="12.3165667"><ele>2.0</ele><time>2026-04-12T14:05:01.307Z</time></trkpt><trkpt lat="44.910065" lon="12.316735"><ele>2.0</ele><time>2026-04-12T14:05:02.307Z</time></trkpt><trkpt lat="44.910255" lon="12.31694"><ele>1.5</ele><time>2026-04-12T14:05:03.307Z</time></trkpt><trkpt lat="44.91043" lon="12.31715"><ele>1.0</ele><time>2026-04-12T14:05:04.307Z</time></trkpt><trkpt lat="44.9106017" lon="12.3173667"><ele>0.5</ele><time>2026-04-12T14:05:05.307Z</time></trkpt><trkpt lat="44.91077" lon="12.317585"><ele>0.0</ele><time>2026-04-12T14:05:06.307Z</time></trkpt><trkpt lat="44.91094" lon="12.3177983"><ele>0.0</ele><time>2026-04-12T14:05:07.307Z</time></trkpt><trkpt lat="44.911115" lon="12.3180033"><ele>0.0</ele><time>2026-04-12T14:05:08.308Z</time></trkpt><trkpt lat="44.911285" lon="12.3182183"><ele>0.3333333333333333</ele><time>2026-04-12T14:05:09.308Z</time></trkpt><trkpt lat="44.9114567" lon="12.3184133"><ele>0.6666666666666666</ele><time>2026-04-12T14:05:10.307Z</time></trkpt><trkpt lat="44.9116133" lon="12.3186067"><ele>1.0</ele><time>2026-04-12T14:05:11.307Z</time></trkpt><trkpt lat="44.9117867" lon="12.3187817"><ele>0.3333333333333333</ele><time>2026-04-12T14:05:12.307Z</time></trkpt><trkpt lat="44.911965" lon="12.3189467"><ele>-0.3333333333333333</ele><time>2026-04-12T14:05:13.307Z</time></trkpt><trkpt lat="44.9121467" lon="12.3190983"><ele>-1.0</ele><time>2026-04-12T14:05:14.307Z</time></trkpt><trkpt lat="44.912325" lon="12.3192467"><ele>-1.0</ele><time>2026-04-12T14:05:15.307Z</time></trkpt><trkpt lat="44.9125033" lon="12.3193933"><ele>-1.0</ele><time>2026-04-12T14:05:16.307Z</time></trkpt><trkpt lat="44.9126817" lon="12.31953"><ele>-1.0</ele><time>2026-04-12T14:05:17.307Z</time></trkpt><trkpt lat="44.9128583" lon="12.3196633"><ele>-1.3333333333333333</ele><time>2026-04-12T14:05:18.307Z</time></trkpt><trkpt lat="44.9130333" lon="12.319795"><ele>-1.6666666666666665</ele><time>2026-04-12T14:05:19.308Z</time></trkpt><trkpt lat="44.91321" lon="12.31992"><ele>-2.0</ele><time>2026-04-12T14:05:20.307Z</time></trkpt><trkpt lat="44.9133867" lon="12.3200383"><ele>-1.6666666666666665</ele><time>2026-04-12T14:05:21.307Z</time></trkpt><trkpt lat="44.91357" lon="12.320125"><ele>-1.3333333333333333</ele><time>2026-04-12T14:05:22.308Z</time></trkpt><trkpt lat="44.91376" lon="12.3201867"><ele>-1.0</ele><time>2026-04-12T14:05:23.307Z</time></trkpt><trkpt lat="44.9139517" lon="12.3202283"><ele>-1.0</ele><time>2026-04-12T14:05:24.307Z</time></trkpt><trkpt lat="44.9141533" lon="12.3202517"><ele>-1.0</ele><time>2026-04-12T14:05:25.308Z</time></trkpt><trkpt lat="44.9143667" lon="12.3202633"><ele>-1.0</ele><time>2026-04-12T14:05:26.307Z</time></trkpt><trkpt lat="44.914585" lon="12.32027"><ele>-1.3333333333333333</ele><time>2026-04-12T14:05:27.307Z</time></trkpt><trkpt lat="44.9148" lon="12.3202617"><ele>-1.6666666666666665</ele><time>2026-04-12T14:05:28.307Z</time></trkpt><trkpt lat="44.915025" lon="12.3202583"><ele>-2.0</ele><time>2026-04-12T14:05:29.307Z</time></trkpt><trkpt lat="44.9152483" lon="12.3202717"><ele>-2.0</ele><time>2026-04-12T14:05:30.307Z</time></trkpt><trkpt lat="44.9154767" lon="12.3202917"><ele>-2.0</ele><time>2026-04-12T14:05:31.307Z</time></trkpt><trkpt lat="44.915705" lon="12.3203283"><ele>-1.5</ele><time>2026-04-12T14:05:32.308Z</time></trkpt><trkpt lat="44.9159383" lon="12.3203683"><ele>-1.0</ele><time>2026-04-12T14:05:33.307Z</time></trkpt><trkpt lat="44.9161733" lon="12.3204067"><ele>-1.0</ele><time>2026-04-12T14:05:34.308Z</time></trkpt><trkpt lat="44.9164" lon="12.3204483"><ele>-1.0</ele><time>2026-04-12T14:05:35.308Z</time></trkpt><trkpt lat="44.9166267" lon="12.320485"><ele>-0.6666666666666666</ele><time>2026-04-12T14:05:36.307Z</time></trkpt><trkpt lat="44.91685" lon="12.3205133"><ele>-0.3333333333333333</ele><time>2026-04-12T14:05:37.307Z</time></trkpt><trkpt lat="44.91707" lon="12.3205467"><ele>0.0</ele><time>2026-04-12T14:05:38.307Z</time></trkpt><trkpt lat="44.9172933" lon="12.3205783"><ele>-0.6666666666666666</ele><time>2026-04-12T14:05:39.307Z</time></trkpt><trkpt lat="44.9175067" lon="12.320615"><ele>-1.3333333333333333</ele><time>2026-04-12T14:05:40.308Z</time></trkpt><trkpt lat="44.9177283" lon="12.3206417"><ele>-2.0</ele><time>2026-04-12T14:05:41.307Z</time></trkpt><trkpt lat="44.917945" lon="12.3206717"><ele>-2.0</ele><time>2026-04-12T14:05:42.307Z</time></trkpt><trkpt lat="44.9181683" lon="12.3207067"><ele>-2.0</ele><time>2026-04-12T14:05:43.307Z</time></trkpt><trkpt lat="44.9183833" lon="12.320745"><ele>-2.0</ele><time>2026-04-12T14:05:44.307Z</time></trkpt><trkpt lat="44.9186033" lon="12.32078"><ele>-2.333333333333333</ele><time>2026-04-12T14:05:45.308Z</time></trkpt><trkpt lat="44.9188267" lon="12.320815"><ele>-2.6666666666666665</ele><time>2026-04-12T14:05:46.307Z</time></trkpt><trkpt lat="44.91905" lon="12.3208433"><ele>-3.0</ele><time>2026-04-12T14:05:47.307Z</time></trkpt><trkpt lat="44.9192767" lon="12.3208767"><ele>-3.0</ele><time>2026-04-12T14:05:48.307Z</time></trkpt><trkpt lat="44.9194983" lon="12.32091"><ele>-3.0</ele><time>2026-04-12T14:05:49.308Z</time></trkpt><trkpt lat="44.919715" lon="12.32094"><ele>-3.0</ele><time>2026-04-12T14:05:50.307Z</time></trkpt><trkpt lat="44.9199383" lon="12.3209683"><ele>-2.6666666666666665</ele><time>2026-04-12T14:05:51.307Z</time></trkpt><trkpt lat="44.9201617" lon="12.321"><ele>-2.333333333333333</ele><time>2026-04-12T14:05:52.307Z</time></trkpt><trkpt lat="44.9203833" lon="12.3210333"><ele>-2.0</ele><time>2026-04-12T14:05:53.307Z</time></trkpt><trkpt lat="44.9206067" lon="12.32107"><ele>-2.0</ele><time>2026-04-12T14:05:54.307Z</time></trkpt><trkpt lat="44.92083" lon="12.3210983"><ele>-2.0</ele><time>2026-04-12T14:05:55.307Z</time></trkpt><trkpt lat="44.921055" lon="12.3211333"><ele>-1.0</ele><time>2026-04-12T14:05:56.308Z</time></trkpt><trkpt lat="44.921285" lon="12.3211833"><ele>0.0</ele><time>2026-04-12T14:05:57.307Z</time></trkpt><trkpt lat="44.921515" lon="12.3212583"><ele>0.0</ele><time>2026-04-12T14:05:58.307Z</time></trkpt><trkpt lat="44.9217267" lon="12.3213633"><ele>0.0</ele><time>2026-04-12T14:05:59.307Z</time></trkpt><trkpt lat="44.9219233" lon="12.3215133"><ele>0.0</ele><time>2026-04-12T14:06:00.307Z</time></trkpt><trkpt lat="44.922105" lon="12.3217"><ele>0.5</ele><time>2026-04-12T14:06:01.307Z</time></trkpt><trkpt lat="44.9222917" lon="12.321905"><ele>1.0</ele><time>2026-04-12T14:06:02.307Z</time></trkpt><trkpt lat="44.9224817" lon="12.3221033"><ele>0.5</ele><time>2026-04-12T14:06:03.308Z</time></trkpt><trkpt lat="44.9226783" lon="12.3223067"><ele>0.0</ele><time>2026-04-12T14:06:04.308Z</time></trkpt><trkpt lat="44.9228817" lon="12.3224983"><ele>0.0</ele><time>2026-04-12T14:06:05.308Z</time></trkpt><trkpt lat="44.9230817" lon="12.3226967"><ele>0.0</ele><time>2026-04-12T14:06:06.307Z</time></trkpt><trkpt lat="44.9232833" lon="12.3229067"><ele>0.0</ele><time>2026-04-12T14:06:07.307Z</time></trkpt><trkpt lat="44.9234783" lon="12.3231067"><ele>0.0</ele><time>2026-04-12T14:06:08.307Z</time></trkpt><trkpt lat="44.92368" lon="12.3233117"><ele>0.0</ele><time>2026-04-12T14:06:09.307Z</time></trkpt><trkpt lat="44.923885" lon="12.3235167"><ele>0.0</ele><time>2026-04-12T14:06:10.307Z</time></trkpt><trkpt lat="44.9240933" lon="12.32372"><ele>1.5</ele><time>2026-04-12T14:06:11.307Z</time></trkpt><trkpt lat="44.9242983" lon="12.3239217"><ele>3.0</ele><time>2026-04-12T14:06:12.307Z</time></trkpt><trkpt lat="44.9245" lon="12.3241267"><ele>3.0</ele><time>2026-04-12T14:06:13.308Z</time></trkpt><trkpt lat="44.9247083" lon="12.3243317"><ele>3.0</ele><time>2026-04-12T14:06:14.307Z</time></trkpt><trkpt lat="44.924915" lon="12.3245433"><ele>2.0</ele><time>2026-04-12T14:06:15.307Z</time></trkpt><trkpt lat="44.9251217" lon="12.3247533"><ele>1.0</ele><time>2026-04-12T14:06:16.307Z</time></trkpt><trkpt lat="44.92532" lon="12.3249433"><ele>1.0</ele><time>2026-04-12T14:06:17.308Z</time></trkpt><trkpt lat="44.9255067" lon="12.3251367"><ele>1.0</ele><time>2026-04-12T14:06:18.307Z</time></trkpt><trkpt lat="44.9256817" lon="12.3253167"><ele>1.0</ele><time>2026-04-12T14:06:19.307Z</time></trkpt><trkpt lat="44.92584" lon="12.325475"><ele>0.6666666666666666</ele><time>2026-04-12T14:06:20.307Z</time></trkpt><trkpt lat="44.9259833" lon="12.32561"><ele>0.3333333333333333</ele><time>2026-04-12T14:06:21.307Z</time></trkpt><trkpt lat="44.92611" lon="12.32572"><ele>0.0</ele><time>2026-04-12T14:06:22.307Z</time></trkpt><trkpt lat="44.9262317" lon="12.3257967"><ele>0.0</ele><time>2026-04-12T14:06:23.307Z</time></trkpt><trkpt lat="44.9263483" lon="12.3258583"><ele>0.0</ele><time>2026-04-12T14:06:24.307Z</time></trkpt><trkpt lat="44.926475" lon="12.3259017"><ele>0.0</ele><time>2026-04-12T14:06:25.307Z</time></trkpt><trkpt lat="44.926615" lon="12.32594"><ele>0.0</ele><time>2026-04-12T14:06:26.307Z</time></trkpt><trkpt lat="44.9267683" lon="12.325965"><ele>-0.3333333333333333</ele><time>2026-04-12T14:06:27.307Z</time></trkpt><trkpt lat="44.9269267" lon="12.3259933"><ele>-0.6666666666666666</ele><time>2026-04-12T14:06:28.307Z</time></trkpt><trkpt lat="44.927095" lon="12.3260183"><ele>-1.0</ele><time>2026-04-12T14:06:29.307Z</time></trkpt><trkpt lat="44.9272567" lon="12.326055"><ele>-1.0</ele><time>2026-04-12T14:06:30.307Z</time></trkpt><trkpt lat="44.9274117" lon="12.326085"><ele>-1.0</ele><time>2026-04-12T14:06:31.307Z</time></trkpt><trkpt lat="44.9275783" lon="12.32611"><ele>-1.0</ele><time>2026-04-12T14:06:32.308Z</time></trkpt><trkpt lat="44.927755" lon="12.3261267"><ele>-0.6666666666666666</ele><time>2026-04-12T14:06:33.308Z</time></trkpt><trkpt lat="44.9279317" lon="12.32615"><ele>-0.3333333333333333</ele><time>2026-04-12T14:06:34.308Z</time></trkpt><trkpt lat="44.9281183" lon="12.32618"><ele>0.0</ele><time>2026-04-12T14:06:35.307Z</time></trkpt><trkpt lat="44.9283067" lon="12.3262117"><ele>0.3333333333333333</ele><time>2026-04-12T14:06:36.308Z</time></trkpt><trkpt lat="44.9284967" lon="12.3262383"><ele>0.6666666666666666</ele><time>2026-04-12T14:06:37.308Z</time></trkpt><trkpt lat="44.9286817" lon="12.3262567"><ele>1.0</ele><time>2026-04-12T14:06:38.307Z</time></trkpt><trkpt lat="44.928875" lon="12.326285"><ele>1.0</ele><time>2026-04-12T14:06:39.307Z</time></trkpt><trkpt lat="44.92906" lon="12.326315"><ele>1.0</ele><time>2026-04-12T14:06:40.308Z</time></trkpt><trkpt lat="44.9292517" lon="12.3263333"><ele>1.0</ele><time>2026-04-12T14:06:41.307Z</time></trkpt><trkpt lat="44.9294433" lon="12.3263683"><ele>-0.6666666666666666</ele><time>2026-04-12T14:06:42.308Z</time></trkpt><trkpt lat="44.9296317" lon="12.326405"><ele>-2.333333333333333</ele><time>2026-04-12T14:06:43.307Z</time></trkpt><trkpt lat="44.9298067" lon="12.3264383"><ele>-4.0</ele><time>2026-04-12T14:06:44.308Z</time></trkpt><trkpt lat="44.9299717" lon="12.32646"><ele>-2.75</ele><time>2026-04-12T14:06:45.307Z</time></trkpt><trkpt lat="44.93012" lon="12.3264767"><ele>-1.5</ele><time>2026-04-12T14:06:46.307Z</time></trkpt><trkpt lat="44.9302617" lon="12.326485"><ele>-0.25</ele><time>2026-04-12T14:06:47.307Z</time></trkpt><trkpt lat="44.9303983" lon="12.3264783"><ele>1.0</ele><time>2026-04-12T14:06:48.308Z</time></trkpt><trkpt lat="44.9305333" lon="12.32647"><ele>1.0</ele><time>2026-04-12T14:06:49.307Z</time></trkpt><trkpt lat="44.930665" lon="12.3264483"><ele>1.0</ele><time>2026-04-12T14:06:50.307Z</time></trkpt><trkpt lat="44.9307983" lon="12.3264267"><ele>1.0</ele><time>2026-04-12T14:06:51.307Z</time></trkpt><trkpt lat="44.9309217" lon="12.32639"><ele>1.0</ele><time>2026-04-12T14:06:52.307Z</time></trkpt><trkpt lat="44.9310383" lon="12.3263467"><ele>0.5</ele><time>2026-04-12T14:06:53.307Z</time></trkpt><trkpt lat="44.931155" lon="12.3263"><ele>0.0</ele><time>2026-04-12T14:06:54.307Z</time></trkpt><trkpt lat="44.9312817" lon="12.3262367"><ele>-0.5</ele><time>2026-04-12T14:06:55.307Z</time></trkpt><trkpt lat="44.9314067" lon="12.3261733"><ele>-1.0</ele><time>2026-04-12T14:06:56.307Z</time></trkpt><trkpt lat="44.9315367" lon="12.3261083"><ele>-1.0</ele><time>2026-04-12T14:06:57.307Z</time></trkpt><trkpt lat="44.9316683" lon="12.3260333"><ele>-1.0</ele><time>2026-04-12T14:06:58.307Z</time></trkpt><trkpt lat="44.9318017" lon="12.32595"><ele>-1.0</ele><time>2026-04-12T14:06:59.307Z</time></trkpt><trkpt lat="44.93194" lon="12.32587"><ele>-1.0</ele><time>2026-04-12T14:07:00.307Z</time></trkpt><trkpt lat="44.9320767" lon="12.3257917"><ele>-1.3333333333333333</ele><time>2026-04-12T14:07:01.307Z</time></trkpt><trkpt lat="44.9322217" lon="12.3257217"><ele>-1.6666666666666665</ele><time>2026-04-12T14:07:02.307Z</time></trkpt><trkpt lat="44.9323717" lon="12.3256717"><ele>-2.0</ele><time>2026-04-12T14:07:03.307Z</time></trkpt><trkpt lat="44.9325217" lon="12.3256133"><ele>-2.0</ele><time>2026-04-12T14:07:04.307Z</time></trkpt><trkpt lat="44.9326667" lon="12.32555"><ele>-2.0</ele><time>2026-04-12T14:07:05.307Z</time></trkpt><trkpt lat="44.9328167" lon="12.32547"><ele>-2.0</ele><time>2026-04-12T14:07:06.307Z</time></trkpt><trkpt lat="44.9329683" lon="12.3253817"><ele>-2.0</ele><time>2026-04-12T14:07:07.308Z</time></trkpt><trkpt lat="44.9331183" lon="12.3252983"><ele>-2.0</ele><time>2026-04-12T14:07:08.307Z</time></trkpt><trkpt lat="44.9332667" lon="12.325215"><ele>-2.0</ele><time>2026-04-12T14:07:09.307Z</time></trkpt><trkpt lat="44.933415" lon="12.325125"><ele>-2.0</ele><time>2026-04-12T14:07:10.307Z</time></trkpt><trkpt lat="44.9335583" lon="12.3250383"><ele>-2.0</ele><time>2026-04-12T14:07:11.308Z</time></trkpt><trkpt lat="44.9336983" lon="12.3249583"><ele>-2.0</ele><time>2026-04-12T14:07:12.308Z</time></trkpt><trkpt lat="44.9338333" lon="12.3248783"><ele>-2.0</ele><time>2026-04-12T14:07:13.307Z</time></trkpt><trkpt lat="44.9339583" lon="12.3247817"><ele>-2.0</ele><time>2026-04-12T14:07:14.308Z</time></trkpt><trkpt lat="44.9340783" lon="12.324665"><ele>-2.0</ele><time>2026-04-12T14:07:15.307Z</time></trkpt><trkpt lat="44.9341883" lon="12.3245333"><ele>-2.0</ele><time>2026-04-12T14:07:16.308Z</time></trkpt><trkpt lat="44.93429" lon="12.324385"><ele>-2.0</ele><time>2026-04-12T14:07:17.308Z</time></trkpt><trkpt lat="44.9343867" lon="12.3242117"><ele>-2.0</ele><time>2026-04-12T14:07:18.307Z</time></trkpt><trkpt lat="44.9344833" lon="12.3240367"><ele>-2.0</ele><time>2026-04-12T14:07:19.307Z</time></trkpt><trkpt lat="44.9345917" lon="12.3238717"><ele>-2.0</ele><time>2026-04-12T14:07:20.307Z</time></trkpt><trkpt lat="44.9347" lon="12.3237033"><ele>-2.0</ele><time>2026-04-12T14:07:21.307Z</time></trkpt><trkpt lat="44.93481" lon="12.3235367"><ele>-2.0</ele><time>2026-04-12T14:07:22.308Z</time></trkpt><trkpt lat="44.9349133" lon="12.32337"><ele>-2.0</ele><time>2026-04-12T14:07:23.307Z</time></trkpt><trkpt lat="44.9350267" lon="12.3232083"><ele>-2.0</ele><time>2026-04-12T14:07:24.307Z</time></trkpt><trkpt lat="44.9351383" lon="12.32305"><ele>-2.0</ele><time>2026-04-12T14:07:25.307Z</time></trkpt><trkpt lat="44.93525" lon="12.322895"><ele>-2.333333333333333</ele><time>2026-04-12T14:07:26.307Z</time></trkpt><trkpt lat="44.935365" lon="12.3227333"><ele>-2.6666666666666665</ele><time>2026-04-12T14:07:27.307Z</time></trkpt><trkpt lat="44.93548" lon="12.3225733"><ele>-3.0</ele><time>2026-04-12T14:07:28.307Z</time></trkpt><trkpt lat="44.9356033" lon="12.32241"><ele>-3.0</ele><time>2026-04-12T14:07:29.307Z</time></trkpt><trkpt lat="44.935725" lon="12.3222483"><ele>-3.0</ele><time>2026-04-12T14:07:30.308Z</time></trkpt><trkpt lat="44.9358433" lon="12.3220817"><ele>-3.0</ele><time>2026-04-12T14:07:31.307Z</time></trkpt><trkpt lat="44.9359683" lon="12.3219167"><ele>-2.3333333333333335</ele><time>2026-04-12T14:07:32.307Z</time></trkpt><trkpt lat="44.9360933" lon="12.3217417"><ele>-1.6666666666666665</ele><time>2026-04-12T14:07:33.307Z</time></trkpt><trkpt lat="44.936215" lon="12.32157"><ele>-1.0</ele><time>2026-04-12T14:07:34.307Z</time></trkpt><trkpt lat="44.9363417" lon="12.3213933"><ele>-1.0</ele><time>2026-04-12T14:07:35.307Z</time></trkpt><trkpt lat="44.9364633" lon="12.3212233"><ele>-1.0</ele><time>2026-04-12T14:07:36.307Z</time></trkpt><trkpt lat="44.936595" lon="12.3210517"><ele>-1.0</ele><time>2026-04-12T14:07:37.307Z</time></trkpt><trkpt lat="44.9367233" lon="12.3208817"><ele>-1.3333333333333333</ele><time>2026-04-12T14:07:38.307Z</time></trkpt><trkpt lat="44.936855" lon="12.320725"><ele>-1.6666666666666665</ele><time>2026-04-12T14:07:39.308Z</time></trkpt><trkpt lat="44.93699" lon="12.3205933"><ele>-2.0</ele><time>2026-04-12T14:07:40.307Z</time></trkpt><trkpt lat="44.9371233" lon="12.32051"><ele>-2.5</ele><time>2026-04-12T14:07:41.308Z</time></trkpt><trkpt lat="44.9372683" lon="12.3204733"><ele>-3.0</ele><time>2026-04-12T14:07:42.307Z</time></trkpt><trkpt lat="44.937405" lon="12.32049"><ele>-3.5</ele><time>2026-04-12T14:07:43.307Z</time></trkpt><trkpt lat="44.9375317" lon="12.32055"><ele>-4.0</ele><time>2026-04-12T14:07:44.307Z</time></trkpt><trkpt lat="44.93768" lon="12.320645"><ele>-4.0</ele><time>2026-04-12T14:07:45.308Z</time></trkpt><trkpt lat="44.93784" lon="12.320755"><ele>-4.0</ele><time>2026-04-12T14:07:46.308Z</time></trkpt><trkpt lat="44.9380033" lon="12.32086"><ele>-4.0</ele><time>2026-04-12T14:07:47.307Z</time></trkpt><trkpt lat="44.93817" lon="12.3209633"><ele>-4.0</ele><time>2026-04-12T14:07:48.307Z</time></trkpt><trkpt lat="44.938325" lon="12.3210717"><ele>-4.0</ele><time>2026-04-12T14:07:49.308Z</time></trkpt><trkpt lat="44.9384767" lon="12.3211667"><ele>-4.0</ele><time>2026-04-12T14:07:50.307Z</time></trkpt><trkpt lat="44.9386183" lon="12.321255"><ele>-4.333333333333333</ele><time>2026-04-12T14:07:51.307Z</time></trkpt><trkpt lat="44.9387683" lon="12.3213467"><ele>-4.666666666666667</ele><time>2026-04-12T14:07:52.307Z</time></trkpt><trkpt lat="44.9389183" lon="12.3214433"><ele>-5.0</ele><time>2026-04-12T14:07:53.307Z</time></trkpt><trkpt lat="44.9390717" lon="12.32154"><ele>-5.333333333333334</ele><time>2026-04-12T14:07:54.307Z</time></trkpt><trkpt lat="44.9392217" lon="12.3216367"><ele>-5.666666666666667</ele><time>2026-04-12T14:07:55.307Z</time></trkpt><trkpt lat="44.9393767" lon="12.32174"><ele>-6.0</ele><time>2026-04-12T14:07:56.307Z</time></trkpt><trkpt lat="44.93953" lon="12.321835"><ele>-6.0</ele><time>2026-04-12T14:07:57.307Z</time></trkpt><trkpt lat="44.9397" lon="12.321935"><ele>-6.0</ele><time>2026-04-12T14:07:58.307Z</time></trkpt><trkpt lat="44.9398683" lon="12.32205"><ele>-6.0</ele><time>2026-04-12T14:07:59.307Z</time></trkpt><trkpt lat="44.9400383" lon="12.3221633"><ele>-6.0</ele><time>2026-04-12T14:08:00.307Z</time></trkpt><trkpt lat="44.9402083" lon="12.32228"><ele>-6.0</ele><time>2026-04-12T14:08:01.307Z</time></trkpt><trkpt lat="44.9403867" lon="12.3223967"><ele>-6.0</ele><time>2026-04-12T14:08:02.307Z</time></trkpt><trkpt lat="44.9405633" lon="12.3225117"><ele>-6.0</ele><time>2026-04-12T14:08:03.307Z</time></trkpt><trkpt lat="44.9407383" lon="12.322625"><ele>-6.0</ele><time>2026-04-12T14:08:04.308Z</time></trkpt><trkpt lat="44.940915" lon="12.322745"><ele>-6.0</ele><time>2026-04-12T14:08:05.307Z</time></trkpt><trkpt lat="44.9411" lon="12.3228583"><ele>-6.0</ele><time>2026-04-12T14:08:06.308Z</time></trkpt><trkpt lat="44.94128" lon="12.3229733"><ele>-6.0</ele><time>2026-04-12T14:08:07.308Z</time></trkpt><trkpt lat="44.9414567" lon="12.32309"><ele>-6.0</ele><time>2026-04-12T14:08:08.307Z</time></trkpt><trkpt lat="44.941625" lon="12.323195"><ele>-5.666666666666667</ele><time>2026-04-12T14:08:09.308Z</time></trkpt><trkpt lat="44.9417833" lon="12.3233017"><ele>-5.333333333333334</ele><time>2026-04-12T14:08:10.307Z</time></trkpt><trkpt lat="44.9419383" lon="12.3234017"><ele>-5.0</ele><time>2026-04-12T14:08:11.307Z</time></trkpt><trkpt lat="44.9420817" lon="12.3234933"><ele>-5.0</ele><time>2026-04-12T14:08:12.307Z</time></trkpt><trkpt lat="44.94222" lon="12.3235833"><ele>-5.0</ele><time>2026-04-12T14:08:13.307Z</time></trkpt><trkpt lat="44.9423467" lon="12.323675"><ele>-5.0</ele><time>2026-04-12T14:08:14.308Z</time></trkpt><trkpt lat="44.9424633" lon="12.3237533"><ele>-5.0</ele><time>2026-04-12T14:08:15.307Z</time></trkpt><trkpt lat="44.9425733" lon="12.3237883"><ele>-5.0</ele><time>2026-04-12T14:08:16.307Z</time></trkpt><trkpt lat="44.9426783" lon="12.3237967"><ele>-5.0</ele><time>2026-04-12T14:08:17.307Z</time></trkpt><trkpt lat="44.9427667" lon="12.323805"><ele>-5.0</ele><time>2026-04-12T14:08:18.307Z</time></trkpt><trkpt lat="44.942845" lon="12.323805"><ele>-5.0</ele><time>2026-04-12T14:08:19.307Z</time></trkpt><trkpt lat="44.9429117" lon="12.3238083"><ele>-5.0</ele><time>2026-04-12T14:08:20.307Z</time></trkpt><trkpt lat="44.9429933" lon="12.3238133"><ele>-5.0</ele><time>2026-04-12T14:08:22.307Z</time></trkpt><trkpt lat="44.9430433" lon="12.323755"><ele>-5.0</ele><time>2026-04-12T14:08:28.308Z</time></trkpt><trkpt lat="44.9430633" lon="12.32367"><ele>-5.0</ele><time>2026-04-12T14:08:29.307Z</time></trkpt><trkpt lat="44.9430733" lon="12.3235567"><ele>-5.0</ele><time>2026-04-12T14:08:30.307Z</time></trkpt><trkpt lat="44.943055" lon="12.3234117"><ele>-5.0</ele><time>2026-04-12T14:08:31.307Z</time></trkpt><trkpt lat="44.943025" lon="12.3232267"><ele>-5.0</ele><time>2026-04-12T14:08:32.307Z</time></trkpt><trkpt lat="44.94301" lon="12.3230167"><ele>-5.0</ele><time>2026-04-12T14:08:33.308Z</time></trkpt><trkpt lat="44.9430233" lon="12.3228117"><ele>-5.0</ele><time>2026-04-12T14:08:34.307Z</time></trkpt><trkpt lat="44.943045" lon="12.3225917"><ele>-5.0</ele><time>2026-04-12T14:08:35.308Z</time></trkpt><trkpt lat="44.9430833" lon="12.32237"><ele>-6.0</ele><time>2026-04-12T14:08:36.307Z</time></trkpt><trkpt lat="44.943145" lon="12.322145"><ele>-7.0</ele><time>2026-04-12T14:08:37.307Z</time></trkpt><trkpt lat="44.9432383" lon="12.3219367"><ele>-8.0</ele><time>2026-04-12T14:08:38.308Z</time></trkpt><trkpt lat="44.9433433" lon="12.3217267"><ele>-7.333333333333333</ele><time>2026-04-12T14:08:39.308Z</time></trkpt><trkpt lat="44.94346" lon="12.32153"><ele>-6.666666666666666</ele><time>2026-04-12T14:08:40.308Z</time></trkpt><trkpt lat="44.943575" lon="12.321325"><ele>-6.0</ele><time>2026-04-12T14:08:41.307Z</time></trkpt><trkpt lat="44.9436933" lon="12.3211067"><ele>-5.666666666666667</ele><time>2026-04-12T14:08:42.307Z</time></trkpt><trkpt lat="44.9438133" lon="12.320895"><ele>-5.333333333333334</ele><time>2026-04-12T14:08:43.307Z</time></trkpt><trkpt lat="44.9439317" lon="12.3206817"><ele>-5.0</ele><time>2026-04-12T14:08:44.307Z</time></trkpt><trkpt lat="44.9440467" lon="12.3204767"><ele>-5.0</ele><time>2026-04-12T14:08:45.307Z</time></trkpt><trkpt lat="44.9441667" lon="12.32027"><ele>-5.0</ele><time>2026-04-12T14:08:46.307Z</time></trkpt><trkpt lat="44.9442817" lon="12.32006"><ele>-5.0</ele><time>2026-04-12T14:08:47.307Z</time></trkpt><trkpt lat="44.9444067" lon="12.319845"><ele>-5.333333333333334</ele><time>2026-04-12T14:08:48.307Z</time></trkpt><trkpt lat="44.9445283" lon="12.3196233"><ele>-5.666666666666667</ele><time>2026-04-12T14:08:49.307Z</time></trkpt><trkpt lat="44.9446533" lon="12.3194"><ele>-6.0</ele><time>2026-04-12T14:08:50.307Z</time></trkpt><trkpt lat="44.9447767" lon="12.3191833"><ele>-6.0</ele><time>2026-04-12T14:08:51.308Z</time></trkpt><trkpt lat="44.9448983" lon="12.3189617"><ele>-6.0</ele><time>2026-04-12T14:08:52.307Z</time></trkpt><trkpt lat="44.9450133" lon="12.318745"><ele>-6.0</ele><time>2026-04-12T14:08:53.307Z</time></trkpt><trkpt lat="44.945135" lon="12.3185183"><ele>-5.666666666666667</ele><time>2026-04-12T14:08:54.307Z</time></trkpt><trkpt lat="44.945255" lon="12.3182967"><ele>-5.333333333333334</ele><time>2026-04-12T14:08:55.307Z</time></trkpt><trkpt lat="44.9453767" lon="12.3180767"><ele>-5.0</ele><time>2026-04-12T14:08:56.307Z</time></trkpt><trkpt lat="44.9454917" lon="12.31787"><ele>-5.0</ele><time>2026-04-12T14:08:57.307Z</time></trkpt><trkpt lat="44.9456067" lon="12.31766"><ele>-5.0</ele><time>2026-04-12T14:08:58.307Z</time></trkpt><trkpt lat="44.9457217" lon="12.3174517"><ele>-5.0</ele><time>2026-04-12T14:08:59.307Z</time></trkpt><trkpt lat="44.9458433" lon="12.3172367"><ele>-5.0</ele><time>2026-04-12T14:09:00.308Z</time></trkpt><trkpt lat="44.9459617" lon="12.3170183"><ele>-5.0</ele><time>2026-04-12T14:09:01.307Z</time></trkpt><trkpt lat="44.9460783" lon="12.3168"><ele>-5.0</ele><time>2026-04-12T14:09:02.307Z</time></trkpt><trkpt lat="44.9462" lon="12.316585"><ele>-5.0</ele><time>2026-04-12T14:09:03.307Z</time></trkpt><trkpt lat="44.94632" lon="12.3163583"><ele>-5.0</ele><time>2026-04-12T14:09:04.307Z</time></trkpt><trkpt lat="44.9464317" lon="12.3161217"><ele>-5.0</ele><time>2026-04-12T14:09:05.307Z</time></trkpt><trkpt lat="44.9465367" lon="12.3158767"><ele>-5.0</ele><time>2026-04-12T14:09:06.307Z</time></trkpt><trkpt lat="44.946625" lon="12.315625"><ele>-5.0</ele><time>2026-04-12T14:09:07.307Z</time></trkpt><trkpt lat="44.9467133" lon="12.3153717"><ele>-5.0</ele><time>2026-04-12T14:09:08.307Z</time></trkpt><trkpt lat="44.9467983" lon="12.3151217"><ele>-4.666666666666667</ele><time>2026-04-12T14:09:09.307Z</time></trkpt><trkpt lat="44.9468817" lon="12.3148983"><ele>-4.333333333333333</ele><time>2026-04-12T14:09:10.307Z</time></trkpt><trkpt lat="44.94695" lon="12.3146833"><ele>-4.0</ele><time>2026-04-12T14:09:11.307Z</time></trkpt><trkpt lat="44.9470167" lon="12.31449"><ele>-3.6666666666666665</ele><time>2026-04-12T14:09:12.307Z</time></trkpt><trkpt lat="44.9470817" lon="12.314285"><ele>-3.333333333333333</ele><time>2026-04-12T14:09:13.307Z</time></trkpt><trkpt lat="44.9471483" lon="12.31408"><ele>-3.0</ele><time>2026-04-12T14:09:14.308Z</time></trkpt><trkpt lat="44.947215" lon="12.3138633"><ele>-3.0</ele><time>2026-04-12T14:09:15.308Z</time></trkpt><trkpt lat="44.9472883" lon="12.3136667"><ele>-3.0</ele><time>2026-04-12T14:09:16.307Z</time></trkpt><trkpt lat="44.94736" lon="12.3134633"><ele>-3.0</ele><time>2026-04-12T14:09:17.307Z</time></trkpt><trkpt lat="44.9474217" lon="12.3132467"><ele>-3.0</ele><time>2026-04-12T14:09:18.307Z</time></trkpt><trkpt lat="44.9474833" lon="12.3130417"><ele>-3.0</ele><time>2026-04-12T14:09:19.307Z</time></trkpt><trkpt lat="44.9475483" lon="12.31285"><ele>-3.0</ele><time>2026-04-12T14:09:20.307Z</time></trkpt><trkpt lat="44.9476183" lon="12.3126517"><ele>-3.0</ele><time>2026-04-12T14:09:21.307Z</time></trkpt><trkpt lat="44.947685" lon="12.3124417"><ele>-3.0</ele><time>2026-04-12T14:09:22.307Z</time></trkpt><trkpt lat="44.9477467" lon="12.3122267"><ele>-3.0</ele><time>2026-04-12T14:09:23.307Z</time></trkpt><trkpt lat="44.9478" lon="12.312"><ele>-3.333333333333333</ele><time>2026-04-12T14:09:24.307Z</time></trkpt><trkpt lat="44.9478517" lon="12.3117717"><ele>-3.6666666666666665</ele><time>2026-04-12T14:09:25.307Z</time></trkpt><trkpt lat="44.9478983" lon="12.3115317"><ele>-4.0</ele><time>2026-04-12T14:09:26.307Z</time></trkpt><trkpt lat="44.9479417" lon="12.3112917"><ele>-4.666666666666666</ele><time>2026-04-12T14:09:27.307Z</time></trkpt><trkpt lat="44.9479867" lon="12.3110517"><ele>-5.333333333333333</ele><time>2026-04-12T14:09:28.308Z</time></trkpt><trkpt lat="44.9480267" lon="12.3108183"><ele>-6.0</ele><time>2026-04-12T14:09:29.307Z</time></trkpt><trkpt lat="44.94807" lon="12.3105933"><ele>-5.333333333333333</ele><time>2026-04-12T14:09:30.307Z</time></trkpt><trkpt lat="44.9481" lon="12.3103633"><ele>-4.666666666666666</ele><time>2026-04-12T14:09:31.308Z</time></trkpt><trkpt lat="44.9481283" lon="12.31013"><ele>-4.0</ele><time>2026-04-12T14:09:32.308Z</time></trkpt><trkpt lat="44.948155" lon="12.309895"><ele>-4.0</ele><time>2026-04-12T14:09:33.307Z</time></trkpt><trkpt lat="44.948175" lon="12.3096483"><ele>-4.0</ele><time>2026-04-12T14:09:34.307Z</time></trkpt><trkpt lat="44.948195" lon="12.309395"><ele>-4.0</ele><time>2026-04-12T14:09:35.308Z</time></trkpt><trkpt lat="44.9482083" lon="12.3091433"><ele>-4.0</ele><time>2026-04-12T14:09:36.308Z</time></trkpt><trkpt lat="44.9482267" lon="12.3088567"><ele>-4.0</ele><time>2026-04-12T14:09:37.307Z</time></trkpt><trkpt lat="44.9482383" lon="12.3085667"><ele>-4.0</ele><time>2026-04-12T14:09:38.307Z</time></trkpt><trkpt lat="44.9482483" lon="12.3082717"><ele>-4.333333333333333</ele><time>2026-04-12T14:09:39.308Z</time></trkpt><trkpt lat="44.948255" lon="12.3079667"><ele>-4.666666666666667</ele><time>2026-04-12T14:09:40.307Z</time></trkpt><trkpt lat="44.9482617" lon="12.307655"><ele>-5.0</ele><time>2026-04-12T14:09:41.308Z</time></trkpt><trkpt lat="44.9482717" lon="12.307335"><ele>-4.5</ele><time>2026-04-12T14:09:42.308Z</time></trkpt><trkpt lat="44.9482867" lon="12.3070167"><ele>-4.0</ele><time>2026-04-12T14:09:43.308Z</time></trkpt><trkpt lat="44.948295" lon="12.306695"><ele>-3.5</ele><time>2026-04-12T14:09:44.307Z</time></trkpt><trkpt lat="44.948305" lon="12.3063683"><ele>-3.0</ele><time>2026-04-12T14:09:45.307Z</time></trkpt><trkpt lat="44.9483133" lon="12.3060267"><ele>-3.0</ele><time>2026-04-12T14:09:46.307Z</time></trkpt><trkpt lat="44.9483267" lon="12.30567"><ele>-3.0</ele><time>2026-04-12T14:09:47.307Z</time></trkpt><trkpt lat="44.948345" lon="12.3053117"><ele>-2.0</ele><time>2026-04-12T14:09:48.307Z</time></trkpt><trkpt lat="44.94837" lon="12.3049583"><ele>-1.0</ele><time>2026-04-12T14:09:49.307Z</time></trkpt><trkpt lat="44.9483917" lon="12.3046183"><ele>-0.5</ele><time>2026-04-12T14:09:50.307Z</time></trkpt><trkpt lat="44.9484083" lon="12.30429"><ele>0.0</ele><time>2026-04-12T14:09:51.307Z</time></trkpt><trkpt lat="44.948425" lon="12.30397"><ele>0.0</ele><time>2026-04-12T14:09:52.307Z</time></trkpt><trkpt lat="44.9484433" lon="12.3036483"><ele>0.0</ele><time>2026-04-12T14:09:53.307Z</time></trkpt><trkpt lat="44.9484583" lon="12.303325"><ele>0.0</ele><time>2026-04-12T14:09:54.307Z</time></trkpt><trkpt lat="44.9484783" lon="12.3030017"><ele>0.0</ele><time>2026-04-12T14:09:55.307Z</time></trkpt><trkpt lat="44.94849" lon="12.3026783"><ele>0.0</ele><time>2026-04-12T14:09:56.308Z</time></trkpt><trkpt lat="44.9485" lon="12.3023617"><ele>0.0</ele><time>2026-04-12T14:09:57.307Z</time></trkpt><trkpt lat="44.948515" lon="12.30204"><ele>0.0</ele><time>2026-04-12T14:09:58.308Z</time></trkpt><trkpt lat="44.9485267" lon="12.3017133"><ele>0.0</ele><time>2026-04-12T14:09:59.308Z</time></trkpt><trkpt lat="44.948535" lon="12.3013833"><ele>0.5</ele><time>2026-04-12T14:10:00.307Z</time></trkpt><trkpt lat="44.9485467" lon="12.301055"><ele>1.0</ele><time>2026-04-12T14:10:01.308Z</time></trkpt><trkpt lat="44.9485567" lon="12.3007183"><ele>1.5</ele><time>2026-04-12T14:10:02.307Z</time></trkpt><trkpt lat="44.94857" lon="12.3003767"><ele>2.0</ele><time>2026-04-12T14:10:03.307Z</time></trkpt><trkpt lat="44.9485883" lon="12.300035"><ele>0.0</ele><time>2026-04-12T14:10:04.307Z</time></trkpt><trkpt lat="44.948605" lon="12.299705"><ele>-2.0</ele><time>2026-04-12T14:10:05.307Z</time></trkpt><trkpt lat="44.9486217" lon="12.29938"><ele>-2.0</ele><time>2026-04-12T14:10:06.307Z</time></trkpt><trkpt lat="44.9486367" lon="12.29905"><ele>-2.0</ele><time>2026-04-12T14:10:07.307Z</time></trkpt><trkpt lat="44.94865" lon="12.2987267"><ele>-3.0</ele><time>2026-04-12T14:10:08.308Z</time></trkpt><trkpt lat="44.9486617" lon="12.2984017"><ele>-4.0</ele><time>2026-04-12T14:10:09.308Z</time></trkpt><trkpt lat="44.9486767" lon="12.298075"><ele>-4.0</ele><time>2026-04-12T14:10:10.308Z</time></trkpt><trkpt lat="44.9486917" lon="12.29776"><ele>-4.0</ele><time>2026-04-12T14:10:11.307Z</time></trkpt><trkpt lat="44.9487" lon="12.29745"><ele>-4.0</ele><time>2026-04-12T14:10:12.308Z</time></trkpt><trkpt lat="44.94871" lon="12.2971433"><ele>-4.0</ele><time>2026-04-12T14:10:13.307Z</time></trkpt><trkpt lat="44.9487233" lon="12.29684"><ele>-4.0</ele><time>2026-04-12T14:10:14.307Z</time></trkpt><trkpt lat="44.9487317" lon="12.2965467"><ele>-4.0</ele><time>2026-04-12T14:10:15.307Z</time></trkpt><trkpt lat="44.94874" lon="12.2962533"><ele>-4.0</ele><time>2026-04-12T14:10:16.307Z</time></trkpt><trkpt lat="44.9487517" lon="12.2959533"><ele>-4.0</ele><time>2026-04-12T14:10:17.307Z</time></trkpt><trkpt lat="44.94876" lon="12.2956333"><ele>-4.0</ele><time>2026-04-12T14:10:18.308Z</time></trkpt><trkpt lat="44.94876" lon="12.2953183"><ele>-4.0</ele><time>2026-04-12T14:10:19.307Z</time></trkpt><trkpt lat="44.9487483" lon="12.294995"><ele>-4.0</ele><time>2026-04-12T14:10:20.307Z</time></trkpt><trkpt lat="44.948735" lon="12.294665"><ele>-4.5</ele><time>2026-04-12T14:10:21.307Z</time></trkpt><trkpt lat="44.9487133" lon="12.294325"><ele>-5.0</ele><time>2026-04-12T14:10:22.308Z</time></trkpt><trkpt lat="44.948685" lon="12.29399"><ele>-5.0</ele><time>2026-04-12T14:10:23.307Z</time></trkpt><trkpt lat="44.9486617" lon="12.2936517"><ele>-5.0</ele><time>2026-04-12T14:10:24.307Z</time></trkpt><trkpt lat="44.9486367" lon="12.2933117"><ele>-5.0</ele><time>2026-04-12T14:10:25.307Z</time></trkpt><trkpt lat="44.9486083" lon="12.2929717"><ele>-5.0</ele><time>2026-04-12T14:10:26.307Z</time></trkpt><trkpt lat="44.9485733" lon="12.2926417"><ele>-5.0</ele><time>2026-04-12T14:10:27.307Z</time></trkpt><trkpt lat="44.9485417" lon="12.29233"><ele>-5.0</ele><time>2026-04-12T14:10:28.308Z</time></trkpt><trkpt lat="44.9485133" lon="12.29205"><ele>-5.0</ele><time>2026-04-12T14:10:29.307Z</time></trkpt><trkpt lat="44.9484817" lon="12.2917683"><ele>-4.666666666666667</ele><time>2026-04-12T14:10:30.307Z</time></trkpt><trkpt lat="44.9484483" lon="12.291495"><ele>-4.333333333333333</ele><time>2026-04-12T14:10:31.308Z</time></trkpt><trkpt lat="44.948415" lon="12.2912183"><ele>-4.0</ele><time>2026-04-12T14:10:32.308Z</time></trkpt><trkpt lat="44.9483817" lon="12.2909433"><ele>-4.0</ele><time>2026-04-12T14:10:33.307Z</time></trkpt><trkpt lat="44.94835" lon="12.2906717"><ele>-4.0</ele><time>2026-04-12T14:10:34.308Z</time></trkpt><trkpt lat="44.9483233" lon="12.2903933"><ele>-4.0</ele><time>2026-04-12T14:10:35.307Z</time></trkpt><trkpt lat="44.94829" lon="12.290115"><ele>-4.0</ele><time>2026-04-12T14:10:36.308Z</time></trkpt><trkpt lat="44.9482517" lon="12.289835"><ele>-4.0</ele><time>2026-04-12T14:10:37.308Z</time></trkpt><trkpt lat="44.9482167" lon="12.2895533"><ele>-4.0</ele><time>2026-04-12T14:10:38.307Z</time></trkpt><trkpt lat="44.94818" lon="12.2892717"><ele>-4.333333333333333</ele><time>2026-04-12T14:10:39.308Z</time></trkpt><trkpt lat="44.9481467" lon="12.2889867"><ele>-4.666666666666667</ele><time>2026-04-12T14:10:40.307Z</time></trkpt><trkpt lat="44.9481133" lon="12.2887"><ele>-5.0</ele><time>2026-04-12T14:10:41.307Z</time></trkpt><trkpt lat="44.9480783" lon="12.28841"><ele>-4.666666666666667</ele><time>2026-04-12T14:10:42.307Z</time></trkpt><trkpt lat="44.948045" lon="12.2881233"><ele>-4.333333333333333</ele><time>2026-04-12T14:10:43.307Z</time></trkpt><trkpt lat="44.94801" lon="12.28783"><ele>-4.0</ele><time>2026-04-12T14:10:44.307Z</time></trkpt><trkpt lat="44.9479783" lon="12.28754"><ele>-4.333333333333333</ele><time>2026-04-12T14:10:45.307Z</time></trkpt><trkpt lat="44.947945" lon="12.2872417"><ele>-4.666666666666667</ele><time>2026-04-12T14:10:46.307Z</time></trkpt><trkpt lat="44.9479083" lon="12.28695"><ele>-5.0</ele><time>2026-04-12T14:10:47.307Z</time></trkpt><trkpt lat="44.9478717" lon="12.2866517"><ele>-5.0</ele><time>2026-04-12T14:10:48.307Z</time></trkpt><trkpt lat="44.9478383" lon="12.28635"><ele>-5.0</ele><time>2026-04-12T14:10:49.307Z</time></trkpt><trkpt lat="44.9478033" lon="12.2860467"><ele>-5.0</ele><time>2026-04-12T14:10:50.308Z</time></trkpt><trkpt lat="44.94777" lon="12.2857383"><ele>-5.0</ele><time>2026-04-12T14:10:51.307Z</time></trkpt><trkpt lat="44.9477317" lon="12.28543"><ele>-5.0</ele><time>2026-04-12T14:10:52.307Z</time></trkpt><trkpt lat="44.9476967" lon="12.2851233"><ele>-5.0</ele><time>2026-04-12T14:10:53.307Z</time></trkpt><trkpt lat="44.9476617" lon="12.2848167"><ele>-5.333333333333334</ele><time>2026-04-12T14:10:54.308Z</time></trkpt><trkpt lat="44.94763" lon="12.2845083"><ele>-5.666666666666667</ele><time>2026-04-12T14:10:55.307Z</time></trkpt><trkpt lat="44.9475933" lon="12.2842033"><ele>-6.0</ele><time>2026-04-12T14:10:56.307Z</time></trkpt><trkpt lat="44.9475567" lon="12.2839"><ele>-6.0</ele><time>2026-04-12T14:10:57.307Z</time></trkpt><trkpt lat="44.9475217" lon="12.283595"><ele>-6.0</ele><time>2026-04-12T14:10:58.307Z</time></trkpt><trkpt lat="44.947485" lon="12.28329"><ele>-6.0</ele><time>2026-04-12T14:10:59.307Z</time></trkpt><trkpt lat="44.9474483" lon="12.2829817"><ele>-5.666666666666667</ele><time>2026-04-12T14:11:00.307Z</time></trkpt><trkpt lat="44.9474117" lon="12.2826767"><ele>-5.333333333333334</ele><time>2026-04-12T14:11:01.307Z</time></trkpt><trkpt lat="44.947375" lon="12.2823717"><ele>-5.0</ele><time>2026-04-12T14:11:02.307Z</time></trkpt><trkpt lat="44.9473383" lon="12.2820617"><ele>-5.0</ele><time>2026-04-12T14:11:03.308Z</time></trkpt><trkpt lat="44.9473017" lon="12.2817583"><ele>-5.0</ele><time>2026-04-12T14:11:04.308Z</time></trkpt><trkpt lat="44.947265" lon="12.2814533"><ele>-5.0</ele><time>2026-04-12T14:11:05.308Z</time></trkpt><trkpt lat="44.947225" lon="12.2811483"><ele>-5.0</ele><time>2026-04-12T14:11:06.308Z</time></trkpt><trkpt lat="44.947185" lon="12.28084"><ele>-5.0</ele><time>2026-04-12T14:11:07.308Z</time></trkpt><trkpt lat="44.9471517" lon="12.2805333"><ele>-5.0</ele><time>2026-04-12T14:11:08.307Z</time></trkpt><trkpt lat="44.947115" lon="12.28023"><ele>-5.333333333333334</ele><time>2026-04-12T14:11:09.307Z</time></trkpt><trkpt lat="44.94708" lon="12.27992"><ele>-5.666666666666667</ele><time>2026-04-12T14:11:10.307Z</time></trkpt><trkpt lat="44.9470433" lon="12.279615"><ele>-6.0</ele><time>2026-04-12T14:11:11.307Z</time></trkpt><trkpt lat="44.9470067" lon="12.2793067"><ele>-6.0</ele><time>2026-04-12T14:11:12.307Z</time></trkpt><trkpt lat="44.9469683" lon="12.2789883"><ele>-6.0</ele><time>2026-04-12T14:11:13.307Z</time></trkpt><trkpt lat="44.94693" lon="12.27867"><ele>-6.0</ele><time>2026-04-12T14:11:14.308Z</time></trkpt><trkpt lat="44.9468933" lon="12.2783483"><ele>-6.0</ele><time>2026-04-12T14:11:15.308Z</time></trkpt><trkpt lat="44.9468533" lon="12.27801"><ele>-6.0</ele><time>2026-04-12T14:11:16.307Z</time></trkpt><trkpt lat="44.9468133" lon="12.2776733"><ele>-6.0</ele><time>2026-04-12T14:11:17.307Z</time></trkpt><trkpt lat="44.9467767" lon="12.2773333"><ele>-6.0</ele><time>2026-04-12T14:11:18.308Z</time></trkpt><trkpt lat="44.94674" lon="12.2769917"><ele>-6.0</ele><time>2026-04-12T14:11:19.307Z</time></trkpt><trkpt lat="44.9467" lon="12.27665"><ele>-6.0</ele><time>2026-04-12T14:11:20.308Z</time></trkpt><trkpt lat="44.94666" lon="12.2763067"><ele>-6.0</ele><time>2026-04-12T14:11:21.308Z</time></trkpt><trkpt lat="44.9466183" lon="12.2759617"><ele>-6.0</ele><time>2026-04-12T14:11:22.307Z</time></trkpt><trkpt lat="44.946575" lon="12.2756133"><ele>-6.0</ele><time>2026-04-12T14:11:23.307Z</time></trkpt><trkpt lat="44.9465333" lon="12.2752633"><ele>-5.5</ele><time>2026-04-12T14:11:24.307Z</time></trkpt><trkpt lat="44.9464917" lon="12.27491"><ele>-5.0</ele><time>2026-04-12T14:11:25.308Z</time></trkpt><trkpt lat="44.9464483" lon="12.27456"><ele>-5.0</ele><time>2026-04-12T14:11:26.307Z</time></trkpt><trkpt lat="44.9464033" lon="12.274215"><ele>-5.0</ele><time>2026-04-12T14:11:27.307Z</time></trkpt><trkpt lat="44.9463583" lon="12.2738583"><ele>-5.0</ele><time>2026-04-12T14:11:28.308Z</time></trkpt><trkpt lat="44.9463183" lon="12.2735033"><ele>-5.0</ele><time>2026-04-12T14:11:29.308Z</time></trkpt><trkpt lat="44.9462767" lon="12.2731583"><ele>-4.0</ele><time>2026-04-12T14:11:30.307Z</time></trkpt><trkpt lat="44.9462367" lon="12.2728117"><ele>-3.0</ele><time>2026-04-12T14:11:31.307Z</time></trkpt><trkpt lat="44.9462" lon="12.2724583"><ele>-4.0</ele><time>2026-04-12T14:11:32.308Z</time></trkpt><trkpt lat="44.9461633" lon="12.2721017"><ele>-5.0</ele><time>2026-04-12T14:11:33.308Z</time></trkpt><trkpt lat="44.9461283" lon="12.271745"><ele>-5.0</ele><time>2026-04-12T14:11:34.307Z</time></trkpt><trkpt lat="44.94611" lon="12.2713883"><ele>-5.0</ele><time>2026-04-12T14:11:35.307Z</time></trkpt><trkpt lat="44.9461017" lon="12.2710217"><ele>-5.0</ele><time>2026-04-12T14:11:36.307Z</time></trkpt><trkpt lat="44.9461117" lon="12.270665"><ele>-5.0</ele><time>2026-04-12T14:11:37.308Z</time></trkpt><trkpt lat="44.946135" lon="12.2702983"><ele>-4.5</ele><time>2026-04-12T14:11:38.307Z</time></trkpt><trkpt lat="44.946175" lon="12.269935"><ele>-4.0</ele><time>2026-04-12T14:11:39.307Z</time></trkpt><trkpt lat="44.9462217" lon="12.2695683"><ele>-3.5</ele><time>2026-04-12T14:11:40.308Z</time></trkpt><trkpt lat="44.946275" lon="12.269205"><ele>-3.0</ele><time>2026-04-12T14:11:41.307Z</time></trkpt><trkpt lat="44.9463267" lon="12.2688417"><ele>-3.5</ele><time>2026-04-12T14:11:42.307Z</time></trkpt><trkpt lat="44.9463717" lon="12.268475"><ele>-4.0</ele><time>2026-04-12T14:11:43.307Z</time></trkpt><trkpt lat="44.946415" lon="12.2681033"><ele>-4.0</ele><time>2026-04-12T14:11:44.307Z</time></trkpt><trkpt lat="44.9464617" lon="12.2677333"><ele>-4.0</ele><time>2026-04-12T14:11:45.307Z</time></trkpt><trkpt lat="44.9465067" lon="12.2673633"><ele>-3.5</ele><time>2026-04-12T14:11:46.307Z</time></trkpt><trkpt lat="44.9465533" lon="12.2669917"><ele>-3.0</ele><time>2026-04-12T14:11:47.307Z</time></trkpt><trkpt lat="44.9466" lon="12.2666167"><ele>-3.0</ele><time>2026-04-12T14:11:48.308Z</time></trkpt><trkpt lat="44.9466467" lon="12.2662567"><ele>-3.0</ele><time>2026-04-12T14:11:49.308Z</time></trkpt><trkpt lat="44.9466867" lon="12.265915"><ele>-3.5</ele><time>2026-04-12T14:11:50.307Z</time></trkpt><trkpt lat="44.9467267" lon="12.2655833"><ele>-4.0</ele><time>2026-04-12T14:11:51.308Z</time></trkpt><trkpt lat="44.94677" lon="12.2652567"><ele>-4.0</ele><time>2026-04-12T14:11:52.308Z</time></trkpt><trkpt lat="44.94681" lon="12.2649383"><ele>-4.0</ele><time>2026-04-12T14:11:53.307Z</time></trkpt><trkpt lat="44.9468467" lon="12.2646283"><ele>-4.333333333333333</ele><time>2026-04-12T14:11:54.307Z</time></trkpt><trkpt lat="44.946885" lon="12.2643317"><ele>-4.666666666666667</ele><time>2026-04-12T14:11:55.307Z</time></trkpt><trkpt lat="44.9469267" lon="12.2640517"><ele>-5.0</ele><time>2026-04-12T14:11:56.308Z</time></trkpt><trkpt lat="44.9469717" lon="12.2637733"><ele>-5.0</ele><time>2026-04-12T14:11:57.308Z</time></trkpt><trkpt lat="44.9470167" lon="12.263495"><ele>-5.0</ele><time>2026-04-12T14:11:58.307Z</time></trkpt><trkpt lat="44.9470733" lon="12.2632133"><ele>-5.0</ele><time>2026-04-12T14:11:59.307Z</time></trkpt><trkpt lat="44.947145" lon="12.2629267"><ele>-5.0</ele><time>2026-04-12T14:12:00.307Z</time></trkpt><trkpt lat="44.9472433" lon="12.2626483"><ele>-5.0</ele><time>2026-04-12T14:12:01.307Z</time></trkpt><trkpt lat="44.9473633" lon="12.2623767"><ele>-5.0</ele><time>2026-04-12T14:12:02.307Z</time></trkpt><trkpt lat="44.9474967" lon="12.262115"><ele>-5.0</ele><time>2026-04-12T14:12:03.307Z</time></trkpt><trkpt lat="44.947645" lon="12.2618767"><ele>-5.0</ele><time>2026-04-12T14:12:04.308Z</time></trkpt><trkpt lat="44.9478083" lon="12.2616533"><ele>-5.5</ele><time>2026-04-12T14:12:05.308Z</time></trkpt><trkpt lat="44.94798" lon="12.2614367"><ele>-6.0</ele><time>2026-04-12T14:12:06.308Z</time></trkpt><trkpt lat="44.9481583" lon="12.2612267"><ele>-6.0</ele><time>2026-04-12T14:12:07.308Z</time></trkpt><trkpt lat="44.9483317" lon="12.2610167"><ele>-6.0</ele><time>2026-04-12T14:12:08.307Z</time></trkpt><trkpt lat="44.948505" lon="12.2608083"><ele>-5.666666666666667</ele><time>2026-04-12T14:12:09.308Z</time></trkpt><trkpt lat="44.94867" lon="12.2606"><ele>-5.333333333333334</ele><time>2026-04-12T14:12:10.307Z</time></trkpt><trkpt lat="44.9488333" lon="12.2604033"><ele>-5.0</ele><time>2026-04-12T14:12:11.307Z</time></trkpt><trkpt lat="44.948995" lon="12.2602083"><ele>-5.0</ele><time>2026-04-12T14:12:12.307Z</time></trkpt><trkpt lat="44.949155" lon="12.2600133"><ele>-5.0</ele><time>2026-04-12T14:12:13.307Z</time></trkpt><trkpt lat="44.949315" lon="12.2598117"><ele>-5.0</ele><time>2026-04-12T14:12:14.308Z</time></trkpt><trkpt lat="44.94947" lon="12.2596117"><ele>-5.333333333333334</ele><time>2026-04-12T14:12:15.307Z</time></trkpt><trkpt lat="44.9496233" lon="12.25943"><ele>-5.666666666666667</ele><time>2026-04-12T14:12:16.307Z</time></trkpt><trkpt lat="44.9497767" lon="12.2592633"><ele>-6.0</ele><time>2026-04-12T14:12:17.308Z</time></trkpt><trkpt lat="44.9499233" lon="12.2591017"><ele>-6.333333333333334</ele><time>2026-04-12T14:12:18.307Z</time></trkpt><trkpt lat="44.9500617" lon="12.2589483"><ele>-6.666666666666667</ele><time>2026-04-12T14:12:19.308Z</time></trkpt><trkpt lat="44.950185" lon="12.2587967"><ele>-7.0</ele><time>2026-04-12T14:12:20.308Z</time></trkpt><trkpt lat="44.9503" lon="12.2586383"><ele>-7.0</ele><time>2026-04-12T14:12:21.308Z</time></trkpt><trkpt lat="44.9504133" lon="12.2584717"><ele>-7.0</ele><time>2026-04-12T14:12:22.307Z</time></trkpt><trkpt lat="44.9505417" lon="12.2583083"><ele>-7.0</ele><time>2026-04-12T14:12:23.307Z</time></trkpt><trkpt lat="44.950675" lon="12.2581517"><ele>-6.666666666666667</ele><time>2026-04-12T14:12:24.308Z</time></trkpt><trkpt lat="44.9508183" lon="12.2580033"><ele>-6.333333333333334</ele><time>2026-04-12T14:12:25.307Z</time></trkpt><trkpt lat="44.9509583" lon="12.2578433"><ele>-6.0</ele><time>2026-04-12T14:12:26.307Z</time></trkpt><trkpt lat="44.9510967" lon="12.25767"><ele>-6.0</ele><time>2026-04-12T14:12:27.307Z</time></trkpt><trkpt lat="44.9512367" lon="12.2574983"><ele>-6.0</ele><time>2026-04-12T14:12:28.307Z</time></trkpt><trkpt lat="44.9513767" lon="12.2573183"><ele>-6.0</ele><time>2026-04-12T14:12:29.307Z</time></trkpt><trkpt lat="44.9515233" lon="12.2571383"><ele>-6.0</ele><time>2026-04-12T14:12:30.307Z</time></trkpt><trkpt lat="44.9516767" lon="12.2569567"><ele>-6.0</ele><time>2026-04-12T14:12:31.307Z</time></trkpt><trkpt lat="44.9518317" lon="12.2567717"><ele>-6.0</ele><time>2026-04-12T14:12:32.307Z</time></trkpt><trkpt lat="44.951995" lon="12.2565867"><ele>-6.0</ele><time>2026-04-12T14:12:33.307Z</time></trkpt><trkpt lat="44.95215" lon="12.256405"><ele>-6.0</ele><time>2026-04-12T14:12:34.307Z</time></trkpt><trkpt lat="44.9523033" lon="12.2562167"><ele>-6.0</ele><time>2026-04-12T14:12:35.307Z</time></trkpt><trkpt lat="44.9524633" lon="12.2560117"><ele>-5.333333333333333</ele><time>2026-04-12T14:12:36.307Z</time></trkpt><trkpt lat="44.95262" lon="12.2558117"><ele>-4.666666666666666</ele><time>2026-04-12T14:12:37.307Z</time></trkpt><trkpt lat="44.9527833" lon="12.2556067"><ele>-4.0</ele><time>2026-04-12T14:12:38.307Z</time></trkpt><trkpt lat="44.9529517" lon="12.2554"><ele>-4.0</ele><time>2026-04-12T14:12:39.306Z</time></trkpt><trkpt lat="44.9531217" lon="12.25519"><ele>-4.0</ele><time>2026-04-12T14:12:40.306Z</time></trkpt><trkpt lat="44.9532933" lon="12.2549767"><ele>-4.5</ele><time>2026-04-12T14:12:41.306Z</time></trkpt><trkpt lat="44.9534683" lon="12.254765"><ele>-5.0</ele><time>2026-04-12T14:12:42.306Z</time></trkpt><trkpt lat="44.9536433" lon="12.2545517"><ele>-5.0</ele><time>2026-04-12T14:12:43.307Z</time></trkpt><trkpt lat="44.9538183" lon="12.2543417"><ele>-5.0</ele><time>2026-04-12T14:12:44.306Z</time></trkpt><trkpt lat="44.953995" lon="12.2541333"><ele>-5.5</ele><time>2026-04-12T14:12:45.306Z</time></trkpt><trkpt lat="44.9541683" lon="12.25392"><ele>-6.0</ele><time>2026-04-12T14:12:46.307Z</time></trkpt><trkpt lat="44.9543417" lon="12.2537033"><ele>-6.0</ele><time>2026-04-12T14:12:47.306Z</time></trkpt><trkpt lat="44.954515" lon="12.2534933"><ele>-6.0</ele><time>2026-04-12T14:12:48.306Z</time></trkpt><trkpt lat="44.95469" lon="12.25328"><ele>-5.5</ele><time>2026-04-12T14:12:49.307Z</time></trkpt><trkpt lat="44.954865" lon="12.253065"><ele>-5.0</ele><time>2026-04-12T14:12:50.307Z</time></trkpt><trkpt lat="44.955045" lon="12.2528483"><ele>-5.0</ele><time>2026-04-12T14:12:51.306Z</time></trkpt><trkpt lat="44.955225" lon="12.2526317"><ele>-5.0</ele><time>2026-04-12T14:12:52.306Z</time></trkpt><trkpt lat="44.95541" lon="12.25241"><ele>-4.5</ele><time>2026-04-12T14:12:53.307Z</time></trkpt><trkpt lat="44.9555883" lon="12.25219"><ele>-4.0</ele><time>2026-04-12T14:12:54.306Z</time></trkpt><trkpt lat="44.95577" lon="12.251975"><ele>-4.0</ele><time>2026-04-12T14:12:55.306Z</time></trkpt><trkpt lat="44.95595" lon="12.2517533"><ele>-4.0</ele><time>2026-04-12T14:12:56.306Z</time></trkpt><trkpt lat="44.95614" lon="12.25151"><ele>-3.5</ele><time>2026-04-12T14:12:57.306Z</time></trkpt><trkpt lat="44.9563383" lon="12.2512667"><ele>-3.0</ele><time>2026-04-12T14:12:58.306Z</time></trkpt><trkpt lat="44.9565367" lon="12.251015"><ele>-3.0</ele><time>2026-04-12T14:12:59.306Z</time></trkpt><trkpt lat="44.956735" lon="12.2507617"><ele>-3.0</ele><time>2026-04-12T14:13:00.307Z</time></trkpt><trkpt lat="44.95693" lon="12.2505083"><ele>-3.0</ele><time>2026-04-12T14:13:01.307Z</time></trkpt><trkpt lat="44.9571233" lon="12.2502567"><ele>-3.0</ele><time>2026-04-12T14:13:02.306Z</time></trkpt><trkpt lat="44.9573167" lon="12.2500033"><ele>-3.5</ele><time>2026-04-12T14:13:03.306Z</time></trkpt><trkpt lat="44.9575133" lon="12.2497433"><ele>-4.0</ele><time>2026-04-12T14:13:04.306Z</time></trkpt><trkpt lat="44.95771" lon="12.24947"><ele>-4.0</ele><time>2026-04-12T14:13:05.306Z</time></trkpt><trkpt lat="44.95791" lon="12.2492133"><ele>-4.0</ele><time>2026-04-12T14:13:06.307Z</time></trkpt><trkpt lat="44.9581133" lon="12.2489633"><ele>-4.0</ele><time>2026-04-12T14:13:07.306Z</time></trkpt><trkpt lat="44.9583133" lon="12.2487367"><ele>-4.0</ele><time>2026-04-12T14:13:08.306Z</time></trkpt><trkpt lat="44.9585067" lon="12.2485217"><ele>-4.0</ele><time>2026-04-12T14:13:09.306Z</time></trkpt><trkpt lat="44.9587017" lon="12.2483117"><ele>-4.0</ele><time>2026-04-12T14:13:10.306Z</time></trkpt><trkpt lat="44.9589017" lon="12.2481283"><ele>-3.5</ele><time>2026-04-12T14:13:11.307Z</time></trkpt><trkpt lat="44.9591" lon="12.24797"><ele>-3.0</ele><time>2026-04-12T14:13:12.307Z</time></trkpt><trkpt lat="44.9593033" lon="12.2478333"><ele>-3.0</ele><time>2026-04-12T14:13:13.306Z</time></trkpt><trkpt lat="44.9595133" lon="12.2477017"><ele>-3.0</ele><time>2026-04-12T14:13:14.306Z</time></trkpt><trkpt lat="44.959735" lon="12.2475817"><ele>-3.0</ele><time>2026-04-12T14:13:15.306Z</time></trkpt><trkpt lat="44.9599667" lon="12.2474717"><ele>-3.0</ele><time>2026-04-12T14:13:16.307Z</time></trkpt><trkpt lat="44.960195" lon="12.2473533"><ele>-3.5</ele><time>2026-04-12T14:13:17.307Z</time></trkpt><trkpt lat="44.9604317" lon="12.2472333"><ele>-4.0</ele><time>2026-04-12T14:13:18.306Z</time></trkpt><trkpt lat="44.9606667" lon="12.2471017"><ele>-3.0</ele><time>2026-04-12T14:13:19.306Z</time></trkpt><trkpt lat="44.9608983" lon="12.2469633"><ele>-2.0</ele><time>2026-04-12T14:13:20.306Z</time></trkpt><trkpt lat="44.9611317" lon="12.2468267"><ele>-2.0</ele><time>2026-04-12T14:13:21.306Z</time></trkpt><trkpt lat="44.9613667" lon="12.2467"><ele>-2.0</ele><time>2026-04-12T14:13:22.306Z</time></trkpt><trkpt lat="44.9616083" lon="12.24658"><ele>-2.0</ele><time>2026-04-12T14:13:23.306Z</time></trkpt><trkpt lat="44.9618583" lon="12.2464533"><ele>-2.0</ele><time>2026-04-12T14:13:24.306Z</time></trkpt><trkpt lat="44.9621117" lon="12.2463217"><ele>-2.0</ele><time>2026-04-12T14:13:25.306Z</time></trkpt><trkpt lat="44.96236" lon="12.2462033"><ele>-2.0</ele><time>2026-04-12T14:13:26.306Z</time></trkpt><trkpt lat="44.9625933" lon="12.24609"><ele>-2.5</ele><time>2026-04-12T14:13:27.307Z</time></trkpt><trkpt lat="44.962815" lon="12.2459833"><ele>-3.0</ele><time>2026-04-12T14:13:28.307Z</time></trkpt><trkpt lat="44.9630317" lon="12.2458683"><ele>-3.0</ele><time>2026-04-12T14:13:29.307Z</time></trkpt><trkpt lat="44.96325" lon="12.245755"><ele>-3.0</ele><time>2026-04-12T14:13:30.307Z</time></trkpt><trkpt lat="44.963465" lon="12.2456367"><ele>-2.5</ele><time>2026-04-12T14:13:31.306Z</time></trkpt><trkpt lat="44.9636833" lon="12.2455317"><ele>-2.0</ele><time>2026-04-12T14:13:32.306Z</time></trkpt><trkpt lat="44.963905" lon="12.24542"><ele>-2.0</ele><time>2026-04-12T14:13:33.306Z</time></trkpt><trkpt lat="44.9641233" lon="12.245305"><ele>-2.0</ele><time>2026-04-12T14:13:34.306Z</time></trkpt><trkpt lat="44.9643433" lon="12.2451833"><ele>-2.333333333333333</ele><time>2026-04-12T14:13:35.306Z</time></trkpt><trkpt lat="44.9645533" lon="12.2450717"><ele>-2.6666666666666665</ele><time>2026-04-12T14:13:36.306Z</time></trkpt><trkpt lat="44.96476" lon="12.2449633"><ele>-3.0</ele><time>2026-04-12T14:13:37.306Z</time></trkpt><trkpt lat="44.9649733" lon="12.244855"><ele>-3.0</ele><time>2026-04-12T14:13:38.306Z</time></trkpt><trkpt lat="44.9651883" lon="12.2447483"><ele>-3.0</ele><time>2026-04-12T14:13:39.306Z</time></trkpt><trkpt lat="44.9654" lon="12.24464"><ele>-3.0</ele><time>2026-04-12T14:13:40.306Z</time></trkpt><trkpt lat="44.9656167" lon="12.2445283"><ele>-3.0</ele><time>2026-04-12T14:13:41.307Z</time></trkpt><trkpt lat="44.96583" lon="12.244415"><ele>-3.5</ele><time>2026-04-12T14:13:42.306Z</time></trkpt><trkpt lat="44.966045" lon="12.2443"><ele>-4.0</ele><time>2026-04-12T14:13:43.307Z</time></trkpt><trkpt lat="44.9662617" lon="12.244185"><ele>-4.0</ele><time>2026-04-12T14:13:44.307Z</time></trkpt><trkpt lat="44.9664817" lon="12.244065"><ele>-4.0</ele><time>2026-04-12T14:13:45.306Z</time></trkpt><trkpt lat="44.9667067" lon="12.2439417"><ele>-5.0</ele><time>2026-04-12T14:13:46.306Z</time></trkpt><trkpt lat="44.9669217" lon="12.2438"><ele>-6.0</ele><time>2026-04-12T14:13:47.306Z</time></trkpt><trkpt lat="44.96714" lon="12.2436467"><ele>-6.0</ele><time>2026-04-12T14:13:48.306Z</time></trkpt><trkpt lat="44.96736" lon="12.243485"><ele>-6.0</ele><time>2026-04-12T14:13:49.306Z</time></trkpt><trkpt lat="44.9675783" lon="12.2433217"><ele>-6.0</ele><time>2026-04-12T14:13:50.306Z</time></trkpt><trkpt lat="44.9678" lon="12.2431633"><ele>-6.0</ele><time>2026-04-12T14:13:51.306Z</time></trkpt><trkpt lat="44.9680217" lon="12.2430017"><ele>-6.0</ele><time>2026-04-12T14:13:52.306Z</time></trkpt><trkpt lat="44.9682417" lon="12.2428383"><ele>-6.0</ele><time>2026-04-12T14:13:53.306Z</time></trkpt><trkpt lat="44.9684667" lon="12.2426717"><ele>-6.5</ele><time>2026-04-12T14:13:54.307Z</time></trkpt><trkpt lat="44.9686917" lon="12.242505"><ele>-7.0</ele><time>2026-04-12T14:13:55.307Z</time></trkpt><trkpt lat="44.9689133" lon="12.24234"><ele>-7.0</ele><time>2026-04-12T14:13:56.307Z</time></trkpt><trkpt lat="44.9691317" lon="12.2421717"><ele>-7.0</ele><time>2026-04-12T14:13:57.306Z</time></trkpt><trkpt lat="44.96935" lon="12.242005"><ele>-6.0</ele><time>2026-04-12T14:13:58.306Z</time></trkpt><trkpt lat="44.96957" lon="12.2418383"><ele>-5.0</ele><time>2026-04-12T14:13:59.306Z</time></trkpt><trkpt lat="44.9697883" lon="12.2416717"><ele>-5.0</ele><time>2026-04-12T14:14:00.306Z</time></trkpt><trkpt lat="44.9700133" lon="12.241505"><ele>-5.0</ele><time>2026-04-12T14:14:01.306Z</time></trkpt><trkpt lat="44.970235" lon="12.2413383"><ele>-4.5</ele><time>2026-04-12T14:14:02.307Z</time></trkpt><trkpt lat="44.9704517" lon="12.2411683"><ele>-4.0</ele><time>2026-04-12T14:14:03.306Z</time></trkpt><trkpt lat="44.97066" lon="12.2409833"><ele>-4.0</ele><time>2026-04-12T14:14:04.306Z</time></trkpt><trkpt lat="44.9708683" lon="12.2407883"><ele>-4.0</ele><time>2026-04-12T14:14:05.306Z</time></trkpt><trkpt lat="44.9710733" lon="12.240585"><ele>-4.0</ele><time>2026-04-12T14:14:06.306Z</time></trkpt><trkpt lat="44.9712633" lon="12.2403783"><ele>-4.0</ele><time>2026-04-12T14:14:07.307Z</time></trkpt><trkpt lat="44.9714383" lon="12.24018"><ele>-4.0</ele><time>2026-04-12T14:14:08.306Z</time></trkpt><trkpt lat="44.9716033" lon="12.2399783"><ele>-4.0</ele><time>2026-04-12T14:14:09.306Z</time></trkpt><trkpt lat="44.9717617" lon="12.2397617"><ele>-4.0</ele><time>2026-04-12T14:14:10.306Z</time></trkpt><trkpt lat="44.9719133" lon="12.2395417"><ele>-3.6666666666666665</ele><time>2026-04-12T14:14:11.306Z</time></trkpt><trkpt lat="44.972065" lon="12.2393133"><ele>-3.333333333333333</ele><time>2026-04-12T14:14:12.306Z</time></trkpt><trkpt lat="44.9722067" lon="12.2390817"><ele>-3.0</ele><time>2026-04-12T14:14:13.306Z</time></trkpt><trkpt lat="44.972355" lon="12.2388383"><ele>-3.0</ele><time>2026-04-12T14:14:14.307Z</time></trkpt><trkpt lat="44.972495" lon="12.2385983"><ele>-3.0</ele><time>2026-04-12T14:14:15.306Z</time></trkpt><trkpt lat="44.97262" lon="12.238345"><ele>-3.0</ele><time>2026-04-12T14:14:16.306Z</time></trkpt><trkpt lat="44.9727383" lon="12.2380917"><ele>-3.333333333333333</ele><time>2026-04-12T14:14:17.306Z</time></trkpt><trkpt lat="44.9728583" lon="12.2378283"><ele>-3.6666666666666665</ele><time>2026-04-12T14:14:18.306Z</time></trkpt><trkpt lat="44.9729667" lon="12.237565"><ele>-4.0</ele><time>2026-04-12T14:14:19.306Z</time></trkpt><trkpt lat="44.9730717" lon="12.23729"><ele>-5.0</ele><time>2026-04-12T14:14:20.307Z</time></trkpt><trkpt lat="44.9731733" lon="12.2370117"><ele>-6.0</ele><time>2026-04-12T14:14:21.306Z</time></trkpt><trkpt lat="44.973265" lon="12.2367283"><ele>-7.0</ele><time>2026-04-12T14:14:22.307Z</time></trkpt><trkpt lat="44.973355" lon="12.2364467"><ele>-5.666666666666667</ele><time>2026-04-12T14:14:23.306Z</time></trkpt><trkpt lat="44.9734383" lon="12.236165"><ele>-4.333333333333334</ele><time>2026-04-12T14:14:24.306Z</time></trkpt><trkpt lat="44.9735183" lon="12.235895"><ele>-3.0</ele><time>2026-04-12T14:14:25.306Z</time></trkpt><trkpt lat="44.9735883" lon="12.2356383"><ele>-2.6666666666666665</ele><time>2026-04-12T14:14:26.306Z</time></trkpt><trkpt lat="44.9736483" lon="12.23541"><ele>-2.333333333333333</ele><time>2026-04-12T14:14:27.307Z</time></trkpt><trkpt lat="44.9737067" lon="12.2351933"><ele>-2.0</ele><time>2026-04-12T14:14:28.306Z</time></trkpt><trkpt lat="44.9737667" lon="12.2349917"><ele>-2.75</ele><time>2026-04-12T14:14:29.306Z</time></trkpt><trkpt lat="44.973825" lon="12.2347933"><ele>-3.5</ele><time>2026-04-12T14:14:30.306Z</time></trkpt><trkpt lat="44.9738783" lon="12.2346"><ele>-4.25</ele><time>2026-04-12T14:14:31.306Z</time></trkpt><trkpt lat="44.9739317" lon="12.2344083"><ele>-5.0</ele><time>2026-04-12T14:14:32.307Z</time></trkpt><trkpt lat="44.97399" lon="12.2342083"><ele>-5.0</ele><time>2026-04-12T14:14:33.307Z</time></trkpt><trkpt lat="44.9740433" lon="12.234005"><ele>-5.0</ele><time>2026-04-12T14:14:34.307Z</time></trkpt><trkpt lat="44.974105" lon="12.2338"><ele>-5.0</ele><time>2026-04-12T14:14:35.306Z</time></trkpt><trkpt lat="44.9741617" lon="12.2335817"><ele>-5.0</ele><time>2026-04-12T14:14:36.306Z</time></trkpt><trkpt lat="44.9742217" lon="12.233355"><ele>-5.0</ele><time>2026-04-12T14:14:37.306Z</time></trkpt><trkpt lat="44.9742917" lon="12.2331233"><ele>-5.0</ele><time>2026-04-12T14:14:38.306Z</time></trkpt><trkpt lat="44.9743533" lon="12.23288"><ele>-4.666666666666667</ele><time>2026-04-12T14:14:39.306Z</time></trkpt><trkpt lat="44.97442" lon="12.2326383"><ele>-4.333333333333333</ele><time>2026-04-12T14:14:40.307Z</time></trkpt><trkpt lat="44.97449" lon="12.2323917"><ele>-4.0</ele><time>2026-04-12T14:14:41.307Z</time></trkpt><trkpt lat="44.9745633" lon="12.2321367"><ele>-4.0</ele><time>2026-04-12T14:14:42.306Z</time></trkpt><trkpt lat="44.9746417" lon="12.2318683"><ele>-4.0</ele><time>2026-04-12T14:14:43.306Z</time></trkpt><trkpt lat="44.9747167" lon="12.2316"><ele>-4.0</ele><time>2026-04-12T14:14:44.306Z</time></trkpt><trkpt lat="44.9747933" lon="12.23133"><ele>-3.6666666666666665</ele><time>2026-04-12T14:14:45.306Z</time></trkpt><trkpt lat="44.9748733" lon="12.2310517"><ele>-3.333333333333333</ele><time>2026-04-12T14:14:46.306Z</time></trkpt><trkpt lat="44.9749467" lon="12.23077"><ele>-3.0</ele><time>2026-04-12T14:14:47.307Z</time></trkpt><trkpt lat="44.97502" lon="12.2304867"><ele>-3.0</ele><time>2026-04-12T14:14:48.307Z</time></trkpt><trkpt lat="44.9751017" lon="12.2302017"><ele>-3.0</ele><time>2026-04-12T14:14:49.306Z</time></trkpt><trkpt lat="44.9751917" lon="12.2299233"><ele>-3.0</ele><time>2026-04-12T14:14:50.306Z</time></trkpt><trkpt lat="44.9752733" lon="12.2296467"><ele>-3.0</ele><time>2026-04-12T14:14:51.306Z</time></trkpt><trkpt lat="44.975355" lon="12.2293683"><ele>-3.0</ele><time>2026-04-12T14:14:52.307Z</time></trkpt><trkpt lat="44.9754333" lon="12.22909"><ele>-3.0</ele><time>2026-04-12T14:14:53.306Z</time></trkpt><trkpt lat="44.9755117" lon="12.22881"><ele>-3.0</ele><time>2026-04-12T14:14:54.307Z</time></trkpt><trkpt lat="44.9755883" lon="12.2285183"><ele>-3.0</ele><time>2026-04-12T14:14:55.306Z</time></trkpt><trkpt lat="44.9756683" lon="12.228235"><ele>-3.0</ele><time>2026-04-12T14:14:56.306Z</time></trkpt><trkpt lat="44.9757483" lon="12.2279467"><ele>-3.0</ele><time>2026-04-12T14:14:57.306Z</time></trkpt><trkpt lat="44.97583" lon="12.22766"><ele>-3.0</ele><time>2026-04-12T14:14:58.306Z</time></trkpt><trkpt lat="44.975915" lon="12.2273667"><ele>-3.0</ele><time>2026-04-12T14:14:59.306Z</time></trkpt><trkpt lat="44.976005" lon="12.22707"><ele>-3.0</ele><time>2026-04-12T14:15:00.306Z</time></trkpt><trkpt lat="44.9760833" lon="12.2267833"><ele>-3.0</ele><time>2026-04-12T14:15:01.306Z</time></trkpt><trkpt lat="44.9761683" lon="12.226485"><ele>-3.0</ele><time>2026-04-12T14:15:02.307Z</time></trkpt><trkpt lat="44.976255" lon="12.2261833"><ele>-3.0</ele><time>2026-04-12T14:15:03.307Z</time></trkpt><trkpt lat="44.97634" lon="12.22587"><ele>-3.0</ele><time>2026-04-12T14:15:04.306Z</time></trkpt><trkpt lat="44.976425" lon="12.225565"><ele>-3.0</ele><time>2026-04-12T14:15:05.307Z</time></trkpt><trkpt lat="44.9765067" lon="12.2252667"><ele>-3.0</ele><time>2026-04-12T14:15:06.306Z</time></trkpt><trkpt lat="44.9765867" lon="12.224985"><ele>-3.0</ele><time>2026-04-12T14:15:07.306Z</time></trkpt><trkpt lat="44.9766583" lon="12.2247133"><ele>-3.0</ele><time>2026-04-12T14:15:08.306Z</time></trkpt><trkpt lat="44.97673" lon="12.2244517"><ele>-3.0</ele><time>2026-04-12T14:15:09.306Z</time></trkpt><trkpt lat="44.9768" lon="12.2242067"><ele>-3.0</ele><time>2026-04-12T14:15:10.307Z</time></trkpt><trkpt lat="44.9768667" lon="12.2239717"><ele>-3.0</ele><time>2026-04-12T14:15:11.306Z</time></trkpt><trkpt lat="44.9769283" lon="12.2237417"><ele>-3.0</ele><time>2026-04-12T14:15:12.306Z</time></trkpt><trkpt lat="44.9769883" lon="12.2235233"><ele>-3.0</ele><time>2026-04-12T14:15:13.306Z</time></trkpt><trkpt lat="44.9770433" lon="12.223315"><ele>-3.0</ele><time>2026-04-12T14:15:14.306Z</time></trkpt><trkpt lat="44.9770967" lon="12.2231267"><ele>-3.0</ele><time>2026-04-12T14:15:15.306Z</time></trkpt><trkpt lat="44.97715" lon="12.2229367"><ele>-3.0</ele><time>2026-04-12T14:15:16.306Z</time></trkpt><trkpt lat="44.9772067" lon="12.22276"><ele>-3.0</ele><time>2026-04-12T14:15:17.306Z</time></trkpt><trkpt lat="44.977265" lon="12.2225833"><ele>-3.0</ele><time>2026-04-12T14:15:18.307Z</time></trkpt><trkpt lat="44.9773167" lon="12.2224183"><ele>-3.0</ele><time>2026-04-12T14:15:19.306Z</time></trkpt><trkpt lat="44.9773633" lon="12.22226"><ele>-3.0</ele><time>2026-04-12T14:15:20.306Z</time></trkpt><trkpt lat="44.977415" lon="12.2221217"><ele>-3.0</ele><time>2026-04-12T14:15:21.306Z</time></trkpt><trkpt lat="44.97747" lon="12.2219933"><ele>-3.2</ele><time>2026-04-12T14:15:22.307Z</time></trkpt><trkpt lat="44.9775367" lon="12.221865"><ele>-3.4</ele><time>2026-04-12T14:15:23.307Z</time></trkpt><trkpt lat="44.9776083" lon="12.22175"><ele>-3.6000000000000005</ele><time>2026-04-12T14:15:24.306Z</time></trkpt><trkpt lat="44.97768" lon="12.2216433"><ele>-3.8000000000000003</ele><time>2026-04-12T14:15:25.306Z</time></trkpt><trkpt lat="44.9777483" lon="12.221545"><ele>-4.0</ele><time>2026-04-12T14:15:26.306Z</time></trkpt><trkpt lat="44.977815" lon="12.221455"><ele>-4.2</ele><time>2026-04-12T14:15:27.306Z</time></trkpt><trkpt lat="44.977895" lon="12.2213667"><ele>-4.4</ele><time>2026-04-12T14:15:28.306Z</time></trkpt><trkpt lat="44.97798" lon="12.221285"><ele>-4.6</ele><time>2026-04-12T14:15:29.306Z</time></trkpt><trkpt lat="44.978075" lon="12.22122"><ele>-4.8</ele><time>2026-04-12T14:15:30.306Z</time></trkpt><trkpt lat="44.978195" lon="12.2211817"><ele>-5.0</ele><time>2026-04-12T14:15:31.307Z</time></trkpt><trkpt lat="44.9783183" lon="12.2211433"><ele>-4.25</ele><time>2026-04-12T14:15:32.306Z</time></trkpt><trkpt lat="44.9784533" lon="12.2211033"><ele>-3.5</ele><time>2026-04-12T14:15:33.306Z</time></trkpt><trkpt lat="44.9785983" lon="12.22106"><ele>-2.75</ele><time>2026-04-12T14:15:34.307Z</time></trkpt><trkpt lat="44.9787567" lon="12.22102"><ele>-2.0</ele><time>2026-04-12T14:15:35.306Z</time></trkpt><trkpt lat="44.9789217" lon="12.2209767"><ele>-2.0</ele><time>2026-04-12T14:15:36.307Z</time></trkpt><trkpt lat="44.9790933" lon="12.220935"><ele>-2.0</ele><time>2026-04-12T14:15:37.306Z</time></trkpt><trkpt lat="44.9792667" lon="12.2209017"><ele>-2.0</ele><time>2026-04-12T14:15:38.306Z</time></trkpt><trkpt lat="44.97945" lon="12.22087"><ele>-2.333333333333333</ele><time>2026-04-12T14:15:39.306Z</time></trkpt><trkpt lat="44.9796433" lon="12.2208483"><ele>-2.6666666666666665</ele><time>2026-04-12T14:15:40.307Z</time></trkpt><trkpt lat="44.9798417" lon="12.2208267"><ele>-3.0</ele><time>2026-04-12T14:15:41.306Z</time></trkpt><trkpt lat="44.98005" lon="12.2208083"><ele>-3.333333333333333</ele><time>2026-04-12T14:15:42.306Z</time></trkpt><trkpt lat="44.9802633" lon="12.2208083"><ele>-3.6666666666666665</ele><time>2026-04-12T14:15:43.306Z</time></trkpt><trkpt lat="44.980475" lon="12.220805"><ele>-4.0</ele><time>2026-04-12T14:15:44.306Z</time></trkpt><trkpt lat="44.980695" lon="12.2207983"><ele>-4.0</ele><time>2026-04-12T14:15:45.306Z</time></trkpt><trkpt lat="44.98092" lon="12.2207917"><ele>-4.0</ele><time>2026-04-12T14:15:46.307Z</time></trkpt><trkpt lat="44.9811433" lon="12.2207933"><ele>-4.0</ele><time>2026-04-12T14:15:47.306Z</time></trkpt><trkpt lat="44.98136" lon="12.2207883"><ele>-4.0</ele><time>2026-04-12T14:15:48.306Z</time></trkpt><trkpt lat="44.9815717" lon="12.2207883"><ele>-4.0</ele><time>2026-04-12T14:15:49.306Z</time></trkpt><trkpt lat="44.98178" lon="12.22079"><ele>-4.0</ele><time>2026-04-12T14:15:50.307Z</time></trkpt><trkpt lat="44.9819883" lon="12.2207917"><ele>-3.6666666666666665</ele><time>2026-04-12T14:15:51.306Z</time></trkpt><trkpt lat="44.982195" lon="12.2207933"><ele>-3.333333333333333</ele><time>2026-04-12T14:15:52.307Z</time></trkpt><trkpt lat="44.9823967" lon="12.2207917"><ele>-3.0</ele><time>2026-04-12T14:15:53.306Z</time></trkpt><trkpt lat="44.9825967" lon="12.220805"><ele>-3.0</ele><time>2026-04-12T14:15:54.306Z</time></trkpt><trkpt lat="44.9828" lon="12.2208133"><ele>-3.0</ele><time>2026-04-12T14:15:55.306Z</time></trkpt><trkpt lat="44.9830067" lon="12.2208133"><ele>-3.0</ele><time>2026-04-12T14:15:56.306Z</time></trkpt><trkpt lat="44.98322" lon="12.2208083"><ele>-3.0</ele><time>2026-04-12T14:15:57.306Z</time></trkpt><trkpt lat="44.9834317" lon="12.2208033"><ele>-3.0</ele><time>2026-04-12T14:15:58.307Z</time></trkpt><trkpt lat="44.9836483" lon="12.2207967"><ele>-3.0</ele><time>2026-04-12T14:15:59.306Z</time></trkpt><trkpt lat="44.9838667" lon="12.22079"><ele>-3.0</ele><time>2026-04-12T14:16:00.306Z</time></trkpt><trkpt lat="44.9840833" lon="12.2207817"><ele>-3.0</ele><time>2026-04-12T14:16:01.306Z</time></trkpt><trkpt lat="44.984305" lon="12.2207817"><ele>-3.0</ele><time>2026-04-12T14:16:02.306Z</time></trkpt><trkpt lat="44.98453" lon="12.2207833"><ele>-2.0</ele><time>2026-04-12T14:16:03.306Z</time></trkpt><trkpt lat="44.9847533" lon="12.2207883"><ele>-1.0</ele><time>2026-04-12T14:16:04.306Z</time></trkpt><trkpt lat="44.9849833" lon="12.2207967"><ele>1.0</ele><time>2026-04-12T14:16:05.307Z</time></trkpt><trkpt lat="44.985215" lon="12.220795"><ele>3.0</ele><time>2026-04-12T14:16:06.306Z</time></trkpt><trkpt lat="44.9854467" lon="12.2207883"><ele>3.0</ele><time>2026-04-12T14:16:07.307Z</time></trkpt><trkpt lat="44.9856767" lon="12.220785"><ele>3.0</ele><time>2026-04-12T14:16:08.306Z</time></trkpt><trkpt lat="44.9859017" lon="12.2207883"><ele>3.0</ele><time>2026-04-12T14:16:09.306Z</time></trkpt><trkpt lat="44.986115" lon="12.2207917"><ele>3.0</ele><time>2026-04-12T14:16:10.306Z</time></trkpt><trkpt lat="44.9863267" lon="12.2207883"><ele>3.0</ele><time>2026-04-12T14:16:11.306Z</time></trkpt><trkpt lat="44.986535" lon="12.2207783"><ele>1.3333333333333335</ele><time>2026-04-12T14:16:12.306Z</time></trkpt><trkpt lat="44.9867433" lon="12.2207817"><ele>-0.33333333333333326</ele><time>2026-04-12T14:16:13.306Z</time></trkpt><trkpt lat="44.9869533" lon="12.2207867"><ele>-2.0</ele><time>2026-04-12T14:16:14.306Z</time></trkpt><trkpt lat="44.9871567" lon="12.2207867"><ele>-2.0</ele><time>2026-04-12T14:16:15.307Z</time></trkpt><trkpt lat="44.987355" lon="12.2207833"><ele>-2.0</ele><time>2026-04-12T14:16:16.307Z</time></trkpt><trkpt lat="44.9875417" lon="12.2207867"><ele>-2.0</ele><time>2026-04-12T14:16:17.306Z</time></trkpt><trkpt lat="44.987725" lon="12.2207783"><ele>-2.0</ele><time>2026-04-12T14:16:18.306Z</time></trkpt><trkpt lat="44.9879083" lon="12.2207733"><ele>-2.0</ele><time>2026-04-12T14:16:19.306Z</time></trkpt><trkpt lat="44.9880933" lon="12.2207667"><ele>-2.0</ele><time>2026-04-12T14:16:20.306Z</time></trkpt><trkpt lat="44.988275" lon="12.220765"><ele>-2.0</ele><time>2026-04-12T14:16:21.307Z</time></trkpt><trkpt lat="44.9884583" lon="12.2207767"><ele>-2.0</ele><time>2026-04-12T14:16:22.306Z</time></trkpt><trkpt lat="44.9886367" lon="12.2207767"><ele>-2.0</ele><time>2026-04-12T14:16:23.306Z</time></trkpt><trkpt lat="44.9888083" lon="12.2207767"><ele>-2.0</ele><time>2026-04-12T14:16:24.306Z</time></trkpt><trkpt lat="44.98898" lon="12.2207783"><ele>-2.0</ele><time>2026-04-12T14:16:25.306Z</time></trkpt><trkpt lat="44.9891533" lon="12.2207783"><ele>-2.0</ele><time>2026-04-12T14:16:26.306Z</time></trkpt><trkpt lat="44.9893317" lon="12.2207733"><ele>-2.0</ele><time>2026-04-12T14:16:27.307Z</time></trkpt><trkpt lat="44.989515" lon="12.2207683"><ele>-2.0</ele><time>2026-04-12T14:16:28.306Z</time></trkpt><trkpt lat="44.9896967" lon="12.2207717"><ele>-2.0</ele><time>2026-04-12T14:16:29.307Z</time></trkpt><trkpt lat="44.9898833" lon="12.22076"><ele>-2.333333333333333</ele><time>2026-04-12T14:16:30.306Z</time></trkpt><trkpt lat="44.9900733" lon="12.2207583"><ele>-2.6666666666666665</ele><time>2026-04-12T14:16:31.307Z</time></trkpt><trkpt lat="44.9902617" lon="12.2207617"><ele>-3.0</ele><time>2026-04-12T14:16:32.306Z</time></trkpt><trkpt lat="44.9904517" lon="12.2207667"><ele>-3.0</ele><time>2026-04-12T14:16:33.306Z</time></trkpt><trkpt lat="44.9906467" lon="12.2207733"><ele>-3.0</ele><time>2026-04-12T14:16:34.306Z</time></trkpt><trkpt lat="44.9908417" lon="12.220785"><ele>-3.0</ele><time>2026-04-12T14:16:35.306Z</time></trkpt><trkpt lat="44.9910383" lon="12.2207967"><ele>-2.3333333333333335</ele><time>2026-04-12T14:16:36.306Z</time></trkpt><trkpt lat="44.9912217" lon="12.2208167"><ele>-1.6666666666666665</ele><time>2026-04-12T14:16:37.306Z</time></trkpt><trkpt lat="44.9913933" lon="12.2208333"><ele>-1.0</ele><time>2026-04-12T14:16:38.306Z</time></trkpt><trkpt lat="44.9915517" lon="12.2208583"><ele>-0.75</ele><time>2026-04-12T14:16:39.306Z</time></trkpt><trkpt lat="44.9916967" lon="12.2208967"><ele>-0.5</ele><time>2026-04-12T14:16:40.306Z</time></trkpt><trkpt lat="44.9918283" lon="12.2209333"><ele>-0.25</ele><time>2026-04-12T14:16:41.306Z</time></trkpt><trkpt lat="44.991945" lon="12.2209733"><ele>0.0</ele><time>2026-04-12T14:16:42.306Z</time></trkpt><trkpt lat="44.9920417" lon="12.2210217"><ele>0.0</ele><time>2026-04-12T14:16:43.307Z</time></trkpt><trkpt lat="44.9921317" lon="12.2210833"><ele>0.0</ele><time>2026-04-12T14:16:44.306Z</time></trkpt><trkpt lat="44.9922017" lon="12.2211733"><ele>0.0</ele><time>2026-04-12T14:16:45.306Z</time></trkpt><trkpt lat="44.99226" lon="12.2212917"><ele>0.0</ele><time>2026-04-12T14:16:46.306Z</time></trkpt><trkpt lat="44.9923117" lon="12.22143"><ele>0.0</ele><time>2026-04-12T14:16:47.307Z</time></trkpt><trkpt lat="44.9923367" lon="12.2215883"><ele>0.75</ele><time>2026-04-12T14:16:48.306Z</time></trkpt><trkpt lat="44.99233" lon="12.2217667"><ele>1.5</ele><time>2026-04-12T14:16:49.306Z</time></trkpt><trkpt lat="44.9923233" lon="12.221955"><ele>2.25</ele><time>2026-04-12T14:16:50.306Z</time></trkpt><trkpt lat="44.9923317" lon="12.2221517"><ele>3.0</ele><time>2026-04-12T14:16:51.306Z</time></trkpt><trkpt lat="44.9923567" lon="12.2223567"><ele>3.0</ele><time>2026-04-12T14:16:52.306Z</time></trkpt><trkpt lat="44.9924083" lon="12.2225483"><ele>3.0</ele><time>2026-04-12T14:16:53.306Z</time></trkpt><trkpt lat="44.992485" lon="12.2227333"><ele>3.0</ele><time>2026-04-12T14:16:54.306Z</time></trkpt><trkpt lat="44.99259" lon="12.2228933"><ele>1.3333333333333335</ele><time>2026-04-12T14:16:55.306Z</time></trkpt><trkpt lat="44.992725" lon="12.22303"><ele>-0.33333333333333326</ele><time>2026-04-12T14:16:56.306Z</time></trkpt><trkpt lat="44.9928833" lon="12.2231467"><ele>-2.0</ele><time>2026-04-12T14:16:57.306Z</time></trkpt><trkpt lat="44.99306" lon="12.2232417"><ele>-2.6666666666666665</ele><time>2026-04-12T14:16:58.306Z</time></trkpt><trkpt lat="44.9932433" lon="12.2233217"><ele>-3.333333333333333</ele><time>2026-04-12T14:16:59.306Z</time></trkpt><trkpt lat="44.9934383" lon="12.223395"><ele>-4.0</ele><time>2026-04-12T14:17:00.306Z</time></trkpt><trkpt lat="44.9936433" lon="12.2234733"><ele>-4.0</ele><time>2026-04-12T14:17:01.306Z</time></trkpt><trkpt lat="44.9938467" lon="12.2235483"><ele>-4.0</ele><time>2026-04-12T14:17:02.306Z</time></trkpt><trkpt lat="44.9940417" lon="12.2236183"><ele>-4.0</ele><time>2026-04-12T14:17:03.306Z</time></trkpt><trkpt lat="44.994225" lon="12.2236783"><ele>-4.0</ele><time>2026-04-12T14:17:04.306Z</time></trkpt><trkpt lat="44.9943917" lon="12.2236983"><ele>-4.0</ele><time>2026-04-12T14:17:05.306Z</time></trkpt><trkpt lat="44.9945533" lon="12.22368"><ele>-4.0</ele><time>2026-04-12T14:17:06.306Z</time></trkpt><trkpt lat="44.9947133" lon="12.2236267"><ele>-4.0</ele><time>2026-04-12T14:17:07.306Z</time></trkpt><trkpt lat="44.9948617" lon="12.2235333"><ele>-4.0</ele><time>2026-04-12T14:17:08.306Z</time></trkpt><trkpt lat="44.995005" lon="12.2233983"><ele>-4.0</ele><time>2026-04-12T14:17:09.306Z</time></trkpt><trkpt lat="44.9951217" lon="12.223225"><ele>-3.333333333333333</ele><time>2026-04-12T14:17:10.306Z</time></trkpt><trkpt lat="44.99521" lon="12.2230133"><ele>-2.6666666666666665</ele><time>2026-04-12T14:17:11.307Z</time></trkpt><trkpt lat="44.99528" lon="12.2227767"><ele>-2.0</ele><time>2026-04-12T14:17:12.306Z</time></trkpt><trkpt lat="44.995335" lon="12.22252"><ele>-2.0</ele><time>2026-04-12T14:17:13.306Z</time></trkpt><trkpt lat="44.9953867" lon="12.2222483"><ele>-2.0</ele><time>2026-04-12T14:17:14.306Z</time></trkpt><trkpt lat="44.995435" lon="12.221985"><ele>-2.0</ele><time>2026-04-12T14:17:15.307Z</time></trkpt><trkpt lat="44.99548" lon="12.2217417"><ele>-2.0</ele><time>2026-04-12T14:17:16.307Z</time></trkpt><trkpt lat="44.99552" lon="12.2214983"><ele>-2.0</ele><time>2026-04-12T14:17:17.306Z</time></trkpt><trkpt lat="44.99556" lon="12.2212517"><ele>-2.0</ele><time>2026-04-12T14:17:18.307Z</time></trkpt><trkpt lat="44.9956117" lon="12.221005"><ele>-2.0</ele><time>2026-04-12T14:17:19.306Z</time></trkpt><trkpt lat="44.99568" lon="12.22075"><ele>-2.0</ele><time>2026-04-12T14:17:20.307Z</time></trkpt><trkpt lat="44.9957533" lon="12.2204983"><ele>-2.0</ele><time>2026-04-12T14:17:21.307Z</time></trkpt><trkpt lat="44.9958383" lon="12.220235"><ele>-2.0</ele><time>2026-04-12T14:17:22.306Z</time></trkpt><trkpt lat="44.9959217" lon="12.2199783"><ele>-2.0</ele><time>2026-04-12T14:17:23.306Z</time></trkpt><trkpt lat="44.9960017" lon="12.2197283"><ele>-2.0</ele><time>2026-04-12T14:17:24.306Z</time></trkpt><trkpt lat="44.996075" lon="12.21948"><ele>-2.333333333333333</ele><time>2026-04-12T14:17:25.306Z</time></trkpt><trkpt lat="44.996145" lon="12.2192567"><ele>-2.6666666666666665</ele><time>2026-04-12T14:17:26.306Z</time></trkpt><trkpt lat="44.996205" lon="12.21903"><ele>-3.0</ele><time>2026-04-12T14:17:27.306Z</time></trkpt><trkpt lat="44.996265" lon="12.2187967"><ele>-3.0</ele><time>2026-04-12T14:17:28.306Z</time></trkpt><trkpt lat="44.99633" lon="12.2185567"><ele>-3.0</ele><time>2026-04-12T14:17:29.307Z</time></trkpt><trkpt lat="44.9963917" lon="12.2182983"><ele>-3.0</ele><time>2026-04-12T14:17:30.306Z</time></trkpt><trkpt lat="44.9964433" lon="12.2180383"><ele>-3.333333333333333</ele><time>2026-04-12T14:17:31.307Z</time></trkpt><trkpt lat="44.9965133" lon="12.2177733"><ele>-3.6666666666666665</ele><time>2026-04-12T14:17:32.307Z</time></trkpt><trkpt lat="44.9965783" lon="12.217505"><ele>-4.0</ele><time>2026-04-12T14:17:33.306Z</time></trkpt><trkpt lat="44.99665" lon="12.2172317"><ele>-3.333333333333333</ele><time>2026-04-12T14:17:34.307Z</time></trkpt><trkpt lat="44.9967217" lon="12.2169567"><ele>-2.6666666666666665</ele><time>2026-04-12T14:17:35.307Z</time></trkpt><trkpt lat="44.9967933" lon="12.2166767"><ele>-2.0</ele><time>2026-04-12T14:17:36.306Z</time></trkpt><trkpt lat="44.996865" lon="12.2163917"><ele>-2.0</ele><time>2026-04-12T14:17:37.306Z</time></trkpt><trkpt lat="44.9969367" lon="12.216095"><ele>-2.0</ele><time>2026-04-12T14:17:38.306Z</time></trkpt><trkpt lat="44.9970083" lon="12.215805"><ele>-2.0</ele><time>2026-04-12T14:17:39.307Z</time></trkpt><trkpt lat="44.9970817" lon="12.2155033"><ele>-1.6666666666666665</ele><time>2026-04-12T14:17:40.307Z</time></trkpt><trkpt lat="44.9971583" lon="12.2152167"><ele>-1.3333333333333333</ele><time>2026-04-12T14:17:41.306Z</time></trkpt><trkpt lat="44.99723" lon="12.2149183"><ele>-1.0</ele><time>2026-04-12T14:17:42.307Z</time></trkpt><trkpt lat="44.9973033" lon="12.2146267"><ele>-1.0</ele><time>2026-04-12T14:17:43.306Z</time></trkpt><trkpt lat="44.9973717" lon="12.2143467"><ele>-1.0</ele><time>2026-04-12T14:17:44.306Z</time></trkpt><trkpt lat="44.99744" lon="12.2140783"><ele>-1.0</ele><time>2026-04-12T14:17:45.306Z</time></trkpt><trkpt lat="44.9975067" lon="12.2138167"><ele>-1.0</ele><time>2026-04-12T14:17:46.306Z</time></trkpt><trkpt lat="44.997575" lon="12.2135583"><ele>-1.0</ele><time>2026-04-12T14:17:47.307Z</time></trkpt><trkpt lat="44.9976417" lon="12.2133"><ele>-1.0</ele><time>2026-04-12T14:17:48.306Z</time></trkpt><trkpt lat="44.9977117" lon="12.21303"><ele>-0.6666666666666666</ele><time>2026-04-12T14:17:49.306Z</time></trkpt><trkpt lat="44.9977717" lon="12.2127667"><ele>-0.3333333333333333</ele><time>2026-04-12T14:17:50.306Z</time></trkpt><trkpt lat="44.9978167" lon="12.21252"><ele>0.0</ele><time>2026-04-12T14:17:51.306Z</time></trkpt><trkpt lat="44.9978483" lon="12.2122733"><ele>0.0</ele><time>2026-04-12T14:17:52.306Z</time></trkpt><trkpt lat="44.997865" lon="12.2120433"><ele>0.0</ele><time>2026-04-12T14:17:53.307Z</time></trkpt><trkpt lat="44.9978767" lon="12.2118317"><ele>0.0</ele><time>2026-04-12T14:17:54.306Z</time></trkpt><trkpt lat="44.9978867" lon="12.21165"><ele>0.0</ele><time>2026-04-12T14:17:55.306Z</time></trkpt><trkpt lat="44.9979017" lon="12.2114833"><ele>0.0</ele><time>2026-04-12T14:17:56.307Z</time></trkpt><trkpt lat="44.9979217" lon="12.21133"><ele>0.0</ele><time>2026-04-12T14:17:57.307Z</time></trkpt><trkpt lat="44.9979683" lon="12.2112"><ele>0.0</ele><time>2026-04-12T14:17:58.306Z</time></trkpt><trkpt lat="44.99802" lon="12.2110817"><ele>0.0</ele><time>2026-04-12T14:17:59.306Z</time></trkpt><trkpt lat="44.998055" lon="12.2109733"><ele>0.0</ele><time>2026-04-12T14:18:00.306Z</time></trkpt><trkpt lat="44.9980583" lon="12.2108333"><ele>0.0</ele><time>2026-04-12T14:18:01.306Z</time></trkpt><trkpt lat="44.9980317" lon="12.210705"><ele>0.0</ele><time>2026-04-12T14:18:02.306Z</time></trkpt><trkpt lat="44.9979817" lon="12.21057"><ele>0.0</ele><time>2026-04-12T14:18:03.306Z</time></trkpt><trkpt lat="44.9979317" lon="12.21042"><ele>0.0</ele><time>2026-04-12T14:18:04.306Z</time></trkpt><trkpt lat="44.9979067" lon="12.2102317"><ele>0.0</ele><time>2026-04-12T14:18:05.307Z</time></trkpt><trkpt lat="44.9979067" lon="12.2100117"><ele>0.0</ele><time>2026-04-12T14:18:06.306Z</time></trkpt><trkpt lat="44.9979233" lon="12.2098033"><ele>0.0</ele><time>2026-04-12T14:18:07.306Z</time></trkpt><trkpt lat="44.9979433" lon="12.2095967"><ele>0.3333333333333333</ele><time>2026-04-12T14:18:08.307Z</time></trkpt><trkpt lat="44.99797" lon="12.209375"><ele>0.6666666666666666</ele><time>2026-04-12T14:18:09.307Z</time></trkpt><trkpt lat="44.9979967" lon="12.2091467"><ele>1.0</ele><time>2026-04-12T14:18:10.306Z</time></trkpt><trkpt lat="44.998025" lon="12.20892"><ele>1.0</ele><time>2026-04-12T14:18:11.307Z</time></trkpt><trkpt lat="44.9980533" lon="12.2086883"><ele>1.0</ele><time>2026-04-12T14:18:12.306Z</time></trkpt><trkpt lat="44.9980733" lon="12.20846"><ele>1.0</ele><time>2026-04-12T14:18:13.307Z</time></trkpt><trkpt lat="44.9980967" lon="12.2082217"><ele>1.0</ele><time>2026-04-12T14:18:14.306Z</time></trkpt><trkpt lat="44.99812" lon="12.2079767"><ele>1.0</ele><time>2026-04-12T14:18:15.306Z</time></trkpt><trkpt lat="44.9981367" lon="12.2077467"><ele>1.0</ele><time>2026-04-12T14:18:16.307Z</time></trkpt><trkpt lat="44.9981583" lon="12.207515"><ele>1.3333333333333333</ele><time>2026-04-12T14:18:17.306Z</time></trkpt><trkpt lat="44.998185" lon="12.2072817"><ele>1.6666666666666665</ele><time>2026-04-12T14:18:18.307Z</time></trkpt><trkpt lat="44.9982133" lon="12.20704"><ele>2.0</ele><time>2026-04-12T14:18:19.306Z</time></trkpt><trkpt lat="44.9982467" lon="12.2067933"><ele>2.0</ele><time>2026-04-12T14:18:20.306Z</time></trkpt><trkpt lat="44.9982967" lon="12.2065483"><ele>2.0</ele><time>2026-04-12T14:18:21.307Z</time></trkpt><trkpt lat="44.998355" lon="12.206305"><ele>2.0</ele><time>2026-04-12T14:18:22.306Z</time></trkpt><trkpt lat="44.9984283" lon="12.2060567"><ele>1.3333333333333333</ele><time>2026-04-12T14:18:23.306Z</time></trkpt><trkpt lat="44.9985133" lon="12.2058117"><ele>0.6666666666666666</ele><time>2026-04-12T14:18:24.307Z</time></trkpt><trkpt lat="44.9986067" lon="12.2055733"><ele>0.0</ele><time>2026-04-12T14:18:25.306Z</time></trkpt><trkpt lat="44.9987083" lon="12.20533"><ele>0.0</ele><time>2026-04-12T14:18:26.306Z</time></trkpt><trkpt lat="44.9988083" lon="12.20509"><ele>0.0</ele><time>2026-04-12T14:18:27.307Z</time></trkpt><trkpt lat="44.9989183" lon="12.20486"><ele>0.0</ele><time>2026-04-12T14:18:28.306Z</time></trkpt><trkpt lat="44.99904" lon="12.204625"><ele>0.0</ele><time>2026-04-12T14:18:29.306Z</time></trkpt><trkpt lat="44.9991617" lon="12.2044"><ele>0.0</ele><time>2026-04-12T14:18:30.306Z</time></trkpt><trkpt lat="44.9992983" lon="12.2041833"><ele>0.0</ele><time>2026-04-12T14:18:31.307Z</time></trkpt><trkpt lat="44.9994467" lon="12.2039717"><ele>0.0</ele><time>2026-04-12T14:18:32.306Z</time></trkpt><trkpt lat="44.999605" lon="12.2037683"><ele>0.0</ele><time>2026-04-12T14:18:33.306Z</time></trkpt><trkpt lat="44.9997683" lon="12.20357"><ele>0.0</ele><time>2026-04-12T14:18:34.306Z</time></trkpt><trkpt lat="44.9999383" lon="12.20338"><ele>0.0</ele><time>2026-04-12T14:18:35.307Z</time></trkpt><trkpt lat="45.0001117" lon="12.2032033"><ele>0.0</ele><time>2026-04-12T14:18:36.306Z</time></trkpt><trkpt lat="45.0002867" lon="12.2030517"><ele>0.0</ele><time>2026-04-12T14:18:37.307Z</time></trkpt><trkpt lat="45.0004683" lon="12.202905"><ele>0.3333333333333333</ele><time>2026-04-12T14:18:38.307Z</time></trkpt><trkpt lat="45.0006517" lon="12.2027667"><ele>0.6666666666666666</ele><time>2026-04-12T14:18:39.306Z</time></trkpt><trkpt lat="45.0008433" lon="12.2026367"><ele>1.0</ele><time>2026-04-12T14:18:40.307Z</time></trkpt><trkpt lat="45.0010333" lon="12.2025067"><ele>0.0</ele><time>2026-04-12T14:18:41.306Z</time></trkpt><trkpt lat="45.0012233" lon="12.20237"><ele>-1.0</ele><time>2026-04-12T14:18:42.306Z</time></trkpt><trkpt lat="45.001415" lon="12.2022367"><ele>-2.0</ele><time>2026-04-12T14:18:43.307Z</time></trkpt><trkpt lat="45.0016067" lon="12.2021033"><ele>-1.6666666666666665</ele><time>2026-04-12T14:18:44.306Z</time></trkpt><trkpt lat="45.0017983" lon="12.2019783"><ele>-1.3333333333333333</ele><time>2026-04-12T14:18:45.307Z</time></trkpt><trkpt lat="45.00198" lon="12.20185"><ele>-1.0</ele><time>2026-04-12T14:18:46.306Z</time></trkpt><trkpt lat="45.002155" lon="12.2017267"><ele>-1.0</ele><time>2026-04-12T14:18:47.306Z</time></trkpt><trkpt lat="45.002325" lon="12.2016117"><ele>-1.0</ele><time>2026-04-12T14:18:48.306Z</time></trkpt><trkpt lat="45.002485" lon="12.2014967"><ele>-1.0</ele><time>2026-04-12T14:18:49.306Z</time></trkpt><trkpt lat="45.002635" lon="12.2013867"><ele>-1.3333333333333333</ele><time>2026-04-12T14:18:50.307Z</time></trkpt><trkpt lat="45.0027733" lon="12.2012633"><ele>-1.6666666666666665</ele><time>2026-04-12T14:18:51.306Z</time></trkpt><trkpt lat="45.00291" lon="12.2011217"><ele>-2.0</ele><time>2026-04-12T14:18:52.307Z</time></trkpt><trkpt lat="45.0030367" lon="12.2009683"><ele>-2.0</ele><time>2026-04-12T14:18:53.307Z</time></trkpt><trkpt lat="45.0031633" lon="12.2008083"><ele>-2.0</ele><time>2026-04-12T14:18:54.307Z</time></trkpt><trkpt lat="45.0032967" lon="12.20063"><ele>-2.0</ele><time>2026-04-12T14:18:55.306Z</time></trkpt><trkpt lat="45.0034233" lon="12.2004417"><ele>-2.0</ele><time>2026-04-12T14:18:56.306Z</time></trkpt><trkpt lat="45.0035433" lon="12.200235"><ele>-2.0</ele><time>2026-04-12T14:18:57.306Z</time></trkpt><trkpt lat="45.0036617" lon="12.2000083"><ele>-2.0</ele><time>2026-04-12T14:18:58.306Z</time></trkpt><trkpt lat="45.0037667" lon="12.19976"><ele>-2.0</ele><time>2026-04-12T14:18:59.306Z</time></trkpt><trkpt lat="45.0038583" lon="12.1994983"><ele>-2.0</ele><time>2026-04-12T14:19:00.307Z</time></trkpt><trkpt lat="45.003945" lon="12.1992233"><ele>-2.0</ele><time>2026-04-12T14:19:01.306Z</time></trkpt><trkpt lat="45.0040167" lon="12.198955"><ele>-2.333333333333333</ele><time>2026-04-12T14:19:02.306Z</time></trkpt><trkpt lat="45.004075" lon="12.1987067"><ele>-2.6666666666666665</ele><time>2026-04-12T14:19:03.307Z</time></trkpt><trkpt lat="45.0041333" lon="12.198465"><ele>-3.0</ele><time>2026-04-12T14:19:04.306Z</time></trkpt><trkpt lat="45.004195" lon="12.1982267"><ele>-3.0</ele><time>2026-04-12T14:19:05.306Z</time></trkpt><trkpt lat="45.004255" lon="12.1979833"><ele>-3.0</ele><time>2026-04-12T14:19:06.307Z</time></trkpt><trkpt lat="45.0043083" lon="12.1977283"><ele>-3.0</ele><time>2026-04-12T14:19:07.306Z</time></trkpt><trkpt lat="45.0043483" lon="12.19746"><ele>-3.333333333333333</ele><time>2026-04-12T14:19:08.307Z</time></trkpt><trkpt lat="45.0043717" lon="12.19718"><ele>-3.6666666666666665</ele><time>2026-04-12T14:19:09.307Z</time></trkpt><trkpt lat="45.00438" lon="12.1968917"><ele>-4.0</ele><time>2026-04-12T14:19:10.307Z</time></trkpt><trkpt lat="45.0043867" lon="12.1965983"><ele>-4.333333333333333</ele><time>2026-04-12T14:19:11.307Z</time></trkpt><trkpt lat="45.0043917" lon="12.1963033"><ele>-4.666666666666667</ele><time>2026-04-12T14:19:12.307Z</time></trkpt><trkpt lat="45.004405" lon="12.1960117"><ele>-5.0</ele><time>2026-04-12T14:19:13.307Z</time></trkpt><trkpt lat="45.004415" lon="12.1957217"><ele>-5.0</ele><time>2026-04-12T14:19:14.306Z</time></trkpt><trkpt lat="45.004425" lon="12.1954167"><ele>-5.0</ele><time>2026-04-12T14:19:15.306Z</time></trkpt><trkpt lat="45.0044367" lon="12.1951083"><ele>-5.0</ele><time>2026-04-12T14:19:16.306Z</time></trkpt><trkpt lat="45.0044417" lon="12.1947883"><ele>-4.0</ele><time>2026-04-12T14:19:17.306Z</time></trkpt><trkpt lat="45.0044467" lon="12.1944633"><ele>-3.0</ele><time>2026-04-12T14:19:18.306Z</time></trkpt><trkpt lat="45.0044533" lon="12.194135"><ele>-3.5</ele><time>2026-04-12T14:19:19.306Z</time></trkpt><trkpt lat="45.0044633" lon="12.1938017"><ele>-4.0</ele><time>2026-04-12T14:19:20.306Z</time></trkpt><trkpt lat="45.004465" lon="12.1934483"><ele>-3.5</ele><time>2026-04-12T14:19:21.307Z</time></trkpt><trkpt lat="45.0044683" lon="12.193075"><ele>-3.0</ele><time>2026-04-12T14:19:22.306Z</time></trkpt><trkpt lat="45.0044767" lon="12.1927"><ele>-3.5</ele><time>2026-04-12T14:19:23.306Z</time></trkpt><trkpt lat="45.0044883" lon="12.1923333"><ele>-4.0</ele><time>2026-04-12T14:19:24.307Z</time></trkpt><trkpt lat="45.0045" lon="12.1919783"><ele>-4.0</ele><time>2026-04-12T14:19:25.307Z</time></trkpt><trkpt lat="45.00451" lon="12.19163"><ele>-4.0</ele><time>2026-04-12T14:19:26.306Z</time></trkpt><trkpt lat="45.0045233" lon="12.1912783"><ele>-4.0</ele><time>2026-04-12T14:19:27.306Z</time></trkpt><trkpt lat="45.0045483" lon="12.1909167"><ele>-4.0</ele><time>2026-04-12T14:19:28.307Z</time></trkpt><trkpt lat="45.0045717" lon="12.19056"><ele>-4.0</ele><time>2026-04-12T14:19:29.306Z</time></trkpt><trkpt lat="45.0045867" lon="12.1902067"><ele>-4.0</ele><time>2026-04-12T14:19:30.306Z</time></trkpt><trkpt lat="45.0046" lon="12.1898467"><ele>-3.5</ele><time>2026-04-12T14:19:31.307Z</time></trkpt><trkpt lat="45.00461" lon="12.1894883"><ele>-3.0</ele><time>2026-04-12T14:19:32.306Z</time></trkpt><trkpt lat="45.0046167" lon="12.1891283"><ele>-3.0</ele><time>2026-04-12T14:19:33.306Z</time></trkpt><trkpt lat="45.00462" lon="12.1887683"><ele>-3.0</ele><time>2026-04-12T14:19:34.306Z</time></trkpt><trkpt lat="45.00463" lon="12.1884033"><ele>-3.0</ele><time>2026-04-12T14:19:35.306Z</time></trkpt><trkpt lat="45.0046417" lon="12.1880317"><ele>-3.0</ele><time>2026-04-12T14:19:36.307Z</time></trkpt><trkpt lat="45.0046517" lon="12.1876683"><ele>-2.5</ele><time>2026-04-12T14:19:37.306Z</time></trkpt><trkpt lat="45.004665" lon="12.187315"><ele>-2.0</ele><time>2026-04-12T14:19:38.307Z</time></trkpt><trkpt lat="45.0046833" lon="12.1869667"><ele>-2.0</ele><time>2026-04-12T14:19:39.306Z</time></trkpt><trkpt lat="45.0047017" lon="12.1866033"><ele>-2.0</ele><time>2026-04-12T14:19:40.306Z</time></trkpt><trkpt lat="45.00472" lon="12.1862267"><ele>-2.0</ele><time>2026-04-12T14:19:41.306Z</time></trkpt><trkpt lat="45.0047283" lon="12.18585"><ele>-2.0</ele><time>2026-04-12T14:19:42.307Z</time></trkpt><trkpt lat="45.004745" lon="12.18549"><ele>-2.0</ele><time>2026-04-12T14:19:43.306Z</time></trkpt><trkpt lat="45.00476" lon="12.1851583"><ele>-2.0</ele><time>2026-04-12T14:19:44.306Z</time></trkpt><trkpt lat="45.00478" lon="12.184845"><ele>-2.333333333333333</ele><time>2026-04-12T14:19:45.306Z</time></trkpt><trkpt lat="45.0047967" lon="12.1845517"><ele>-2.6666666666666665</ele><time>2026-04-12T14:19:46.306Z</time></trkpt><trkpt lat="45.0048067" lon="12.1842717"><ele>-3.0</ele><time>2026-04-12T14:19:47.306Z</time></trkpt><trkpt lat="45.0048167" lon="12.183995"><ele>-2.3333333333333335</ele><time>2026-04-12T14:19:48.306Z</time></trkpt><trkpt lat="45.0048233" lon="12.1837267"><ele>-1.6666666666666665</ele><time>2026-04-12T14:19:49.306Z</time></trkpt><trkpt lat="45.00483" lon="12.1834633"><ele>-1.0</ele><time>2026-04-12T14:19:50.306Z</time></trkpt><trkpt lat="45.0048467" lon="12.18321"><ele>-0.6666666666666666</ele><time>2026-04-12T14:19:51.306Z</time></trkpt><trkpt lat="45.0048567" lon="12.1829617"><ele>-0.3333333333333333</ele><time>2026-04-12T14:19:52.306Z</time></trkpt><trkpt lat="45.00487" lon="12.1827133"><ele>0.0</ele><time>2026-04-12T14:19:53.306Z</time></trkpt><trkpt lat="45.0048733" lon="12.1824483"><ele>-1.0</ele><time>2026-04-12T14:19:54.306Z</time></trkpt><trkpt lat="45.0048767" lon="12.1821733"><ele>-2.0</ele><time>2026-04-12T14:19:55.306Z</time></trkpt><trkpt lat="45.004885" lon="12.1818833"><ele>-3.0</ele><time>2026-04-12T14:19:56.306Z</time></trkpt><trkpt lat="45.0048933" lon="12.1815783"><ele>-3.5</ele><time>2026-04-12T14:19:57.306Z</time></trkpt><trkpt lat="45.004905" lon="12.181255"><ele>-4.0</ele><time>2026-04-12T14:19:58.306Z</time></trkpt><trkpt lat="45.0049267" lon="12.1809217"><ele>-5.0</ele><time>2026-04-12T14:19:59.306Z</time></trkpt><trkpt lat="45.0049433" lon="12.1805767"><ele>-6.0</ele><time>2026-04-12T14:20:00.306Z</time></trkpt><trkpt lat="45.0049533" lon="12.1802183"><ele>-6.0</ele><time>2026-04-12T14:20:01.306Z</time></trkpt><trkpt lat="45.004965" lon="12.1798533"><ele>-6.0</ele><time>2026-04-12T14:20:02.306Z</time></trkpt><trkpt lat="45.0049767" lon="12.1794783"><ele>-6.5</ele><time>2026-04-12T14:20:03.306Z</time></trkpt><trkpt lat="45.004985" lon="12.1791033"><ele>-7.0</ele><time>2026-04-12T14:20:04.307Z</time></trkpt><trkpt lat="45.0049933" lon="12.1787283"><ele>-6.0</ele><time>2026-04-12T14:20:05.306Z</time></trkpt><trkpt lat="45.0050067" lon="12.178345"><ele>-5.0</ele><time>2026-04-12T14:20:06.306Z</time></trkpt><trkpt lat="45.00502" lon="12.1779633"><ele>-4.5</ele><time>2026-04-12T14:20:07.306Z</time></trkpt><trkpt lat="45.0050367" lon="12.1775833"><ele>-4.0</ele><time>2026-04-12T14:20:08.306Z</time></trkpt><trkpt lat="45.0050483" lon="12.1772017"><ele>-3.5</ele><time>2026-04-12T14:20:09.306Z</time></trkpt><trkpt lat="45.0050633" lon="12.1768233"><ele>-3.0</ele><time>2026-04-12T14:20:10.307Z</time></trkpt><trkpt lat="45.00508" lon="12.1764467"><ele>-3.0</ele><time>2026-04-12T14:20:11.307Z</time></trkpt><trkpt lat="45.0051" lon="12.17608"><ele>-3.0</ele><time>2026-04-12T14:20:12.306Z</time></trkpt><trkpt lat="45.0051233" lon="12.17572"><ele>-3.5</ele><time>2026-04-12T14:20:13.306Z</time></trkpt><trkpt lat="45.0051417" lon="12.1753817"><ele>-4.0</ele><time>2026-04-12T14:20:14.306Z</time></trkpt><trkpt lat="45.0051567" lon="12.175055"><ele>-4.333333333333333</ele><time>2026-04-12T14:20:15.306Z</time></trkpt><trkpt lat="45.0051717" lon="12.1747367"><ele>-4.666666666666667</ele><time>2026-04-12T14:20:16.306Z</time></trkpt><trkpt lat="45.0051817" lon="12.1744267"><ele>-5.0</ele><time>2026-04-12T14:20:17.306Z</time></trkpt><trkpt lat="45.00519" lon="12.174125"><ele>-4.666666666666667</ele><time>2026-04-12T14:20:18.306Z</time></trkpt><trkpt lat="45.0051983" lon="12.1738283"><ele>-4.333333333333333</ele><time>2026-04-12T14:20:19.306Z</time></trkpt><trkpt lat="45.0052083" lon="12.1735217"><ele>-4.0</ele><time>2026-04-12T14:20:20.306Z</time></trkpt><trkpt lat="45.0052083" lon="12.1732067"><ele>-3.0</ele><time>2026-04-12T14:20:21.307Z</time></trkpt><trkpt lat="45.00522" lon="12.1728933"><ele>-2.0</ele><time>2026-04-12T14:20:22.306Z</time></trkpt><trkpt lat="45.0052317" lon="12.1725667"><ele>-2.0</ele><time>2026-04-12T14:20:23.306Z</time></trkpt><trkpt lat="45.005245" lon="12.17223"><ele>-2.0</ele><time>2026-04-12T14:20:24.307Z</time></trkpt><trkpt lat="45.0052583" lon="12.1718983"><ele>-2.0</ele><time>2026-04-12T14:20:25.306Z</time></trkpt><trkpt lat="45.005275" lon="12.1715667"><ele>-2.0</ele><time>2026-04-12T14:20:26.307Z</time></trkpt><trkpt lat="45.0052967" lon="12.171235"><ele>-2.5</ele><time>2026-04-12T14:20:27.306Z</time></trkpt><trkpt lat="45.00532" lon="12.170895"><ele>-3.0</ele><time>2026-04-12T14:20:28.307Z</time></trkpt><trkpt lat="45.0053333" lon="12.17055"><ele>-2.0</ele><time>2026-04-12T14:20:29.306Z</time></trkpt><trkpt lat="45.0053467" lon="12.1702133"><ele>-1.0</ele><time>2026-04-12T14:20:30.306Z</time></trkpt><trkpt lat="45.0053617" lon="12.1698767"><ele>-1.5</ele><time>2026-04-12T14:20:31.306Z</time></trkpt><trkpt lat="45.00538" lon="12.1695433"><ele>-2.0</ele><time>2026-04-12T14:20:32.306Z</time></trkpt><trkpt lat="45.0053917" lon="12.1692067"><ele>-2.5</ele><time>2026-04-12T14:20:33.306Z</time></trkpt><trkpt lat="45.00541" lon="12.1688667"><ele>-3.0</ele><time>2026-04-12T14:20:34.306Z</time></trkpt><trkpt lat="45.005425" lon="12.16852"><ele>-3.5</ele><time>2026-04-12T14:20:35.306Z</time></trkpt><trkpt lat="45.0054367" lon="12.1681817"><ele>-4.0</ele><time>2026-04-12T14:20:36.306Z</time></trkpt><trkpt lat="45.0054517" lon="12.1678433"><ele>-4.0</ele><time>2026-04-12T14:20:37.307Z</time></trkpt><trkpt lat="45.0054683" lon="12.1674983"><ele>-4.0</ele><time>2026-04-12T14:20:38.306Z</time></trkpt><trkpt lat="45.0054867" lon="12.1671517"><ele>-4.5</ele><time>2026-04-12T14:20:39.306Z</time></trkpt><trkpt lat="45.0054967" lon="12.1668167"><ele>-5.0</ele><time>2026-04-12T14:20:40.307Z</time></trkpt><trkpt lat="45.0055133" lon="12.1664683"><ele>-5.5</ele><time>2026-04-12T14:20:41.306Z</time></trkpt><trkpt lat="45.0055267" lon="12.1661217"><ele>-6.0</ele><time>2026-04-12T14:20:42.306Z</time></trkpt><trkpt lat="45.0055383" lon="12.1657817"><ele>-5.0</ele><time>2026-04-12T14:20:43.306Z</time></trkpt><trkpt lat="45.0055533" lon="12.1654333"><ele>-4.0</ele><time>2026-04-12T14:20:44.307Z</time></trkpt><trkpt lat="45.0055683" lon="12.165085"><ele>-3.5</ele><time>2026-04-12T14:20:45.306Z</time></trkpt><trkpt lat="45.00558" lon="12.1647383"><ele>-3.0</ele><time>2026-04-12T14:20:46.306Z</time></trkpt><trkpt lat="45.00559" lon="12.16439"><ele>-3.0</ele><time>2026-04-12T14:20:47.306Z</time></trkpt><trkpt lat="45.0056033" lon="12.16404"><ele>-3.0</ele><time>2026-04-12T14:20:48.306Z</time></trkpt><trkpt lat="45.00562" lon="12.16371"><ele>-3.0</ele><time>2026-04-12T14:20:49.307Z</time></trkpt><trkpt lat="45.0056333" lon="12.1633783"><ele>-3.0</ele><time>2026-04-12T14:20:50.306Z</time></trkpt><trkpt lat="45.005645" lon="12.1630717"><ele>-3.0</ele><time>2026-04-12T14:20:51.306Z</time></trkpt><trkpt lat="45.00566" lon="12.1627783"><ele>-3.0</ele><time>2026-04-12T14:20:52.306Z</time></trkpt><trkpt lat="45.0056683" lon="12.162505"><ele>-3.0</ele><time>2026-04-12T14:20:53.307Z</time></trkpt><trkpt lat="45.005675" lon="12.1622383"><ele>-3.0</ele><time>2026-04-12T14:20:54.306Z</time></trkpt><trkpt lat="45.0056833" lon="12.161975"><ele>-3.0</ele><time>2026-04-12T14:20:55.306Z</time></trkpt><trkpt lat="45.00569" lon="12.161695"><ele>-3.0</ele><time>2026-04-12T14:20:56.307Z</time></trkpt><trkpt lat="45.0056917" lon="12.1614033"><ele>-3.0</ele><time>2026-04-12T14:20:57.306Z</time></trkpt><trkpt lat="45.0056917" lon="12.1610883"><ele>-3.0</ele><time>2026-04-12T14:20:58.306Z</time></trkpt><trkpt lat="45.0057" lon="12.1607617"><ele>-3.5</ele><time>2026-04-12T14:20:59.306Z</time></trkpt><trkpt lat="45.00571" lon="12.1604283"><ele>-4.0</ele><time>2026-04-12T14:21:00.306Z</time></trkpt><trkpt lat="45.0057267" lon="12.160095"><ele>-4.5</ele><time>2026-04-12T14:21:01.307Z</time></trkpt><trkpt lat="45.0057533" lon="12.1597567"><ele>-5.0</ele><time>2026-04-12T14:21:02.306Z</time></trkpt><trkpt lat="45.00578" lon="12.1594067"><ele>-5.0</ele><time>2026-04-12T14:21:03.306Z</time></trkpt><trkpt lat="45.0058" lon="12.1590583"><ele>-5.0</ele><time>2026-04-12T14:21:04.307Z</time></trkpt><trkpt lat="45.0058133" lon="12.158715"><ele>-5.0</ele><time>2026-04-12T14:21:05.306Z</time></trkpt><trkpt lat="45.0058267" lon="12.1583717"><ele>-5.0</ele><time>2026-04-12T14:21:06.307Z</time></trkpt><trkpt lat="45.0058417" lon="12.1580233"><ele>-4.5</ele><time>2026-04-12T14:21:07.306Z</time></trkpt><trkpt lat="45.0058583" lon="12.15768"><ele>-4.0</ele><time>2026-04-12T14:21:08.307Z</time></trkpt><trkpt lat="45.005875" lon="12.15734"><ele>-4.0</ele><time>2026-04-12T14:21:09.306Z</time></trkpt><trkpt lat="45.0058867" lon="12.157"><ele>-4.0</ele><time>2026-04-12T14:21:10.307Z</time></trkpt><trkpt lat="45.0059" lon="12.15666"><ele>-4.5</ele><time>2026-04-12T14:21:11.307Z</time></trkpt><trkpt lat="45.00591" lon="12.1563167"><ele>-5.0</ele><time>2026-04-12T14:21:12.306Z</time></trkpt><trkpt lat="45.0059217" lon="12.1559767"><ele>-4.5</ele><time>2026-04-12T14:21:13.306Z</time></trkpt><trkpt lat="45.0059317" lon="12.155645"><ele>-4.0</ele><time>2026-04-12T14:21:14.306Z</time></trkpt><trkpt lat="45.0059383" lon="12.15531"><ele>-4.0</ele><time>2026-04-12T14:21:15.306Z</time></trkpt><trkpt lat="45.00595" lon="12.154975"><ele>-4.0</ele><time>2026-04-12T14:21:16.307Z</time></trkpt><trkpt lat="45.0059633" lon="12.1546417"><ele>-4.0</ele><time>2026-04-12T14:21:17.306Z</time></trkpt><trkpt lat="45.0059767" lon="12.154295"><ele>-4.0</ele><time>2026-04-12T14:21:18.306Z</time></trkpt><trkpt lat="45.00599" lon="12.1539467"><ele>-3.5</ele><time>2026-04-12T14:21:19.306Z</time></trkpt><trkpt lat="45.0060033" lon="12.1536"><ele>-3.0</ele><time>2026-04-12T14:21:20.307Z</time></trkpt><trkpt lat="45.0060183" lon="12.1532517"><ele>-3.5</ele><time>2026-04-12T14:21:21.306Z</time></trkpt><trkpt lat="45.0060333" lon="12.152905"><ele>-4.0</ele><time>2026-04-12T14:21:22.306Z</time></trkpt><trkpt lat="45.0060517" lon="12.1525517"><ele>-3.5</ele><time>2026-04-12T14:21:23.307Z</time></trkpt><trkpt lat="45.0060667" lon="12.1521917"><ele>-3.0</ele><time>2026-04-12T14:21:24.306Z</time></trkpt><trkpt lat="45.0060833" lon="12.1518317"><ele>-2.5</ele><time>2026-04-12T14:21:25.306Z</time></trkpt><trkpt lat="45.0060967" lon="12.151475"><ele>-2.0</ele><time>2026-04-12T14:21:26.307Z</time></trkpt><trkpt lat="45.0061183" lon="12.1511183"><ele>-2.0</ele><time>2026-04-12T14:21:27.306Z</time></trkpt><trkpt lat="45.0061383" lon="12.15076"><ele>-2.0</ele><time>2026-04-12T14:21:28.306Z</time></trkpt><trkpt lat="45.0061617" lon="12.150405"><ele>-2.0</ele><time>2026-04-12T14:21:29.306Z</time></trkpt><trkpt lat="45.0061817" lon="12.1500483"><ele>-2.0</ele><time>2026-04-12T14:21:30.306Z</time></trkpt><trkpt lat="45.0062033" lon="12.1496817"><ele>-2.0</ele><time>2026-04-12T14:21:31.306Z</time></trkpt><trkpt lat="45.0062233" lon="12.1493167"><ele>-2.0</ele><time>2026-04-12T14:21:32.306Z</time></trkpt><trkpt lat="45.0062433" lon="12.148955"><ele>-2.5</ele><time>2026-04-12T14:21:33.307Z</time></trkpt><trkpt lat="45.0062633" lon="12.1485933"><ele>-3.0</ele><time>2026-04-12T14:21:34.307Z</time></trkpt><trkpt lat="45.0062817" lon="12.1482317"><ele>-2.5</ele><time>2026-04-12T14:21:35.307Z</time></trkpt><trkpt lat="45.0062983" lon="12.1478567"><ele>-2.0</ele><time>2026-04-12T14:21:36.307Z</time></trkpt><trkpt lat="45.006305" lon="12.1474767"><ele>-2.0</ele><time>2026-04-12T14:21:37.307Z</time></trkpt><trkpt lat="45.0063117" lon="12.1470817"><ele>-2.0</ele><time>2026-04-12T14:21:38.306Z</time></trkpt><trkpt lat="45.00631" lon="12.146695"><ele>-2.0</ele><time>2026-04-12T14:21:39.306Z</time></trkpt><trkpt lat="45.00631" lon="12.1463"><ele>-2.0</ele><time>2026-04-12T14:21:40.307Z</time></trkpt><trkpt lat="45.0063067" lon="12.14591"><ele>-2.0</ele><time>2026-04-12T14:21:41.306Z</time></trkpt><trkpt lat="45.0063" lon="12.145515"><ele>-2.0</ele><time>2026-04-12T14:21:42.306Z</time></trkpt><trkpt lat="45.0063" lon="12.1451217"><ele>-2.0</ele><time>2026-04-12T14:21:43.306Z</time></trkpt><trkpt lat="45.0062967" lon="12.1447267"><ele>-2.0</ele><time>2026-04-12T14:21:44.306Z</time></trkpt><trkpt lat="45.0062917" lon="12.1439483"><ele>-2.0</ele><time>2026-04-12T14:21:46.306Z</time></trkpt><trkpt lat="45.0062883" lon="12.1435667"><ele>-2.0</ele><time>2026-04-12T14:21:47.306Z</time></trkpt><trkpt lat="45.0062933" lon="12.1431867"><ele>-2.5</ele><time>2026-04-12T14:21:48.306Z</time></trkpt><trkpt lat="45.0062917" lon="12.1428083"><ele>-3.0</ele><time>2026-04-12T14:21:49.306Z</time></trkpt><trkpt lat="45.006305" lon="12.1424283"><ele>-2.5</ele><time>2026-04-12T14:21:50.306Z</time></trkpt><trkpt lat="45.0063167" lon="12.1420467"><ele>-2.0</ele><time>2026-04-12T14:21:51.307Z</time></trkpt><trkpt lat="45.006335" lon="12.1416617"><ele>-2.0</ele><time>2026-04-12T14:21:52.307Z</time></trkpt><trkpt lat="45.0063533" lon="12.1412767"><ele>-2.0</ele><time>2026-04-12T14:21:53.306Z</time></trkpt><trkpt lat="45.00638" lon="12.14089"><ele>-3.0</ele><time>2026-04-12T14:21:54.307Z</time></trkpt><trkpt lat="45.006405" lon="12.1405"><ele>-4.0</ele><time>2026-04-12T14:21:55.306Z</time></trkpt><trkpt lat="45.0064317" lon="12.1401083"><ele>-3.5</ele><time>2026-04-12T14:21:56.306Z</time></trkpt><trkpt lat="45.0064517" lon="12.13972"><ele>-3.0</ele><time>2026-04-12T14:21:57.306Z</time></trkpt><trkpt lat="45.0064783" lon="12.1393267"><ele>-3.0</ele><time>2026-04-12T14:21:58.306Z</time></trkpt><trkpt lat="45.0065017" lon="12.138925"><ele>-3.0</ele><time>2026-04-12T14:21:59.306Z</time></trkpt><trkpt lat="45.00652" lon="12.1385233"><ele>-3.0</ele><time>2026-04-12T14:22:00.306Z</time></trkpt><trkpt lat="45.0065383" lon="12.1381333"><ele>-3.0</ele><time>2026-04-12T14:22:01.306Z</time></trkpt><trkpt lat="45.0065567" lon="12.1377433"><ele>-3.0</ele><time>2026-04-12T14:22:02.306Z</time></trkpt><trkpt lat="45.00658" lon="12.1373567"><ele>-3.0</ele><time>2026-04-12T14:22:03.306Z</time></trkpt><trkpt lat="45.006605" lon="12.1369667"><ele>-3.0</ele><time>2026-04-12T14:22:04.307Z</time></trkpt><trkpt lat="45.0066317" lon="12.13658"><ele>-3.0</ele><time>2026-04-12T14:22:05.307Z</time></trkpt><trkpt lat="45.00666" lon="12.136205"><ele>-2.5</ele><time>2026-04-12T14:22:06.307Z</time></trkpt><trkpt lat="45.0066933" lon="12.13583"><ele>-2.0</ele><time>2026-04-12T14:22:07.306Z</time></trkpt><trkpt lat="45.0067283" lon="12.1354633"><ele>-2.0</ele><time>2026-04-12T14:22:08.306Z</time></trkpt><trkpt lat="45.006765" lon="12.13511"><ele>-2.0</ele><time>2026-04-12T14:22:09.307Z</time></trkpt><trkpt lat="45.0068017" lon="12.1347633"><ele>-2.0</ele><time>2026-04-12T14:22:10.306Z</time></trkpt><trkpt lat="45.0068467" lon="12.134415"><ele>-2.0</ele><time>2026-04-12T14:22:11.306Z</time></trkpt><trkpt lat="45.0068883" lon="12.134075"><ele>-1.5</ele><time>2026-04-12T14:22:12.306Z</time></trkpt><trkpt lat="45.006935" lon="12.1337333"><ele>-1.0</ele><time>2026-04-12T14:22:13.306Z</time></trkpt><trkpt lat="45.0069783" lon="12.1334017"><ele>-1.6666666666666665</ele><time>2026-04-12T14:22:14.306Z</time></trkpt><trkpt lat="45.0070183" lon="12.1330783"><ele>-2.3333333333333335</ele><time>2026-04-12T14:22:15.306Z</time></trkpt><trkpt lat="45.0070517" lon="12.132775"><ele>-3.0</ele><time>2026-04-12T14:22:16.306Z</time></trkpt><trkpt lat="45.0070867" lon="12.132465"><ele>-2.6666666666666665</ele><time>2026-04-12T14:22:17.307Z</time></trkpt><trkpt lat="45.0071217" lon="12.1321617"><ele>-2.333333333333333</ele><time>2026-04-12T14:22:18.306Z</time></trkpt><trkpt lat="45.0071633" lon="12.1318717"><ele>-2.0</ele><time>2026-04-12T14:22:19.307Z</time></trkpt><trkpt lat="45.0071967" lon="12.1315817"><ele>-2.0</ele><time>2026-04-12T14:22:20.306Z</time></trkpt><trkpt lat="45.0072317" lon="12.1313"><ele>-2.0</ele><time>2026-04-12T14:22:21.306Z</time></trkpt><trkpt lat="45.0072633" lon="12.13101"><ele>-2.0</ele><time>2026-04-12T14:22:22.306Z</time></trkpt><trkpt lat="45.0072967" lon="12.1306983"><ele>-2.0</ele><time>2026-04-12T14:22:23.307Z</time></trkpt><trkpt lat="45.0073317" lon="12.1303567"><ele>-2.0</ele><time>2026-04-12T14:22:24.306Z</time></trkpt><trkpt lat="45.00737" lon="12.1299933"><ele>-2.5</ele><time>2026-04-12T14:22:25.306Z</time></trkpt><trkpt lat="45.0074083" lon="12.129625"><ele>-3.0</ele><time>2026-04-12T14:22:26.306Z</time></trkpt><trkpt lat="45.007455" lon="12.129245"><ele>-2.5</ele><time>2026-04-12T14:22:27.307Z</time></trkpt><trkpt lat="45.007505" lon="12.1288767"><ele>-2.0</ele><time>2026-04-12T14:22:28.306Z</time></trkpt><trkpt lat="45.0075617" lon="12.1285283"><ele>-2.0</ele><time>2026-04-12T14:22:29.306Z</time></trkpt><trkpt lat="45.0076167" lon="12.12819"><ele>-2.0</ele><time>2026-04-12T14:22:30.306Z</time></trkpt><trkpt lat="45.0076567" lon="12.12786"><ele>-2.0</ele><time>2026-04-12T14:22:31.307Z</time></trkpt><trkpt lat="45.0076883" lon="12.1275417"><ele>-2.0</ele><time>2026-04-12T14:22:32.306Z</time></trkpt><trkpt lat="45.007725" lon="12.12723"><ele>-2.333333333333333</ele><time>2026-04-12T14:22:33.306Z</time></trkpt><trkpt lat="45.0077617" lon="12.12693"><ele>-2.6666666666666665</ele><time>2026-04-12T14:22:34.306Z</time></trkpt><trkpt lat="45.0078017" lon="12.1266383"><ele>-3.0</ele><time>2026-04-12T14:22:35.306Z</time></trkpt><trkpt lat="45.0078333" lon="12.1263567"><ele>-3.0</ele><time>2026-04-12T14:22:36.306Z</time></trkpt><trkpt lat="45.0078717" lon="12.1260633"><ele>-3.0</ele><time>2026-04-12T14:22:37.307Z</time></trkpt><trkpt lat="45.00791" lon="12.1257717"><ele>-3.0</ele><time>2026-04-12T14:22:38.306Z</time></trkpt><trkpt lat="45.0079483" lon="12.125475"><ele>-2.6666666666666665</ele><time>2026-04-12T14:22:39.307Z</time></trkpt><trkpt lat="45.007985" lon="12.12517"><ele>-2.333333333333333</ele><time>2026-04-12T14:22:40.306Z</time></trkpt><trkpt lat="45.0080267" lon="12.124865"><ele>-2.0</ele><time>2026-04-12T14:22:41.307Z</time></trkpt><trkpt lat="45.0080683" lon="12.1245517"><ele>-1.5</ele><time>2026-04-12T14:22:42.306Z</time></trkpt><trkpt lat="45.00811" lon="12.12423"><ele>-1.0</ele><time>2026-04-12T14:22:43.306Z</time></trkpt><trkpt lat="45.0081533" lon="12.123905"><ele>-1.0</ele><time>2026-04-12T14:22:44.306Z</time></trkpt><trkpt lat="45.00819" lon="12.1235817"><ele>-1.0</ele><time>2026-04-12T14:22:45.306Z</time></trkpt><trkpt lat="45.0082283" lon="12.123255"><ele>-0.5</ele><time>2026-04-12T14:22:46.306Z</time></trkpt><trkpt lat="45.0082667" lon="12.1229233"><ele>0.0</ele><time>2026-04-12T14:22:47.306Z</time></trkpt><trkpt lat="45.0083083" lon="12.1225933"><ele>-0.6666666666666666</ele><time>2026-04-12T14:22:48.307Z</time></trkpt><trkpt lat="45.0083433" lon="12.12228"><ele>-1.3333333333333333</ele><time>2026-04-12T14:22:49.307Z</time></trkpt><trkpt lat="45.0083833" lon="12.1219683"><ele>-2.0</ele><time>2026-04-12T14:22:50.307Z</time></trkpt><trkpt lat="45.0084233" lon="12.1216567"><ele>-2.0</ele><time>2026-04-12T14:22:51.306Z</time></trkpt><trkpt lat="45.008465" lon="12.12134"><ele>-2.0</ele><time>2026-04-12T14:22:52.306Z</time></trkpt><trkpt lat="45.0085067" lon="12.1210167"><ele>-2.0</ele><time>2026-04-12T14:22:53.306Z</time></trkpt><trkpt lat="45.0085483" lon="12.1207"><ele>-2.0</ele><time>2026-04-12T14:22:54.306Z</time></trkpt><trkpt lat="45.0085833" lon="12.120395"><ele>-2.0</ele><time>2026-04-12T14:22:55.306Z</time></trkpt><trkpt lat="45.0086167" lon="12.120105"><ele>-2.0</ele><time>2026-04-12T14:22:56.306Z</time></trkpt><trkpt lat="45.0086567" lon="12.1198267"><ele>-2.0</ele><time>2026-04-12T14:22:57.307Z</time></trkpt><trkpt lat="45.0086933" lon="12.119545"><ele>-2.0</ele><time>2026-04-12T14:22:58.306Z</time></trkpt><trkpt lat="45.0087267" lon="12.1192717"><ele>-2.0</ele><time>2026-04-12T14:22:59.306Z</time></trkpt><trkpt lat="45.0087567" lon="12.1190117"><ele>-2.0</ele><time>2026-04-12T14:23:00.306Z</time></trkpt><trkpt lat="45.0087867" lon="12.1187517"><ele>-2.0</ele><time>2026-04-12T14:23:01.306Z</time></trkpt><trkpt lat="45.0088167" lon="12.1184883"><ele>-2.0</ele><time>2026-04-12T14:23:02.306Z</time></trkpt><trkpt lat="45.00885" lon="12.1182217"><ele>-2.0</ele><time>2026-04-12T14:23:03.306Z</time></trkpt><trkpt lat="45.008885" lon="12.1179533"><ele>-2.0</ele><time>2026-04-12T14:23:04.307Z</time></trkpt><trkpt lat="45.0089183" lon="12.1176933"><ele>-2.0</ele><time>2026-04-12T14:23:05.306Z</time></trkpt><trkpt lat="45.00895" lon="12.1174483"><ele>-2.0</ele><time>2026-04-12T14:23:06.306Z</time></trkpt><trkpt lat="45.0089833" lon="12.1172083"><ele>-2.0</ele><time>2026-04-12T14:23:07.307Z</time></trkpt><trkpt lat="45.0090117" lon="12.1169767"><ele>-1.6666666666666665</ele><time>2026-04-12T14:23:08.306Z</time></trkpt><trkpt lat="45.0090367" lon="12.11676"><ele>-1.3333333333333333</ele><time>2026-04-12T14:23:09.306Z</time></trkpt><trkpt lat="45.0090633" lon="12.1165433"><ele>-1.0</ele><time>2026-04-12T14:23:10.306Z</time></trkpt><trkpt lat="45.009085" lon="12.11633"><ele>-1.0</ele><time>2026-04-12T14:23:11.306Z</time></trkpt><trkpt lat="45.0091117" lon="12.11612"><ele>-1.0</ele><time>2026-04-12T14:23:12.306Z</time></trkpt><trkpt lat="45.0091383" lon="12.11592"><ele>-1.0</ele><time>2026-04-12T14:23:13.307Z</time></trkpt><trkpt lat="45.009165" lon="12.1157267"><ele>-1.0</ele><time>2026-04-12T14:23:14.306Z</time></trkpt><trkpt lat="45.0091883" lon="12.1155383"><ele>-1.0</ele><time>2026-04-12T14:23:15.307Z</time></trkpt><trkpt lat="45.009215" lon="12.1153367"><ele>-1.0</ele><time>2026-04-12T14:23:16.306Z</time></trkpt><trkpt lat="45.00924" lon="12.1151333"><ele>-1.0</ele><time>2026-04-12T14:23:17.306Z</time></trkpt><trkpt lat="45.0092667" lon="12.1149233"><ele>-1.0</ele><time>2026-04-12T14:23:18.306Z</time></trkpt><trkpt lat="45.009295" lon="12.1147117"><ele>-0.6666666666666666</ele><time>2026-04-12T14:23:19.306Z</time></trkpt><trkpt lat="45.00932" lon="12.1144983"><ele>-0.3333333333333333</ele><time>2026-04-12T14:23:20.307Z</time></trkpt><trkpt lat="45.009345" lon="12.11428"><ele>0.0</ele><time>2026-04-12T14:23:21.306Z</time></trkpt><trkpt lat="45.0093717" lon="12.114045"><ele>-0.6666666666666666</ele><time>2026-04-12T14:23:22.306Z</time></trkpt><trkpt lat="45.0093983" lon="12.11381"><ele>-1.3333333333333333</ele><time>2026-04-12T14:23:23.306Z</time></trkpt><trkpt lat="45.0094267" lon="12.11358"><ele>-2.0</ele><time>2026-04-12T14:23:24.306Z</time></trkpt><trkpt lat="45.009465" lon="12.1133467"><ele>-2.0</ele><time>2026-04-12T14:23:25.306Z</time></trkpt><trkpt lat="45.0095033" lon="12.1131083"><ele>-2.0</ele><time>2026-04-12T14:23:26.306Z</time></trkpt><trkpt lat="45.009545" lon="12.112865"><ele>-2.0</ele><time>2026-04-12T14:23:27.306Z</time></trkpt><trkpt lat="45.0095783" lon="12.1126233"><ele>-1.6666666666666665</ele><time>2026-04-12T14:23:28.306Z</time></trkpt><trkpt lat="45.0096133" lon="12.1123717"><ele>-1.3333333333333333</ele><time>2026-04-12T14:23:29.307Z</time></trkpt><trkpt lat="45.0096483" lon="12.112115"><ele>-1.0</ele><time>2026-04-12T14:23:30.307Z</time></trkpt><trkpt lat="45.0096833" lon="12.1118567"><ele>-1.0</ele><time>2026-04-12T14:23:31.306Z</time></trkpt><trkpt lat="45.0097167" lon="12.111585"><ele>-1.0</ele><time>2026-04-12T14:23:32.306Z</time></trkpt><trkpt lat="45.009755" lon="12.11131"><ele>-1.0</ele><time>2026-04-12T14:23:33.307Z</time></trkpt><trkpt lat="45.0098" lon="12.1110267"><ele>-1.6666666666666665</ele><time>2026-04-12T14:23:34.306Z</time></trkpt><trkpt lat="45.0098467" lon="12.11074"><ele>-2.3333333333333335</ele><time>2026-04-12T14:23:35.306Z</time></trkpt><trkpt lat="45.0098917" lon="12.1104517"><ele>-3.0</ele><time>2026-04-12T14:23:36.306Z</time></trkpt><trkpt lat="45.0099317" lon="12.110155"><ele>-3.333333333333333</ele><time>2026-04-12T14:23:37.306Z</time></trkpt><trkpt lat="45.009975" lon="12.1098533"><ele>-3.6666666666666665</ele><time>2026-04-12T14:23:38.307Z</time></trkpt><trkpt lat="45.010015" lon="12.1095517"><ele>-4.0</ele><time>2026-04-12T14:23:39.306Z</time></trkpt><trkpt lat="45.0100567" lon="12.109245"><ele>-3.333333333333333</ele><time>2026-04-12T14:23:40.306Z</time></trkpt><trkpt lat="45.0100967" lon="12.10894"><ele>-2.6666666666666665</ele><time>2026-04-12T14:23:41.306Z</time></trkpt><trkpt lat="45.0101417" lon="12.1086233"><ele>-2.0</ele><time>2026-04-12T14:23:42.306Z</time></trkpt><trkpt lat="45.010185" lon="12.1083133"><ele>-2.0</ele><time>2026-04-12T14:23:43.306Z</time></trkpt><trkpt lat="45.0102333" lon="12.1080017"><ele>-2.0</ele><time>2026-04-12T14:23:44.306Z</time></trkpt><trkpt lat="45.0102783" lon="12.1076883"><ele>-1.0</ele><time>2026-04-12T14:23:45.306Z</time></trkpt><trkpt lat="45.010325" lon="12.1073717"><ele>0.0</ele><time>2026-04-12T14:23:46.306Z</time></trkpt><trkpt lat="45.0103683" lon="12.107055"><ele>0.0</ele><time>2026-04-12T14:23:47.306Z</time></trkpt><trkpt lat="45.010415" lon="12.106735"><ele>0.0</ele><time>2026-04-12T14:23:48.307Z</time></trkpt><trkpt lat="45.0104617" lon="12.1064117"><ele>0.0</ele><time>2026-04-12T14:23:49.306Z</time></trkpt><trkpt lat="45.010515" lon="12.1060783"><ele>0.0</ele><time>2026-04-12T14:23:50.306Z</time></trkpt><trkpt lat="45.0105633" lon="12.1057483"><ele>-1.0</ele><time>2026-04-12T14:23:51.307Z</time></trkpt><trkpt lat="45.0106117" lon="12.105415"><ele>-2.0</ele><time>2026-04-12T14:23:52.306Z</time></trkpt><trkpt lat="45.0106617" lon="12.1050717"><ele>-2.0</ele><time>2026-04-12T14:23:53.307Z</time></trkpt><trkpt lat="45.0107033" lon="12.104735"><ele>-2.0</ele><time>2026-04-12T14:23:54.306Z</time></trkpt><trkpt lat="45.0107467" lon="12.104415"><ele>-2.0</ele><time>2026-04-12T14:23:55.307Z</time></trkpt><trkpt lat="45.010785" lon="12.1041067"><ele>-2.0</ele><time>2026-04-12T14:23:56.306Z</time></trkpt><trkpt lat="45.0108217" lon="12.103795"><ele>-2.0</ele><time>2026-04-12T14:23:57.307Z</time></trkpt><trkpt lat="45.01084" lon="12.1034733"><ele>-2.333333333333333</ele><time>2026-04-12T14:23:58.306Z</time></trkpt><trkpt lat="45.0108367" lon="12.1031617"><ele>-2.6666666666666665</ele><time>2026-04-12T14:23:59.306Z</time></trkpt><trkpt lat="45.010815" lon="12.1028683"><ele>-3.0</ele><time>2026-04-12T14:24:00.306Z</time></trkpt><trkpt lat="45.0107767" lon="12.1025917"><ele>-2.6666666666666665</ele><time>2026-04-12T14:24:01.307Z</time></trkpt><trkpt lat="45.0107283" lon="12.1023417"><ele>-2.333333333333333</ele><time>2026-04-12T14:24:02.306Z</time></trkpt><trkpt lat="45.0106783" lon="12.1021017"><ele>-2.0</ele><time>2026-04-12T14:24:03.307Z</time></trkpt><trkpt lat="45.01063" lon="12.101865"><ele>-2.0</ele><time>2026-04-12T14:24:04.306Z</time></trkpt><trkpt lat="45.01058" lon="12.1016433"><ele>-2.0</ele><time>2026-04-12T14:24:05.306Z</time></trkpt><trkpt lat="45.01053" lon="12.1014333"><ele>-2.0</ele><time>2026-04-12T14:24:06.307Z</time></trkpt><trkpt lat="45.0104867" lon="12.1012333"><ele>-2.25</ele><time>2026-04-12T14:24:07.306Z</time></trkpt><trkpt lat="45.0104567" lon="12.1010467"><ele>-2.5</ele><time>2026-04-12T14:24:08.306Z</time></trkpt><trkpt lat="45.0104483" lon="12.1008683"><ele>-2.75</ele><time>2026-04-12T14:24:09.307Z</time></trkpt><trkpt lat="45.0104667" lon="12.1006967"><ele>-3.0</ele><time>2026-04-12T14:24:10.306Z</time></trkpt><trkpt lat="45.0104983" lon="12.1005383"><ele>-2.6</ele><time>2026-04-12T14:24:11.306Z</time></trkpt><trkpt lat="45.0105283" lon="12.1003967"><ele>-2.1999999999999997</ele><time>2026-04-12T14:24:12.306Z</time></trkpt><trkpt lat="45.010545" lon="12.1002567"><ele>-1.8</ele><time>2026-04-12T14:24:13.306Z</time></trkpt><trkpt lat="45.010555" lon="12.1001233"><ele>-1.4</ele><time>2026-04-12T14:24:14.307Z</time></trkpt><trkpt lat="45.0105617" lon="12.0999967"><ele>-1.0</ele><time>2026-04-12T14:24:15.306Z</time></trkpt><trkpt lat="45.010565" lon="12.0998783"><ele>-0.8333333333333333</ele><time>2026-04-12T14:24:16.307Z</time></trkpt><trkpt lat="45.0105617" lon="12.0997633"><ele>-0.6666666666666666</ele><time>2026-04-12T14:24:17.306Z</time></trkpt><trkpt lat="45.0105583" lon="12.0996567"><ele>-0.5</ele><time>2026-04-12T14:24:18.306Z</time></trkpt><trkpt lat="45.0105533" lon="12.09954"><ele>-0.3333333333333333</ele><time>2026-04-12T14:24:19.306Z</time></trkpt><trkpt lat="45.0105483" lon="12.0994167"><ele>-0.16666666666666666</ele><time>2026-04-12T14:24:20.307Z</time></trkpt><trkpt lat="45.0105533" lon="12.099285"><ele>0.0</ele><time>2026-04-12T14:24:21.306Z</time></trkpt><trkpt lat="45.0105767" lon="12.0991433"><ele>-0.2</ele><time>2026-04-12T14:24:22.306Z</time></trkpt><trkpt lat="45.010615" lon="12.099"><ele>-0.4</ele><time>2026-04-12T14:24:23.306Z</time></trkpt><trkpt lat="45.0106667" lon="12.0988667"><ele>-0.6000000000000001</ele><time>2026-04-12T14:24:24.306Z</time></trkpt><trkpt lat="45.01074" lon="12.0987533"><ele>-0.8</ele><time>2026-04-12T14:24:25.306Z</time></trkpt><trkpt lat="45.010825" lon="12.0986683"><ele>-1.0</ele><time>2026-04-12T14:24:26.307Z</time></trkpt><trkpt lat="45.01092" lon="12.098595"><ele>-1.0</ele><time>2026-04-12T14:24:27.307Z</time></trkpt><trkpt lat="45.01102" lon="12.0985483"><ele>-1.0</ele><time>2026-04-12T14:24:28.306Z</time></trkpt><trkpt lat="45.0111217" lon="12.0985333"><ele>-1.0</ele><time>2026-04-12T14:24:29.306Z</time></trkpt><trkpt lat="45.0112183" lon="12.0985333"><ele>-1.0</ele><time>2026-04-12T14:24:30.306Z</time></trkpt><trkpt lat="45.011295" lon="12.0985433"><ele>-1.0</ele><time>2026-04-12T14:24:31.306Z</time></trkpt><trkpt lat="45.0113733" lon="12.09858"><ele>-1.0</ele><time>2026-04-12T14:24:33.306Z</time></trkpt><trkpt lat="45.011435" lon="12.098615"><ele>-1.0</ele><time>2026-04-12T14:24:36.306Z</time></trkpt><trkpt lat="45.0115067" lon="12.0986533"><ele>-1.0</ele><time>2026-04-12T14:24:41.306Z</time></trkpt><trkpt lat="45.0115733" lon="12.09869"><ele>-1.0</ele><time>2026-04-12T14:24:42.306Z</time></trkpt><trkpt lat="45.0116783" lon="12.098745"><ele>-1.0</ele><time>2026-04-12T14:24:43.306Z</time></trkpt><trkpt lat="45.011815" lon="12.09882"><ele>-1.0</ele><time>2026-04-12T14:24:44.306Z</time></trkpt><trkpt lat="45.0119783" lon="12.0989117"><ele>-1.0</ele><time>2026-04-12T14:24:45.306Z</time></trkpt><trkpt lat="45.012155" lon="12.0990233"><ele>-1.0</ele><time>2026-04-12T14:24:46.306Z</time></trkpt><trkpt lat="45.0123467" lon="12.099155"><ele>-1.0</ele><time>2026-04-12T14:24:47.306Z</time></trkpt><trkpt lat="45.012545" lon="12.0992917"><ele>-1.0</ele><time>2026-04-12T14:24:48.306Z</time></trkpt><trkpt lat="45.0127667" lon="12.09943"><ele>-1.0</ele><time>2026-04-12T14:24:49.306Z</time></trkpt><trkpt lat="45.013" lon="12.0995667"><ele>-1.0</ele><time>2026-04-12T14:24:50.307Z</time></trkpt><trkpt lat="45.0132617" lon="12.0996867"><ele>-1.0</ele><time>2026-04-12T14:24:51.307Z</time></trkpt><trkpt lat="45.013525" lon="12.0998"><ele>-1.0</ele><time>2026-04-12T14:24:52.307Z</time></trkpt><trkpt lat="45.0138" lon="12.099895"><ele>-1.0</ele><time>2026-04-12T14:24:53.307Z</time></trkpt><trkpt lat="45.01408" lon="12.0999717"><ele>-1.0</ele><time>2026-04-12T14:24:54.306Z</time></trkpt><trkpt lat="45.0143633" lon="12.1000317"><ele>0.0</ele><time>2026-04-12T14:24:55.307Z</time></trkpt><trkpt lat="45.01464" lon="12.1000617"><ele>1.0</ele><time>2026-04-12T14:24:56.306Z</time></trkpt><trkpt lat="45.0149033" lon="12.100075"><ele>1.0</ele><time>2026-04-12T14:24:57.307Z</time></trkpt><trkpt lat="45.01515" lon="12.1000717"><ele>1.0</ele><time>2026-04-12T14:24:58.307Z</time></trkpt><trkpt lat="45.0153883" lon="12.10005"><ele>1.0</ele><time>2026-04-12T14:24:59.306Z</time></trkpt><trkpt lat="45.0156167" lon="12.100035"><ele>1.0</ele><time>2026-04-12T14:25:00.306Z</time></trkpt><trkpt lat="45.0158283" lon="12.1000167"><ele>1.0</ele><time>2026-04-12T14:25:01.306Z</time></trkpt><trkpt lat="45.0160433" lon="12.099995"><ele>1.3333333333333333</ele><time>2026-04-12T14:25:02.307Z</time></trkpt><trkpt lat="45.0162517" lon="12.099975"><ele>1.6666666666666665</ele><time>2026-04-12T14:25:03.307Z</time></trkpt><trkpt lat="45.016455" lon="12.099955"><ele>2.0</ele><time>2026-04-12T14:25:04.306Z</time></trkpt><trkpt lat="45.0166583" lon="12.0999333"><ele>1.6666666666666665</ele><time>2026-04-12T14:25:05.306Z</time></trkpt><trkpt lat="45.016875" lon="12.099905"><ele>1.3333333333333333</ele><time>2026-04-12T14:25:06.306Z</time></trkpt><trkpt lat="45.0170917" lon="12.0998783"><ele>1.0</ele><time>2026-04-12T14:25:07.306Z</time></trkpt><trkpt lat="45.0173083" lon="12.0998533"><ele>2.0</ele><time>2026-04-12T14:25:08.307Z</time></trkpt><trkpt lat="45.0175333" lon="12.0998367"><ele>3.0</ele><time>2026-04-12T14:25:09.306Z</time></trkpt><trkpt lat="45.0177633" lon="12.0998217"><ele>3.0</ele><time>2026-04-12T14:25:10.307Z</time></trkpt><trkpt lat="45.017995" lon="12.099795"><ele>3.0</ele><time>2026-04-12T14:25:11.306Z</time></trkpt><trkpt lat="45.0182267" lon="12.0997633"><ele>1.0</ele><time>2026-04-12T14:25:12.306Z</time></trkpt><trkpt lat="45.0184533" lon="12.0997433"><ele>-1.0</ele><time>2026-04-12T14:25:13.306Z</time></trkpt><trkpt lat="45.0186817" lon="12.0997133"><ele>-1.0</ele><time>2026-04-12T14:25:14.306Z</time></trkpt><trkpt lat="45.0189117" lon="12.0996833"><ele>-1.0</ele><time>2026-04-12T14:25:15.306Z</time></trkpt><trkpt lat="45.0191383" lon="12.099655"><ele>-0.6666666666666666</ele><time>2026-04-12T14:25:16.306Z</time></trkpt><trkpt lat="45.0193567" lon="12.0996367"><ele>-0.3333333333333333</ele><time>2026-04-12T14:25:17.307Z</time></trkpt><trkpt lat="45.0195667" lon="12.0996167"><ele>0.0</ele><time>2026-04-12T14:25:18.306Z</time></trkpt><trkpt lat="45.019775" lon="12.0996"><ele>0.0</ele><time>2026-04-12T14:25:19.306Z</time></trkpt><trkpt lat="45.01999" lon="12.0995867"><ele>0.0</ele><time>2026-04-12T14:25:20.306Z</time></trkpt><trkpt lat="45.0202083" lon="12.099565"><ele>0.0</ele><time>2026-04-12T14:25:21.306Z</time></trkpt><trkpt lat="45.0204217" lon="12.0995433"><ele>0.0</ele><time>2026-04-12T14:25:22.306Z</time></trkpt><trkpt lat="45.0206417" lon="12.0995133"><ele>0.0</ele><time>2026-04-12T14:25:23.306Z</time></trkpt><trkpt lat="45.020855" lon="12.09949"><ele>0.0</ele><time>2026-04-12T14:25:24.307Z</time></trkpt><trkpt lat="45.021075" lon="12.0994683"><ele>0.0</ele><time>2026-04-12T14:25:25.307Z</time></trkpt><trkpt lat="45.021295" lon="12.09945"><ele>0.0</ele><time>2026-04-12T14:25:26.306Z</time></trkpt><trkpt lat="45.021505" lon="12.0994267"><ele>0.0</ele><time>2026-04-12T14:25:27.307Z</time></trkpt><trkpt lat="45.0217133" lon="12.0994"><ele>0.0</ele><time>2026-04-12T14:25:28.306Z</time></trkpt><trkpt lat="45.0219117" lon="12.0993733"><ele>0.0</ele><time>2026-04-12T14:25:29.306Z</time></trkpt><trkpt lat="45.0221033" lon="12.0993517"><ele>0.0</ele><time>2026-04-12T14:25:30.307Z</time></trkpt><trkpt lat="45.022285" lon="12.0993417"><ele>0.0</ele><time>2026-04-12T14:25:31.306Z</time></trkpt><trkpt lat="45.0224583" lon="12.0993233"><ele>0.0</ele><time>2026-04-12T14:25:32.305Z</time></trkpt><trkpt lat="45.0226467" lon="12.099305"><ele>0.0</ele><time>2026-04-12T14:25:33.306Z</time></trkpt><trkpt lat="45.02282" lon="12.0992883"><ele>0.0</ele><time>2026-04-12T14:25:34.305Z</time></trkpt><trkpt lat="45.0229983" lon="12.09927"><ele>0.0</ele><time>2026-04-12T14:25:35.305Z</time></trkpt><trkpt lat="45.02318" lon="12.0992483"><ele>0.0</ele><time>2026-04-12T14:25:36.306Z</time></trkpt><trkpt lat="45.0233583" lon="12.0992267"><ele>0.0</ele><time>2026-04-12T14:25:37.306Z</time></trkpt><trkpt lat="45.02354" lon="12.0992017"><ele>0.0</ele><time>2026-04-12T14:25:38.305Z</time></trkpt><trkpt lat="45.0237267" lon="12.0991833"><ele>0.0</ele><time>2026-04-12T14:25:39.305Z</time></trkpt><trkpt lat="45.02391" lon="12.0991667"><ele>0.0</ele><time>2026-04-12T14:25:40.305Z</time></trkpt><trkpt lat="45.024105" lon="12.0991483"><ele>0.0</ele><time>2026-04-12T14:25:41.305Z</time></trkpt><trkpt lat="45.0242983" lon="12.09913"><ele>0.0</ele><time>2026-04-12T14:25:42.305Z</time></trkpt><trkpt lat="45.024485" lon="12.09911"><ele>0.0</ele><time>2026-04-12T14:25:43.306Z</time></trkpt><trkpt lat="45.02466" lon="12.099095"><ele>0.0</ele><time>2026-04-12T14:25:44.305Z</time></trkpt><trkpt lat="45.02482" lon="12.0990783"><ele>0.0</ele><time>2026-04-12T14:25:45.305Z</time></trkpt><trkpt lat="45.0249683" lon="12.0990617"><ele>0.0</ele><time>2026-04-12T14:25:46.306Z</time></trkpt><trkpt lat="45.0251267" lon="12.099045"><ele>0.0</ele><time>2026-04-12T14:25:47.305Z</time></trkpt><trkpt lat="45.0252817" lon="12.0990267"><ele>0.0</ele><time>2026-04-12T14:25:48.305Z</time></trkpt><trkpt lat="45.025435" lon="12.09901"><ele>0.0</ele><time>2026-04-12T14:25:49.305Z</time></trkpt><trkpt lat="45.025585" lon="12.0989917"><ele>0.0</ele><time>2026-04-12T14:25:50.305Z</time></trkpt><trkpt lat="45.0257367" lon="12.0989767"><ele>0.0</ele><time>2026-04-12T14:25:51.305Z</time></trkpt><trkpt lat="45.0258967" lon="12.0989667"><ele>-0.3333333333333333</ele><time>2026-04-12T14:25:52.305Z</time></trkpt><trkpt lat="45.0260583" lon="12.0989483"><ele>-0.6666666666666666</ele><time>2026-04-12T14:25:53.305Z</time></trkpt><trkpt lat="45.0262033" lon="12.098935"><ele>-1.0</ele><time>2026-04-12T14:25:54.305Z</time></trkpt><trkpt lat="45.0263583" lon="12.0989217"><ele>-1.0</ele><time>2026-04-12T14:25:55.305Z</time></trkpt><trkpt lat="45.026525" lon="12.0989083"><ele>-1.0</ele><time>2026-04-12T14:25:56.305Z</time></trkpt><trkpt lat="45.0266933" lon="12.0988933"><ele>-1.0</ele><time>2026-04-12T14:25:57.305Z</time></trkpt><trkpt lat="45.02687" lon="12.0988817"><ele>-1.0</ele><time>2026-04-12T14:25:58.305Z</time></trkpt><trkpt lat="45.02705" lon="12.09887"><ele>-1.0</ele><time>2026-04-12T14:25:59.305Z</time></trkpt><trkpt lat="45.0272383" lon="12.09886"><ele>-1.0</ele><time>2026-04-12T14:26:00.306Z</time></trkpt><trkpt lat="45.0274267" lon="12.0988567"><ele>-1.3333333333333333</ele><time>2026-04-12T14:26:01.305Z</time></trkpt><trkpt lat="45.0276117" lon="12.0988567"><ele>-1.6666666666666665</ele><time>2026-04-12T14:26:02.305Z</time></trkpt><trkpt lat="45.0277867" lon="12.09886"><ele>-2.0</ele><time>2026-04-12T14:26:03.305Z</time></trkpt><trkpt lat="45.0279633" lon="12.098865"><ele>-2.0</ele><time>2026-04-12T14:26:04.305Z</time></trkpt><trkpt lat="45.02814" lon="12.0988767"><ele>-2.0</ele><time>2026-04-12T14:26:05.305Z</time></trkpt><trkpt lat="45.0283167" lon="12.09888"><ele>-2.0</ele><time>2026-04-12T14:26:06.305Z</time></trkpt><trkpt lat="45.028495" lon="12.0988983"><ele>-1.6666666666666665</ele><time>2026-04-12T14:26:07.306Z</time></trkpt><trkpt lat="45.0286733" lon="12.0989183"><ele>-1.3333333333333333</ele><time>2026-04-12T14:26:08.306Z</time></trkpt><trkpt lat="45.02886" lon="12.0989367"><ele>-1.0</ele><time>2026-04-12T14:26:09.305Z</time></trkpt><trkpt lat="45.0290483" lon="12.0989567"><ele>-1.0</ele><time>2026-04-12T14:26:10.306Z</time></trkpt><trkpt lat="45.0292317" lon="12.0989817"><ele>-1.0</ele><time>2026-04-12T14:26:11.305Z</time></trkpt><trkpt lat="45.0294167" lon="12.09901"><ele>-1.0</ele><time>2026-04-12T14:26:12.306Z</time></trkpt><trkpt lat="45.0296" lon="12.0990383"><ele>-1.0</ele><time>2026-04-12T14:26:13.305Z</time></trkpt><trkpt lat="45.0297783" lon="12.0990767"><ele>-1.0</ele><time>2026-04-12T14:26:14.306Z</time></trkpt><trkpt lat="45.0299583" lon="12.09911"><ele>-1.0</ele><time>2026-04-12T14:26:15.305Z</time></trkpt><trkpt lat="45.0301417" lon="12.0991467"><ele>-1.0</ele><time>2026-04-12T14:26:16.305Z</time></trkpt></trkseg></trk></gpx>